# Wetter Temperatur Luftdruck Luftfeuchtigkeit Sichtweite Windgeschwindigkeit Windrichtung Zeit
1 Haze 22 1014 26 6437 1.5 290 22:25 24.01.2020
2 Clear 22 1015 34 16093 3.1 340 21:43 24.01.2020
3 Clear 21 1015 35 16093 2.08 250 21:21 24.01.2020
4 Clear 21 1016 39 16093 2.6 30 20:59 24.01.2020
5 Clear 20 1017 34 16093 3.1 110 20:40 24.01.2020
6 Clear 20 1017 34 16093 3.1 110 20:20 24.01.2020
7 Clear 19 1017 42 16093 3.1 100 19:57 24.01.2020
8 Clear 18 1017 36 16093 2.6 60 19:38 24.01.2020
9 Clear 17 1017 36 16093 2.6 60 19:20 24.01.2020
10 Clear 16 1017 50 16093 5.7 100 18:43 24.01.2020
11 Clear 15 1018 58 16093 3.1 160 18:24 24.01.2020
12 Clear 13 1017 71 16093 5.1 100 17:54 24.01.2020
13 Clear 12 1018 57 16093 6.7 120 17:36 24.01.2020
14 Clear 10 1018 57 16093 6.7 120 17:18 24.01.2020
15 Clear 8 1017 76 16093 4.1 100 16:39 24.01.2020
16 Clear 7 1017 81 16093 2.6 130 16:20 24.01.2020
17 Clear 6 1017 87 16093 2.6 150 15:43 24.01.2020
18 Clear 6 1017 81 16093 0.82 168 15:22 24.01.2020
19 Clear 6 1017 93 16093 2.6 100 14:57 24.01.2020
20 Clear 6 1017 93 16093 2.6 100 14:38 24.01.2020
21 Clear 6 1017 86 16093 3.1 130 14:20 24.01.2020
22 Rain 6 1016 93 16093 0.6 356 13:42 24.01.2020
23 Rain 6 1016 81 16093 2.1 160 13:23 24.01.2020
24 Clear 6 1016 93 16093 0.53 328 12:44 24.01.2020
25 Clear 6 1017 87 16093 2.1 120 12:22 24.01.2020
26 Clear 6 1017 87 16093 3.1 90 11:45 24.01.2020
27 Clear 7 1017 87 16093 3.1 90 11:20 24.01.2020
28 Clear 7 1017 93 16093 2.6 110 10:59 24.01.2020
29 Clear 7 1017 93 16093 2.6 110 10:41 24.01.2020
30 Clear 7 1017 93 16093 2.6 110 10:41 24.01.2020
31 Clear 7 1017 87 16093 3.1 130 10:19 24.01.2020
32 Clear 7 1017 87 16093 1.5 140 09:42 24.01.2020
33 Clear 7 1017 87 16093 1.5 140 09:42 24.01.2020
34 Clear 7 1017 87 16093 3.1 140 09:24 24.01.2020
35 Clear 7 1017 81 16093 3.1 110 08:59 24.01.2020
36 Clear 8 1017 87 16093 2.6 120 08:36 24.01.2020
37 Clear 8 1017 87 16093 2.6 120 08:18 24.01.2020
38 Clear 8 1017 81 16093 2.1 130 07:42 24.01.2020
39 Clear 9 1017 87 16093 3.6 130 07:18 24.01.2020
40 Clear 9 1017 81 16093 1.36 304 06:42 24.01.2020
41 Clear 9 1017 87 16093 2.1 140 06:18 24.01.2020
42 Clear 10 1017 76 16093 1.14 309 05:20 24.01.2020
43 Clear 14 1016 71 16093 2.1 320 02:56 24.01.2020
44 Clear 14 1016 71 16093 2.1 320 02:38 24.01.2020
45 Clear 15 1016 67 16093 4.6 290 02:18 24.01.2020
46 Clear 17 1016 55 16093 3.1 290 01:37 24.01.2020
47 Clear 18 1016 48 16093 4.1 310 00:39 24.01.2020
48 Clear 19 1016 52 16093 2.1 320 23:59 23.01.2020
49 Clear 19 1016 52 16093 2.1 320 23:59 23.01.2020
50 Clear 19 1016 52 16093 2.1 320 23:40 23.01.2020
51 Clear 19 1017 42 16093 4.1 290 23:21 23.01.2020
52 Clear 19 1017 51 16093 1.5 320 22:55 23.01.2020
53 Clear 19 1017 51 16093 1.5 320 22:55 23.01.2020
54 Clear 19 1018 45 16093 4.1 270 22:36 23.01.2020
55 Clear 19 1018 45 16093 4.1 270 22:36 23.01.2020
56 Clear 18 1018 45 16093 4.1 270 22:18 23.01.2020
57 Clear 18 1018 45 16093 4.1 270 22:18 23.01.2020
58 Clear 18 1018 51 16093 1.5 300 21:54 23.01.2020
59 Clear 18 1018 51 16093 1.5 300 21:36 23.01.2020
60 Clear 17 1018 51 16093 1.5 300 21:18 23.01.2020
61 Clear 16 1019 54 16093 1.5 360 20:39 23.01.2020
62 Clear 16 1019 54 16093 1.5 360 20:39 23.01.2020
63 Clear 16 1020 58 16093 1.65 40 20:21 23.01.2020
64 Clear 15 1021 62 16093 1.65 40 19:56 23.01.2020
65 Clear 15 1021 62 16093 1.65 40 19:38 23.01.2020
66 Clear 14 1021 62 16093 1.5 110 19:20 23.01.2020
67 Clear 13 1021 76 16093 1.65 40 18:56 23.01.2020
68 Clear 12 1021 76 16093 1.65 40 18:37 23.01.2020
69 Clear 12 1022 76 16093 2.1 120 18:19 23.01.2020
70 Clear 11 1021 81 16093 1.65 40 17:43 23.01.2020
71 Clear 9 1021 87 16093 0.98 20 17:20 23.01.2020
72 Clear 8 1021 87 16093 3.1 100 16:58 23.01.2020
73 Rain 6 1021 93 16093 2.1 130 16:37 23.01.2020
74 Rain 5 1021 93 16093 2.1 130 16:18 23.01.2020
75 Rain 4 1021 100 8047 0.98 20 15:57 23.01.2020
76 Rain 4 1021 100 8047 0.98 20 15:37 23.01.2020
77 Rain 4 1020 93 16093 2.6 120 15:18 23.01.2020
78 Rain 4 1020 93 16093 1.5 120 14:56 23.01.2020
79 Clear 4 1020 93 16093 1.5 120 14:38 23.01.2020
80 Clear 4 1020 93 16093 1.5 140 14:20 23.01.2020
81 Clear 5 1020 100 16093 2.1 130 13:44 23.01.2020
82 Rain 5 1020 86 16093 0.5 336 13:20 23.01.2020
83 Rain 5 1020 100 16093 0.5 336 12:54 23.01.2020
84 Rain 5 1020 86 16093 1.5 110 12:36 23.01.2020
85 Rain 5 1020 86 16093 1.5 110 12:18 23.01.2020
86 Rain 5 1020 100 16093 0.4 331 11:42 23.01.2020
87 Rain 5 1020 93 16093 3.1 110 11:23 23.01.2020
88 Rain 5 1020 93 16093 0.88 296 10:56 23.01.2020
89 Rain 5 1020 93 16093 0.88 296 10:38 23.01.2020
90 Rain 6 1020 87 16093 1.5 100 10:18 23.01.2020
91 Clear 6 1020 93 16093 0.88 296 09:40 23.01.2020
92 Clear 6 1021 87 16093 2.1 130 09:21 23.01.2020
93 Clear 6 1021 100 11265 0.77 280 08:43 23.01.2020
94 Clear 7 1021 93 16093 1.5 120 08:25 23.01.2020
95 Clear 7 1021 93 16093 1.62 317 07:52 23.01.2020
96 Clear 7 1021 93 16093 2.1 180 07:27 23.01.2020
97 Clear 8 1020 100 16093 1.62 317 06:55 23.01.2020
98 Clear 8 1020 87 16093 1.62 317 06:25 23.01.2020
99 Clear 8 1020 93 16093 1.5 320 05:59 23.01.2020
100 Clouds 10 1020 81 16093 1.69 303 04:25 23.01.2020
101 Clear 11 1019 71 16093 1.5 320 02:50 23.01.2020
102 Clear 13 1019 62 16093 4.6 320 01:51 23.01.2020
103 Clouds 14 1019 62 16093 3.1 300 00:41 23.01.2020
104 Clouds 14 1019 62 16093 2.6 290 00:20 23.01.2020
105 Clouds 14 1019 58 16093 2.6 330 23:45 22.01.2020
106 Clouds 14 1019 58 16093 3.1 240 23:27 22.01.2020
107 Clouds 14 1019 62 16093 3.1 330 22:43 22.01.2020
108 Clouds 14 1019 62 16093 3.6 290 22:24 22.01.2020
109 Clouds 14 1019 67 16093 2.6 290 21:58 22.01.2020
110 Clouds 14 1020 62 16093 4.1 290 21:36 22.01.2020
111 Clouds 14 1020 62 16093 4.1 290 21:18 22.01.2020
112 Clouds 14 1020 67 16093 2.6 310 20:41 22.01.2020
113 Clear 13 1020 71 16093 3.6 290 20:23 22.01.2020
114 Clouds 13 1021 76 16093 2.1 310 19:58 22.01.2020
115 Clouds 13 1021 76 16093 2.1 310 19:40 22.01.2020
116 Clouds 13 1021 76 16093 2.1 290 19:20 22.01.2020
117 Clouds 12 1021 93 16093 1.5 290 18:58 22.01.2020
118 Clouds 12 1021 93 16093 1.5 290 18:38 22.01.2020
119 Clouds 11 1021 81 16093 1.5 270 18:20 22.01.2020
120 Clouds 11 1021 81 16093 2.1 290 17:55 22.01.2020
121 Clouds 11 1021 81 16093 2.1 290 17:37 22.01.2020
122 Rain 10 1020 87 16093 3.1 260 17:19 22.01.2020
123 Rain 10 1021 100 11265 2.6 320 16:43 22.01.2020
124 Rain 10 1020 87 16093 2.6 270 16:23 22.01.2020
125 Clouds 10 1020 87 16093 2.6 260 15:59 22.01.2020
126 Clouds 10 1020 87 16093 2.6 260 15:41 22.01.2020
127 Clouds 10 1020 93 16093 2.6 250 15:22 22.01.2020
128 Clouds 10 1020 81 16093 2.1 310 14:58 22.01.2020
129 Clouds 10 1019 93 16093 3.6 270 14:37 22.01.2020
130 Clouds 10 1019 93 16093 3.6 270 14:18 22.01.2020
131 Clouds 10 1019 100 8047 0.62 300 13:54 22.01.2020
132 Rain 10 1019 93 16093 4.1 280 13:36 22.01.2020
133 Rain 10 1019 93 16093 4.1 280 13:18 22.01.2020
134 Rain 10 1019 93 16093 3.6 280 12:55 22.01.2020
135 Rain 10 1019 100 8047 1.22 330 12:37 22.01.2020
136 Rain 10 1020 87 16093 2.6 350 12:18 22.01.2020
137 Drizzle 10 1019 100 11265 3.1 290 11:56 22.01.2020
138 Rain 10 1020 93 9656 1.5 280 11:37 22.01.2020
139 Rain 10 1020 93 9656 1.5 280 11:18 22.01.2020
140 Rain 10 1020 93 9656 2.1 290 10:43 22.01.2020
141 Rain 10 1019 93 14484 0.59 348 10:20 22.01.2020
142 Rain 10 1020 93 9656 1.5 280 09:43 22.01.2020
143 Rain 10 1020 93 12874 1.5 290 09:25 22.01.2020
144 Rain 11 1020 93 11265 1.5 280 08:57 22.01.2020
145 Rain 10 1020 93 11265 1.5 280 08:39 22.01.2020
146 Rain 11 1020 93 11265 2.1 290 08:21 22.01.2020
147 Rain 11 1021 93 11265 2.1 350 07:48 22.01.2020
148 Rain 11 1020 93 12874 1.5 300 07:30 22.01.2020
149 Drizzle 11 1020 93 9656 2.6 320 06:50 22.01.2020
150 Rain 11 1021 93 6437 2.1 330 06:26 22.01.2020
151 Rain 11 1020 81 16093 1.5 270 05:33 22.01.2020
152 Drizzle 11 1020 93 16093 2.1 290 04:18 22.01.2020
153 Rain 11 1020 87 8047 2.1 360 03:21 22.01.2020
154 Clouds 13 1019 76 16093 3.6 300 01:43 22.01.2020
155 Clouds 13 1018 76 16093 2.1 330 00:44 22.01.2020
156 Clouds 13 1018 67 16093 1.5 320 00:26 22.01.2020
157 Clouds 14 1018 67 16093 3.1 320 23:38 21.01.2020
158 Clouds 14 1018 67 16093 1.5 290 23:20 21.01.2020
159 Clouds 14 1018 62 16093 2.67 300 22:56 21.01.2020
160 Clouds 14 1018 62 16093 2.67 300 22:56 21.01.2020
161 Clouds 14 1018 62 16093 2.67 300 22:37 21.01.2020
162 Clouds 14 1018 62 16093 2.67 300 22:37 21.01.2020
163 Clouds 14 1018 67 16093 2.67 300 22:19 21.01.2020
164 Clouds 13 1018 67 16093 2.67 300 21:55 21.01.2020
165 Clouds 13 1018 67 16093 2.67 300 21:37 21.01.2020
166 Clouds 13 1019 71 16093 3.1 120 21:18 21.01.2020
167 Clouds 13 1019 76 16093 2.67 300 20:55 21.01.2020
168 Clouds 12 1020 76 16093 3.6 120 20:37 21.01.2020
169 Clouds 12 1020 76 16093 3.6 120 20:18 21.01.2020
170 Clouds 12 1020 76 16093 3.6 120 20:18 21.01.2020
171 Rain 11 1020 81 16093 2.99 202 19:55 21.01.2020
172 Rain 11 1019 87 16093 3.6 110 19:36 21.01.2020
173 Rain 11 1019 87 16093 3.6 110 19:18 21.01.2020
174 Rain 10 1020 93 16093 3.6 140 18:54 21.01.2020
175 Rain 10 1019 93 16093 3.6 80 18:36 21.01.2020
176 Rain 10 1019 93 16093 3.6 80 18:18 21.01.2020
177 Rain 10 1018 87 16093 7.7 120 17:42 21.01.2020
178 Rain 9 1021 93 12874 1.5 270 17:19 21.01.2020
179 Rain 9 1021 93 8047 4.1 300 16:56 21.01.2020
180 Rain 9 1022 87 4023 4.1 280 16:36 21.01.2020
181 Rain 10 1021 87 11265 3.1 300 16:18 21.01.2020
182 Rain 10 1021 87 8047 4.6 280 15:39 21.01.2020
183 Rain 10 1020 87 16093 3.1 250 15:20 21.01.2020
184 Rain 11 1020 81 16093 3.1 360 14:55 21.01.2020
185 Drizzle 11 1019 62 16093 4.1 290 14:36 21.01.2020
186 Drizzle 12 1019 62 16093 4.1 290 14:18 21.01.2020
187 Rain 12 1018 62 16093 4.6 310 13:38 21.01.2020
188 Rain 13 1018 62 16093 4.6 310 13:18 21.01.2020
189 Rain 12 1018 81 16093 3.1 330 12:43 21.01.2020
190 Clouds 13 1017 62 16093 3.6 280 12:24 21.01.2020
191 Clouds 13 1018 58 16093 4.1 340 11:56 21.01.2020
192 Clouds 13 1018 58 16093 4.1 340 11:38 21.01.2020
193 Clouds 13 1018 58 16093 4.1 340 11:38 21.01.2020
194 Clouds 13 1018 58 16093 4.1 340 11:38 21.01.2020
195 Clouds 13 1018 58 16093 0.94 88 11:19 21.01.2020
196 Clouds 14 1017 58 16093 0.94 88 10:43 21.01.2020
197 Clouds 14 1017 47 16093 3.6 160 10:23 21.01.2020
198 Clouds 14 1017 44 16093 0.94 88 09:57 21.01.2020
199 Clouds 14 1017 44 16093 0.94 88 09:39 21.01.2020
200 Clouds 14 1018 47 16093 5.7 120 09:21 21.01.2020
201 Clouds 14 1017 51 16093 4.1 110 08:45 21.01.2020
202 Clouds 14 1018 47 16093 5.1 120 08:27 21.01.2020
203 Clouds 14 1017 54 16093 5.7 110 07:44 21.01.2020
204 Clouds 14 1019 54 16093 2.6 160 07:25 21.01.2020
205 Clear 14 1018 58 16093 2.6 80 06:58 21.01.2020
206 Clear 14 1018 58 16093 2.6 80 06:38 21.01.2020
207 Clear 14 1019 47 16093 2.1 200 06:20 21.01.2020
208 Clear 15 1018 58 16093 2.75 99 05:40 21.01.2020
209 Clear 16 1018 54 16093 2.33 104 04:38 21.01.2020
210 Clouds 19 1018 34 16093 2.1 170 02:29 21.01.2020
211 Clouds 20 1018 30 16093 2.6 160 01:36 21.01.2020
212 Clear 22 1017 28 16093 5.1 290 00:51 21.01.2020
213 Clear 23 1017 28 16093 4.1 160 00:28 21.01.2020
214 Clear 23 1016 22 16093 2.1 130 23:56 20.01.2020
215 Clouds 24 1017 27 16093 4.1 140 23:36 20.01.2020
216 Clouds 24 1017 27 16093 4.1 140 23:18 20.01.2020
217 Clear 24 1017 20 16093 4.1 140 22:40 20.01.2020
218 Clouds 24 1018 27 16093 5.7 150 22:21 20.01.2020
219 Clear 24 1018 20 16093 5.1 120 21:58 20.01.2020
220 Clear 24 1018 20 16093 5.1 120 21:38 20.01.2020
221 Clouds 24 1019 27 16093 6.2 140 21:20 20.01.2020
222 Clear 24 1019 30 16093 3.6 160 20:59 20.01.2020
223 Clear 24 1019 30 16093 3.6 160 20:41 20.01.2020
224 Clear 23 1019 28 16093 8.7 140 20:20 20.01.2020
225 Clear 23 1019 23 16093 7.2 130 19:58 20.01.2020
226 Clear 22 1019 23 16093 7.2 130 19:40 20.01.2020
227 Clear 22 1021 28 16093 7.2 130 19:19 20.01.2020
228 Clear 21 1020 26 16093 5.1 130 18:54 20.01.2020
229 Clear 19 1021 32 16093 7.2 150 18:36 20.01.2020
230 Clear 19 1021 32 16093 7.2 150 18:18 20.01.2020
231 Clear 18 1020 33 16093 1.5 240 17:38 20.01.2020
232 Clouds 16 1021 33 16093 5.1 170 17:19 20.01.2020
233 Clear 14 1020 52 16093 4.96 108 16:46 20.01.2020
234 Clear 14 1021 38 16093 4.6 150 16:26 20.01.2020
235 Clear 13 1019 52 16093 4.96 108 15:59 20.01.2020
236 Clear 13 1019 52 16093 4.96 108 15:40 20.01.2020
237 Clouds 13 1020 52 16093 9.8 140 15:21 20.01.2020
238 Clear 13 1019 52 16093 4.6 110 14:56 20.01.2020
239 Clear 12 1019 52 16093 4.6 110 14:37 20.01.2020
240 Clouds 12 1020 50 16093 7.2 130 14:19 20.01.2020
241 Clear 12 1019 50 16093 3.6 110 13:42 20.01.2020
242 Clear 11 1020 43 16093 4.6 140 13:23 20.01.2020
243 Clear 11 1019 50 16093 4.6 110 12:56 20.01.2020
244 Clear 11 1019 50 16093 4.6 110 12:38 20.01.2020
245 Clear 11 1020 46 16093 4.6 120 12:19 20.01.2020
246 Clear 12 1019 46 16093 4.6 100 11:43 20.01.2020
247 Clear 12 1020 50 16093 5.1 150 11:24 20.01.2020
248 Clear 12 1019 48 16093 2.6 100 10:57 20.01.2020
249 Clear 12 1019 48 16093 2.6 100 10:39 20.01.2020
250 Clear 12 1020 47 16093 5.1 150 10:20 20.01.2020
251 Clear 12 1019 46 16093 3.1 110 09:41 20.01.2020
252 Clear 12 1020 41 16093 2.1 120 09:22 20.01.2020
253 Clear 12 1020 50 16093 2.1 100 08:51 20.01.2020
254 Clear 12 1021 41 16093 3.6 150 08:31 20.01.2020
255 Clear 12 1020 43 16093 4.6 110 07:55 20.01.2020
256 Clear 12 1020 54 16093 3.6 140 07:31 20.01.2020
257 Rain 12 1020 41 16093 3.1 100 06:59 20.01.2020
258 Rain 12 1020 41 16093 3.1 100 06:59 20.01.2020
259 Rain 12 1021 62 16093 3.6 160 06:34 20.01.2020
260 Clear 13 1020 47 16093 2.6 160 05:49 20.01.2020
261 Clear 13 1021 58 16093 3.1 130 05:30 20.01.2020
262 Clear 13 1021 58 16093 3.1 130 05:30 20.01.2020
263 Clear 14 1019 54 16093 2.6 110 04:58 20.01.2020
264 Clear 15 1020 47 16093 2.6 180 03:46 20.01.2020
265 Clear 19 1019 26 16093 2.6 350 01:58 20.01.2020
266 Clear 20 1019 26 16093 2.6 350 01:38 20.01.2020
267 Clear 22 1018 26 16093 5.7 310 00:46 20.01.2020
268 Clear 23 1018 29 16093 1.5 80 00:26 20.01.2020
269 Clear 24 1018 26 16093 4.6 340 23:54 19.01.2020
270 Clear 24 1018 29 16093 2.6 100 23:36 19.01.2020
271 Clear 24 1018 25 16093 2.6 100 23:18 19.01.2020
272 Clear 24 1018 25 16093 2.6 100 23:18 19.01.2020
273 Clear 24 1018 24 16093 2.6 340 22:54 19.01.2020
274 Clear 23 1019 25 16093 3.1 120 22:36 19.01.2020
275 Clear 23 1019 25 16093 3.1 120 22:18 19.01.2020
276 Clear 23 1020 23 16093 5.1 130 21:54 19.01.2020
277 Clear 23 1020 23 16093 5.1 130 21:36 19.01.2020
278 Clear 23 1019 28 16093 2.1 10 21:36 19.01.2020
279 Clear 23 1020 23 16093 5.1 130 21:18 19.01.2020
280 Clear 22 1020 24 16093 4.78 94 20:54 19.01.2020
281 Clear 21 1021 25 16093 6.2 140 20:36 19.01.2020
282 Clear 20 1021 32 16093 6.2 140 20:18 19.01.2020
283 Clear 20 1022 32 16093 2.1 90 19:54 19.01.2020
284 Clear 19 1022 32 16093 4.1 110 19:36 19.01.2020
285 Clear 19 1022 32 16093 4.1 110 19:18 19.01.2020
286 Clear 17 1022 32 16093 4.1 100 18:54 19.01.2020
287 Clear 16 1022 32 16093 5.1 150 18:36 19.01.2020
288 Clear 16 1022 32 16093 5.1 150 18:36 19.01.2020
289 Clear 15 1022 32 16093 5.1 150 18:18 19.01.2020
290 Clear 14 1022 43 16093 1.5 90 17:55 19.01.2020
291 Clear 13 1022 32 16093 6.2 140 17:37 19.01.2020
292 Clear 12 1022 54 16093 6.2 140 17:18 19.01.2020
293 Clear 9 1022 81 16093 1.5 120 16:41 19.01.2020
294 Clear 8 1022 54 16093 5.1 150 16:22 19.01.2020
295 Clear 7 1023 80 16093 2.1 140 16:00 19.01.2020
296 Clear 7 1023 80 16093 2.1 140 15:40 19.01.2020
297 Clear 7 1023 80 16093 2.1 140 15:40 19.01.2020
298 Clear 6 1022 75 16093 1.5 190 15:21 19.01.2020
299 Clear 6 1022 86 16093 2.86 101 14:59 19.01.2020
300 Clear 6 1022 86 16093 2.86 101 14:59 19.01.2020
301 Clear 6 1022 86 16093 2.86 101 14:40 19.01.2020
302 Clear 6 1022 75 16093 2.25 105 14:19 19.01.2020
303 Clear 7 1021 86 16093 2.25 105 13:58 19.01.2020
304 Clear 7 1021 86 16093 2.25 105 13:38 19.01.2020
305 Clear 7 1021 75 16093 2.6 140 13:20 19.01.2020
306 Clear 7 1021 75 16093 5.7 150 12:56 19.01.2020
307 Clear 8 1021 75 16093 5.7 150 12:37 19.01.2020
308 Clear 7 1021 86 16093 1.5 350 12:37 19.01.2020
309 Clear 8 1021 50 16093 5.7 140 12:19 19.01.2020
310 Clear 7 1021 70 16093 4.1 130 11:43 19.01.2020
311 Clear 8 1022 70 16093 3.1 140 11:21 19.01.2020
312 Clear 7 1021 70 16093 4.6 110 10:57 19.01.2020
313 Clear 8 1021 70 16093 4.6 140 10:39 19.01.2020
314 Clear 8 1021 70 16093 4.6 110 10:39 19.01.2020
315 Clear 8 1021 70 16093 4.6 140 10:19 19.01.2020
316 Clear 8 1021 75 16093 1.5 110 09:56 19.01.2020
317 Clear 8 1021 75 16093 1.5 110 09:56 19.01.2020
318 Clear 8 1021 75 16093 1.5 110 09:56 19.01.2020
319 Clear 8 1021 75 16093 1.5 110 09:56 19.01.2020
320 Clear 8 1022 75 16093 4.1 170 09:37 19.01.2020
321 Clear 7 1022 75 16093 4.1 170 09:19 19.01.2020
322 Clear 8 1021 70 16093 3.6 120 08:52 19.01.2020
323 Clear 8 1022 81 16093 2.1 130 08:30 19.01.2020
324 Clear 8 1022 75 16093 2.6 90 07:46 19.01.2020
325 Clear 8 1022 87 16093 2.1 150 07:26 19.01.2020
326 Clear 8 1022 65 16093 1.53 76 06:54 19.01.2020
327 Clear 8 1022 81 16093 2.1 160 06:21 19.01.2020
328 Clear 13 1021 47 16093 2.6 290 02:47 19.01.2020
329 Clear 14 1021 51 16093 1.5 320 02:24 19.01.2020
330 Clear 17 1021 45 16093 3.6 320 01:28 19.01.2020
331 Clear 18 1021 32 16093 5.1 300 00:54 19.01.2020
332 Clear 18 1021 32 16093 4.6 310 00:29 19.01.2020
333 Clear 19 1021 32 16093 3.6 290 23:58 18.01.2020
334 Clear 19 1021 32 16093 3.6 290 23:40 18.01.2020
335 Clear 19 1020 34 16093 4.6 330 23:21 18.01.2020
336 Clear 19 1021 34 16093 5.1 320 22:55 18.01.2020
337 Clear 19 1021 34 16093 5.1 320 22:37 18.01.2020
338 Clear 19 1021 34 16093 5.1 320 22:37 18.01.2020
339 Clear 19 1021 37 16093 3.6 330 22:19 18.01.2020
340 Clear 19 1022 39 16093 3.1 310 21:57 18.01.2020
341 Clear 19 1022 39 16093 3.1 310 21:37 18.01.2020
342 Clear 19 1022 39 16093 3.1 310 21:37 18.01.2020
343 Clear 19 1022 34 16093 2.1 30 21:19 18.01.2020
344 Clear 18 1023 38 16093 1.5 340 20:43 18.01.2020
345 Clear 17 1023 39 16093 3.1 90 20:21 18.01.2020
346 Clear 16 1024 44 16093 1.35 85 19:57 18.01.2020
347 Clear 16 1024 47 16093 2.1 150 19:39 18.01.2020
348 Clear 15 1024 47 16093 2.1 150 19:21 18.01.2020
349 Clear 13 1024 62 16093 1.35 85 18:42 18.01.2020
350 Clear 12 1024 54 16093 1.5 140 18:21 18.01.2020
351 Clear 11 1024 70 16093 3.1 110 17:55 18.01.2020
352 Clear 11 1024 70 16093 3.1 110 17:37 18.01.2020
353 Clear 9 1024 76 16093 2.1 130 17:18 18.01.2020
354 Clear 6 1024 81 16093 4.6 130 16:41 18.01.2020
355 Clear 5 1024 86 16093 1.5 60 16:23 18.01.2020
356 Clear 4 1025 93 16093 3.1 90 15:59 18.01.2020
357 Clear 4 1025 93 16093 3.1 90 15:40 18.01.2020
358 Clear 4 1023 93 16093 3.1 150 15:22 18.01.2020
359 Clear 4 1023 93 16093 0.8 86 14:44 18.01.2020
360 Clear 4 1023 86 16093 0.8 86 14:24 18.01.2020
361 Clear 4 1023 93 16093 1.5 170 13:59 18.01.2020
362 Clear 4 1023 93 16093 1.5 170 13:41 18.01.2020
363 Clear 4 1022 86 16093 0.69 13 13:21 18.01.2020
364 Clear 4 1022 81 16093 0.41 334 12:55 18.01.2020
365 Clear 4 1022 81 16093 0.41 334 12:55 18.01.2020
366 Clear 4 1022 81 16093 0.41 334 12:37 18.01.2020
367 Rain 4 1022 86 16093 2.1 130 12:19 18.01.2020
368 Rain 4 1022 87 16093 2.6 110 11:44 18.01.2020
369 Clear 4 1022 86 16093 2.1 150 11:21 18.01.2020
370 Clear 5 1022 75 16093 0.75 332 10:54 18.01.2020
371 Clear 5 1022 87 16093 2.1 160 10:36 18.01.2020
372 Clear 5 1022 87 16093 2.1 160 10:18 18.01.2020
373 Clear 5 1022 86 16093 1.5 110 09:42 18.01.2020
374 Clear 6 1023 87 16093 2.1 140 09:20 18.01.2020
375 Clear 6 1023 75 16093 0.75 332 08:55 18.01.2020
376 Clear 6 1023 87 16093 1.5 170 08:36 18.01.2020
377 Clear 6 1023 87 16093 1.5 170 08:18 18.01.2020
378 Clear 6 1023 75 16093 0.1 52 07:40 18.01.2020
379 Clear 7 1023 87 16093 2.1 140 07:20 18.01.2020
380 Clear 7 1022 75 16093 0.1 52 06:45 18.01.2020
381 Clear 8 1022 70 16093 2.1 250 05:53 18.01.2020
382 Clear 9 1022 66 16093 1.18 304 04:28 18.01.2020
383 Clear 12 1021 58 16093 2.6 340 02:49 18.01.2020
384 Clear 15 1021 44 16093 1.5 310 01:40 18.01.2020
385 Clear 17 1021 39 16093 4.6 340 00:39 18.01.2020
386 Clear 17 1020 48 16093 5.7 340 00:20 18.01.2020
387 Clear 17 1020 42 16093 4.1 360 23:58 17.01.2020
388 Clear 17 1020 42 16093 4.1 360 23:39 17.01.2020
389 Clear 18 1020 42 16093 5.7 340 23:18 17.01.2020
390 Clear 18 1020 45 16093 3.6 360 22:42 17.01.2020
391 Clear 18 1020 45 16093 2.6 350 22:20 17.01.2020
392 Clear 18 1020 42 16093 3.1 350 21:56 17.01.2020
393 Clear 17 1021 45 16093 3.6 300 21:38 17.01.2020
394 Clear 17 1021 45 16093 3.6 300 21:19 17.01.2020
395 Clear 17 1021 45 16093 1.7 318 20:43 17.01.2020
396 Clear 17 1021 51 16093 2.45 258 20:21 17.01.2020
397 Clear 16 1022 51 16093 2.45 270 19:58 17.01.2020
398 Clear 16 1022 51 16093 2.45 270 19:39 17.01.2020
399 Clear 15 1022 62 16093 2.6 220 19:21 17.01.2020
400 Clear 15 1021 66 16093 2.6 130 18:58 17.01.2020
401 Clear 14 1021 66 16093 2.6 130 18:40 17.01.2020
402 Clear 13 1022 71 16093 2.6 180 18:21 17.01.2020
403 Clear 12 1021 76 16093 2.6 180 17:40 17.01.2020
404 Rain 10 1021 76 16093 2.6 180 17:22 17.01.2020
405 Rain 8 1021 100 16093 2.6 100 16:57 17.01.2020
406 Rain 8 1021 100 16093 2.6 100 16:39 17.01.2020
407 Rain 7 1020 87 16093 3.6 170 16:19 17.01.2020
408 Rain 5 1020 100 16093 1.5 110 15:45 17.01.2020
409 Rain 6 1020 93 16093 2.6 190 15:26 17.01.2020
410 Clear 6 1019 100 16093 1.5 80 14:46 17.01.2020
411 Clear 6 1019 87 16093 4.1 140 14:27 17.01.2020
412 Clear 6 1019 93 16093 2.67 181 13:58 17.01.2020
413 Clear 6 1019 93 16093 2.67 181 13:38 17.01.2020
414 Clear 6 1019 87 16093 4.6 170 13:19 17.01.2020
415 Clear 6 1018 93 16093 3.6 120 12:44 17.01.2020
416 Clear 6 1019 87 16093 4.6 160 12:22 17.01.2020
417 Rain 6 1019 100 16093 2.28 181 11:40 17.01.2020
418 Rain 6 1019 93 16093 3.1 160 11:19 17.01.2020
419 Rain 7 1019 87 16093 2.1 140 10:44 17.01.2020
420 Rain 7 1019 93 16093 2.6 170 10:23 17.01.2020
421 Rain 7 1019 87 16093 2.6 130 09:58 17.01.2020
422 Clear 7 1020 93 16093 3.1 120 09:40 17.01.2020
423 Clear 7 1020 93 16093 3.1 120 09:20 17.01.2020
424 Clear 7 1019 87 16093 3.6 90 08:45 17.01.2020
425 Clear 8 1020 87 16093 2.1 130 08:25 17.01.2020
426 Rain 8 1019 81 16093 5.1 100 07:55 17.01.2020
427 Rain 8 1020 93 16093 3.6 130 07:32 17.01.2020
428 Clear 8 1019 87 16093 4.1 100 06:58 17.01.2020
429 Clear 8 1019 87 16093 4.1 100 06:58 17.01.2020
430 Clear 8 1019 87 16093 4.1 100 06:40 17.01.2020
431 Clear 9 1019 87 16093 4.1 100 05:53 17.01.2020
432 Rain 10 1020 87 16093 2.1 80 03:39 17.01.2020
433 Rain 10 1020 93 16093 4.6 110 02:52 17.01.2020
434 Rain 11 1020 81 11265 3.1 90 01:47 17.01.2020
435 Rain 11 1020 81 11265 3.1 90 01:29 17.01.2020
436 Rain 12 1019 87 16093 4.6 140 00:49 17.01.2020
437 Rain 12 1019 87 16093 4.6 140 00:23 17.01.2020
438 Rain 12 1019 87 16093 4.6 60 23:44 16.01.2020
439 Rain 12 1019 87 16093 4.6 60 23:25 16.01.2020
440 Rain 12 1018 51 16093 8.2 100 22:56 16.01.2020
441 Rain 12 1018 51 16093 8.2 100 22:38 16.01.2020
442 Rain 13 1019 82 16093 6.7 90 22:19 16.01.2020
443 Rain 13 1019 58 16093 3.1 150 21:54 16.01.2020
444 Rain 14 1019 58 16093 3.1 150 21:36 16.01.2020
445 Rain 14 1019 58 16093 3.1 150 21:18 16.01.2020
446 Rain 15 1020 51 16093 5.7 170 20:40 16.01.2020
447 Drizzle 16 1020 45 16093 4.6 160 20:21 16.01.2020
448 Clouds 16 1018 42 16093 2.6 70 19:58 16.01.2020
449 Clear 16 1020 42 16093 4.6 130 19:40 16.01.2020
450 Clear 16 1020 42 16093 4.6 130 19:22 16.01.2020
451 Drizzle 16 1020 44 16093 3.6 110 18:57 16.01.2020
452 Clouds 15 1019 44 16093 2.6 70 18:38 16.01.2020
453 Clouds 15 1019 54 16093 3.6 80 18:19 16.01.2020
454 Clouds 14 1019 54 16093 2.6 120 17:58 16.01.2020
455 Clouds 14 1018 50 16093 2.1 160 17:39 16.01.2020
456 Rain 14 1019 58 16093 3.1 160 17:20 16.01.2020
457 Clouds 13 1017 57 16093 2.1 20 16:41 16.01.2020
458 Clouds 13 1017 41 16093 2.1 140 16:23 16.01.2020
459 Rain 13 1018 37 16093 2.1 0 15:58 16.01.2020
460 Rain 12 1018 37 16093 2.1 0 15:39 16.01.2020
461 Rain 13 1018 37 16093 2.1 0 15:39 16.01.2020
462 Rain 12 1018 37 16093 2.1 0 15:20 16.01.2020
463 Clouds 12 1016 50 16093 1.83 164 14:44 16.01.2020
464 Clouds 12 1018 35 16093 1.5 110 14:24 16.01.2020
465 Clouds 12 1018 35 16093 1.5 110 14:24 16.01.2020
466 Clouds 11 1016 57 16093 1.53 187 13:56 16.01.2020
467 Clouds 11 1016 57 16093 1.53 187 13:37 16.01.2020
468 Clear 11 1017 35 16093 2.6 150 13:19 16.01.2020
469 Clouds 11 1016 61 16093 2.1 170 12:42 16.01.2020
470 Clear 11 1017 47 16093 3.1 240 12:22 16.01.2020
471 Clear 11 1016 50 16093 1.5 150 11:43 16.01.2020
472 Clear 11 1017 53 16093 2.6 50 11:24 16.01.2020
473 Clear 11 1016 54 16093 2.6 100 10:59 16.01.2020
474 Clear 11 1016 54 16093 2.6 100 10:38 16.01.2020
475 Clouds 11 1017 50 16093 1.29 151 10:20 16.01.2020
476 Clear 11 1016 57 16093 2.6 120 09:54 16.01.2020
477 Clouds 11 1017 50 16093 3.6 100 09:36 16.01.2020
478 Clouds 11 1017 50 16093 3.6 100 09:18 16.01.2020
479 Clear 11 1017 66 16093 2.6 100 08:42 16.01.2020
480 Clouds 11 1017 53 16093 1.5 120 08:22 16.01.2020
481 Clear 11 1017 57 16093 0.73 243 07:43 16.01.2020
482 Clouds 11 1017 61 16093 0.73 243 07:25 16.01.2020
483 Clear 11 1017 62 16093 0.73 243 06:55 16.01.2020
484 Clouds 11 1017 54 16093 1.5 60 06:35 16.01.2020
485 Clear 12 1017 58 16093 0.73 243 05:56 16.01.2020
486 Clear 12 1017 50 16093 2.1 120 05:25 16.01.2020
487 Clear 13 1017 47 16093 1.5 140 04:23 16.01.2020
488 Clear 14 1016 41 16093 4.1 290 03:27 16.01.2020
489 Clouds 16 1015 36 16093 3.1 290 02:23 16.01.2020
490 Clear 19 1014 34 16093 2.6 310 00:44 16.01.2020
491 Clouds 19 1015 22 16093 2.6 310 00:23 16.01.2020
492 Clear 21 1014 24 16093 2.6 310 23:45 15.01.2020
493 Clouds 21 1015 11 16093 1.5 270 23:22 15.01.2020
494 Clear 22 1014 19 16093 2.1 300 22:57 15.01.2020
495 Clear 22 1014 19 16093 2.1 300 22:38 15.01.2020
496 Clear 22 1015 14 16093 0.78 154 22:18 15.01.2020
497 Clouds 22 1016 19 16093 0.78 154 21:56 15.01.2020
498 Clouds 22 1016 19 16093 0.78 154 21:56 15.01.2020
499 Clouds 22 1016 19 16093 0.78 154 21:37 15.01.2020
500 Clouds 21 1016 19 16093 0.78 154 21:19 15.01.2020
501 Clouds 20 1017 23 16093 2.6 180 20:55 15.01.2020
502 Clouds 20 1017 23 16093 2.6 180 20:37 15.01.2020
503 Clouds 19 1017 23 16093 2.6 180 20:19 15.01.2020
504 Clear 19 1017 25 16093 2.1 120 19:54 15.01.2020
505 Clear 18 1017 25 16093 2.1 120 19:36 15.01.2020
506 Clouds 17 1017 25 16093 2.1 120 19:18 15.01.2020
507 Clouds 17 1017 25 16093 2.1 120 19:18 15.01.2020
508 Clear 16 1017 35 16093 2.1 150 18:55 15.01.2020
509 Clear 15 1017 35 16093 2.1 150 18:37 15.01.2020
510 Clear 14 1018 28 16093 3.6 140 18:19 15.01.2020
511 Clear 14 1018 28 16093 3.6 140 18:19 15.01.2020
512 Clear 13 1017 40 16093 1.5 80 17:41 15.01.2020
513 Clear 11 1017 32 16093 3.6 110 17:23 15.01.2020
514 Clear 10 1016 34 16093 1.5 150 16:59 15.01.2020
515 Clear 9 1016 34 16093 1.5 150 16:39 15.01.2020
516 Clouds 9 1017 39 16093 3.6 120 16:21 15.01.2020
517 Clear 8 1016 34 16093 1.07 149 15:43 15.01.2020
518 Clouds 7 1016 36 16093 1.5 110 15:21 15.01.2020
519 Clouds 7 1016 36 16093 1.5 110 15:21 15.01.2020
520 Clouds 7 1016 36 16093 1.5 110 15:21 15.01.2020
521 Clear 7 1016 34 16093 1.07 149 14:58 15.01.2020
522 Clear 8 1016 34 16093 1.07 149 14:39 15.01.2020
523 Clouds 7 1016 36 16093 4.6 120 14:18 15.01.2020
524 Clear 8 1016 32 16093 1.34 205 13:45 15.01.2020
525 Clouds 8 1016 45 16093 3.1 130 13:24 15.01.2020
526 Clear 8 1016 49 16093 4.1 110 12:57 15.01.2020
527 Clear 8 1016 49 16093 4.1 110 12:39 15.01.2020
528 Clouds 8 1016 45 16093 1.5 110 12:19 15.01.2020
529 Clear 8 1016 32 16093 2.6 100 11:56 15.01.2020
530 Clouds 8 1017 42 16093 3.6 120 11:36 15.01.2020
531 Clouds 9 1017 42 16093 3.6 120 11:18 15.01.2020
532 Clouds 9 1017 42 16093 3.6 120 11:18 15.01.2020
533 Clear 9 1016 35 16093 2.6 100 10:41 15.01.2020
534 Clouds 9 1017 45 16093 3.1 110 10:21 15.01.2020
535 Clear 9 1016 57 16093 0.88 176 09:42 15.01.2020
536 Clear 9 1017 49 16093 3.1 120 09:22 15.01.2020
537 Clear 9 1017 57 16093 1.5 110 08:46 15.01.2020
538 Clear 10 1017 35 16093 0.41 258 08:28 15.01.2020
539 Clear 10 1017 33 16093 2.6 110 07:59 15.01.2020
540 Clear 10 1017 33 16093 2.6 110 07:41 15.01.2020
541 Clear 10 1017 33 16093 2.1 140 07:21 15.01.2020
542 Clear 10 1017 57 16093 2.6 110 06:43 15.01.2020
543 Clear 11 1017 57 16093 0.95 207 05:52 15.01.2020
544 Clear 13 1016 34 16093 2.1 240 03:56 15.01.2020
545 Clear 15 1017 25 16093 2.6 280 02:28 15.01.2020
546 Clear 18 1017 25 16093 2.6 300 01:22 15.01.2020
547 Clear 20 1016 22 16093 3.6 320 00:44 15.01.2020
548 Clear 20 1016 15 16093 3.1 320 00:25 15.01.2020
549 Clear 21 1016 19 16093 3.1 320 23:47 14.01.2020
550 Clear 21 1017 14 16093 1.44 291 23:29 14.01.2020
551 Clear 22 1017 18 16093 1.5 330 22:58 14.01.2020
552 Clear 22 1017 18 16093 1.5 330 22:40 14.01.2020
553 Clear 22 1017 14 16093 2.6 310 22:19 14.01.2020
554 Clear 22 1018 16 16093 1.5 300 21:58 14.01.2020
555 Clear 22 1018 16 16093 3.78 239 21:39 14.01.2020
556 Clear 22 1018 16 16093 3.78 239 21:20 14.01.2020
557 Clear 21 1018 19 16093 3.78 239 20:56 14.01.2020
558 Clear 21 1018 19 16093 3.78 239 20:38 14.01.2020
559 Clear 20 1020 24 16093 2.1 80 20:18 14.01.2020
560 Clear 19 1019 23 16093 2.6 110 19:55 14.01.2020
561 Clear 19 1019 23 16093 2.6 110 19:37 14.01.2020
562 Clear 18 1020 26 16093 1.95 198 19:18 14.01.2020
563 Clear 16 1020 30 16093 3.1 120 18:41 14.01.2020
564 Clear 15 1021 37 16093 3.1 100 18:20 14.01.2020
565 Clear 14 1020 37 16093 3.6 120 17:58 14.01.2020
566 Clear 12 1020 37 16093 3.6 120 17:37 14.01.2020
567 Clear 11 1020 37 16093 4.1 150 17:18 14.01.2020
568 Clear 8 1019 45 16093 4.6 130 16:43 14.01.2020
569 Clear 7 1019 39 16093 3.6 140 16:23 14.01.2020
570 Clear 7 1019 39 16093 3.6 140 16:23 14.01.2020
571 Clear 6 1018 52 16093 3.6 110 15:58 14.01.2020
572 Clear 6 1018 52 16093 3.6 110 15:40 14.01.2020
573 Clear 6 1019 48 16093 6.2 120 15:19 14.01.2020
574 Clear 6 1018 48 16093 5.7 110 14:44 14.01.2020
575 Clear 6 1019 45 16093 4.1 130 14:21 14.01.2020
576 Clear 6 1018 52 16093 5.1 110 13:57 14.01.2020
577 Clear 6 1018 52 16093 5.1 110 13:38 14.01.2020
578 Clear 7 1019 48 16093 3.6 130 13:18 14.01.2020
579 Clear 6 1018 52 16093 4.1 110 12:42 14.01.2020
580 Clear 6 1019 39 16093 5.1 120 12:22 14.01.2020
581 Clear 6 1019 56 16093 2.16 175 11:56 14.01.2020
582 Clear 6 1019 45 16093 5.1 130 11:36 14.01.2020
583 Clear 6 1019 45 16093 5.1 130 11:18 14.01.2020
584 Clear 6 1018 49 16093 4.6 120 10:40 14.01.2020
585 Clear 6 1019 48 16093 5.7 120 10:20 14.01.2020
586 Clear 6 1019 49 16093 3.6 120 09:58 14.01.2020
587 Clear 6 1019 49 16093 3.6 120 09:40 14.01.2020
588 Clear 6 1020 52 16093 2.6 100 09:21 14.01.2020
589 Clear 6 1019 49 16093 3.6 110 08:48 14.01.2020
590 Clear 6 1020 56 16093 4.1 120 08:26 14.01.2020
591 Clear 6 1019 52 16093 2.1 130 07:56 14.01.2020
592 Clear 6 1020 60 16093 4.1 110 07:34 14.01.2020
593 Clear 7 1019 52 16093 3.6 110 06:57 14.01.2020
594 Clear 7 1019 52 16093 3.6 110 06:39 14.01.2020
595 Clear 7 1019 52 16093 3.6 110 06:39 14.01.2020
596 Clear 8 1019 52 16093 2.6 150 05:28 14.01.2020
597 Clear 10 1019 43 11265 2.1 240 03:57 14.01.2020
598 Clear 12 1019 30 16093 1.14 172 03:35 14.01.2020
599 Clear 16 1018 25 16093 2.6 290 01:58 14.01.2020
600 Clear 19 1018 17 16093 5.1 330 00:53 14.01.2020
601 Clear 20 1018 15 16093 2.6 320 00:35 14.01.2020
602 Clear 21 1018 16 16093 3.6 330 23:56 13.01.2020
603 Clear 21 1018 16 16093 3.6 330 23:37 13.01.2020
604 Clear 21 1018 16 16093 1.77 284 23:18 13.01.2020
605 Clear 21 1018 16 16093 1.77 284 23:18 13.01.2020
606 Clear 21 1018 15 16093 3.6 340 22:43 13.01.2020
607 Clear 21 1018 16 16093 2.1 320 22:22 13.01.2020
608 Clear 21 1018 16 16093 2.1 320 22:22 13.01.2020
609 Clear 20 1018 14 16093 2.1 300 21:58 13.01.2020
610 Clear 20 1018 14 16093 2.1 300 21:58 13.01.2020
611 Clear 20 1019 16 16093 1.77 284 21:38 13.01.2020
612 Clear 20 1019 16 16093 1.77 284 21:19 13.01.2020
613 Clear 20 1019 17 16093 1.77 284 20:59 13.01.2020
614 Clear 20 1019 17 16093 1.77 284 20:59 13.01.2020
615 Clear 20 1019 17 16093 1.77 284 20:41 13.01.2020
616 Clear 19 1020 16 16093 1.5 90 20:22 13.01.2020
617 Clear 18 1020 20 16093 2.1 90 19:59 13.01.2020
618 Clear 18 1020 25 16093 3.1 120 19:40 13.01.2020
619 Clear 17 1020 20 16093 2.1 90 19:20 13.01.2020
620 Clear 16 1020 28 16093 3.1 100 18:56 13.01.2020
621 Clear 15 1020 28 16093 3.1 100 18:37 13.01.2020
622 Clear 14 1020 24 16093 3.1 100 18:19 13.01.2020
623 Clear 13 1019 37 16093 3.1 100 17:44 13.01.2020
624 Clear 11 1019 32 16093 1.5 140 17:25 13.01.2020
625 Clear 8 1019 60 16093 3.1 110 16:58 13.01.2020
626 Clear 7 1019 55 16093 3.1 150 16:38 13.01.2020
627 Clear 5 1019 59 16093 2.1 190 16:20 13.01.2020
628 Clear 4 1019 68 0 1.69 208 15:54 13.01.2020
629 Clear 3 1018 59 0 1.69 208 15:36 13.01.2020
630 Clear 4 1019 66 0 1.69 208 15:18 13.01.2020
631 Clear 4 1018 63 0 1.69 208 14:40 13.01.2020
632 Clear 4 1018 60 0 2.68 197 14:22 13.01.2020
633 Clear 4 1018 60 0 2.68 197 13:56 13.01.2020
634 Clear 4 1018 60 0 2.68 197 13:56 13.01.2020
635 Clear 4 1018 60 0 2.04 197 13:37 13.01.2020
636 Clear 4 1017 60 0 2.04 197 13:19 13.01.2020
637 Clear 4 1017 69 16093 3.1 100 12:43 13.01.2020
638 Clear 4 1017 69 16093 3.1 100 12:23 13.01.2020
639 Clear 4 1017 69 16093 3.1 100 12:23 13.01.2020
640 Clear 4 1017 69 16093 3.1 100 11:59 13.01.2020
641 Clear 4 1017 69 16093 3.1 100 11:38 13.01.2020
642 Clear 4 1017 69 16093 3.1 100 11:38 13.01.2020
643 Clear 4 1017 55 16093 5.1 120 11:19 13.01.2020
644 Clear 5 1017 69 16093 2.71 188 10:56 13.01.2020
645 Clear 5 1017 41 16093 2.1 80 10:38 13.01.2020
646 Clear 5 1017 41 16093 2.1 80 10:19 13.01.2020
647 Clear 6 1017 64 16093 2.71 188 09:44 13.01.2020
648 Clear 6 1017 45 16093 2.1 90 09:26 13.01.2020
649 Clear 6 1017 56 16093 2.71 188 08:57 13.01.2020
650 Clear 6 1017 56 16093 2.71 188 08:37 13.01.2020
651 Clear 6 1017 48 16093 5.7 120 08:18 13.01.2020
652 Clear 6 1017 52 16093 1.38 195 07:44 13.01.2020
653 Clear 6 1018 56 16093 2.6 100 07:26 13.01.2020
654 Clear 6 1017 60 16093 1.5 150 06:39 13.01.2020
655 Clear 7 1017 60 16093 2.6 170 05:42 13.01.2020
656 Clear 7 1017 45 16093 2.1 190 05:19 13.01.2020
657 Clear 10 1016 52 16093 3.1 300 03:44 13.01.2020
658 Clear 11 1016 39 16093 2.6 310 02:51 13.01.2020
659 Clear 12 1016 24 16093 1.5 300 02:30 13.01.2020
660 Clear 15 1015 18 16093 1.5 330 01:33 13.01.2020
661 Clear 18 1015 17 16093 2.6 310 00:46 13.01.2020
662 Clear 18 1015 14 16093 1.5 310 00:26 13.01.2020
663 Clear 19 1015 16 16093 2.1 300 23:58 12.01.2020
664 Clear 19 1015 16 16093 2.1 300 23:40 12.01.2020
665 Clear 19 1016 14 16093 1.83 205 23:21 12.01.2020
666 Clear 19 1016 14 16093 1.83 205 23:21 12.01.2020
667 Clear 19 1016 16 16093 1.83 205 22:56 12.01.2020
668 Clear 19 1016 16 16093 1.83 205 22:37 12.01.2020
669 Clear 18 1016 16 16093 1.83 205 22:18 12.01.2020
670 Clear 18 1017 20 16093 1.5 290 21:42 12.01.2020
671 Clear 18 1017 20 16093 1.5 290 21:20 12.01.2020
672 Clear 17 1018 22 16093 1.83 205 20:59 12.01.2020
673 Clear 17 1018 22 16093 1.83 205 20:59 12.01.2020
674 Clear 17 1018 22 16093 1.83 205 20:40 12.01.2020
675 Clear 16 1018 22 16093 0.71 66 20:21 12.01.2020
676 Clear 15 1019 28 16093 0.71 66 19:57 12.01.2020
677 Clear 15 1019 27 16093 3.1 90 19:39 12.01.2020
678 Clear 13 1019 28 16093 0.71 66 19:19 12.01.2020
679 Clear 13 1019 28 16093 0.71 66 19:19 12.01.2020
680 Clear 13 1020 34 16093 2.6 110 18:58 12.01.2020
681 Clear 12 1020 36 16093 3.6 90 18:40 12.01.2020
682 Clear 11 1020 34 16093 2.6 110 18:22 12.01.2020
683 Clear 9 1019 56 16093 2.6 120 17:59 12.01.2020
684 Clear 9 1019 56 16093 2.6 120 17:41 12.01.2020
685 Clear 6 1019 45 16093 5.1 130 17:19 12.01.2020
686 Clear 5 1019 59 16093 5.1 100 16:56 12.01.2020
687 Clear 5 1019 59 16093 5.1 100 16:56 12.01.2020
688 Clear 4 1020 55 16093 4.1 140 16:37 12.01.2020
689 Clear 3 1019 51 16093 3.6 140 16:19 12.01.2020
690 Clear 1 1019 64 16093 0.96 148 15:43 12.01.2020
691 Clear 1 1019 51 16093 4.1 110 15:25 12.01.2020
692 Clear 1 1018 64 16093 2.1 120 14:57 12.01.2020
693 Clear 1 1018 51 16093 3.1 110 14:38 12.01.2020
694 Clear 1 1018 50 16093 3.1 110 14:20 12.01.2020
695 Clear 1 1019 50 16093 0.7 79 13:54 12.01.2020
696 Clear 1 1019 50 16093 0.7 79 13:36 12.01.2020
697 Clear 2 1018 69 16093 0.6 143 13:18 12.01.2020
698 Clear 2 1018 80 16093 2.6 100 12:43 12.01.2020
699 Clear 2 1018 64 16093 4.6 120 12:20 12.01.2020
700 Clear 2 1018 74 16093 2.1 110 11:59 12.01.2020
701 Clear 2 1018 74 16093 2.1 110 11:59 12.01.2020
702 Clear 2 1018 74 16093 2.1 110 11:39 12.01.2020
703 Clear 2 1018 64 16093 3.1 120 11:20 12.01.2020
704 Clear 3 1018 74 16093 1.35 305 10:42 12.01.2020
705 Clear 3 1018 74 16093 2.6 150 10:22 12.01.2020
706 Clear 3 1018 74 16093 2.1 110 09:57 12.01.2020
707 Clear 3 1018 74 16093 2.1 110 09:39 12.01.2020
708 Clear 3 1018 69 16093 1.35 305 09:20 12.01.2020
709 Clear 3 1018 74 16093 2.1 110 08:45 12.01.2020
710 Clear 4 1017 69 16093 1.46 290 08:21 12.01.2020
711 Clear 4 1017 64 16093 1.46 290 07:42 12.01.2020
712 Clear 5 1017 64 16093 3.6 130 07:24 12.01.2020
713 Clear 6 1017 69 16093 1.46 290 06:49 12.01.2020
714 Clear 6 1017 56 16093 3.1 160 06:30 12.01.2020
715 Clear 7 1016 56 16093 1.5 110 05:37 12.01.2020
716 Clear 7 1015 52 16093 2.6 130 04:51 12.01.2020
717 Clear 9 1015 39 16093 1.4 289 03:27 12.01.2020
718 Rain 11 1015 32 16093 1.4 289 02:34 12.01.2020
719 Clear 13 1015 24 16093 0.75 237 01:55 12.01.2020
720 Clear 15 1016 25 16093 0.75 237 01:29 12.01.2020
721 Clear 16 1016 21 16093 1.5 270 00:42 12.01.2020
722 Clear 17 1017 21 16093 0.81 280 00:20 12.01.2020
723 Clear 17 1016 21 16093 0.81 280 23:42 11.01.2020
724 Clear 17 1016 21 16093 0.81 280 23:42 11.01.2020
725 Clear 17 1017 21 16093 1.4 255 23:20 11.01.2020
726 Clear 17 1017 18 16093 1.4 255 22:59 11.01.2020
727 Clear 17 1017 18 16093 1.4 255 22:41 11.01.2020
728 Clear 16 1018 21 16093 1.4 255 22:21 11.01.2020
729 Clear 16 1018 22 16093 1.4 255 21:58 11.01.2020
730 Clear 16 1018 22 16093 1.4 255 21:40 11.01.2020
731 Clear 15 1019 26 16093 1.4 255 21:18 11.01.2020
732 Clear 14 1019 26 16093 1.4 255 20:42 11.01.2020
733 Clear 14 1020 32 16093 3.6 130 20:22 11.01.2020
734 Clear 13 1021 32 16093 4.6 120 19:59 11.01.2020
735 Clear 13 1021 32 16093 4.6 120 19:39 11.01.2020
736 Clear 13 1021 32 16093 4.6 120 19:39 11.01.2020
737 Clear 12 1021 32 16093 5.7 120 19:21 11.01.2020
738 Clear 11 1022 42 16093 5.1 130 18:59 11.01.2020
739 Clear 10 1022 42 16093 4.1 100 18:39 11.01.2020
740 Clear 9 1022 42 16093 5.1 130 18:20 11.01.2020
741 Clear 8 1022 52 16093 5.1 100 17:58 11.01.2020
742 Clear 8 1022 52 16093 5.1 100 17:58 11.01.2020
743 Clear 8 1022 52 16093 5.1 100 17:39 11.01.2020
744 Clear 6 1022 52 16093 3.1 120 17:19 11.01.2020
745 Clear 3 1021 64 16093 6.2 110 16:45 11.01.2020
746 Clear 2 1022 74 16093 3.1 130 16:27 11.01.2020
747 Clear 0 1022 74 16093 6.2 100 15:59 11.01.2020
748 Clear 0 1022 74 16093 6.2 100 15:40 11.01.2020
749 Clear 0 1022 59 16093 3.6 120 15:22 11.01.2020
750 Clear 1 1022 74 16093 3.6 100 14:56 11.01.2020
751 Clear 1 1022 74 16093 3.6 100 14:38 11.01.2020
752 Clear 1 1023 74 16093 3.6 150 14:19 11.01.2020
753 Clear 1 1024 62 16093 1.5 120 13:39 11.01.2020
754 Clear 1 1022 74 16093 5.1 120 13:20 11.01.2020
755 Clear 1 1022 74 16093 5.1 120 13:20 11.01.2020
756 Clear 1 1022 69 16093 5.1 120 12:57 11.01.2020
757 Clear 1 1022 69 16093 5.1 120 12:38 11.01.2020
758 Clear 1 1023 80 16093 3.6 120 12:20 11.01.2020
759 Clear 1 1023 74 16093 2.1 100 11:46 11.01.2020
760 Clear 1 1023 80 16093 4.1 110 11:25 11.01.2020
761 Clear 2 1023 60 16093 3.6 100 10:50 11.01.2020
762 Clear 2 1023 74 16093 4.1 110 10:30 11.01.2020
763 Clear 2 1023 74 16093 4.1 110 10:30 11.01.2020
764 Clear 2 1023 86 16093 0.83 197 09:55 11.01.2020
765 Clear 2 1023 74 16093 2.6 130 09:37 11.01.2020
766 Clear 2 1023 74 16093 2.6 130 09:18 11.01.2020
767 Clear 2 1023 60 16093 0.83 197 08:41 11.01.2020
768 Clear 3 1023 80 16093 0.33 241 08:21 11.01.2020
769 Clear 3 1023 60 16093 1.5 90 07:43 11.01.2020
770 Clear 3 1023 74 16093 3.6 110 07:25 11.01.2020
771 Clear 4 1024 60 16093 0.72 211 06:45 11.01.2020
772 Clear 5 1022 69 16093 2.1 170 05:33 11.01.2020
773 Clear 6 1022 52 16093 1.5 140 04:45 11.01.2020
774 Clear 6 1022 56 16093 2.1 260 04:27 11.01.2020
775 Clear 8 1022 52 16093 1.5 270 02:48 11.01.2020
776 Clear 10 1022 43 16093 3.1 300 01:48 11.01.2020
777 Clear 11 1022 30 16093 4.6 340 01:30 11.01.2020
778 Clear 12 1021 32 16093 4.6 320 00:58 11.01.2020
779 Clear 12 1021 32 16093 4.6 320 00:58 11.01.2020
780 Clear 12 1021 30 16093 4.6 340 00:29 11.01.2020
781 Clear 13 1021 34 16093 3.1 310 23:59 10.01.2020
782 Clear 13 1021 34 16093 3.1 310 23:59 10.01.2020
783 Clear 13 1021 34 16093 3.1 310 23:39 10.01.2020
784 Clear 13 1021 32 16093 5.1 360 23:20 10.01.2020
785 Clear 13 1020 37 16093 3.6 310 22:54 10.01.2020
786 Clear 12 1020 40 16093 5.7 280 22:36 10.01.2020
787 Clear 12 1020 40 16093 5.7 280 22:18 10.01.2020
788 Clear 12 1020 40 16093 4.1 290 21:41 10.01.2020
789 Clear 12 1020 46 16093 4.1 270 21:21 10.01.2020
790 Clear 12 1020 41 16093 2.6 300 20:59 10.01.2020
791 Clear 11 1020 41 16093 2.6 300 20:41 10.01.2020
792 Clear 11 1020 53 16093 3.6 270 20:23 10.01.2020
793 Clear 10 1020 53 16093 5.1 290 19:41 10.01.2020
794 Clear 10 1021 66 16093 5.7 260 19:21 10.01.2020
795 Clear 9 1021 61 16093 2.6 310 18:57 10.01.2020
796 Clear 9 1021 61 16093 2.6 310 18:39 10.01.2020
797 Clear 9 1020 70 16093 2.6 240 18:18 10.01.2020
798 Clear 8 1020 75 16093 3.9 306 17:56 10.01.2020
799 Clear 8 1019 87 16093 2.1 210 17:38 10.01.2020
800 Clear 7 1019 87 16093 2.1 210 17:19 10.01.2020
801 Clear 6 1019 86 16093 2.1 180 16:43 10.01.2020
802 Clouds 5 1018 86 16093 3.19 280 16:22 10.01.2020
803 Rain 5 1018 100 16093 1.5 200 15:58 10.01.2020
804 Rain 5 1018 100 16093 1.5 200 15:39 10.01.2020
805 Rain 5 1017 86 16093 1.5 220 15:20 10.01.2020
806 Rain 5 1017 86 16093 3.19 280 14:59 10.01.2020
807 Rain 5 1017 86 16093 3.19 280 14:41 10.01.2020
808 Rain 5 1016 87 16093 2.6 270 14:20 10.01.2020
809 Rain 5 1016 81 16093 5.08 273 13:58 10.01.2020
810 Clear 6 1016 81 16093 5.08 273 13:39 10.01.2020
811 Clouds 6 1015 87 16093 4.68 268 13:21 10.01.2020
812 Clouds 6 1015 87 16093 4.68 268 12:57 10.01.2020
813 Clouds 6 1015 87 16093 4.68 268 12:38 10.01.2020
814 Clouds 6 1014 87 16093 1.5 190 12:18 10.01.2020
815 Clouds 6 1014 87 16093 4.68 268 11:54 10.01.2020
816 Clouds 6 1014 93 16093 2.6 190 11:36 10.01.2020
817 Clouds 6 1014 93 16093 2.6 190 11:18 10.01.2020
818 Rain 6 1013 87 16093 2.1 220 10:39 10.01.2020
819 Rain 6 1013 87 16093 2.1 220 10:21 10.01.2020
820 Rain 7 1013 87 16093 2.1 210 09:56 10.01.2020
821 Rain 7 1013 93 16093 4.24 253 09:37 10.01.2020
822 Drizzle 7 1013 93 16093 1.5 260 09:19 10.01.2020
823 Drizzle 7 1013 93 16093 1.5 260 09:19 10.01.2020
824 Rain 7 1013 87 16093 1.5 220 08:40 10.01.2020
825 Rain 7 1013 93 16093 5.47 280 08:22 10.01.2020
826 Rain 7 1013 81 16093 5.47 280 07:44 10.01.2020
827 Rain 8 1013 81 16093 5.47 280 07:23 10.01.2020
828 Drizzle 8 1012 70 16093 2.1 280 06:45 10.01.2020
829 Rain 8 1012 66 16093 6.2 310 06:25 10.01.2020
830 Rain 9 1012 87 16093 1.5 120 05:46 10.01.2020
831 Clouds 12 1010 37 16093 6.7 280 03:35 10.01.2020
832 Clouds 13 1010 58 16093 6.7 270 02:58 10.01.2020
833 Clouds 13 1010 58 16093 6.7 270 02:37 10.01.2020
834 Clouds 14 1010 37 16093 6.75 234 01:38 10.01.2020
835 Clouds 14 1009 37 16093 1.5 360 00:58 10.01.2020
836 Clouds 15 1009 37 16093 1.5 360 00:38 10.01.2020
837 Clouds 16 1009 32 16093 5.56 234 23:57 09.01.2020
838 Clear 16 1009 20 16093 4.6 280 23:38 09.01.2020
839 Clear 16 1009 20 16093 4.6 280 23:38 09.01.2020
840 Clear 16 1009 20 16093 4.6 280 23:38 09.01.2020
841 Clear 16 1009 20 16093 4.6 280 23:38 09.01.2020
842 Clear 16 1009 20 16093 4.6 280 23:38 09.01.2020
843 Clear 16 1009 20 16093 4.6 280 23:19 09.01.2020
844 Clouds 17 1009 16 16093 6.7 230 22:57 09.01.2020
845 Clouds 17 1009 16 16093 6.7 230 22:37 09.01.2020
846 Clouds 17 1009 16 16093 6.7 230 22:18 09.01.2020
847 Clouds 17 1010 26 16093 1.5 270 21:56 09.01.2020
848 Clouds 17 1010 26 16093 1.5 270 21:37 09.01.2020
849 Clouds 17 1010 26 16093 1.5 270 21:37 09.01.2020
850 Clouds 17 1011 17 16093 3.6 220 21:37 09.01.2020
851 Clouds 17 1011 17 16093 3.6 220 21:37 09.01.2020
852 Clouds 17 1011 17 16093 3.6 220 21:18 09.01.2020
853 Clouds 16 1012 21 16093 1.5 60 20:55 09.01.2020
854 Clouds 16 1012 21 16093 1.5 60 20:37 09.01.2020
855 Clouds 15 1012 21 16093 1.5 60 20:19 09.01.2020
856 Clouds 14 1013 24 16093 2.1 70 19:39 09.01.2020
857 Clouds 14 1013 24 16093 2.1 70 19:21 09.01.2020
858 Clouds 13 1013 24 16093 2.1 70 18:59 09.01.2020
859 Clouds 13 1014 28 16093 3.1 100 18:40 09.01.2020
860 Clouds 12 1014 28 16093 3.1 100 18:21 09.01.2020
861 Clouds 11 1014 34 16093 3.1 140 17:57 09.01.2020
862 Clouds 10 1014 34 16093 3.1 140 17:39 09.01.2020
863 Clouds 9 1014 34 16093 3.1 140 17:18 09.01.2020
864 Clear 7 1013 45 16093 1.73 227 16:42 09.01.2020
865 Clear 7 1013 45 16093 1.73 227 16:21 09.01.2020
866 Clear 6 1012 48 16093 4.1 100 15:43 09.01.2020
867 Clear 5 1012 48 16093 4.1 100 15:23 09.01.2020
868 Clear 5 1013 44 16093 3.1 90 14:59 09.01.2020
869 Clear 4 1013 44 16093 3.6 120 14:41 09.01.2020
870 Clear 4 1013 44 16093 3.6 120 14:19 09.01.2020
871 Clear 4 1013 44 16093 3.1 110 13:55 09.01.2020
872 Clear 4 1013 44 16093 4.6 100 13:37 09.01.2020
873 Clear 4 1014 55 16093 4.1 110 13:19 09.01.2020
874 Clear 4 1013 44 16093 4.6 110 12:56 09.01.2020
875 Clear 4 1013 44 16093 4.6 110 12:56 09.01.2020
876 Clear 4 1013 51 16093 3.6 110 12:38 09.01.2020
877 Clear 4 1014 51 16093 2.1 90 12:18 09.01.2020
878 Clear 5 1013 48 16093 2.6 90 11:42 09.01.2020
879 Clear 4 1013 48 16093 2.6 90 11:24 09.01.2020
880 Clear 5 1013 48 16093 4.1 100 10:58 09.01.2020
881 Clear 5 1014 48 16093 3.1 110 10:39 09.01.2020
882 Clear 5 1014 48 16093 3.1 110 10:21 09.01.2020
883 Clear 5 1014 41 16093 1.5 110 09:46 09.01.2020
884 Clear 6 1014 41 16093 1.5 110 09:25 09.01.2020
885 Clear 6 1014 48 16093 4.6 110 08:58 09.01.2020
886 Clear 6 1015 48 16093 3.36 200 08:39 09.01.2020
887 Clear 6 1015 48 16093 2.11 213 08:20 09.01.2020
888 Clear 6 1015 48 16093 2.11 213 08:20 09.01.2020
889 Clear 7 1015 33 16093 1.79 227 07:47 09.01.2020
890 Clear 7 1015 33 16093 1.79 227 07:28 09.01.2020
891 Clear 8 1014 34 16093 1.79 227 06:40 09.01.2020
892 Clear 8 1014 34 16093 1.79 227 06:22 09.01.2020
893 Clear 9 1014 34 16093 1.79 227 05:51 09.01.2020
894 Clear 9 1014 25 16093 2.6 180 05:18 09.01.2020
895 Clear 10 1013 29 16093 4.1 190 04:38 09.01.2020
896 Clear 13 1013 25 16093 2.1 130 03:27 09.01.2020
897 Clear 14 1013 22 16093 3.6 310 02:46 09.01.2020
898 Clear 17 1012 16 16093 3.6 270 01:42 09.01.2020
899 Clear 19 1012 12 16093 4.1 240 00:57 09.01.2020
900 Clear 20 1012 12 16093 4.6 230 00:37 09.01.2020
901 Clear 20 1012 12 16093 4.6 230 00:19 09.01.2020
902 Clear 21 1012 17 16093 2.1 240 23:39 08.01.2020
903 Clear 21 1013 15 16093 4.1 250 23:20 08.01.2020
904 Clear 21 1013 15 16093 4.1 300 22:40 08.01.2020
905 Clear 21 1013 15 16093 4.1 300 22:22 08.01.2020
906 Clear 21 1013 16 16093 4.6 280 21:59 08.01.2020
907 Clear 21 1014 18 16093 3.1 230 21:40 08.01.2020
908 Clear 21 1014 18 16093 3.1 230 21:40 08.01.2020
909 Clear 21 1014 18 16093 3.1 230 21:21 08.01.2020
910 Clear 21 1014 18 16093 3.1 230 20:59 08.01.2020
911 Clear 20 1014 19 16093 4.1 190 20:41 08.01.2020
912 Clear 19 1014 19 16093 4.1 190 20:21 08.01.2020
913 Clear 19 1015 21 16093 3.6 290 19:58 08.01.2020
914 Clear 19 1015 20 16093 4.1 140 19:38 08.01.2020
915 Clear 18 1015 21 16093 3.53 166 19:19 08.01.2020
916 Clear 17 1015 26 16093 1.5 130 18:57 08.01.2020
917 Clear 16 1015 27 16093 4.6 120 18:38 08.01.2020
918 Clear 14 1015 27 16093 4.6 120 18:19 08.01.2020
919 Clear 13 1016 29 16093 3.6 110 17:56 08.01.2020
920 Clear 12 1016 31 16093 3.1 130 17:37 08.01.2020
921 Clear 10 1016 27 16093 3.1 130 17:18 08.01.2020
922 Clear 8 1015 36 16093 3.6 120 16:55 08.01.2020
923 Clear 7 1015 38 16093 4.6 130 16:37 08.01.2020
924 Clear 6 1016 44 16093 2.6 130 16:18 08.01.2020
925 Clear 5 1015 48 16093 3.6 130 15:44 08.01.2020
926 Clear 5 1015 48 16093 3.6 130 15:21 08.01.2020
927 Clear 4 1017 74 16093 1.5 180 14:58 08.01.2020
928 Clear 5 1017 74 16093 1.5 180 14:39 08.01.2020
929 Clear 6 1015 35 16093 2.44 143 14:20 08.01.2020
930 Clear 6 1016 35 16093 4.1 120 13:40 08.01.2020
931 Clear 6 1016 35 16093 4.1 120 13:20 08.01.2020
932 Clear 6 1016 38 16093 2.1 140 12:43 08.01.2020
933 Clear 6 1016 38 16093 2.1 140 12:20 08.01.2020
934 Clear 6 1016 31 16093 4.6 110 11:59 08.01.2020
935 Clear 7 1016 33 16093 4.1 100 11:41 08.01.2020
936 Clear 7 1016 33 16093 4.1 100 11:19 08.01.2020
937 Clear 7 1017 33 16093 4.1 140 10:56 08.01.2020
938 Clear 7 1017 33 16093 3.6 120 10:38 08.01.2020
939 Clear 7 1017 33 16093 3.6 120 10:19 08.01.2020
940 Clear 7 1017 41 16093 2.1 150 09:42 08.01.2020
941 Clear 7 1017 41 16093 2.1 150 09:20 08.01.2020
942 Clear 7 1017 29 16093 3.6 130 08:57 08.01.2020
943 Clear 7 1017 31 16093 4.6 110 08:37 08.01.2020
944 Clear 8 1017 31 16093 4.6 110 08:19 08.01.2020
945 Clear 9 1018 33 16093 3.1 120 07:49 08.01.2020
946 Clear 8 1018 29 16093 3.1 100 07:30 08.01.2020
947 Clear 8 1018 36 16093 5.1 100 06:49 08.01.2020
948 Clear 8 1018 34 16093 5.1 110 06:25 08.01.2020
949 Clear 9 1018 52 16093 4.6 120 05:53 08.01.2020
950 Clear 9 1018 52 16093 4.6 120 05:53 08.01.2020
951 Clear 10 1018 31 16093 2.6 110 04:59 08.01.2020
952 Clear 10 1018 52 16093 3.77 106 04:26 08.01.2020
953 Clear 14 1018 37 16093 3.77 106 02:45 08.01.2020
954 Clear 14 1018 37 16093 3.77 106 02:45 08.01.2020
955 Clear 15 1018 37 16093 3.77 106 02:23 08.01.2020
956 Clear 17 1018 28 16093 2.6 300 01:50 08.01.2020
957 Clear 18 1018 25 16093 3.1 310 01:23 08.01.2020
958 Clear 19 1018 22 16093 3.1 330 00:38 08.01.2020
959 Clear 21 1018 22 16093 3.1 330 00:20 08.01.2020
960 Clear 20 1018 18 16093 5.7 330 23:43 07.01.2020
961 Clear 22 1019 10 16093 4.6 110 23:20 07.01.2020
962 Clear 22 1019 10 16093 4.6 110 23:20 07.01.2020
963 Clear 22 1019 8 16093 6.2 100 22:40 07.01.2020
964 Clear 22 1019 8 16093 6.2 100 22:20 07.01.2020
965 Clear 22 1020 7 16093 9.3 110 21:57 07.01.2020
966 Clear 21 1020 7 16093 9.3 110 21:38 07.01.2020
967 Clear 21 1020 7 16093 9.3 110 21:20 07.01.2020
968 Clear 20 1022 12 16093 3.1 120 20:55 07.01.2020
969 Clear 20 1022 12 16093 3.1 120 20:37 07.01.2020
970 Clear 19 1021 15 16093 2.6 80 20:19 07.01.2020
971 Clear 18 1023 15 16093 3.1 100 19:38 07.01.2020
972 Clear 18 1023 15 16093 3.1 100 19:20 07.01.2020
973 Clear 17 1024 18 16093 7.7 100 18:58 07.01.2020
974 Clear 16 1024 18 16093 7.7 100 18:40 07.01.2020
975 Clear 14 1024 19 16093 5.7 110 18:19 07.01.2020
976 Clear 13 1024 19 16093 5.7 110 17:59 07.01.2020
977 Clear 12 1024 23 16093 3.6 100 17:39 07.01.2020
978 Clear 12 1024 23 16093 3.6 100 17:39 07.01.2020
979 Clear 10 1024 45 16093 2.1 90 17:20 07.01.2020
980 Clear 9 1024 27 16093 6.2 110 16:56 07.01.2020
981 Clear 8 1024 27 16093 6.2 110 16:37 07.01.2020
982 Clear 8 1024 27 16093 6.2 110 16:37 07.01.2020
983 Clear 7 1024 27 16093 6.2 110 16:19 07.01.2020
984 Clear 6 1023 35 16093 4.59 114 15:57 07.01.2020
985 Clear 6 1023 35 16093 4.59 114 15:38 07.01.2020
986 Clear 6 1023 31 16093 5.7 120 15:19 07.01.2020
987 Clear 6 1023 74 16093 4.59 114 14:42 07.01.2020
988 Clear 5 1023 74 16093 4.59 114 14:24 07.01.2020
989 Clear 5 1023 69 16093 4.28 113 13:56 07.01.2020
990 Clear 5 1023 69 16093 4.28 113 13:38 07.01.2020
991 Clear 6 1023 69 16093 4.29 112 13:18 07.01.2020
992 Clear 5 1023 80 16093 4.29 112 12:41 07.01.2020
993 Clear 6 1023 80 16093 4.29 112 12:19 07.01.2020
994 Clear 6 1024 64 16093 3.1 90 11:44 07.01.2020
995 Clear 6 1024 64 16093 3.1 90 11:23 07.01.2020
996 Clear 6 1024 74 16093 3.1 70 10:59 07.01.2020
997 Clear 7 1024 74 16093 3.1 70 10:40 07.01.2020
998 Clear 7 1024 74 16093 3.1 70 10:22 07.01.2020
999 Clear 6 1024 60 16093 3.84 118 09:56 07.01.2020
1000 Clear 6 1024 60 16093 3.84 118 09:37 07.01.2020
1001 Clear 7 1024 60 16093 3.84 118 09:19 07.01.2020
1002 Clear 7 1024 32 16093 3.84 118 08:41 07.01.2020
1003 Clear 6 1025 52 16093 5.1 110 08:21 07.01.2020
1004 Clear 6 1025 65 16093 1.5 140 07:51 07.01.2020
1005 Clear 7 1025 60 16093 4.26 115 07:26 07.01.2020
1006 Clear 7 1025 31 16093 3.1 110 06:52 07.01.2020
1007 Clear 7 1026 60 16093 1.5 130 06:32 07.01.2020
1008 Clear 8 1025 56 16093 4.26 115 05:46 07.01.2020
1009 Clear 9 1025 40 16093 1.5 290 03:52 07.01.2020
1010 Clear 10 1025 40 16093 2.1 330 03:25 07.01.2020
1011 Clear 14 1025 35 16093 2.1 290 02:21 07.01.2020
1012 Clear 15 1024 26 16093 3.1 290 01:45 07.01.2020
1013 Clear 17 1025 22 16093 3.6 290 01:21 07.01.2020
1014 Clear 18 1024 17 16093 4.6 330 00:22 07.01.2020
1015 Clear 18 1024 18 16093 7.7 330 23:58 06.01.2020
1016 Clear 19 1024 22 16093 5.1 310 23:39 06.01.2020
1017 Clear 19 1024 22 16093 5.1 310 23:21 06.01.2020
1018 Clear 19 1025 22 16093 4.1 360 22:56 06.01.2020
1019 Clear 18 1024 25 16093 3.1 290 22:37 06.01.2020
1020 Clear 18 1024 25 16093 3.1 290 22:18 06.01.2020
1021 Clear 18 1024 21 16093 2.6 310 21:54 06.01.2020
1022 Clear 18 1024 21 16093 2.6 310 21:36 06.01.2020
1023 Clear 18 1024 21 16093 2.6 310 21:18 06.01.2020
1024 Clear 17 1025 21 16093 2.6 300 20:54 06.01.2020
1025 Clear 17 1025 21 16093 2.6 300 20:54 06.01.2020
1026 Clear 17 1025 21 16093 2.6 300 20:36 06.01.2020
1027 Clear 16 1025 36 16093 2.6 300 20:18 06.01.2020
1028 Clear 16 1025 36 16093 2.6 300 20:18 06.01.2020
1029 Clear 15 1026 34 16093 1.5 320 19:54 06.01.2020
1030 Clear 15 1026 34 16093 1.5 320 19:36 06.01.2020
1031 Clear 15 1026 34 16093 1.5 320 19:18 06.01.2020
1032 Clear 13 1027 50 16093 2.34 66 18:41 06.01.2020
1033 Clear 12 1027 50 16093 2.34 66 18:19 06.01.2020
1034 Clear 10 1027 65 16093 1.5 120 17:39 06.01.2020
1035 Clear 8 1027 65 16093 1.5 120 17:19 06.01.2020
1036 Clear 7 1027 73 0 0.89 0 16:55 06.01.2020
1037 Clear 6 1026 80 16093 1.47 20 16:37 06.01.2020
1038 Clear 4 1026 80 16093 1.47 20 16:18 06.01.2020
1039 Clear 3 1026 62 16093 1.47 20 15:43 06.01.2020
1040 Clear 2 1026 62 16093 1.47 20 15:21 06.01.2020
1041 Clear 3 1025 62 16093 1.47 20 14:59 06.01.2020
1042 Clear 2 1025 62 16093 3.1 150 14:41 06.01.2020
1043 Clear 3 1025 63 16093 3.1 150 14:22 06.01.2020
1044 Clear 3 1024 80 16093 2.6 100 13:58 06.01.2020
1045 Clear 4 1024 80 16093 3.1 90 13:38 06.01.2020
1046 Clear 4 1024 80 16093 3.1 90 13:20 06.01.2020
1047 Clear 4 1024 86 16093 1.5 70 12:44 06.01.2020
1048 Clear 4 1024 86 16093 1.5 70 12:21 06.01.2020
1049 Clear 4 1024 86 16093 4.6 110 11:59 06.01.2020
1050 Clear 4 1024 86 16093 2.1 90 11:41 06.01.2020
1051 Clear 4 1024 86 16093 2.6 110 11:23 06.01.2020
1052 Clear 4 1024 93 16093 2.6 80 10:57 06.01.2020
1053 Clear 4 1024 86 16093 1.19 334 10:39 06.01.2020
1054 Clear 5 1024 86 16093 1.19 334 10:20 06.01.2020
1055 Clear 5 1024 86 16093 1.19 334 10:20 06.01.2020
1056 Clear 5 1024 93 16093 2.6 220 09:39 06.01.2020
1057 Clear 5 1024 93 16093 2.6 220 09:20 06.01.2020
1058 Clear 5 1024 80 16093 1.19 334 08:48 06.01.2020
1059 Clear 5 1024 80 16093 1.19 334 08:48 06.01.2020
1060 Clear 5 1024 93 16093 1.5 80 08:30 06.01.2020
1061 Clear 6 1024 86 16093 2.6 80 07:53 06.01.2020
1062 Clear 7 1024 86 16093 1.85 329 07:33 06.01.2020
1063 Clear 7 1024 75 16093 1.85 329 06:46 06.01.2020
1064 Clear 7 1024 75 16093 1.85 329 06:23 06.01.2020
1065 Clear 8 1023 70 16093 1.85 329 05:45 06.01.2020
1066 Clear 10 1023 70 16093 1.19 294 04:38 06.01.2020
1067 Clear 10 1023 70 16093 1.19 294 04:19 06.01.2020
1068 Clear 13 1022 54 16093 1.5 280 02:46 06.01.2020
1069 Clear 14 1022 54 16093 1.5 280 02:24 06.01.2020
1070 Clear 17 1022 38 16093 3.1 310 01:44 06.01.2020
1071 Clear 18 1022 38 16093 3.1 310 01:26 06.01.2020
1072 Clear 20 1022 30 16093 4.1 330 00:42 06.01.2020
1073 Clear 21 1022 30 16093 4.1 330 00:23 06.01.2020
1074 Clear 22 1022 24 16093 2.6 320 23:42 05.01.2020
1075 Clear 22 1022 24 16093 2.6 320 23:42 05.01.2020
1076 Clear 22 1022 24 16093 2.6 320 23:22 05.01.2020
1077 Clear 22 1023 18 16093 0.35 113 22:56 05.01.2020
1078 Clear 22 1023 18 16093 0.35 113 22:38 05.01.2020
1079 Clear 22 1023 18 16093 0.35 113 22:19 05.01.2020
1080 Clear 22 1024 28 16093 0.35 113 21:54 05.01.2020
1081 Clear 22 1024 28 16093 0.35 113 21:36 05.01.2020
1082 Clear 21 1024 28 16093 0.35 113 21:18 05.01.2020
1083 Clear 20 1025 31 16093 0.35 113 20:55 05.01.2020
1084 Clear 20 1025 31 16093 0.35 113 20:55 05.01.2020
1085 Clear 20 1025 31 16093 0.35 113 20:36 05.01.2020
1086 Clear 19 1025 31 16093 0.77 68 20:18 05.01.2020
1087 Clear 18 1027 26 16093 1.5 150 19:55 05.01.2020
1088 Clear 17 1026 38 16093 0.77 68 19:37 05.01.2020
1089 Clear 17 1026 38 16093 0.77 68 19:18 05.01.2020
1090 Clear 15 1026 37 16093 3.1 120 18:54 05.01.2020
1091 Clear 15 1027 40 16093 0.77 68 18:36 05.01.2020
1092 Clear 14 1027 40 16093 0.77 68 18:18 05.01.2020
1093 Clear 11 1027 61 16093 2.1 120 17:40 05.01.2020
1094 Clear 9 1026 70 16093 4.1 110 17:21 05.01.2020
1095 Clear 7 1026 42 16093 1.08 120 16:58 05.01.2020
1096 Clear 7 1025 52 16093 4.1 150 16:40 05.01.2020
1097 Clear 5 1025 42 16093 1.08 120 16:21 05.01.2020
1098 Clear 4 1025 42 16093 1.08 120 15:41 05.01.2020
1099 Clear 4 1025 42 16093 1.08 120 15:23 05.01.2020
1100 Clear 4 1026 42 16093 1.08 120 14:58 05.01.2020
1101 Clear 5 1026 42 16093 1.08 120 14:40 05.01.2020
1102 Clear 5 1026 42 16093 1.08 120 14:40 05.01.2020
1103 Clear 4 1024 43 16093 1.5 85 14:22 05.01.2020
1104 Clear 5 1024 56 16093 1.5 340 13:59 05.01.2020
1105 Clear 5 1025 43 16093 3.6 110 13:39 05.01.2020
1106 Clear 5 1024 45 16093 1.36 75 13:20 05.01.2020
1107 Clear 5 1024 45 16093 1.36 75 12:57 05.01.2020
1108 Clear 5 1024 45 16093 1.36 75 12:38 05.01.2020
1109 Clear 5 1024 45 16093 1.36 75 12:20 05.01.2020
1110 Clear 5 1025 45 16093 1.36 75 11:55 05.01.2020
1111 Clear 5 1025 45 16093 1.36 75 11:37 05.01.2020
1112 Clear 5 1025 45 16093 1.36 75 11:37 05.01.2020
1113 Clear 5 1025 45 16093 1.36 75 11:37 05.01.2020
1114 Clear 5 1025 49 16093 1.5 320 11:18 05.01.2020
1115 Clear 6 1024 70 16093 2.6 110 10:41 05.01.2020
1116 Clear 6 1024 70 16093 2.6 110 10:20 05.01.2020
1117 Clear 6 1025 80 16093 1.14 136 09:57 05.01.2020
1118 Clear 6 1025 80 16093 1.5 130 09:38 05.01.2020
1119 Clear 6 1025 80 16093 1.5 130 09:38 05.01.2020
1120 Clear 6 1025 80 16093 1.5 130 09:20 05.01.2020
1121 Clear 6 1026 70 16093 2.1 340 08:45 05.01.2020
1122 Clear 6 1026 70 16093 2.1 340 08:21 05.01.2020
1123 Clear 6 1026 70 16093 3.6 130 07:47 05.01.2020
1124 Clear 6 1026 70 16093 3.6 130 07:29 05.01.2020
1125 Clear 7 1026 65 16093 2.6 150 06:55 05.01.2020
1126 Clear 8 1026 70 16093 3.1 100 05:43 05.01.2020
1127 Clear 9 1026 61 16093 2.1 140 04:56 05.01.2020
1128 Clear 9 1025 65 16093 2.6 170 04:19 05.01.2020
1129 Clear 10 1026 53 16093 0.89 51 03:38 05.01.2020
1130 Clear 12 1025 42 16093 0.89 51 02:35 05.01.2020
1131 Clear 14 1025 35 16093 2.6 290 01:52 05.01.2020
1132 Clear 16 1025 36 16093 4.6 300 01:20 05.01.2020
1133 Clear 17 1025 31 16093 3.1 320 00:58 05.01.2020
1134 Clear 18 1025 34 16093 5.7 340 00:39 05.01.2020
1135 Clear 19 1025 34 16093 5.7 340 00:20 05.01.2020
1136 Clear 19 1024 31 16093 2.1 310 23:42 04.01.2020
1137 Clear 19 1024 31 16093 2.1 310 23:42 04.01.2020
1138 Clear 19 1024 25 16093 4.6 290 23:21 04.01.2020
1139 Clear 19 1024 22 16093 1.5 290 22:59 04.01.2020
1140 Clear 19 1024 22 16093 1.5 290 22:39 04.01.2020
1141 Clear 20 1024 22 16093 1.5 290 22:20 04.01.2020
1142 Clear 20 1025 25 16093 1.5 30 21:56 04.01.2020
1143 Clear 19 1025 25 16093 1.5 30 21:37 04.01.2020
1144 Clear 19 1025 25 16093 1.5 30 21:19 04.01.2020
1145 Clear 18 1027 25 16093 1.5 20 20:55 04.01.2020
1146 Clear 18 1027 25 16093 1.5 20 20:36 04.01.2020
1147 Clear 18 1027 25 16093 1.5 20 20:36 04.01.2020
1148 Clear 17 1027 25 16093 1.5 20 20:18 04.01.2020
1149 Clear 15 1027 30 16093 4.1 130 19:41 04.01.2020
1150 Clear 15 1027 30 16093 4.1 130 19:41 04.01.2020
1151 Clear 14 1027 30 16093 4.1 130 19:23 04.01.2020
1152 Clear 14 1028 34 16093 3.6 120 18:57 04.01.2020
1153 Clear 13 1028 43 16093 2.1 160 18:38 04.01.2020
1154 Clear 12 1028 43 16093 2.1 160 18:20 04.01.2020
1155 Clear 11 1028 49 16093 3.6 130 17:55 04.01.2020
1156 Clear 9 1028 56 16093 3.1 130 17:37 04.01.2020
1157 Clear 8 1028 45 16093 1.2 108 17:18 04.01.2020
1158 Clear 6 1027 74 16093 3.1 70 16:41 04.01.2020
1159 Clear 4 1027 74 16093 3.1 70 16:23 04.01.2020
1160 Clear 3 1028 46 16093 2.6 170 15:57 04.01.2020
1161 Clear 2 1028 46 16093 2.6 170 15:38 04.01.2020
1162 Clear 2 1028 46 16093 2.6 170 15:38 04.01.2020
1163 Clear 2 1027 86 16093 1.2 108 15:19 04.01.2020
1164 Clear 2 1026 80 16093 2.1 230 14:56 04.01.2020
1165 Clear 2 1026 74 16093 2.1 170 14:37 04.01.2020
1166 Clear 2 1026 60 16093 1.5 130 14:19 04.01.2020
1167 Clear 2 1026 74 16093 2.6 110 13:54 04.01.2020
1168 Clear 2 1026 74 16093 2.1 90 13:36 04.01.2020
1169 Clear 2 1026 56 16093 2.1 130 13:18 04.01.2020
1170 Clear 2 1026 80 16093 2.6 150 12:41 04.01.2020
1171 Clear 2 1026 80 16093 2.6 150 12:19 04.01.2020
1172 Clear 3 1026 46 16093 3.1 60 11:57 04.01.2020
1173 Clear 3 1026 46 16093 1.32 87 11:38 04.01.2020
1174 Clear 3 1026 50 16093 0.73 57 11:19 04.01.2020
1175 Clear 3 1026 50 16093 2.1 170 10:42 04.01.2020
1176 Clear 3 1026 50 16093 2.1 170 10:23 04.01.2020
1177 Clear 4 1026 50 16093 3.1 100 09:57 04.01.2020
1178 Clear 4 1026 50 16093 3.1 100 09:39 04.01.2020
1179 Clear 4 1026 50 16093 3.1 100 09:20 04.01.2020
1180 Clear 4 1026 50 16093 2.6 110 08:40 04.01.2020
1181 Clear 4 1026 49 16093 2.6 110 08:20 04.01.2020
1182 Clear 4 1027 49 16093 2.6 110 07:42 04.01.2020
1183 Clear 5 1027 49 16093 2.6 110 07:19 04.01.2020
1184 Clear 5 1026 49 16093 0.76 9 06:33 04.01.2020
1185 Clear 6 1026 70 16093 1.5 140 05:20 04.01.2020
1186 Clear 6 1026 47 16093 0.29 294 04:34 04.01.2020
1187 Clear 7 1025 47 16093 0.29 294 03:52 04.01.2020
1188 Clear 8 1025 47 16093 0.29 294 03:18 04.01.2020
1189 Clear 10 1025 43 16093 2.1 260 02:21 04.01.2020
1190 Clear 12 1024 37 16093 2.1 280 01:55 04.01.2020
1191 Clear 13 1024 35 16093 2.6 310 01:31 04.01.2020
1192 Clear 14 1024 30 16093 3.1 330 00:44 04.01.2020
1193 Clear 15 1024 30 16093 3.1 330 00:23 04.01.2020
1194 Clear 15 1024 30 16093 3.1 320 23:46 03.01.2020
1195 Clear 15 1024 30 16093 3.1 320 23:25 03.01.2020
1196 Clear 15 1024 32 16093 2.1 300 22:41 03.01.2020
1197 Clear 15 1024 32 16093 2.1 300 22:41 03.01.2020
1198 Clear 15 1024 32 16093 2.1 300 22:20 03.01.2020
1199 Clear 15 1024 32 16093 1.5 290 21:59 03.01.2020
1200 Clear 14 1024 37 16093 2.14 6 21:38 03.01.2020
1201 Clear 14 1024 37 16093 2.14 6 21:19 03.01.2020
1202 Clear 13 1026 40 16093 2.14 6 20:58 03.01.2020
1203 Clear 13 1025 40 16093 2.14 6 20:40 03.01.2020
1204 Clear 12 1025 40 16093 1.44 62 20:18 03.01.2020
1205 Clear 12 1025 37 16093 2.1 90 19:56 03.01.2020
1206 Clear 11 1025 37 16093 2.1 90 19:37 03.01.2020
1207 Clear 11 1025 37 16093 2.1 90 19:19 03.01.2020
1208 Clear 10 1025 52 16093 1.44 62 18:43 03.01.2020
1209 Clear 9 1025 52 16093 1.44 62 18:24 03.01.2020
1210 Clear 8 1025 80 16093 1.44 62 17:55 03.01.2020
1211 Clear 7 1025 37 16093 1.44 62 17:37 03.01.2020
1212 Clear 5 1024 65 16093 1.5 110 17:18 03.01.2020
1213 Rain 3 1024 66 11265 1.5 80 16:42 03.01.2020
1214 Rain 3 1024 66 11265 1.5 80 16:23 03.01.2020
1215 Rain 1 1023 66 16093 0.11 295 15:57 03.01.2020
1216 Clear 1 1022 66 16093 0.11 295 15:38 03.01.2020
1217 Clear 1 1022 80 16093 3.6 110 15:18 03.01.2020
1218 Clear 1 1021 66 16093 2.6 100 14:38 03.01.2020
1219 Clear 1 1021 80 16093 0.04 279 14:19 03.01.2020
1220 Clear 2 1020 68 16093 1.5 140 13:44 03.01.2020
1221 Clear 2 1020 68 16093 1.5 140 13:44 03.01.2020
1222 Clear 2 1020 68 16093 1.5 140 13:44 03.01.2020
1223 Clear 2 1020 68 16093 1.5 140 13:24 03.01.2020
1224 Clear 2 1020 86 16093 2.6 130 12:59 03.01.2020
1225 Clear 2 1020 67 16093 4.1 100 12:39 03.01.2020
1226 Clear 2 1020 67 16093 4.1 100 12:21 03.01.2020
1227 Clear 2 1020 86 16093 0.12 169 11:45 03.01.2020
1228 Clear 2 1020 86 16093 0.75 211 11:21 03.01.2020
1229 Clear 2 1020 80 16093 4.6 100 10:46 03.01.2020
1230 Clear 2 1020 80 16093 4.6 100 10:27 03.01.2020
1231 Clear 3 1020 75 16093 4.1 100 09:58 03.01.2020
1232 Clear 3 1020 80 16093 3.6 110 09:39 03.01.2020
1233 Clear 3 1020 80 16093 3.6 110 09:21 03.01.2020
1234 Clear 3 1019 93 16093 0.75 211 08:57 03.01.2020
1235 Clear 3 1019 93 16093 0.75 211 08:38 03.01.2020
1236 Clear 3 1019 93 16093 0.83 239 08:19 03.01.2020
1237 Clear 4 1018 86 16093 0.83 239 07:40 03.01.2020
1238 Clear 4 1018 86 16093 0.83 239 07:18 03.01.2020
1239 Clear 4 1018 80 16093 0.83 239 06:49 03.01.2020
1240 Clear 4 1018 86 16093 0.83 239 06:49 03.01.2020
1241 Clear 4 1018 86 16093 0.83 239 06:30 03.01.2020
1242 Clear 5 1017 80 16093 0.83 239 05:45 03.01.2020
1243 Clear 7 1016 70 16093 2.5 309 04:22 03.01.2020
1244 Clear 8 1016 61 16093 2.5 309 02:56 03.01.2020
1245 Clear 8 1016 61 16093 2.5 309 02:56 03.01.2020
1246 Clear 9 1015 61 16093 1.5 320 02:33 03.01.2020
1247 Clear 10 1015 50 16093 2.6 330 01:42 03.01.2020
1248 Clear 12 1014 46 16093 4.1 330 00:50 03.01.2020
1249 Clear 12 1013 46 16093 3.1 300 00:30 03.01.2020
1250 Clear 13 1012 46 16093 3.1 280 23:55 02.01.2020
1251 Clear 13 1012 46 16093 3.1 320 23:37 02.01.2020
1252 Clear 13 1012 45 16093 3.1 320 23:19 02.01.2020
1253 Clear 13 1012 45 16093 4.1 310 22:45 02.01.2020
1254 Clear 13 1012 45 16093 4.1 310 22:22 02.01.2020
1255 Clouds 12 1011 46 16093 3.6 270 22:00 02.01.2020
1256 Clear 12 1012 45 16093 2.6 340 21:41 02.01.2020
1257 Clear 12 1012 45 16093 2.6 340 21:23 02.01.2020
1258 Clouds 12 1012 45 16093 4.1 270 20:59 02.01.2020
1259 Clear 12 1012 45 16093 3.1 300 20:39 02.01.2020
1260 Clear 11 1012 43 16093 3.1 300 20:21 02.01.2020
1261 Clear 11 1013 43 16093 2.6 310 19:55 02.01.2020
1262 Clear 11 1013 43 16093 2.6 310 19:55 02.01.2020
1263 Clear 11 1013 43 16093 2.6 310 19:55 02.01.2020
1264 Clear 11 1013 43 16093 3.6 290 19:37 02.01.2020
1265 Clear 10 1012 61 16093 1.5 270 19:19 02.01.2020
1266 Clear 10 1013 57 16093 4.22 295 18:56 02.01.2020
1267 Clear 10 1013 65 16093 4.22 295 18:38 02.01.2020
1268 Clear 9 1013 65 16093 4.22 295 18:20 02.01.2020
1269 Clear 8 1012 75 16093 4.22 295 17:56 02.01.2020
1270 Clear 8 1012 75 16093 4.22 295 17:36 02.01.2020
1271 Clear 7 1011 81 16093 2.6 150 17:18 02.01.2020
1272 Clear 5 1011 93 16093 1.48 256 16:56 02.01.2020
1273 Clear 5 1011 93 11265 1.48 256 16:38 02.01.2020
1274 Clear 3 1011 93 11265 1.48 256 16:19 02.01.2020
1275 Clear 2 1010 100 16093 1.48 256 15:42 02.01.2020
1276 Clear 2 1010 86 16093 2.1 170 15:24 02.01.2020
1277 Clear 3 1010 93 11265 1.48 256 14:58 02.01.2020
1278 Clear 3 1010 93 16093 2.1 130 14:37 02.01.2020
1279 Clear 3 1009 93 16093 1.5 90 14:19 02.01.2020
1280 Clear 3 1010 93 16093 1.85 258 13:58 02.01.2020
1281 Clear 4 1009 93 16093 2.1 60 13:38 02.01.2020
1282 Clear 5 1009 93 16093 1.48 261 12:59 02.01.2020
1283 Clouds 4 1009 86 16093 1.48 261 12:40 02.01.2020
1284 Clouds 5 1009 86 16093 1.48 261 12:20 02.01.2020
1285 Rain 6 1009 86 16093 1.48 261 11:41 02.01.2020
1286 Rain 6 1009 75 16093 4.1 100 11:21 02.01.2020
1287 Rain 6 1009 87 16093 3.6 160 10:45 02.01.2020
1288 Rain 7 1009 87 16093 3.6 160 10:27 02.01.2020
1289 Rain 6 1010 81 16093 2.28 282 09:56 02.01.2020
1290 Clouds 6 1010 81 16093 2.28 282 09:35 02.01.2020
1291 Clouds 6 1009 81 16093 2.28 282 08:53 02.01.2020
1292 Clouds 6 1009 86 16093 2.1 100 08:32 02.01.2020
1293 Clear 6 1010 86 16093 2.1 130 07:58 02.01.2020
1294 Clear 6 1011 86 16093 2.21 212 07:31 02.01.2020
1295 Clear 6 1011 86 16093 2.21 212 06:58 02.01.2020
1296 Clear 6 1010 81 16093 2.21 212 06:39 02.01.2020
1297 Clear 7 1011 75 16093 2.21 212 05:38 02.01.2020
1298 Clear 8 1011 70 16093 0.79 225 04:34 02.01.2020
1299 Clear 9 1011 66 16093 1.5 140 03:23 02.01.2020
1300 Clear 11 1012 57 16093 3.1 320 02:20 02.01.2020
1301 Clear 12 1012 50 16093 3.1 330 01:48 02.01.2020
1302 Clear 13 1012 46 16093 4.58 316 01:23 02.01.2020
1303 Clear 14 1012 46 16093 2.6 330 00:38 02.01.2020
1304 Clear 14 1012 46 16093 2.6 330 00:38 02.01.2020
1305 Clear 14 1012 46 16093 2.6 330 00:19 02.01.2020
1306 Clear 15 1013 41 16093 2.6 310 23:41 01.01.2020
1307 Clear 15 1012 40 16093 2.1 320 23:21 01.01.2020
1308 Clear 15 1013 38 16093 1.5 210 22:39 01.01.2020
1309 Rain 15 1013 38 16093 1.5 210 22:20 01.01.2020
1310 Rain 15 1014 40 16093 2.1 260 21:58 01.01.2020
1311 Rain 15 1014 43 16093 3.64 316 21:39 01.01.2020
1312 Clear 15 1015 44 16093 2.6 240 21:20 01.01.2020
1313 Clear 14 1015 46 16093 3.64 316 20:56 01.01.2020
1314 Clear 14 1016 54 16093 3.64 316 20:38 01.01.2020
1315 Clear 13 1016 54 16093 0.84 293 20:19 01.01.2020
1316 Clear 13 1018 53 16093 0.84 293 19:55 01.01.2020
1317 Clear 13 1018 53 16093 0.84 293 19:55 01.01.2020
1318 Clear 13 1018 53 16093 0.84 293 19:55 01.01.2020
1319 Clear 13 1018 53 16093 0.84 293 19:55 01.01.2020
1320 Clear 12 1018 57 16093 0.84 293 19:37 01.01.2020
1321 Clear 12 1018 57 16093 0.84 293 19:19 01.01.2020
1322 Clear 11 1018 61 16093 0.84 293 18:56 01.01.2020
1323 Clear 10 1019 65 16093 2.1 100 18:36 01.01.2020
1324 Clear 10 1018 61 16093 3.1 150 18:18 01.01.2020
1325 Clear 9 1018 70 16093 2.1 100 17:56 01.01.2020
1326 Clear 9 1018 70 16093 2.1 100 17:56 01.01.2020
1327 Clear 8 1018 70 16093 2.1 110 17:38 01.01.2020
1328 Clear 6 1018 70 16093 2.1 110 17:19 01.01.2020
1329 Clear 4 1018 86 16093 2.1 110 16:42 01.01.2020
1330 Clear 3 1018 86 16093 2.1 110 16:24 01.01.2020
1331 Clear 2 1018 93 16093 2.6 120 15:58 01.01.2020
1332 Clear 2 1018 86 16093 2.1 150 15:40 01.01.2020
1333 Clear 2 1018 86 16093 2.1 150 15:22 01.01.2020
1334 Clear 2 1017 64 16093 3.6 110 14:59 01.01.2020
1335 Clear 2 1017 86 16093 2.6 100 14:40 01.01.2020
1336 Clear 2 1017 86 16093 2.6 100 14:22 01.01.2020
1337 Clear 2 1017 80 11265 2.1 140 13:56 01.01.2020
1338 Clear 2 1017 80 11265 2.1 140 13:56 01.01.2020
1339 Clear 2 1017 80 11265 2.6 110 13:37 01.01.2020
1340 Clear 2 1017 80 11265 2.6 110 13:18 01.01.2020
1341 Clear 2 1017 86 11265 3.1 130 12:57 01.01.2020
1342 Clear 2 1018 86 11265 3.1 100 12:39 01.01.2020
1343 Clear 2 1018 62 16093 1.5 140 12:19 01.01.2020
1344 Clear 3 1018 62 16093 1.5 70 11:43 01.01.2020
1345 Clear 3 1018 62 16093 1.5 70 11:23 01.01.2020
1346 Clear 3 1018 86 16093 1.12 305 10:59 01.01.2020
1347 Clear 3 1018 86 16093 1.12 305 10:41 01.01.2020
1348 Clear 3 1018 86 14484 3.6 120 10:21 01.01.2020
1349 Clear 3 1018 86 16093 1.12 305 10:21 01.01.2020
1350 Clear 3 1018 80 16093 1.12 305 09:58 01.01.2020
1351 Clear 3 1018 80 16093 1.12 305 09:37 01.01.2020
1352 Clear 4 1018 86 16093 3.1 120 09:18 01.01.2020
1353 Clear 4 1018 80 16093 1.12 305 09:18 01.01.2020
1354 Clear 4 1018 80 16093 1.12 305 08:55 01.01.2020
1355 Clear 4 1018 80 16093 1.12 305 08:36 01.01.2020
1356 Clear 4 1018 80 16093 1.14 289 08:18 01.01.2020
1357 Clear 4 1018 80 16093 1.14 289 07:54 01.01.2020
1358 Clear 5 1018 75 16093 3.1 100 07:35 01.01.2020
1359 Clear 5 1018 75 16093 2.6 90 06:44 01.01.2020
1360 Clear 5 1018 75 16093 2.6 90 06:20 01.01.2020
1361 Clear 7 1018 75 16093 2.03 317 05:21 01.01.2020
1362 Clouds 9 1017 57 16093 3.6 210 03:43 01.01.2020
1363 Clouds 10 1017 57 16093 3.6 210 03:22 01.01.2020
1364 Clouds 10 1016 57 16093 5.1 170 02:56 01.01.2020
1365 Clouds 11 1016 53 16093 2.03 317 02:33 01.01.2020
1366 Clear 12 1015 43 16093 3.6 290 01:45 01.01.2020
1367 Clear 13 1015 43 16093 3.6 290 01:25 01.01.2020
1368 Clear 14 1015 42 16093 4.6 300 00:57 01.01.2020
1369 Clear 14 1015 42 16093 4.1 300 00:38 01.01.2020
1370 Clear 15 1015 42 16093 4.1 300 00:20 01.01.2020
1371 Clear 16 1014 35 16093 4.6 310 23:40 31.12.2019
1372 Clear 16 1014 35 16093 4.6 310 23:21 31.12.2019
1373 Clear 16 1014 33 16093 3.6 320 22:57 31.12.2019
1374 Clear 16 1014 33 16093 4.1 320 22:38 31.12.2019
1375 Clear 16 1014 33 16093 4.6 130 22:18 31.12.2019
1376 Clear 16 1014 33 16093 5.1 310 21:55 31.12.2019
1377 Clear 17 1015 33 16093 4.1 330 21:36 31.12.2019
1378 Clear 16 1014 29 16093 5.1 70 21:18 31.12.2019
1379 Clear 16 1015 34 16093 3.67 106 20:40 31.12.2019
1380 Clear 14 1015 33 16093 4.6 80 20:22 31.12.2019
1381 Clear 14 1015 33 16093 4.6 80 19:59 31.12.2019
1382 Clouds 14 1016 34 16093 2.6 30 19:40 31.12.2019
1383 Clouds 13 1016 34 16093 2.6 30 19:22 31.12.2019
1384 Clouds 13 1016 34 16093 2.6 30 19:22 31.12.2019
1385 Clouds 13 1017 39 16093 1.5 70 18:58 31.12.2019
1386 Clear 12 1017 39 16093 2.6 110 18:40 31.12.2019
1387 Clear 11 1017 39 16093 5.1 120 18:20 31.12.2019
1388 Clear 10 1016 52 16093 3.1 130 17:56 31.12.2019
1389 Clouds 10 1016 70 16093 3.6 120 17:38 31.12.2019
1390 Clouds 8 1016 70 16093 3.6 120 17:19 31.12.2019
1391 Clear 8 1016 75 16093 3.7 92 16:57 31.12.2019
1392 Clear 7 1015 80 16093 3.7 92 16:38 31.12.2019
1393 Clear 7 1015 80 16093 3.7 92 16:19 31.12.2019
1394 Clear 7 1015 86 16093 3.7 92 15:56 31.12.2019
1395 Clear 7 1015 86 16093 3.7 92 15:38 31.12.2019
1396 Clear 7 1015 86 16093 3.7 92 15:20 31.12.2019
1397 Clear 7 1014 75 16093 3.7 92 14:57 31.12.2019
1398 Clear 7 1014 80 16093 3.7 92 14:38 31.12.2019
1399 Clear 7 1014 80 16093 3.7 92 14:38 31.12.2019
1400 Clear 7 1014 80 16093 3.53 101 14:19 31.12.2019
1401 Clear 7 1014 80 16093 3.53 101 13:57 31.12.2019
1402 Clear 7 1013 80 16093 3.53 101 13:39 31.12.2019
1403 Clear 7 1013 43 16093 1.5 100 13:20 31.12.2019
1404 Clear 7 1014 80 16093 3.73 107 12:56 31.12.2019
1405 Clear 7 1014 80 16093 3.73 107 12:56 31.12.2019
1406 Clear 7 1014 80 16093 1.5 310 12:38 31.12.2019
1407 Clear 7 1014 80 16093 1.5 310 12:19 31.12.2019
1408 Clear 7 1014 80 16093 2.1 40 11:56 31.12.2019
1409 Clear 8 1014 80 16093 1.5 30 11:37 31.12.2019
1410 Clear 8 1014 80 16093 1.5 30 11:19 31.12.2019
1411 Clear 7 1014 56 16093 4.4 102 10:56 31.12.2019
1412 Clear 7 1014 56 16093 2.6 120 10:37 31.12.2019
1413 Clear 7 1014 56 16093 2.6 120 10:19 31.12.2019
1414 Clear 7 1014 80 16093 3.1 110 09:58 31.12.2019
1415 Clear 7 1014 80 16093 1.5 70 09:38 31.12.2019
1416 Clear 7 1014 80 16093 1.5 70 09:19 31.12.2019
1417 Clear 7 1014 86 16093 4.4 102 08:43 31.12.2019
1418 Clear 7 1014 86 16093 3.98 103 08:24 31.12.2019
1419 Clear 7 1014 80 16093 3.98 103 07:59 31.12.2019
1420 Clear 6 1014 75 16093 3.98 103 07:41 31.12.2019
1421 Clear 6 1014 75 16093 3.98 103 07:19 31.12.2019
1422 Clear 6 1014 80 16093 1.5 160 06:42 31.12.2019
1423 Clear 6 1014 86 16093 3.98 103 05:45 31.12.2019
1424 Clear 7 1014 75 16093 3.97 98 04:27 31.12.2019
1425 Clear 8 1014 70 16093 3.97 98 03:27 31.12.2019
1426 Clear 9 1014 46 16093 3.97 98 02:39 31.12.2019
1427 Clear 10 1014 61 16093 5.19 81 01:53 31.12.2019
1428 Clear 10 1014 39 16093 5.19 81 01:32 31.12.2019
1429 Clear 11 1014 40 16093 2.1 310 00:56 31.12.2019
1430 Clear 12 1014 40 16093 2.6 310 00:37 31.12.2019
1431 Clear 13 1013 33 16093 2.1 30 00:18 31.12.2019
1432 Clear 13 1013 33 16093 2.1 30 00:18 31.12.2019
1433 Clear 13 1013 30 16093 4.6 50 23:55 30.12.2019
1434 Clear 13 1013 30 16093 4.6 50 23:36 30.12.2019
1435 Clear 14 1013 30 16093 4.6 50 23:18 30.12.2019
1436 Clear 14 1013 33 16093 2.6 50 22:55 30.12.2019
1437 Clear 14 1013 33 16093 2.6 50 22:37 30.12.2019
1438 Clear 14 1013 33 16093 2.6 50 22:18 30.12.2019
1439 Clouds 13 1014 35 16093 3.1 50 21:55 30.12.2019
1440 Clouds 13 1014 35 16093 3.1 50 21:55 30.12.2019
1441 Clouds 13 1014 35 16093 3.1 50 21:55 30.12.2019
1442 Clouds 13 1014 35 16093 3.1 50 21:37 30.12.2019
1443 Clouds 12 1014 35 16093 3.1 50 21:18 30.12.2019
1444 Clouds 11 1015 34 16093 2.6 60 20:54 30.12.2019
1445 Clear 11 1016 45 16093 5.12 94 20:36 30.12.2019
1446 Clouds 10 1015 34 16093 2.6 60 20:18 30.12.2019
1447 Clear 9 1016 48 16093 4.17 106 19:55 30.12.2019
1448 Clear 9 1017 48 16093 2.1 90 19:36 30.12.2019
1449 Clear 8 1017 40 16093 2.1 40 19:18 30.12.2019
1450 Clear 8 1018 60 16093 3.1 80 18:41 30.12.2019
1451 Clear 7 1018 60 16093 3.1 80 18:21 30.12.2019
1452 Clear 6 1018 60 16093 3.6 90 17:59 30.12.2019
1453 Clear 6 1018 69 16093 4.1 90 17:40 30.12.2019
1454 Clear 5 1018 69 16093 4.1 90 17:19 30.12.2019
1455 Clear 3 1018 80 16093 1.71 127 16:59 30.12.2019
1456 Clear 3 1018 80 16093 1.71 127 16:39 30.12.2019
1457 Clear 2 1018 80 16093 1.71 127 16:20 30.12.2019
1458 Clear 1 1017 69 16093 2.1 210 15:56 30.12.2019
1459 Clear 1 1017 69 16093 2.1 130 15:38 30.12.2019
1460 Clear 0 1017 74 16093 2.1 120 15:19 30.12.2019
1461 Clear 0 1017 80 16093 3.6 110 14:43 30.12.2019
1462 Clear 0 1017 80 16093 3.6 110 14:21 30.12.2019
1463 Clear 0 1017 69 16093 1.39 95 13:59 30.12.2019
1464 Clear 0 1017 58 16093 2.1 190 13:41 30.12.2019
1465 -273 0 0 0 0 0 13:22 30.12.2019
1466 Rain 1 1017 59 16093 1.5 50 12:57 30.12.2019
1467 Rain 1 1017 86 16093 1.5 350 12:38 30.12.2019
1468 Rain 1 1017 86 16093 1.5 350 12:19 30.12.2019
1469 Rain 1 1017 86 16093 1.5 350 12:18 30.12.2019
1470 Clear 1 1017 86 16093 1.5 40 11:46 30.12.2019
1471 Rain 2 1017 64 16093 2.1 180 11:22 30.12.2019
1472 Rain 2 1018 61 16093 2.1 20 10:59 30.12.2019
1473 Rain 2 1018 61 16093 0.61 169 10:40 30.12.2019
1474 Rain 2 1018 61 16093 0.61 169 10:19 30.12.2019
1475 Clear 2 1018 80 16093 0.61 169 09:43 30.12.2019
1476 Clear 2 1018 80 16093 0.61 169 09:21 30.12.2019
1477 Clear 2 1018 74 16093 0.61 169 08:57 30.12.2019
1478 Clear 2 1018 74 16093 0.61 169 08:38 30.12.2019
1479 Clear 2 1018 74 16093 1.22 97 08:19 30.12.2019
1480 Clear 2 1019 80 16093 1.5 180 07:46 30.12.2019
1481 Clear 2 1019 80 16093 1.5 180 07:23 30.12.2019
1482 Clear 2 1020 80 16093 2.6 210 06:30 30.12.2019
1483 Clear 3 1020 64 16093 2.6 10 04:31 30.12.2019
1484 Clear 4 1020 60 16093 2.1 360 03:47 30.12.2019
1485 Clear 5 1020 60 16093 2.1 350 02:45 30.12.2019
1486 Clear 5 1020 60 16093 2.1 350 02:25 30.12.2019
1487 Clear 7 1020 39 16093 2.1 340 01:27 30.12.2019
1488 Clear 8 1020 34 16093 1.92 9 00:56 30.12.2019
1489 Clear 9 1020 34 16093 1.92 9 00:36 30.12.2019
1490 Clear 9 1020 33 16093 1.92 9 23:42 29.12.2019
1491 Clear 9 1020 33 16093 0.92 338 23:24 29.12.2019
1492 Clear 9 1020 36 16093 0.92 338 22:58 29.12.2019
1493 Clear 9 1020 33 16093 0.92 338 22:38 29.12.2019
1494 Clear 9 1020 33 16093 0.92 338 22:38 29.12.2019
1495 Clear 9 1020 33 16093 0.92 338 22:20 29.12.2019
1496 Clear 9 1021 33 16093 1.5 310 21:56 29.12.2019
1497 Clear 8 1021 33 16093 0.92 338 21:38 29.12.2019
1498 Clear 8 1021 39 16093 2.1 320 21:19 29.12.2019
1499 Clear 8 1022 36 16093 0.92 338 20:55 29.12.2019
1500 Clear 8 1022 41 16093 0.92 338 20:37 29.12.2019
1501 Clear 7 1022 45 16093 0.57 105 20:18 29.12.2019
1502 Clear 7 1023 41 16093 0.57 105 19:55 29.12.2019
1503 Clear 7 1024 44 16093 0.57 105 19:37 29.12.2019
1504 Clear 6 1023 48 16093 1.5 40 19:18 29.12.2019
1505 Clear 6 1024 48 16093 0.57 105 18:54 29.12.2019
1506 Clear 5 1024 55 16093 0.57 105 18:36 29.12.2019
1507 Clear 5 1023 51 16093 1.5 130 18:18 29.12.2019
1508 Clear 4 1023 64 16093 0.57 105 17:55 29.12.2019
1509 Clear 3 1023 69 16093 0.57 105 17:36 29.12.2019
1510 Clear 3 1022 64 16093 3.6 140 17:18 29.12.2019
1511 Clear 1 1022 74 16093 2.1 130 16:55 29.12.2019
1512 Clear 0 1022 59 16093 2.6 110 16:36 29.12.2019
1513 Clear -1 1021 80 16093 3.1 130 16:18 29.12.2019
1514 Clear -2 1021 59 16093 3.1 100 15:55 29.12.2019
1515 Clear -2 1021 59 16093 3.1 110 15:37 29.12.2019
1516 Clear -3 1021 86 16093 3.6 110 15:18 29.12.2019
1517 Clear -2 1021 86 16093 2.1 90 14:47 29.12.2019
1518 Clear -2 1021 86 16093 2.1 90 14:19 29.12.2019
1519 Clear -2 1020 86 16093 3.1 120 14:00 29.12.2019
1520 Clear -2 1021 59 16093 1.65 219 13:40 29.12.2019
1521 Clear -2 1021 58 16093 1.94 203 13:22 29.12.2019
1522 Clear -2 1020 86 16093 1.94 203 12:58 29.12.2019
1523 Clear -1 1020 86 16093 1.94 203 12:40 29.12.2019
1524 Clear -1 1020 86 16093 1.94 203 12:22 29.12.2019
1525 Clear -1 1020 86 16093 1.94 203 12:22 29.12.2019
1526 Clear -1 1020 58 16093 1.94 203 11:43 29.12.2019
1527 Clear -1 1020 58 16093 1.94 203 11:23 29.12.2019
1528 Clear -1 1020 54 16093 2.18 232 10:59 29.12.2019
1529 Clear -1 1020 54 16093 2.18 232 10:40 29.12.2019
1530 Clear 0 1020 54 16093 2.18 232 10:18 29.12.2019
1531 Clear 0 1020 74 16093 1.5 180 09:47 29.12.2019
1532 Clear 0 1020 74 16093 1.5 180 09:28 29.12.2019
1533 Clear 0 1020 74 16093 1.5 180 09:28 29.12.2019
1534 Clear 0 1019 74 16093 2.1 160 08:59 29.12.2019
1535 Clear 1 1019 69 16093 2.1 150 08:40 29.12.2019
1536 Clear 1 1019 69 16093 2.1 150 08:40 29.12.2019
1537 Clear 1 1019 69 16093 2.1 150 08:21 29.12.2019
1538 Rain 2 1019 69 16093 1.5 110 07:44 29.12.2019
1539 Rain 2 1019 69 16093 1.5 110 07:25 29.12.2019
1540 Clouds 3 1019 64 16093 3.1 210 06:38 29.12.2019
1541 Clouds 3 1018 55 16093 3.6 220 06:18 29.12.2019
1542 Clouds 4 1018 60 16093 3.1 250 05:44 29.12.2019
1543 Clouds 4 1017 55 16093 2.6 260 04:32 29.12.2019
1544 Clouds 5 1017 48 16093 3.6 270 03:35 29.12.2019
1545 Clouds 6 1016 48 16093 4.1 320 02:27 29.12.2019
1546 Clouds 7 1016 48 16093 6.2 310 01:52 29.12.2019
1547 Clouds 7 1015 45 16093 6.7 310 01:29 29.12.2019
1548 Clouds 7 1015 45 16093 6.7 310 01:29 29.12.2019
1549 Clouds 8 1014 36 16093 7.2 280 00:45 29.12.2019
1550 Clouds 8 1014 36 16093 7.2 280 00:25 29.12.2019
1551 Clouds 9 1014 39 16093 6.7 280 23:55 28.12.2019
1552 Clouds 9 1013 52 16093 6.2 250 23:37 28.12.2019
1553 Drizzle 9 1013 50 16093 6.2 260 23:18 28.12.2019
1554 Clouds 9 1013 46 16093 8.7 260 22:37 28.12.2019
1555 Rain 9 1013 46 16093 8.2 270 22:18 28.12.2019
1556 Clouds 9 1014 42 16093 6.7 260 21:56 28.12.2019
1557 Clouds 9 1014 43 16093 5.7 250 21:37 28.12.2019
1558 Clouds 9 1014 49 16093 8.2 260 21:19 28.12.2019
1559 Clouds 9 1015 50 16093 8.2 260 20:42 28.12.2019
1560 Clouds 8 1015 47 16093 8.2 260 20:23 28.12.2019
1561 Clouds 8 1015 54 16093 7.7 240 19:59 28.12.2019
1562 Clear 8 1016 57 16093 5.1 260 19:41 28.12.2019
1563 Clear 8 1016 57 16093 5.1 260 19:23 28.12.2019
1564 Clouds 7 1017 54 16093 5.7 260 18:59 28.12.2019
1565 Clouds 7 1016 65 16093 5.7 240 18:40 28.12.2019
1566 Clouds 6 1016 70 16093 5.1 230 18:20 28.12.2019
1567 Clouds 6 1016 75 16093 3.1 220 17:58 28.12.2019
1568 Clouds 6 1016 75 16093 3.1 250 17:39 28.12.2019
1569 Clouds 5 1016 81 16093 3.1 230 17:19 28.12.2019
1570 Clouds 5 1016 81 16093 3.6 230 16:48 28.12.2019
1571 Clouds 5 1016 81 16093 3.6 230 16:26 28.12.2019
1572 Clouds 5 1015 87 16093 3.6 220 15:57 28.12.2019
1573 Clouds 5 1015 87 16093 3.1 210 15:39 28.12.2019
1574 Rain 5 1015 87 16093 3.1 210 15:20 28.12.2019
1575 Rain 5 1016 86 16093 3.31 219 14:45 28.12.2019
1576 Rain 5 1015 81 16093 3.31 219 14:24 28.12.2019
1577 Rain 5 1015 87 16093 2.1 190 13:57 28.12.2019
1578 Rain 5 1015 87 16093 2.1 200 13:38 28.12.2019
1579 Rain 5 1015 87 16093 2.1 200 13:19 28.12.2019
1580 Rain 5 1015 87 16093 2.18 239 12:44 28.12.2019
1581 Rain 5 1015 87 16093 2.18 239 12:44 28.12.2019
1582 Rain 5 1015 87 16093 2.18 239 12:24 28.12.2019
1583 Rain 5 1015 87 16093 2.18 239 11:58 28.12.2019
1584 Rain 5 1015 87 16093 2.1 210 11:39 28.12.2019
1585 Clouds 5 1015 87 16093 2.1 210 11:20 28.12.2019
1586 Clouds 5 1014 93 16093 1.5 220 10:46 28.12.2019
1587 Clouds 5 1014 93 16093 1.5 220 10:22 28.12.2019
1588 Clouds 5 1014 93 16093 1.5 220 10:22 28.12.2019
1589 Clouds 5 1014 93 16093 2.1 210 09:58 28.12.2019
1590 Clouds 5 1014 87 16093 1.5 210 09:40 28.12.2019
1591 Clouds 5 1013 86 16093 0.53 225 09:20 28.12.2019
1592 Clouds 5 1014 87 16093 1.5 210 09:20 28.12.2019
1593 Clouds 5 1013 81 16093 0.53 225 08:44 28.12.2019
1594 Clouds 5 1014 100 16093 0.53 225 08:26 28.12.2019
1595 Rain 5 1014 81 16093 0.62 64 07:55 28.12.2019
1596 Rain 5 1014 81 16093 1.5 280 07:32 28.12.2019
1597 Rain 5 1014 87 16093 1.5 270 06:41 28.12.2019
1598 Rain 6 1014 81 16093 1.66 260 04:59 28.12.2019
1599 Clouds 6 1013 87 16093 1.66 260 03:47 28.12.2019
1600 Rain 6 1014 93 16093 1.5 320 02:49 28.12.2019
1601 Rain 7 1012 75 16093 5.1 270 01:59 28.12.2019
1602 Rain 8 1012 81 16093 4.13 266 01:31 28.12.2019
1603 Clouds 8 1012 76 16093 1.5 180 00:58 28.12.2019
1604 Clouds 8 1012 76 16093 1.5 180 00:40 28.12.2019
1605 Clouds 8 1012 66 16093 3.6 350 00:20 28.12.2019
1606 Rain 9 1011 76 16093 2.6 290 23:44 27.12.2019
1607 Rain 9 1011 76 16093 2.6 290 23:44 27.12.2019
1608 Rain 8 1011 81 16093 2.1 290 23:20 27.12.2019
1609 Rain 8 1011 87 16093 1.5 310 22:58 27.12.2019
1610 Rain 8 1011 87 16093 1.5 310 22:39 27.12.2019
1611 Rain 8 1010 66 16093 4.6 230 22:20 27.12.2019
1612 Rain 8 1011 66 16093 5.1 260 21:56 27.12.2019
1613 Rain 8 1011 81 16093 6.7 250 21:37 27.12.2019
1614 Clouds 8 1011 81 16093 6.7 250 21:19 27.12.2019
1615 Rain 8 1011 70 16093 4.6 210 20:42 27.12.2019
1616 Rain 7 1011 70 16093 4.6 210 20:23 27.12.2019
1617 Rain 7 1012 81 16093 4.6 180 19:43 27.12.2019
1618 Rain 6 1012 75 16093 5.1 130 19:21 27.12.2019
1619 Rain 6 1012 81 16093 4.6 180 18:59 27.12.2019
1620 Rain 6 1012 81 16093 4.1 190 18:40 27.12.2019
1621 Rain 6 1012 81 16093 3.6 150 18:21 27.12.2019
1622 Rain 6 1012 87 16093 4.6 130 17:58 27.12.2019
1623 Drizzle 6 1012 87 16093 1.5 140 17:40 27.12.2019
1624 Rain 6 1012 93 16093 1.5 270 17:19 27.12.2019
1625 Rain 5 1012 81 11265 1.5 0 16:58 27.12.2019
1626 Drizzle 5 1011 81 16093 3.6 150 16:38 27.12.2019
1627 Rain 6 1011 93 4828 2.1 260 16:19 27.12.2019
1628 Rain 6 1010 75 16093 3.1 130 15:45 27.12.2019
1629 Clouds 6 1010 75 16093 3.1 130 15:22 27.12.2019
1630 Clouds 5 1010 75 16093 6.2 120 14:57 27.12.2019
1631 Clouds 5 1010 81 16093 7.2 120 14:39 27.12.2019
1632 Clouds 5 1010 86 16093 4.1 140 14:20 27.12.2019
1633 Clouds 5 1010 81 16093 7.2 120 14:20 27.12.2019
1634 Rain 5 1009 81 16093 6.7 120 13:55 27.12.2019
1635 Rain 5 1010 81 16093 6.2 120 13:37 27.12.2019
1636 Rain 5 1010 81 16093 6.2 120 13:18 27.12.2019
1637 Rain 5 1009 86 16093 6.7 100 12:40 27.12.2019
1638 Rain 5 1010 86 16093 5.7 110 12:22 27.12.2019
1639 Rain 5 1011 86 16093 3.1 120 11:46 27.12.2019
1640 Rain 5 1012 81 16093 3.6 120 11:26 27.12.2019
1641 Rain 5 1009 87 16093 7.7 100 10:58 27.12.2019
1642 Rain 5 1011 93 16093 4.6 290 10:39 27.12.2019
1643 Rain 5 1012 87 9656 2.6 320 10:21 27.12.2019
1644 Rain 5 1011 87 16093 5.7 290 09:43 27.12.2019
1645 Rain 5 1011 87 16093 5.7 290 09:21 27.12.2019
1646 Rain 6 1012 100 8047 2.6 320 08:58 27.12.2019
1647 Drizzle 6 1011 87 16093 7.7 290 08:36 27.12.2019
1648 Rain 7 1012 75 16093 6.2 300 07:51 27.12.2019
1649 Rain 7 1011 70 16093 5.1 320 07:32 27.12.2019
1650 Clouds 8 1012 81 16093 4.1 340 06:37 27.12.2019
1651 Clouds 10 1012 70 16093 3.6 270 05:38 27.12.2019
1652 Clear 12 1011 43 16093 4.1 230 03:44 27.12.2019
1653 Clouds 14 1009 62 16093 2.6 360 02:21 27.12.2019
1654 Clouds 15 1009 47 16093 1.5 300 01:38 27.12.2019
1655 Clouds 15 1009 47 16093 1.5 300 01:19 27.12.2019
1656 Clear 16 1010 45 16093 5.7 190 00:43 27.12.2019
1657 Clouds 16 1008 45 16093 6.2 220 00:24 27.12.2019
1658 Clouds 16 1008 45 16093 6.2 220 00:24 27.12.2019
1659 Clear 17 1008 45 16093 7.7 220 23:42 26.12.2019
1660 Clear 17 1008 35 16093 7.7 220 23:22 26.12.2019
1661 Clear 17 1009 35 16093 6.7 210 22:48 26.12.2019
1662 Clouds 17 1009 35 16093 5.1 220 22:23 26.12.2019
1663 Clear 17 1009 31 16093 1.5 180 21:59 26.12.2019
1664 Clouds 17 1010 35 16093 4.1 150 21:39 26.12.2019
1665 Clouds 17 1010 35 16093 4.1 150 21:20 26.12.2019
1666 Clear 16 1011 38 16093 5.7 120 20:46 26.12.2019
1667 Clear 16 1011 38 16093 5.7 120 20:23 26.12.2019
1668 Rain 15 1012 44 16093 4.1 180 19:59 26.12.2019
1669 Rain 15 1013 44 16093 5.7 120 19:40 26.12.2019
1670 Rain 14 1013 44 16093 5.7 120 19:22 26.12.2019
1671 Clear 13 1013 54 16093 5.1 120 18:58 26.12.2019
1672 Clear 13 1013 57 16093 3.6 130 18:39 26.12.2019
1673 Clear 11 1013 57 16093 3.6 130 18:19 26.12.2019
1674 Clear 11 1014 70 16093 3.1 130 17:57 26.12.2019
1675 Clear 9 1014 75 16093 2.6 120 17:38 26.12.2019
1676 Clear 9 1014 75 16093 2.6 120 17:38 26.12.2019
1677 Clear 8 1014 66 16093 4.6 120 17:18 26.12.2019
1678 Rain 6 1013 80 16093 2.6 130 16:43 26.12.2019
1679 Rain 5 1013 80 16093 2.6 130 16:23 26.12.2019
1680 Clear 4 1013 86 16093 2.6 140 15:56 26.12.2019
1681 Clear 4 1013 86 16093 2.6 140 15:56 26.12.2019
1682 Clear 4 1013 86 16093 1.5 120 15:38 26.12.2019
1683 Clear 4 1013 86 16093 1.5 120 15:18 26.12.2019
1684 Clear 4 1013 93 16093 2.02 165 14:40 26.12.2019
1685 Clear 4 1013 93 16093 1.67 132 14:22 26.12.2019
1686 Clear 4 1013 93 16093 1.67 132 13:44 26.12.2019
1687 Clear 4 1013 93 16093 1.59 127 13:22 26.12.2019
1688 Clear 4 1013 86 16093 2.1 220 12:58 26.12.2019
1689 Clear 4 1013 86 16093 3.1 140 12:39 26.12.2019
1690 Clear 4 1013 86 16093 3.1 140 12:39 26.12.2019
1691 Clear 4 1014 81 16093 4.6 110 12:20 26.12.2019
1692 Clouds 4 1014 86 16093 3.6 100 11:57 26.12.2019
1693 Rain 4 1014 86 16093 3.6 110 11:39 26.12.2019
1694 Rain 4 1014 86 16093 3.6 110 11:20 26.12.2019
1695 Rain 4 1014 93 16093 1.5 70 10:47 26.12.2019
1696 Clear 4 1014 93 16093 1.5 70 10:19 26.12.2019
1697 Clear 4 1014 93 16093 1.5 70 10:19 26.12.2019
1698 Clear 4 1015 100 16093 1.5 140 09:50 26.12.2019
1699 Clear 4 1015 100 16093 1.5 140 09:32 26.12.2019
1700 Clear 4 1015 93 16093 0.97 152 08:55 26.12.2019
1701 Clear 4 1015 93 16093 0.97 152 08:36 26.12.2019
1702 Clear 4 1015 86 16093 1.26 185 08:18 26.12.2019
1703 Clear 5 1016 100 16093 1.26 185 07:30 26.12.2019
1704 Clear 5 1016 100 16093 1.26 185 07:30 26.12.2019
1705 Clear 5 1015 100 16093 1.26 185 06:54 26.12.2019
1706 Clear 6 1015 93 16093 1.26 185 06:32 26.12.2019
1707 Clear 6 1015 93 16093 1.26 185 05:46 26.12.2019
1708 Clear 7 1015 87 16093 2.1 310 04:59 26.12.2019
1709 Clear 8 1015 87 16093 2.1 300 04:30 26.12.2019
1710 Clear 9 1015 71 16093 2.1 320 03:18 26.12.2019
1711 Clear 10 1014 66 16093 1.5 30 02:38 26.12.2019
1712 Clear 11 1014 66 16093 1.5 30 02:19 26.12.2019
1713 Clouds 12 1014 62 16093 3.1 350 01:41 26.12.2019
1714 Clouds 12 1014 62 16093 3.1 350 01:22 26.12.2019
1715 Clouds 14 1013 50 16093 6.7 290 00:41 26.12.2019
1716 Clouds 14 1013 38 16093 4.6 270 00:22 26.12.2019
1717 Clouds 14 1013 38 16093 5.7 280 23:42 25.12.2019
1718 Clouds 14 1013 38 16093 5.7 280 23:21 25.12.2019
1719 Clouds 14 1013 44 16093 5.1 250 22:59 25.12.2019
1720 Clouds 14 1013 44 16093 6.2 260 22:40 25.12.2019
1721 Clouds 14 1013 44 16093 6.2 260 22:22 25.12.2019
1722 Rain 14 1013 41 16093 4.1 250 21:59 25.12.2019
1723 Rain 14 1014 62 16093 7.18 222 21:39 25.12.2019
1724 Rain 13 1013 54 16093 6.2 250 21:20 25.12.2019
1725 Rain 13 1014 62 16093 7.18 222 20:56 25.12.2019
1726 Rain 13 1014 58 16093 6.7 200 20:38 25.12.2019
1727 Rain 13 1015 54 16093 7.7 210 20:18 25.12.2019
1728 Rain 13 1015 58 16093 4.6 180 19:43 25.12.2019
1729 Drizzle 13 1015 54 16093 6.2 170 19:25 25.12.2019
1730 Rain 12 1015 71 16093 2.1 110 18:58 25.12.2019
1731 Rain 12 1015 76 16093 2.6 110 18:37 25.12.2019
1732 Rain 12 1015 76 16093 2.6 110 18:18 25.12.2019
1733 Rain 11 1015 93 16093 2.6 130 17:41 25.12.2019
1734 Rain 10 1015 71 16093 1.5 120 17:19 25.12.2019
1735 Rain 9 1015 100 16093 3.57 193 16:58 25.12.2019
1736 Rain 9 1015 93 16093 1.5 210 16:37 25.12.2019
1737 Rain 8 1015 93 16093 1.5 210 16:18 25.12.2019
1738 Rain 8 1014 81 16093 3.57 193 15:57 25.12.2019
1739 Rain 8 1014 81 16093 3.57 193 15:57 25.12.2019
1740 Rain 8 1014 87 16093 3.1 150 15:38 25.12.2019
1741 Clouds 7 1014 87 16093 3.1 150 15:20 25.12.2019
1742 Clouds 7 1015 81 16093 1.5 100 14:57 25.12.2019
1743 Clouds 7 1015 81 16093 1.5 100 14:39 25.12.2019
1744 Clouds 7 1015 81 16093 1.5 100 14:39 25.12.2019
1745 Clouds 7 1013 81 16093 2.1 100 14:20 25.12.2019
1746 Clouds 7 1013 87 16093 3.1 120 13:44 25.12.2019
1747 Rain 8 1013 81 16093 3.69 203 13:21 25.12.2019
1748 Drizzle 8 1013 87 16093 2.6 100 12:57 25.12.2019
1749 Drizzle 8 1013 87 16093 2.6 100 12:38 25.12.2019
1750 Clouds 8 1013 87 16093 3.56 196 12:19 25.12.2019
1751 Clouds 8 1013 93 16093 3.56 196 11:43 25.12.2019
1752 Clouds 8 1013 93 16093 4.59 192 11:22 25.12.2019
1753 Clouds 8 1013 87 16093 4.59 192 10:59 25.12.2019
1754 Clouds 8 1013 87 16093 4.59 192 10:36 25.12.2019
1755 Rain 8 1013 81 16093 2.6 200 10:18 25.12.2019
1756 Rain 9 1013 87 16093 1.5 140 09:43 25.12.2019
1757 Clear 9 1013 87 16093 1.5 140 09:25 25.12.2019
1758 Clear 9 1013 87 16093 1.5 140 09:25 25.12.2019
1759 Clear 9 1013 81 16093 4.59 192 08:45 25.12.2019
1760 Clear 9 1013 81 16093 4.59 192 08:25 25.12.2019
1761 Clouds 9 1013 81 16093 2.1 180 07:45 25.12.2019
1762 Clouds 9 1013 81 16093 2.1 180 07:23 25.12.2019
1763 Clouds 10 1013 81 16093 2.1 180 06:47 25.12.2019
1764 Clouds 10 1013 81 16093 2.1 180 06:22 25.12.2019
1765 Clear 10 1012 87 16093 1.5 110 04:49 25.12.2019
1766 Clear 10 1012 87 16093 1.5 170 04:25 25.12.2019
1767 Clouds 10 1012 76 16093 3.6 190 03:58 25.12.2019
1768 Rain 10 1012 76 16093 3.6 190 03:39 25.12.2019
1769 Rain 11 1011 93 16093 4.1 170 02:32 25.12.2019
1770 Rain 11 1010 87 16093 1.5 100 01:58 25.12.2019
1771 Rain 11 1010 93 4828 1.5 110 01:25 25.12.2019
1772 Rain 12 1010 93 16093 7.23 201 00:48 25.12.2019
1773 Rain 12 1010 93 16093 7.23 201 00:28 25.12.2019
1774 Clouds 13 1008 54 16093 4.6 170 23:55 24.12.2019
1775 Clouds 13 1008 54 16093 8.2 120 23:37 24.12.2019
1776 Clouds 14 1008 54 16093 8.2 120 23:19 24.12.2019
1777 Clouds 14 1008 58 16093 9.3 130 22:39 24.12.2019
1778 Clouds 13 1008 58 16093 9.3 130 22:20 24.12.2019
1779 Clouds 12 1008 62 16093 10.8 130 21:42 24.12.2019
1780 Clouds 12 1008 62 16093 10.8 130 21:22 24.12.2019
1781 Clouds 12 1008 62 16093 10.8 130 21:22 24.12.2019
1782 Rain 11 1009 71 16093 10.3 140 20:45 24.12.2019
1783 Rain 11 1009 71 16093 10.3 140 20:24 24.12.2019
1784 Rain 10 1008 81 16093 9.8 110 19:57 24.12.2019
1785 Rain 9 1012 81 16093 9.3 120 19:39 24.12.2019
1786 Rain 9 1012 81 16093 9.3 120 19:18 24.12.2019
1787 Rain 9 1015 87 6437 6.7 110 18:42 24.12.2019
1788 Rain 10 1016 81 4828 7.7 170 18:20 24.12.2019
1789 Rain 10 1014 100 2414 7.52 161 17:50 24.12.2019
1790 Rain 11 1014 100 4023 3.1 260 17:24 24.12.2019
1791 Rain 11 1012 93 8047 6.7 270 16:59 24.12.2019
1792 Rain 11 1012 93 8047 6.7 270 16:59 24.12.2019
1793 Clouds 12 1012 87 16093 3.1 260 16:41 24.12.2019
1794 Clouds 12 1012 87 16093 3.1 260 16:22 24.12.2019
1795 Clouds 12 1012 87 16093 3.1 260 16:22 24.12.2019
1796 Rain 12 1011 87 16093 3.6 230 15:58 24.12.2019
1797 Rain 12 1010 87 16093 4.1 250 15:38 24.12.2019
1798 Rain 12 1010 87 16093 4.1 250 15:20 24.12.2019
1799 Rain 13 1011 76 6437 1.5 170 14:59 24.12.2019
1800 Rain 13 1011 76 6437 1.5 170 14:59 24.12.2019
1801 Rain 13 1011 76 16093 5.1 170 14:41 24.12.2019
1802 Rain 13 1011 76 16093 5.1 170 14:22 24.12.2019
1803 Rain 13 1009 66 16093 3.6 120 13:57 24.12.2019
1804 Clouds 13 1009 81 16093 3.1 90 13:39 24.12.2019
1805 Clouds 13 1009 81 16093 3.1 90 13:20 24.12.2019
1806 Rain 13 1010 81 16093 2.33 148 12:58 24.12.2019
1807 Clouds 13 1010 76 16093 2.33 148 12:38 24.12.2019
1808 Clouds 13 1012 58 16093 2.1 120 12:19 24.12.2019
1809 Clouds 13 1012 58 16093 2.1 120 12:19 24.12.2019
1810 Clouds 13 1010 76 16093 2.33 148 11:58 24.12.2019
1811 Clouds 13 1011 81 16093 2.1 130 11:38 24.12.2019
1812 Clouds 13 1011 81 16093 2.1 130 11:38 24.12.2019
1813 Clouds 13 1011 81 16093 2.1 130 11:20 24.12.2019
1814 Clouds 13 1011 76 16093 1.57 136 10:57 24.12.2019
1815 Clouds 13 1011 71 16093 1.5 250 10:38 24.12.2019
1816 Clouds 13 1011 71 16093 1.5 250 10:20 24.12.2019
1817 Clouds 13 1012 71 16093 1.57 136 09:59 24.12.2019
1818 Clouds 13 1012 71 16093 1.57 136 09:41 24.12.2019
1819 Clouds 13 1012 71 16093 1.57 136 09:22 24.12.2019
1820 Clouds 13 1012 58 16093 1.57 136 08:56 24.12.2019
1821 Clouds 13 1012 54 16093 1.57 136 08:37 24.12.2019
1822 Clouds 14 1012 54 16093 3.31 167 08:18 24.12.2019
1823 Clouds 14 1013 47 16093 2.1 30 07:43 24.12.2019
1824 Clouds 15 1013 47 16093 2.1 30 07:21 24.12.2019
1825 Clouds 15 1013 38 16093 3.31 167 06:40 24.12.2019
1826 Clouds 15 1013 38 16093 3.31 167 06:22 24.12.2019
1827 Clouds 16 1013 51 16093 4.1 190 05:54 24.12.2019
1828 Clear 16 1014 31 16093 4.6 100 05:19 24.12.2019
1829 Clouds 17 1014 31 16093 4.1 110 04:21 24.12.2019
1830 Clear 16 1012 27 16093 4.1 120 03:48 24.12.2019
1831 Clear 16 1012 27 16093 5.1 110 02:29 24.12.2019
1832 Clear 16 1012 29 16093 3.1 100 01:55 24.12.2019
1833 Clear 16 1012 27 16093 4.1 120 01:26 24.12.2019
1834 Clear 17 1012 25 16093 5.7 120 00:58 24.12.2019
1835 Clear 17 1012 25 16093 7.2 130 00:39 24.12.2019
1836 Clear 17 1012 25 16093 7.2 130 00:20 24.12.2019
1837 Clear 17 1012 23 16093 6.7 140 23:43 23.12.2019
1838 Clear 17 1012 23 16093 6.7 140 23:24 23.12.2019
1839 Clear 17 1012 23 16093 6.7 140 23:24 23.12.2019
1840 Clear 18 1012 22 16093 7.2 120 22:57 23.12.2019
1841 Clear 17 1012 22 16093 7.2 130 22:38 23.12.2019
1842 Clear 18 1012 22 16093 7.2 130 22:38 23.12.2019
1843 Clear 17 1012 22 16093 7.2 130 22:20 23.12.2019
1844 Clear 17 1012 23 16093 7.2 120 21:56 23.12.2019
1845 Clear 17 1013 25 16093 6.7 100 21:37 23.12.2019
1846 Clear 17 1013 25 16093 6.7 100 21:19 23.12.2019
1847 Clear 16 1014 25 16093 5.1 110 20:58 23.12.2019
1848 Clear 16 1014 25 16093 5.1 110 20:58 23.12.2019
1849 Clear 16 1014 23 16093 5.7 110 20:40 23.12.2019
1850 Clear 16 1016 25 16093 5.7 110 20:19 23.12.2019
1851 Clear 16 1016 25 16093 5.7 110 20:19 23.12.2019
1852 Clear 16 1016 25 16093 5.7 110 20:19 23.12.2019
1853 Clear 15 1015 24 16093 5.7 110 19:58 23.12.2019
1854 Clear 15 1015 22 16093 4.6 100 19:39 23.12.2019
1855 Clear 15 1015 22 16093 4.6 100 19:20 23.12.2019
1856 Clear 14 1016 24 16093 6.2 110 18:58 23.12.2019
1857 Clear 14 1016 24 16093 6.2 110 18:58 23.12.2019
1858 Clear 14 1016 24 16093 4.6 130 18:39 23.12.2019
1859 Clear 14 1017 22 16093 6.2 110 18:20 23.12.2019
1860 Clear 14 1017 22 16093 6.2 110 18:20 23.12.2019
1861 Clear 13 1016 24 16093 6.2 110 17:58 23.12.2019
1862 Clear 13 1015 25 16093 5.1 110 17:39 23.12.2019
1863 Clear 11 1015 25 16093 5.1 110 17:19 23.12.2019
1864 Clear 11 1015 27 16093 7.7 110 16:57 23.12.2019
1865 Clear 11 1015 27 16093 7.7 120 16:39 23.12.2019
1866 Clear 10 1015 27 16093 7.7 120 16:18 23.12.2019
1867 Clear 10 1015 27 16093 7.7 110 15:56 23.12.2019
1868 Clear 10 1015 27 16093 6.7 110 15:36 23.12.2019
1869 Clouds 10 1016 24 0 4.1 110 15:18 23.12.2019
1870 Clear 10 1015 27 16093 3.53 114 14:56 23.12.2019
1871 Clear 10 1015 27 16093 4.6 140 14:37 23.12.2019
1872 Clear 10 1016 25 16093 5.7 130 14:18 23.12.2019
1873 Clear 9 1015 29 16093 4.1 120 13:55 23.12.2019
1874 Clear 9 1014 29 16093 2.1 130 13:37 23.12.2019
1875 Clear 9 1014 29 16093 2.1 130 13:19 23.12.2019
1876 Clear 9 1015 27 16093 4.6 130 12:41 23.12.2019
1877 Clear 9 1015 27 16093 4.6 130 12:21 23.12.2019
1878 Clear 9 1015 29 16093 4.1 140 11:59 23.12.2019
1879 Clear 9 1015 27 16093 6.2 120 11:41 23.12.2019
1880 Clear 9 1016 29 16093 3.6 150 11:22 23.12.2019
1881 Clear 9 1015 27 16093 6.2 120 10:55 23.12.2019
1882 Clear 9 1015 29 16093 6.2 120 10:37 23.12.2019
1883 Clear 9 1015 29 16093 6.2 120 10:37 23.12.2019
1884 Clear 9 1016 29 16093 4.6 100 10:18 23.12.2019
1885 Clear 9 1015 36 16093 4.1 120 09:54 23.12.2019
1886 Clear 9 1016 36 16093 2.6 160 09:36 23.12.2019
1887 Clear 9 1017 34 16093 4.1 120 09:18 23.12.2019
1888 Clear 9 1016 27 16093 4.6 110 08:41 23.12.2019
1889 Clear 10 1016 27 16093 4.6 110 08:22 23.12.2019
1890 Clear 10 1016 31 16093 4.1 110 07:55 23.12.2019
1891 Clear 10 1016 34 16093 3.6 110 07:37 23.12.2019
1892 Clear 10 1017 22 16093 5.1 120 07:18 23.12.2019
1893 Clear 10 1016 37 16093 4.6 100 06:32 23.12.2019
1894 Clear 10 1016 39 16093 2.6 90 05:57 23.12.2019
1895 Clear 11 1016 37 16093 2.34 115 05:33 23.12.2019
1896 Clear 12 1016 37 16093 3.08 117 04:40 23.12.2019
1897 Clear 13 1016 43 16093 3.08 117 03:58 23.12.2019
1898 Clear 14 1016 26 16093 3.08 117 02:46 23.12.2019
1899 Clear 15 1016 26 16093 2.58 102 02:19 23.12.2019
1900 Clear 16 1016 21 16093 1.5 340 01:46 23.12.2019
1901 Clear 17 1016 21 16093 1.5 340 01:27 23.12.2019
1902 Clear 19 1016 13 16093 2.08 102 00:46 23.12.2019
1903 Clear 21 1016 13 16093 2.08 102 00:25 23.12.2019
1904 Clear 21 1016 12 16093 2.6 130 23:56 22.12.2019
1905 Clear 21 1016 10 16093 3.1 130 23:37 22.12.2019
1906 Clear 21 1016 10 16093 3.1 130 23:19 22.12.2019
1907 Clear 21 1017 11 16093 3.66 100 22:41 22.12.2019
1908 Clear 21 1017 11 16093 3.66 100 22:23 22.12.2019
1909 Clear 21 1018 11 16093 4.1 80 21:59 22.12.2019
1910 Clear 21 1018 12 16093 4.1 120 21:41 22.12.2019
1911 Clear 21 1018 12 16093 4.1 120 21:22 22.12.2019
1912 Clear 20 1018 12 16093 4.6 110 20:59 22.12.2019
1913 Clear 20 1019 11 16093 5.7 120 20:40 22.12.2019
1914 Clear 19 1020 13 16093 4.6 130 20:19 22.12.2019
1915 Clear 19 1019 12 16093 5.7 120 19:57 22.12.2019
1916 Clear 18 1020 12 16093 5.1 130 19:39 22.12.2019
1917 Clear 18 1020 12 16093 5.1 130 19:20 22.12.2019
1918 Clear 16 1020 14 16093 6.2 120 18:43 22.12.2019
1919 Clear 16 1020 14 16093 6.2 120 18:25 22.12.2019
1920 Clear 14 1019 16 16093 5.1 110 17:57 22.12.2019
1921 Clear 13 1019 16 16093 5.1 110 17:57 22.12.2019
1922 Clear 13 1019 17 16093 3.1 110 17:39 22.12.2019
1923 Clear 11 1020 15 16093 6.7 120 17:19 22.12.2019
1924 Clear 11 1020 15 16093 6.7 120 17:19 22.12.2019
1925 Clear 10 1020 25 16093 6.7 90 16:58 22.12.2019
1926 Clear 10 1020 25 16093 6.7 90 16:40 22.12.2019
1927 Clear 10 1020 25 16093 6.7 90 16:40 22.12.2019
1928 Clear 9 1019 18 16093 2.93 121 16:22 22.12.2019
1929 Clear 9 1020 16 16093 9.3 110 15:57 22.12.2019
1930 Clear 9 1020 16 16093 9.3 110 15:38 22.12.2019
1931 Clear 9 1019 18 16093 6.7 120 15:20 22.12.2019
1932 Clear 10 1020 27 16093 5.1 90 14:55 22.12.2019
1933 Clear 10 1018 16 16093 5.7 110 14:37 22.12.2019
1934 Clear 10 1020 18 16093 8.7 120 14:18 22.12.2019
1935 Clear 10 1018 15 16093 3.6 120 13:55 22.12.2019
1936 Clear 9 1018 15 16093 2.6 120 13:37 22.12.2019
1937 Clear 10 1019 15 16093 9.8 130 13:19 22.12.2019
1938 Clear 9 1018 15 16093 5.7 110 12:56 22.12.2019
1939 Clear 9 1018 15 16093 3.1 120 12:37 22.12.2019
1940 Clear 10 1020 17 16093 8.7 120 12:18 22.12.2019
1941 Clear 10 1018 18 16093 3.6 100 11:56 22.12.2019
1942 Clear 10 1019 18 16093 1.5 110 11:38 22.12.2019
1943 Clear 10 1020 19 16093 6.7 120 11:18 22.12.2019
1944 Clear 11 1019 25 16093 4.6 100 10:55 22.12.2019
1945 Clear 11 1019 27 16093 6.2 80 10:36 22.12.2019
1946 Clear 10 1020 17 16093 6.7 100 10:18 22.12.2019
1947 Clear 10 1020 20 16093 6.2 110 09:57 22.12.2019
1948 Clear 10 1020 20 16093 6.2 110 09:37 22.12.2019
1949 Clear 10 1020 20 16093 6.2 110 09:37 22.12.2019
1950 Clear 10 1019 29 16093 2.6 60 09:19 22.12.2019
1951 Clear 10 1020 25 16093 4.2 123 08:39 22.12.2019
1952 Clear 10 1021 20 16093 6.7 90 08:21 22.12.2019
1953 Clear 10 1020 25 16093 2.6 70 07:40 22.12.2019
1954 Clear 11 1020 25 16093 2.6 70 07:21 22.12.2019
1955 Clear 11 1020 25 16093 4.6 120 06:42 22.12.2019
1956 Clear 10 1020 25 16093 4.6 120 06:22 22.12.2019
1957 Clear 11 1020 34 16093 4.6 120 05:29 22.12.2019
1958 Clear 11 1021 49 16093 3.6 110 04:45 22.12.2019
1959 Clear 11 1021 49 16093 3.6 110 04:22 22.12.2019
1960 Clear 14 1020 32 16093 4.01 106 02:43 22.12.2019
1961 Clear 14 1020 32 16093 4.01 106 02:43 22.12.2019
1962 Clear 14 1020 32 16093 4.01 106 02:43 22.12.2019
1963 Clear 16 1020 28 16093 5.34 91 01:59 22.12.2019
1964 Clear 17 1020 29 16093 5.34 91 01:31 22.12.2019
1965 Clear 20 1020 20 16093 2.1 320 00:48 22.12.2019
1966 Clear 18 1020 19 16093 2.6 320 00:29 22.12.2019
1967 Clear 22 1021 18 16093 3.1 350 23:59 21.12.2019
1968 Clear 22 1021 16 16093 3.1 350 23:40 21.12.2019
1969 Clear 22 1021 16 16093 3.1 350 23:20 21.12.2019
1970 Clear 22 1022 15 16093 3.1 20 22:46 21.12.2019
1971 Clear 22 1022 7 16093 3.6 80 22:20 21.12.2019
1972 Clear 22 1022 12 16093 1.5 70 21:58 21.12.2019
1973 Clear 22 1022 13 16093 5.73 95 21:39 21.12.2019
1974 Clear 21 1023 8 16093 4.1 100 21:20 21.12.2019
1975 Clear 21 1023 8 16093 4.1 100 20:59 21.12.2019
1976 Clear 20 1024 14 16093 2.6 130 20:41 21.12.2019
1977 Clear 19 1024 14 16093 2.6 130 20:22 21.12.2019
1978 Clear 19 1026 13 16093 2.6 90 19:58 21.12.2019
1979 Clear 18 1026 13 16093 2.6 90 19:40 21.12.2019
1980 Clear 17 1026 13 16093 2.6 90 19:20 21.12.2019
1981 Clear 16 1026 18 16093 6.2 100 18:56 21.12.2019
1982 Clear 15 1026 23 16093 1.5 160 18:37 21.12.2019
1983 Clear 14 1026 18 16093 6.2 100 18:19 21.12.2019
1984 Clear 13 1026 36 16093 4.84 110 17:55 21.12.2019
1985 Clear 13 1026 36 16093 4.84 110 17:55 21.12.2019
1986 Clear 13 1026 36 16093 4.84 110 17:55 21.12.2019
1987 Clear 11 1026 21 16093 5.7 100 17:37 21.12.2019
1988 Clear 9 1026 21 16093 5.7 100 17:18 21.12.2019
1989 Clear 9 1026 21 16093 5.7 100 17:18 21.12.2019
1990 Clear 7 1025 28 16093 6.2 100 16:41 21.12.2019
1991 Clear 5 1025 64 16093 3.18 103 16:19 21.12.2019
1992 Clear 4 1025 51 16093 2.1 130 15:57 21.12.2019
1993 Clear 3 1025 55 16093 3.18 103 15:39 21.12.2019
1994 Clear 4 1025 30 16093 5.1 90 15:20 21.12.2019
1995 Clear 4 1025 69 16093 3.18 103 14:57 21.12.2019
1996 Clear 3 1025 34 16093 3.18 103 14:38 21.12.2019
1997 Clear 3 1025 28 16093 4.6 80 14:19 21.12.2019
1998 Clear 3 1025 69 16093 2.6 102 13:56 21.12.2019
1999 Clear 4 1025 35 16093 2.6 102 13:38 21.12.2019
2000 Clear 4 1026 55 16093 2.1 200 13:18 21.12.2019
2001 Clear 3 1025 74 16093 2.98 115 12:55 21.12.2019
2002 Clear 3 1025 69 16093 2.98 115 12:37 21.12.2019
2003 Clear 3 1026 55 16093 2.98 115 12:18 21.12.2019
2004 Clear 4 1025 74 16093 2.98 115 11:43 21.12.2019
2005 Clear 4 1025 74 16093 2.98 115 11:25 21.12.2019
2006 Clear 5 1025 48 16093 3.64 113 10:56 21.12.2019
2007 Clear 5 1025 60 16093 3.64 113 10:38 21.12.2019
2008 Clear 5 1026 64 16093 3.64 113 10:19 21.12.2019
2009 Clear 4 1025 69 16093 3.64 113 09:43 21.12.2019
2010 Clear 5 1025 69 16093 3.64 113 09:21 21.12.2019
2011 Clear 5 1025 74 16093 3.64 113 08:57 21.12.2019
2012 Clear 5 1025 69 16093 3.64 113 08:37 21.12.2019
2013 Clear 5 1025 69 16093 2.77 101 08:19 21.12.2019
2014 Clear 6 1025 56 16093 3.24 110 07:44 21.12.2019
2015 Clear 5 1026 41 16093 2.1 170 07:22 21.12.2019
2016 Clear 6 1025 56 16093 3.24 110 06:44 21.12.2019
2017 Clear 6 1025 56 16093 3.24 110 06:25 21.12.2019
2018 Clear 6 1024 60 16093 3.24 110 05:49 21.12.2019
2019 Clear 7 1024 52 16093 2.55 87 04:58 21.12.2019
2020 Clear 8 1024 39 16093 2.55 87 03:57 21.12.2019
2021 Clear 10 1024 32 16093 2.55 87 02:52 21.12.2019
2022 Clear 12 1023 30 16093 2.77 52 01:59 21.12.2019
2023 Clear 14 1023 26 16093 2.92 47 01:28 21.12.2019
2024 Clear 16 1023 21 16093 2.92 47 00:53 21.12.2019
2025 Clear 17 1023 21 16093 2.92 47 00:33 21.12.2019
2026 Clear 17 1023 21 16093 2.92 47 23:59 20.12.2019
2027 Clear 17 1023 23 16093 3.1 330 23:38 20.12.2019
2028 Clear 17 1023 21 16093 5.1 340 23:18 20.12.2019
2029 Clear 17 1023 18 16093 5.1 330 22:41 20.12.2019
2030 Clear 17 1023 18 16093 5.1 330 22:21 20.12.2019
2031 Clear 17 1023 18 16093 5.1 330 21:59 20.12.2019
2032 Clear 17 1024 29 16093 6.7 300 21:40 20.12.2019
2033 Clear 17 1023 23 16093 4.1 280 21:20 20.12.2019
2034 Clear 16 1024 30 16093 5.1 300 20:41 20.12.2019
2035 Clear 16 1024 28 16093 2.6 300 20:21 20.12.2019
2036 Clear 15 1024 28 16093 2.6 300 19:59 20.12.2019
2037 Clear 15 1024 24 16093 3.1 40 19:40 20.12.2019
2038 Clear 14 1024 24 16093 3.1 40 19:20 20.12.2019
2039 Clear 13 1025 37 16093 2.1 320 18:54 20.12.2019
2040 Clear 13 1025 37 16093 2.1 320 18:54 20.12.2019
2041 Clear 12 1025 34 16093 3.6 100 18:36 20.12.2019
2042 Clear 12 1025 34 16093 3.6 100 18:36 20.12.2019
2043 Clear 11 1024 30 16093 5.1 120 18:18 20.12.2019
2044 Clear 9 1024 36 16093 4.6 110 17:42 20.12.2019
2045 Clear 9 1024 36 16093 4.6 110 17:42 20.12.2019
2046 Clear 7 1024 36 16093 4.6 110 17:21 20.12.2019
2047 Clear 7 1024 36 16093 4.6 110 17:21 20.12.2019
2048 Clear 5 1024 69 16093 1.57 96 16:59 20.12.2019
2049 Clear 4 1024 69 16093 1.57 96 16:39 20.12.2019
2050 Clear 2 1024 59 16093 4.1 140 16:20 20.12.2019
2051 Clear 1 1024 69 16093 1.57 96 15:57 20.12.2019
2052 Clear 1 1024 51 16093 1.5 130 15:38 20.12.2019
2053 Clear 1 1024 51 16093 1.5 130 15:19 20.12.2019
2054 Clear 2 1024 74 16093 1.57 96 14:55 20.12.2019
2055 Clear 1 1024 69 16093 3.1 80 14:37 20.12.2019
2056 Clear 1 1024 69 16093 3.1 80 14:18 20.12.2019
2057 Clear 1 1024 74 16093 2.02 11 13:41 20.12.2019
2058 Clear 1 1023 59 16093 2.02 11 13:20 20.12.2019
2059 Clear 1 1024 80 16093 1.11 37 12:58 20.12.2019
2060 Clear 1 1024 80 16093 1.11 37 12:38 20.12.2019
2061 Clear 1 1023 59 16093 3.1 130 12:19 20.12.2019
2062 Clear 1 1023 69 16093 1.11 37 11:59 20.12.2019
2063 Clear 1 1023 69 16093 1.11 37 11:59 20.12.2019
2064 Clear 2 1023 69 16093 1.11 37 11:39 20.12.2019
2065 Clear 2 1023 74 16093 3.1 140 11:19 20.12.2019
2066 Clear 2 1023 74 16093 3.1 100 10:58 20.12.2019
2067 Clear 2 1023 74 16093 3.1 100 10:39 20.12.2019
2068 Clear 2 1022 69 16093 4.1 120 10:20 20.12.2019
2069 Clear 3 1022 69 16093 2.6 100 09:54 20.12.2019
2070 Clear 3 1022 64 16093 3.6 120 09:36 20.12.2019
2071 Clear 3 1022 64 16093 3.6 120 09:18 20.12.2019
2072 Clear 3 1022 69 16093 1.12 347 08:42 20.12.2019
2073 Clear 3 1022 64 16093 3.6 120 08:22 20.12.2019
2074 Clear 3 1022 69 16093 2.1 110 07:58 20.12.2019
2075 Clear 4 1022 69 16093 2.1 110 07:39 20.12.2019
2076 Clear 4 1022 64 16093 1.5 110 07:18 20.12.2019
2077 Clear 4 1022 64 16093 0.99 317 06:49 20.12.2019
2078 Clear 4 1022 60 16093 2.6 150 06:30 20.12.2019
2079 Clear 5 1022 60 16093 0.99 317 05:52 20.12.2019
2080 Clear 6 1021 56 16093 2.6 170 05:34 20.12.2019
2081 Clear 8 1020 52 16093 1.78 295 03:57 20.12.2019
2082 Clear 8 1019 39 16093 2.6 310 03:29 20.12.2019
2083 Clear 9 1019 45 16093 3.1 310 02:41 20.12.2019
2084 Clear 11 1018 34 16093 3.1 300 01:44 20.12.2019
2085 Clear 11 1018 34 16093 3.1 300 01:44 20.12.2019
2086 Clear 13 1018 26 16093 4.1 320 01:18 20.12.2019
2087 Clear 14 1018 28 16093 3.1 310 00:41 20.12.2019
2088 Clear 15 1017 26 16093 5.7 330 00:19 20.12.2019
2089 Clear 15 1017 24 16093 4.6 340 23:42 19.12.2019
2090 Clear 16 1017 25 16093 4.6 350 23:23 19.12.2019
2091 Clear 16 1016 26 16093 5.1 330 22:56 19.12.2019
2092 Clear 16 1016 26 16093 5.1 290 22:36 19.12.2019
2093 Clear 16 1016 26 16093 5.1 290 22:18 19.12.2019
2094 Clear 16 1017 26 16093 3.6 330 21:42 19.12.2019
2095 Clear 16 1017 25 16093 1.5 310 21:20 19.12.2019
2096 Clear 16 1017 26 16093 1.5 100 20:59 19.12.2019
2097 Clear 16 1017 26 16093 1.5 100 20:39 19.12.2019
2098 Clear 15 1017 26 16093 1.5 100 20:20 19.12.2019
2099 Clear 15 1017 26 16093 1.5 100 20:20 19.12.2019
2100 Clear 15 1018 32 16093 2.1 310 19:59 19.12.2019
2101 Clear 14 1018 32 16093 2.1 310 19:40 19.12.2019
2102 Clear 14 1018 28 16093 4.1 100 19:20 19.12.2019
2103 Clear 13 1018 29 16093 4.1 120 18:59 19.12.2019
2104 Clear 12 1018 29 16093 4.1 120 18:40 19.12.2019
2105 Clear 12 1018 29 16093 4.1 120 18:40 19.12.2019
2106 Clear 11 1019 32 16093 4.1 110 18:20 19.12.2019
2107 Clear 10 1018 34 16093 4.6 120 17:57 19.12.2019
2108 Clear 9 1018 36 16093 5.7 120 17:38 19.12.2019
2109 Clear 8 1018 36 16093 5.7 120 17:18 19.12.2019
2110 Clear 7 1018 42 16093 4.6 100 16:57 19.12.2019
2111 Clear 6 1018 42 16093 4.6 100 16:38 19.12.2019
2112 Clear 5 1018 48 16093 7.7 120 16:20 19.12.2019
2113 Clear 4 1017 59 16093 2.26 105 15:58 19.12.2019
2114 Clear 3 1017 59 16093 2.26 105 15:38 19.12.2019
2115 Clear 3 1017 59 16093 2.26 105 15:38 19.12.2019
2116 Clear 4 1017 41 16093 3.1 160 15:19 19.12.2019
2117 Clear 4 1017 59 16093 2.26 105 14:57 19.12.2019
2118 Clear 4 1017 59 16093 2.26 105 14:39 19.12.2019
2119 Clouds 5 1016 41 16093 4.1 140 14:18 19.12.2019
2120 Clear 5 1016 33 16093 3.6 110 13:39 19.12.2019
2121 Clouds 5 1016 39 16093 5.7 120 13:20 19.12.2019
2122 Clear 6 1016 36 16093 1.73 111 12:58 19.12.2019
2123 Clear 5 1016 36 16093 1.73 111 12:40 19.12.2019
2124 Clouds 5 1016 39 16093 6.7 120 12:19 19.12.2019
2125 Clear 5 1016 31 16093 1.73 111 11:59 19.12.2019
2126 Clear 5 1016 31 16093 1.73 111 11:41 19.12.2019
2127 Clear 6 1016 39 16093 6.7 100 11:19 19.12.2019
2128 Clear 6 1015 29 16093 4.6 150 10:59 19.12.2019
2129 Clear 6 1016 33 16093 8.2 100 10:38 19.12.2019
2130 Clear 6 1016 33 16093 8.2 100 10:38 19.12.2019
2131 Clear 6 1016 33 16093 8.2 100 10:20 19.12.2019
2132 Clear 6 1015 27 16093 8.7 130 09:56 19.12.2019
2133 Clear 6 1016 34 16093 7.7 100 09:37 19.12.2019
2134 Clear 7 1016 34 16093 7.7 100 09:19 19.12.2019
2135 Clear 6 1015 22 16093 7.7 130 08:55 19.12.2019
2136 Clear 7 1016 29 16093 9.3 110 08:37 19.12.2019
2137 Clear 7 1016 29 16093 9.3 110 08:18 19.12.2019
2138 Clear 8 1015 22 16093 7.7 130 07:43 19.12.2019
2139 Clear 7 1016 29 16093 6.7 100 07:24 19.12.2019
2140 Clear 8 1016 20 16093 5.7 130 06:59 19.12.2019
2141 Clear 8 1016 20 16093 5.7 130 06:41 19.12.2019
2142 Clear 8 1016 27 16093 4.6 90 06:21 19.12.2019
2143 Clear 8 1015 17 16093 5.7 120 05:42 19.12.2019
2144 Clear 8 1017 29 16093 4.1 80 05:19 19.12.2019
2145 Clear 10 1015 15 16093 6.7 130 03:53 19.12.2019
2146 Clear 12 1016 23 16093 5.1 70 02:28 19.12.2019
2147 Clear 13 1016 19 16093 5.1 80 01:25 19.12.2019
2148 Clear 14 1015 14 16093 7.2 110 00:57 19.12.2019
2149 Clear 15 1015 14 16093 7.2 110 00:38 19.12.2019
2150 Clear 15 1016 18 16093 9.3 120 00:19 19.12.2019
2151 Clear 16 1015 13 16093 9.3 130 23:44 18.12.2019
2152 Clear 16 1016 18 16093 8.05 108 23:19 18.12.2019
2153 Clear 16 1016 13 16093 10.3 140 22:56 18.12.2019
2154 Clear 16 1016 13 16093 10.3 140 22:38 18.12.2019
2155 Clouds 16 1018 19 16093 10.3 100 22:20 18.12.2019
2156 Clear 16 1016 13 16093 11.3 130 21:58 18.12.2019
2157 Clear 15 1016 13 16093 11.3 130 21:39 18.12.2019
2158 Clear 15 1016 13 16093 11.3 130 21:39 18.12.2019
2159 Clear 15 1019 17 16093 11.8 100 21:20 18.12.2019
2160 Clear 14 1017 13 16093 12.9 130 20:56 18.12.2019
2161 Clear 14 1018 19 16093 11.3 100 20:38 18.12.2019
2162 Clear 14 1018 19 16093 11.3 100 20:19 18.12.2019
2163 Clear 14 1018 12 16093 12.9 120 19:56 18.12.2019
2164 Clear 13 1020 17 16093 11.8 100 19:37 18.12.2019
2165 Clear 13 1020 17 16093 11.8 100 19:18 18.12.2019
2166 Rain 12 1020 18 16093 7.2 70 18:45 18.12.2019
2167 Rain 12 1020 18 16093 7.2 70 18:45 18.12.2019
2168 Rain 11 1020 18 16093 7.2 70 18:26 18.12.2019
2169 Clear 10 1020 18 16093 3.6 110 17:58 18.12.2019
2170 Clear 10 1020 18 16093 3.6 110 17:40 18.12.2019
2171 Clear 8 1021 20 16093 8.7 90 17:20 18.12.2019
2172 Clear 8 1021 20 16093 8.7 90 17:20 18.12.2019
2173 Clear 7 1020 20 16093 3.6 110 16:58 18.12.2019
2174 Clear 6 1020 22 16093 4.6 100 16:40 18.12.2019
2175 Clear 6 1020 22 16093 4.6 100 16:22 18.12.2019
2176 Clear 6 1020 25 16093 7.65 104 15:57 18.12.2019
2177 Clear 6 1020 25 16093 5.7 70 15:38 18.12.2019
2178 Clear 6 1021 24 16093 7.2 120 15:20 18.12.2019
2179 Clear 6 1020 43 16093 7.65 104 14:43 18.12.2019
2180 Clear 5 1020 22 16093 4.6 110 14:22 18.12.2019
2181 Clear 5 1020 37 16093 1.5 40 13:58 18.12.2019
2182 Clear 5 1019 27 16093 1.5 320 13:39 18.12.2019
2183 Clear 5 1019 27 16093 1.5 320 13:21 18.12.2019
2184 Clear 5 1020 27 16093 3.1 100 12:59 18.12.2019
2185 Clear 5 1020 32 16093 4.6 110 12:40 18.12.2019
2186 Clear 5 1020 17 16093 8.7 80 12:21 18.12.2019
2187 Clear 5 1020 23 16093 4.6 120 11:56 18.12.2019
2188 Clear 5 1021 34 16093 3.6 150 11:38 18.12.2019
2189 Clear 5 1021 18 16093 7.7 90 11:20 18.12.2019
2190 Clear 5 1021 43 16093 6.42 96 10:57 18.12.2019
2191 Clear 5 1021 43 16093 6.42 96 10:39 18.12.2019
2192 Clear 6 1021 43 16093 6.42 96 10:20 18.12.2019
2193 Clear 6 1021 37 16093 2.6 150 09:52 18.12.2019
2194 Clear 6 1022 19 16093 5.7 90 09:19 18.12.2019
2195 Clear 6 1022 35 16093 2.6 70 08:42 18.12.2019
2196 Clear 6 1022 35 16093 2.6 70 08:24 18.12.2019
2197 Clear 6 1023 35 16093 6.58 99 07:55 18.12.2019
2198 Clear 7 1023 28 16093 6.58 99 07:37 18.12.2019
2199 Rain 7 1023 19 16093 6.2 100 07:19 18.12.2019
2200 Rain 7 1023 19 16093 4.1 70 06:50 18.12.2019
2201 Clear 7 1023 19 16093 4.1 70 06:22 18.12.2019
2202 Clear 7 1023 30 16093 3.1 60 05:27 18.12.2019
2203 Clear 9 1023 15 16093 3.6 90 03:31 18.12.2019
2204 Clear 9 1023 16 16093 3.6 110 02:41 18.12.2019
2205 Clear 9 1023 16 16093 3.6 110 02:23 18.12.2019
2206 Clear 10 1023 13 16093 3.1 130 01:42 18.12.2019
2207 Clear 11 1023 13 16093 3.1 130 01:24 18.12.2019
2208 Clear 12 1023 11 16093 8.14 87 00:42 18.12.2019
2209 Clear 12 1023 11 16093 8.14 87 00:23 18.12.2019
2210 Clear 12 1023 12 16093 8.14 87 23:58 17.12.2019
2211 Clear 13 1024 12 16093 8.14 87 23:39 17.12.2019
2212 Clear 13 1024 12 16093 6.7 120 23:20 17.12.2019
2213 Clear 13 1024 12 16093 10.55 95 22:56 17.12.2019
2214 Clear 13 1024 13 16093 10.55 95 22:38 17.12.2019
2215 Clear 13 1024 15 16093 6.7 120 22:19 17.12.2019
2216 Clear 13 1024 15 16093 10.55 95 21:56 17.12.2019
2217 Clear 13 1024 15 16093 10.55 95 21:56 17.12.2019
2218 Clear 13 1024 16 16093 10.55 95 21:38 17.12.2019
2219 Clear 13 1025 15 16093 8.7 130 21:19 17.12.2019
2220 Clear 12 1025 17 16093 2.1 100 20:57 17.12.2019
2221 Clear 12 1025 18 16093 10.21 91 20:38 17.12.2019
2222 Clear 12 1026 17 16093 2.1 0 20:18 17.12.2019
2223 Clear 11 1027 23 16093 2.1 290 19:56 17.12.2019
2224 Clear 11 1027 24 16093 2.1 280 19:38 17.12.2019
2225 Clear 11 1027 20 16093 3.6 60 19:18 17.12.2019
2226 Clear 10 1027 30 16093 2.1 290 18:54 17.12.2019
2227 Clear 9 1027 43 16093 4.1 50 18:36 17.12.2019
2228 Clear 9 1027 43 16093 4.1 50 18:18 17.12.2019
2229 Clear 8 1028 65 16093 2.6 160 17:42 17.12.2019
2230 Clear 6 1028 48 16093 6.12 101 17:20 17.12.2019
2231 Clear 4 1028 51 16093 6.12 101 16:56 17.12.2019
2232 Clear 4 1028 51 16093 6.12 101 16:56 17.12.2019
2233 Clear 4 1027 33 16093 6.12 101 16:38 17.12.2019
2234 Clear 3 1027 33 16093 6.12 101 16:19 17.12.2019
2235 Clear 1 1027 63 16093 2.1 180 15:58 17.12.2019
2236 Clear 0 1027 63 16093 2.6 210 15:37 17.12.2019
2237 Clear 0 1026 50 16093 6.12 101 15:19 17.12.2019
2238 Clear 1 1027 33 16093 3.1 170 14:55 17.12.2019
2239 Clear 0 1027 33 16093 3.1 170 14:37 17.12.2019
2240 Clear 0 1025 68 16093 3.88 96 14:18 17.12.2019
2241 Clear 0 1025 68 16093 3.88 96 14:18 17.12.2019
2242 Clear 1 1026 33 16093 3.88 96 13:55 17.12.2019
2243 Clear 0 1026 33 16093 3.88 96 13:37 17.12.2019
2244 Clear 1 1025 33 16093 3.74 100 13:18 17.12.2019
2245 Clear 1 1026 33 16093 3.74 100 12:41 17.12.2019
2246 Clear 1 1025 55 16093 3.1 120 12:19 17.12.2019
2247 Clear 1 1026 33 16093 3.74 100 11:59 17.12.2019
2248 Clear 2 1025 55 16093 2.6 220 11:38 17.12.2019
2249 Clear 2 1025 55 16093 2.6 220 11:38 17.12.2019
2250 Clear 1 1025 51 16093 3.1 140 11:19 17.12.2019
2251 Clear 2 1025 55 16093 4.6 200 10:59 17.12.2019
2252 Clear 2 1025 55 16093 4.6 200 10:59 17.12.2019
2253 Clear 2 1025 59 16093 2.6 190 10:41 17.12.2019
2254 Clear 2 1025 59 16093 2.6 190 10:23 17.12.2019
2255 Clear 3 1025 59 16093 3.1 190 09:59 17.12.2019
2256 Clear 3 1025 59 16093 3.1 190 09:59 17.12.2019
2257 Clear 3 1025 51 16093 2.1 200 09:41 17.12.2019
2258 Clear 3 1024 55 16093 1.93 62 09:20 17.12.2019
2259 Clear 4 1025 55 16093 1.93 62 08:56 17.12.2019
2260 Clear 3 1025 55 16093 1.93 62 08:56 17.12.2019
2261 Clear 3 1025 51 16093 3.1 260 08:38 17.12.2019
2262 Clear 4 1024 64 16093 3.1 90 08:20 17.12.2019
2263 Clear 4 1025 47 16093 2.6 240 07:54 17.12.2019
2264 Clear 4 1025 28 16093 1.88 52 07:36 17.12.2019
2265 Clear 5 1024 64 16093 1.88 52 07:18 17.12.2019
2266 Clear 5 1024 20 16093 4.6 30 06:35 17.12.2019
2267 Clear 6 1024 20 16093 6.2 50 05:54 17.12.2019
2268 Clear 6 1024 20 16093 6.2 50 05:36 17.12.2019
2269 Clear 7 1024 39 16093 3.1 40 04:31 17.12.2019
2270 Clear 8 1023 49 16093 3.6 320 02:34 17.12.2019
2271 Clear 9 1022 45 16093 2.6 340 01:55 17.12.2019
2272 Clear 12 1022 30 16093 5.7 320 00:59 17.12.2019
2273 Clear 13 1021 26 16093 5.1 320 00:38 17.12.2019
2274 Clear 13 1021 37 16093 5.7 290 00:19 17.12.2019
2275 Clear 13 1021 32 16093 4.6 330 23:42 16.12.2019
2276 Clear 14 1021 28 16093 4.6 330 23:19 16.12.2019
2277 Clear 14 1021 28 16093 4.6 330 23:19 16.12.2019
2278 Clear 14 1021 28 16093 4.6 330 23:19 16.12.2019
2279 Clear 14 1021 28 16093 4.6 330 23:19 16.12.2019
2280 Clear 14 1021 35 16093 3.6 330 22:56 16.12.2019
2281 Clear 14 1021 35 16093 3.1 350 22:37 16.12.2019
2282 Clear 13 1021 35 16093 3.1 350 22:19 16.12.2019
2283 Clear 13 1021 35 16093 3.1 350 22:19 16.12.2019
2284 Clear 13 1021 28 16093 2.6 270 22:19 16.12.2019
2285 Clear 13 1022 40 16093 3.6 340 21:55 16.12.2019
2286 Clear 13 1022 40 16093 3.6 340 21:55 16.12.2019
2287 Clear 13 1022 40 16093 3.6 320 21:37 16.12.2019
2288 Clear 13 1021 37 16093 2.6 310 21:19 16.12.2019
2289 Clear 13 1022 43 16093 3.1 290 20:57 16.12.2019
2290 Clear 12 1022 46 16093 2.1 280 20:37 16.12.2019
2291 Clear 12 1022 42 16093 2.1 270 20:19 16.12.2019
2292 Clear 11 1023 49 16093 1.5 270 19:56 16.12.2019
2293 Clear 11 1023 49 16093 1.5 270 19:56 16.12.2019
2294 Clear 11 1023 49 16093 2.41 5 19:37 16.12.2019
2295 Clouds 10 1023 49 16093 2.41 5 19:18 16.12.2019
2296 Clear 10 1024 42 16093 2.41 5 18:56 16.12.2019
2297 Clear 10 1023 42 16093 2.41 5 18:38 16.12.2019
2298 Clear 9 1023 42 16093 2.41 5 18:19 16.12.2019
2299 Clear 9 1024 42 16093 2.41 5 17:57 16.12.2019
2300 Clear 8 1022 70 16093 2.41 5 17:38 16.12.2019
2301 Clear 7 1022 70 16093 1.13 357 17:19 16.12.2019
2302 Clear 5 1022 63 16093 1.13 357 16:55 16.12.2019
2303 Clear 4 1022 63 16093 1.13 357 16:37 16.12.2019
2304 Clear 3 1021 63 16093 3.1 130 16:19 16.12.2019
2305 Clear 2 1021 63 16093 1.5 130 15:57 16.12.2019
2306 Clear 1 1021 63 16093 1.13 357 15:38 16.12.2019
2307 Clear 1 1021 63 16093 2.1 100 15:20 16.12.2019
2308 Clear 1 1021 63 16093 1.13 357 14:55 16.12.2019
2309 Clear 1 1020 63 16093 1.13 357 14:36 16.12.2019
2310 Clear 1 1020 60 16093 1.12 229 14:18 16.12.2019
2311 Clear 2 1020 60 16093 2.1 120 13:55 16.12.2019
2312 Clear 2 1020 60 16093 2.6 130 13:37 16.12.2019
2313 Clear 2 1019 62 16093 2.6 130 13:19 16.12.2019
2314 Clear 2 1019 62 16093 2.1 70 12:54 16.12.2019
2315 Clear 2 1020 66 16093 0.47 264 12:36 16.12.2019
2316 Clear 3 1019 62 16093 3.1 130 12:18 16.12.2019
2317 Clear 3 1020 62 16093 1.06 251 11:55 16.12.2019
2318 Clear 3 1019 62 16093 1.06 251 11:37 16.12.2019
2319 Clear 3 1019 80 16093 2.6 150 11:19 16.12.2019
2320 Clear 4 1019 58 16093 1.29 279 10:40 16.12.2019
2321 Clear 4 1019 58 16093 1.29 279 10:21 16.12.2019
2322 Clear 4 1018 60 16093 1.39 286 09:56 16.12.2019
2323 Clear 5 1018 58 16093 1.29 279 09:37 16.12.2019
2324 Clear 5 1018 75 16093 2.6 200 09:19 16.12.2019
2325 Clear 6 1018 58 16093 1.29 279 08:39 16.12.2019
2326 Clear 6 1018 52 16093 3.6 270 08:19 16.12.2019
2327 Clear 6 1018 52 16093 3.6 270 08:19 16.12.2019
2328 Clear 6 1018 50 16093 1.5 310 07:51 16.12.2019
2329 Clear 7 1018 50 16093 2.1 310 07:31 16.12.2019
2330 Clear 7 1018 50 16093 2.1 310 07:31 16.12.2019
2331 Clear 8 1018 61 16093 2.64 297 06:48 16.12.2019
2332 Clear 8 1018 70 16093 2.64 297 06:27 16.12.2019
2333 Clear 8 1018 70 16093 2.64 297 05:58 16.12.2019
2334 Clear 8 1017 65 16093 2.64 297 05:39 16.12.2019
2335 Clear 9 1016 57 16093 2.6 260 05:21 16.12.2019
2336 Clear 11 1015 46 16093 3.32 298 02:50 16.12.2019
2337 Clear 13 1014 35 16093 6.7 330 01:45 16.12.2019
2338 Clear 14 1014 33 16093 5.1 330 00:55 16.12.2019
2339 Clear 15 1013 33 16093 5.7 330 00:36 16.12.2019
2340 Clear 16 1012 29 16093 6.7 280 00:18 16.12.2019
2341 Clear 17 1012 36 16093 5.7 320 23:40 15.12.2019
2342 Clear 17 1012 27 16093 8.2 290 23:21 15.12.2019
2343 Clear 17 1012 29 16093 7.2 320 22:56 15.12.2019
2344 Clear 17 1012 25 16093 5.1 300 22:38 15.12.2019
2345 Clear 17 1012 34 16093 6.2 280 22:18 15.12.2019
2346 Clear 18 1012 34 16093 5.7 300 21:57 15.12.2019
2347 Clear 18 1012 31 16093 7.2 300 21:38 15.12.2019
2348 Clear 18 1012 34 16093 6.7 290 21:19 15.12.2019
2349 Clear 18 1012 33 16093 5.1 260 20:56 15.12.2019
2350 Clear 18 1013 33 16093 5.1 260 20:37 15.12.2019
2351 Clear 18 1012 39 16093 3.6 310 20:19 15.12.2019
2352 Clear 17 1013 40 16093 3.6 280 19:57 15.12.2019
2353 Clear 17 1013 40 16093 2.6 270 19:39 15.12.2019
2354 Clear 17 1013 48 16093 6.08 247 19:18 15.12.2019
2355 Clear 17 1013 36 16093 4.6 270 18:56 15.12.2019
2356 Clear 17 1013 36 16093 4.6 270 18:56 15.12.2019
2357 Clear 16 1013 47 16093 2.6 230 18:38 15.12.2019
2358 Clear 16 1013 47 16093 2.6 230 18:38 15.12.2019
2359 Clear 16 1013 51 16093 6.08 247 18:18 15.12.2019
2360 Clear 15 1013 54 16093 1.5 260 17:56 15.12.2019
2361 Clear 15 1013 58 16093 5.03 235 17:37 15.12.2019
2362 Clear 14 1013 62 16093 1.5 190 17:18 15.12.2019
2363 Clear 13 1012 66 16093 3.43 215 16:56 15.12.2019
2364 Clear 12 1012 76 16093 2.6 120 16:38 15.12.2019
2365 Clear 11 1012 66 16093 3.43 215 16:19 15.12.2019
2366 Clear 10 1013 81 16093 1.5 150 15:54 15.12.2019
2367 Clear 10 1013 81 16093 1.5 150 15:54 15.12.2019
2368 Clear 10 1013 81 16093 1.5 150 15:36 15.12.2019
2369 Clear 10 1012 62 16093 2.81 224 15:18 15.12.2019
2370 Clear 10 1012 71 16093 2.81 224 14:55 15.12.2019
2371 Clear 10 1011 87 16093 2.1 20 14:36 15.12.2019
2372 Clouds 10 1011 71 16093 1.5 340 14:18 15.12.2019
2373 Clear 10 1011 87 16093 2.1 100 13:54 15.12.2019
2374 Clear 10 1010 81 16093 2.7 217 13:36 15.12.2019
2375 Clouds 10 1010 66 16093 3.1 160 13:18 15.12.2019
2376 Clouds 10 1010 66 16093 3.1 160 13:18 15.12.2019
2377 Clear 10 1010 81 16093 3.52 211 12:55 15.12.2019
2378 Clear 11 1009 76 16093 2.1 70 12:37 15.12.2019
2379 Clear 11 1009 76 16093 2.1 70 12:37 15.12.2019
2380 Clouds 11 1010 58 16093 2.1 140 12:19 15.12.2019
2381 Clear 11 1009 71 16093 3.1 100 11:38 15.12.2019
2382 Clouds 11 1009 58 16093 4.06 212 11:19 15.12.2019
2383 Clear 12 1009 71 16093 2.6 70 10:56 15.12.2019
2384 Clear 11 1009 66 16093 2.1 90 10:38 15.12.2019
2385 Clouds 11 1009 62 16093 2.6 140 10:19 15.12.2019
2386 Clear 11 1009 66 16093 3.1 110 09:58 15.12.2019
2387 Clear 11 1009 71 16093 2.1 100 09:37 15.12.2019
2388 Clouds 11 1009 71 16093 4.1 120 09:19 15.12.2019
2389 Clear 11 1009 71 16093 3.1 100 08:54 15.12.2019
2390 Clear 11 1009 71 16093 2.1 90 08:36 15.12.2019
2391 Clear 11 1010 71 16093 3.6 110 08:18 15.12.2019
2392 Clear 11 1009 66 16093 2.1 110 07:43 15.12.2019
2393 Clear 11 1009 66 16093 2.1 110 07:25 15.12.2019
2394 Clear 12 1010 54 16093 2.1 180 06:26 15.12.2019
2395 Clear 13 1010 54 16093 3.1 180 05:42 15.12.2019
2396 Clear 13 1011 71 16093 3.6 140 05:21 15.12.2019
2397 Clear 14 1010 51 16093 3.6 190 04:20 15.12.2019
2398 Clear 16 1009 55 16093 2.75 207 02:50 15.12.2019
2399 Clear 16 1009 55 16093 2.75 207 02:31 15.12.2019
2400 Clear 18 1010 37 16093 3.07 267 01:40 15.12.2019
2401 Clear 19 1011 45 16093 2.6 330 01:18 15.12.2019
2402 Clear 20 1010 32 16093 2.1 280 00:49 15.12.2019
2403 Clear 21 1010 32 16093 2.1 280 00:31 15.12.2019
2404 Clear 22 1010 32 16093 2.1 270 23:41 14.12.2019
2405 Clear 22 1011 33 16093 5.7 330 23:22 14.12.2019
2406 Clear 22 1010 32 16093 5.68 262 22:59 14.12.2019
2407 Clear 22 1011 32 11265 3.1 300 22:41 14.12.2019
2408 Clear 22 1011 32 11265 3.1 300 22:22 14.12.2019
2409 Clear 22 1012 28 16093 6.7 300 21:57 14.12.2019
2410 Clear 22 1012 30 8047 1.5 270 21:38 14.12.2019
2411 Clear 22 1012 30 16093 2.6 300 21:19 14.12.2019
2412 Clear 22 1012 30 16093 2.6 300 21:19 14.12.2019
2413 Clear 22 1012 30 16093 5.68 262 20:59 14.12.2019
2414 Clear 22 1013 32 16093 5.68 262 20:40 14.12.2019
2415 Clear 21 1014 30 16093 2.1 0 20:20 14.12.2019
2416 Clear 21 1013 32 16093 2.9 230 20:20 14.12.2019
2417 Clear 21 1014 40 16093 2.9 230 19:57 14.12.2019
2418 Clear 21 1014 40 16093 2.9 230 19:57 14.12.2019
2419 Clear 20 1014 39 16093 1.5 80 19:37 14.12.2019
2420 Clear 20 1014 39 16093 1.5 80 19:19 14.12.2019
2421 Clear 19 1014 44 16093 2.6 120 18:56 14.12.2019
2422 Rain 18 1015 45 16093 2.6 100 18:38 14.12.2019
2423 Rain 18 1015 45 16093 2.6 100 18:38 14.12.2019
2424 Rain 18 1015 45 16093 2.6 100 18:19 14.12.2019
2425 Clear 16 1014 54 16093 3.1 100 17:44 14.12.2019
2426 Clear 13 1014 54 16093 3.1 100 17:24 14.12.2019
2427 Clear 11 1014 57 16093 2.6 120 16:58 14.12.2019
2428 Clear 10 1014 66 16093 1.5 140 16:39 14.12.2019
2429 Clear 9 1015 66 16093 2.6 110 16:19 14.12.2019
2430 Clear 9 1015 66 16093 2.6 110 16:19 14.12.2019
2431 Clear 7 1014 70 16093 3.6 130 15:43 14.12.2019
2432 Clear 7 1014 70 16093 3.6 130 15:22 14.12.2019
2433 Clear 7 1014 70 16093 2.1 120 14:59 14.12.2019
2434 Clear 8 1014 66 16093 3.6 100 14:39 14.12.2019
2435 Clear 7 1014 66 16093 3.6 100 14:20 14.12.2019
2436 Clear 7 1014 66 16093 4.1 110 13:57 14.12.2019
2437 Clear 7 1014 66 16093 2.1 100 13:38 14.12.2019
2438 Clear 7 1015 75 16093 3.1 110 13:18 14.12.2019
2439 Clear 7 1014 70 16093 4.1 100 12:54 14.12.2019
2440 Clear 7 1014 70 16093 3.1 100 12:36 14.12.2019
2441 Clear 8 1015 70 16093 3.6 100 12:18 14.12.2019
2442 Clear 8 1014 70 16093 3.6 120 11:54 14.12.2019
2443 Clear 8 1015 70 16093 4.1 120 11:36 14.12.2019
2444 Clear 8 1015 75 16093 3.6 90 11:18 14.12.2019
2445 Clear 9 1015 71 16093 4.1 110 10:55 14.12.2019
2446 Clear 9 1015 71 16093 4.1 110 10:36 14.12.2019
2447 Clear 9 1016 70 16093 4.6 110 10:18 14.12.2019
2448 Rain 9 1016 71 16093 2.1 90 09:40 14.12.2019
2449 Rain 9 1016 71 16093 2.1 90 09:20 14.12.2019
2450 Rain 9 1016 66 16093 2.6 120 08:43 14.12.2019
2451 Rain 9 1016 66 16093 2.6 120 08:20 14.12.2019
2452 Rain 10 1017 76 16093 3.1 110 07:55 14.12.2019
2453 Rain 10 1016 76 16093 3.6 130 07:36 14.12.2019
2454 Rain 10 1018 76 16093 3.6 140 07:18 14.12.2019
2455 Clear 10 1017 87 16093 0.52 357 06:39 14.12.2019
2456 Clear 10 1018 76 16093 2.1 90 06:20 14.12.2019
2457 Clear 11 1018 71 16093 3.1 120 05:20 14.12.2019
2458 Clear 15 1017 62 16093 2.1 340 02:44 14.12.2019
2459 Clear 16 1017 62 16093 2.1 340 02:22 14.12.2019
2460 Clear 18 1017 48 16093 2.6 320 01:43 14.12.2019
2461 Clear 21 1017 39 16093 1.5 330 00:50 14.12.2019
2462 Clear 22 1017 34 16093 1.5 340 00:29 14.12.2019
2463 Clear 22 1017 34 16093 1.5 340 00:29 14.12.2019
2464 Clear 22 1017 34 16093 2.1 330 23:58 13.12.2019
2465 Clear 22 1017 30 16093 1.5 310 23:38 13.12.2019
2466 Clear 22 1018 18 16093 2.1 310 23:19 13.12.2019
2467 Clear 22 1018 26 16093 1.5 280 22:55 13.12.2019
2468 Clear 22 1018 26 16093 1.5 280 22:36 13.12.2019
2469 Clear 22 1018 26 16093 1.5 280 22:18 13.12.2019
2470 Clear 22 1019 28 16093 0.81 305 21:39 13.12.2019
2471 Clear 22 1019 28 16093 0.81 305 21:21 13.12.2019
2472 Clear 21 1021 32 16093 2.1 160 20:54 13.12.2019
2473 Clear 21 1021 32 16093 2.1 160 20:36 13.12.2019
2474 Clear 21 1021 32 16093 2.1 160 20:36 13.12.2019
2475 Clear 20 1021 23 16093 3.1 140 20:18 13.12.2019
2476 Clear 18 1021 38 16093 2.6 120 19:42 13.12.2019
2477 Clear 18 1022 39 16093 1.5 50 19:23 13.12.2019
2478 Clear 17 1023 44 16093 3.1 110 18:59 13.12.2019
2479 Clear 16 1022 47 16093 3.1 120 18:41 13.12.2019
2480 Rain 14 1023 44 16093 3.1 110 18:19 13.12.2019
2481 Clear 14 1022 53 16093 3.6 130 17:57 13.12.2019
2482 Clear 13 1022 53 16093 3.6 130 17:39 13.12.2019
2483 Clear 10 1023 53 16093 2.6 120 17:18 13.12.2019
2484 Clear 8 1023 81 16093 0.7 160 16:54 13.12.2019
2485 Clear 8 1023 54 16093 2.6 140 16:36 13.12.2019
2486 Clear 7 1023 54 16093 2.6 140 16:18 13.12.2019
2487 Clear 5 1022 75 16093 4.1 120 15:38 13.12.2019
2488 Clear 5 1023 75 16093 2.6 130 15:20 13.12.2019
2489 Clear 5 1022 81 16093 3.6 90 14:42 13.12.2019
2490 Clear 5 1022 70 16093 2.6 70 14:22 13.12.2019
2491 Clear 5 1021 75 16093 1.5 140 13:58 13.12.2019
2492 Clear 5 1021 75 16093 1.5 140 13:40 13.12.2019
2493 Clear 5 1022 75 16093 2.1 120 13:21 13.12.2019
2494 Clear 5 1022 81 16093 2.6 110 12:44 13.12.2019
2495 Clear 5 1022 81 16093 2.6 110 12:44 13.12.2019
2496 Clear 6 1022 80 16093 0.35 48 12:23 13.12.2019
2497 Clear 6 1022 81 16093 2.6 100 11:58 13.12.2019
2498 Clear 6 1022 81 16093 2.6 100 11:40 13.12.2019
2499 Clear 6 1022 75 16093 3.1 110 11:22 13.12.2019
2500 Clear 6 1022 87 16093 0.51 228 10:55 13.12.2019
2501 Clear 6 1022 81 16093 3.1 120 10:37 13.12.2019
2502 Clear 6 1022 81 16093 3.1 120 10:19 13.12.2019
2503 Rain 6 1022 87 16093 0.51 228 09:39 13.12.2019
2504 Rain 6 1022 70 16093 4.1 110 09:19 13.12.2019
2505 Rain 7 1022 93 16093 0.51 228 08:42 13.12.2019
2506 Rain 7 1023 75 16093 2.6 150 08:24 13.12.2019
2507 Clear 7 1023 93 16093 0.13 151 07:46 13.12.2019
2508 Clear 7 1023 75 16093 1.5 130 07:23 13.12.2019
2509 Clear 8 1023 93 11265 2.1 60 06:55 13.12.2019
2510 Clear 8 1023 81 16093 1.5 100 06:29 13.12.2019
2511 Clear 8 1022 81 16093 1.5 140 05:46 13.12.2019
2512 Clear 9 1023 81 16093 1.5 130 05:27 13.12.2019
2513 Clear 10 1024 62 16093 2.6 220 04:35 13.12.2019
2514 Clear 10 1022 81 16093 2.1 250 03:46 13.12.2019
2515 Clear 13 1023 54 16093 1.5 300 02:34 13.12.2019
2516 Clear 14 1022 62 16093 2.6 320 01:44 13.12.2019
2517 Clear 17 1022 48 16093 2.6 320 00:56 13.12.2019
2518 Clear 18 1022 29 16093 3.1 290 00:37 13.12.2019
2519 Clear 19 1022 39 16093 2.6 330 23:57 12.12.2019
2520 Clear 19 1022 39 16093 2.6 330 23:39 12.12.2019
2521 Clear 19 1022 29 16093 2.1 320 23:20 12.12.2019
2522 Clear 19 1022 34 16093 0.79 348 22:55 12.12.2019
2523 Clear 19 1022 34 16093 0.79 348 22:37 12.12.2019
2524 Clear 19 1022 34 16093 0.79 348 22:18 12.12.2019
2525 Clear 19 1023 39 16093 2.1 280 21:54 12.12.2019
2526 Clear 19 1023 39 16093 2.1 280 21:36 12.12.2019
2527 Clear 18 1023 39 16093 2.1 280 21:18 12.12.2019
2528 Clear 18 1024 39 16093 0.79 348 20:55 12.12.2019
2529 Clear 18 1024 39 16093 0.79 348 20:55 12.12.2019
2530 Clear 18 1024 39 16093 0.79 348 20:55 12.12.2019
2531 Clear 18 1024 44 16093 0.79 348 20:37 12.12.2019
2532 Clear 17 1024 44 16093 0.44 84 20:19 12.12.2019
2533 Clear 16 1024 54 16093 0.44 84 19:42 12.12.2019
2534 Clear 15 1024 50 16093 0.44 84 19:22 12.12.2019
2535 Clear 14 1024 54 16093 2.6 130 18:58 12.12.2019
2536 Clear 14 1024 54 16093 2.6 130 18:40 12.12.2019
2537 Clear 13 1025 54 16093 0.44 84 18:20 12.12.2019
2538 Clear 12 1024 61 16093 4.1 120 17:58 12.12.2019
2539 Clear 12 1024 61 16093 4.1 120 17:58 12.12.2019
2540 Clear 11 1024 61 16093 4.1 120 17:39 12.12.2019
2541 Rain 9 1025 66 16093 0.45 155 17:21 12.12.2019
2542 Rain 8 1024 86 16093 0.45 155 16:58 12.12.2019
2543 Clear 7 1024 75 16093 2.1 130 16:39 12.12.2019
2544 Clear 6 1024 75 16093 2.1 130 16:20 12.12.2019
2545 Clear 5 1024 81 16093 2.6 120 15:56 12.12.2019
2546 Clear 5 1024 81 16093 2.6 120 15:56 12.12.2019
2547 Clear 4 1023 80 16093 3.6 120 15:38 12.12.2019
2548 Clear 4 1023 80 16093 3.6 120 15:18 12.12.2019
2549 Clear 4 1023 81 16093 3.1 120 14:38 12.12.2019
2550 Clear 4 1023 80 16093 4.6 110 14:38 12.12.2019
2551 Clear 4 1023 80 16093 4.6 110 14:20 12.12.2019
2552 Clear 4 1022 81 16093 3.6 110 13:58 12.12.2019
2553 Clear 4 1022 81 16093 3.6 110 13:40 12.12.2019
2554 Clear 4 1023 80 16093 3.6 120 13:21 12.12.2019
2555 Clear 4 1022 87 16093 3.1 100 12:59 12.12.2019
2556 Clear 4 1022 87 16093 3.1 100 12:40 12.12.2019
2557 Clear 5 1022 80 16093 4.1 110 12:22 12.12.2019
2558 Clear 5 1022 81 16093 1.5 130 11:57 12.12.2019
2559 Clear 5 1023 86 16093 4.6 120 11:38 12.12.2019
2560 Clear 5 1023 86 16093 4.6 120 11:19 12.12.2019
2561 Clear 5 1022 87 16093 2.6 100 10:56 12.12.2019
2562 Clear 5 1022 86 16093 3.6 110 10:38 12.12.2019
2563 Clear 5 1022 86 16093 3.6 110 10:19 12.12.2019
2564 Clear 5 1022 93 16093 2.6 100 09:42 12.12.2019
2565 Clear 5 1022 81 16093 3.1 120 09:24 12.12.2019
2566 Clear 5 1022 93 16093 1.5 90 08:59 12.12.2019
2567 Clear 6 1022 93 16093 1.5 90 08:40 12.12.2019
2568 Clear 6 1023 81 16093 4.1 150 08:22 12.12.2019
2569 Clear 7 1022 87 16093 0.81 320 07:47 12.12.2019
2570 Clear 7 1022 87 16093 2.6 150 07:25 12.12.2019
2571 Clear 7 1022 87 16093 0.81 320 06:55 12.12.2019
2572 Clear 7 1022 87 16093 2.1 140 06:34 12.12.2019
2573 Clear 8 1021 87 16093 0.81 320 05:41 12.12.2019
2574 Clear 9 1021 81 16093 0.3 198 04:54 12.12.2019
2575 Clear 10 1020 66 16093 1.5 300 03:37 12.12.2019
2576 Clear 12 1020 71 16093 0.3 198 02:39 12.12.2019
2577 Clear 13 1020 44 11265 3.6 300 02:20 12.12.2019
2578 Clear 14 1020 62 16093 2.1 320 01:43 12.12.2019
2579 Clear 15 1019 36 16093 1.46 339 01:24 12.12.2019
2580 Clear 17 1019 45 16093 2.6 310 00:47 12.12.2019
2581 Clouds 18 1020 31 16093 1.46 339 00:20 12.12.2019
2582 Clear 19 1019 39 16093 1.46 339 23:44 11.12.2019
2583 Clear 19 1020 32 16093 2.24 101 23:21 11.12.2019
2584 Clear 19 1020 39 16093 2.24 101 22:58 11.12.2019
2585 Clear 19 1020 36 16093 2.1 90 22:39 11.12.2019
2586 Clear 19 1020 36 16093 2.1 90 22:20 11.12.2019
2587 Clear 18 1020 44 16093 2.24 101 21:57 11.12.2019
2588 Clear 18 1020 44 16093 2.24 101 21:38 11.12.2019
2589 Clear 17 1020 38 16093 1.5 160 21:20 11.12.2019
2590 Clear 17 1020 44 16093 2.24 101 20:56 11.12.2019
2591 Clear 17 1020 44 16093 2.24 101 20:56 11.12.2019
2592 Clear 16 1021 44 16093 4.6 100 20:37 11.12.2019
2593 Clear 16 1021 44 16093 4.6 100 20:19 11.12.2019
2594 Clear 16 1021 50 16093 2.6 130 19:58 11.12.2019
2595 Clear 16 1021 50 16093 2.6 130 19:39 11.12.2019
2596 Clear 15 1023 41 16093 5.7 140 19:19 11.12.2019
2597 Clear 14 1023 62 16093 2.37 76 18:42 11.12.2019
2598 Clear 13 1022 50 16093 8.2 130 18:22 11.12.2019
2599 Clear 12 1023 71 16093 1.5 290 17:57 11.12.2019
2600 Clear 12 1023 71 16093 1.5 290 17:39 11.12.2019
2601 Clear 10 1022 54 16093 6.7 120 17:19 11.12.2019
2602 Clear 9 1022 75 16093 2.6 110 16:58 11.12.2019
2603 Clear 8 1022 75 16093 2.6 110 16:40 11.12.2019
2604 Clear 7 1023 66 16093 3.6 140 16:22 11.12.2019
2605 Clear 7 1022 75 16093 3.1 110 15:59 11.12.2019
2606 Clear 7 1022 75 16093 3.1 110 15:59 11.12.2019
2607 Clear 7 1022 75 16093 3.1 110 15:40 11.12.2019
2608 Clear 7 1021 66 16093 5.7 100 15:22 11.12.2019
2609 Clear 7 1021 66 16093 5.7 100 15:22 11.12.2019
2610 Clear 7 1021 81 16093 3.1 110 14:56 11.12.2019
2611 Clear 7 1021 66 16093 7.7 100 14:38 11.12.2019
2612 Rain 7 1021 66 16093 7.7 100 14:19 11.12.2019
2613 Rain 7 1021 87 16093 2.78 112 13:55 11.12.2019
2614 Rain 6 1021 71 16093 6.7 100 13:36 11.12.2019
2615 Clear 7 1021 71 16093 6.7 100 13:18 11.12.2019
2616 Clear 7 1021 87 16093 2.51 114 12:55 11.12.2019
2617 Clear 7 1021 71 16093 4.6 110 12:37 11.12.2019
2618 Clear 7 1021 71 16093 4.6 110 12:18 11.12.2019
2619 Clear 7 1021 87 16093 2.51 114 11:56 11.12.2019
2620 Clear 7 1022 71 16093 6.2 100 11:37 11.12.2019
2621 Clear 7 1022 71 16093 6.2 100 11:37 11.12.2019
2622 Clear 7 1022 71 16093 6.2 100 11:18 11.12.2019
2623 Rain 7 1022 93 16093 2.35 112 10:44 11.12.2019
2624 Rain 7 1022 71 16093 6.7 100 10:25 11.12.2019
2625 Clear 7 1022 93 16093 2.35 112 09:59 11.12.2019
2626 Clear 7 1023 76 16093 5.7 100 09:38 11.12.2019
2627 Clear 7 1023 76 16093 5.7 100 09:38 11.12.2019
2628 Clear 7 1023 76 16093 5.7 100 09:20 11.12.2019
2629 Clear 7 1022 81 16093 2.35 112 08:57 11.12.2019
2630 Clear 7 1023 81 16093 3.6 110 08:37 11.12.2019
2631 Clear 8 1023 81 16093 3.6 110 08:19 11.12.2019
2632 Clear 8 1023 87 16093 0.53 39 07:45 11.12.2019
2633 Clear 8 1024 93 16093 1.5 90 07:25 11.12.2019
2634 Clear 9 1023 81 16093 3.1 210 06:47 11.12.2019
2635 Clear 9 1024 87 16093 1.5 200 06:25 11.12.2019
2636 Clear 9 1023 87 16093 0.53 39 05:58 11.12.2019
2637 Clear 9 1024 76 16093 2.6 250 05:37 11.12.2019
2638 Clear 10 1023 87 16093 2.45 348 04:55 11.12.2019
2639 Clear 11 1023 81 16093 2.45 348 03:41 11.12.2019
2640 Clear 13 1023 76 16093 3.6 310 02:40 11.12.2019
2641 Clear 15 1022 51 16093 3.1 360 01:22 11.12.2019
2642 Clear 17 1022 55 16093 5.1 330 00:45 11.12.2019
2643 Clear 17 1022 45 16093 2.1 310 00:21 11.12.2019
2644 Clear 18 1022 55 16093 1.5 300 23:46 10.12.2019
2645 Clear 18 1022 42 16093 2.33 28 23:27 10.12.2019
2646 Clear 17 1022 51 16093 3.52 67 22:57 10.12.2019
2647 Clear 17 1022 51 16093 3.52 67 22:39 10.12.2019
2648 Clear 17 1022 48 16093 1.5 280 22:21 10.12.2019
2649 Clear 17 1022 51 16093 1.5 260 21:54 10.12.2019
2650 Clear 17 1022 51 16093 1.5 260 21:54 10.12.2019
2651 Clear 17 1022 48 16093 3.52 67 21:36 10.12.2019
2652 Clear 16 1022 48 16093 3.52 67 21:18 10.12.2019
2653 Clear 16 1023 51 16093 3.52 67 20:56 10.12.2019
2654 Rain 15 1023 54 16093 3.52 67 20:37 10.12.2019
2655 Rain 15 1023 54 16093 3.44 81 20:18 10.12.2019
2656 Rain 15 1024 62 16093 3.44 81 19:44 10.12.2019
2657 Rain 15 1024 62 16093 3.44 81 19:44 10.12.2019
2658 Rain 14 1024 62 16093 3.44 81 19:26 10.12.2019
2659 Rain 14 1024 62 16093 3.44 81 19:26 10.12.2019
2660 Rain 13 1024 76 16093 3.6 110 18:59 10.12.2019
2661 Rain 13 1024 76 16093 3.6 110 18:39 10.12.2019
2662 Rain 12 1024 71 16093 1.5 100 18:19 10.12.2019
2663 Clear 11 1024 93 8047 3.1 110 17:55 10.12.2019
2664 Rain 11 1023 93 16093 1.5 80 17:36 10.12.2019
2665 Rain 10 1023 93 16093 1.5 80 17:18 10.12.2019
2666 Mist 8 1024 87 8047 0.8 102 16:42 10.12.2019
2667 Clouds 7 1023 93 16093 1.5 60 16:20 10.12.2019
2668 Clouds 6 1023 87 16093 0.8 102 15:54 10.12.2019
2669 Clouds 6 1023 93 11265 0.8 102 15:36 10.12.2019
2670 Clouds 6 1023 93 11265 0.8 102 15:18 10.12.2019
2671 Clouds 6 1023 93 11265 0.8 102 15:18 10.12.2019
2672 Clouds 6 1022 93 11265 1.5 140 14:54 10.12.2019
2673 Clouds 7 1022 93 11265 0.8 102 14:36 10.12.2019
2674 Mist 7 1021 93 11265 1.5 150 14:18 10.12.2019
2675 Mist 7 1021 93 11265 1.5 150 14:18 10.12.2019
2676 Mist 7 1021 93 8047 1.5 140 13:54 10.12.2019
2677 Mist 7 1021 93 8047 1.5 140 13:36 10.12.2019
2678 Mist 7 1021 93 16093 0.27 220 13:18 10.12.2019
2679 Mist 7 1021 93 3219 2.1 70 12:38 10.12.2019
2680 Mist 7 1021 93 3219 2.1 70 12:20 10.12.2019
2681 Mist 7 1020 93 12874 1.5 300 11:42 10.12.2019
2682 Mist 7 1021 93 3219 1.5 320 11:23 10.12.2019
2683 Clouds 7 1020 100 4023 1.43 282 10:56 10.12.2019
2684 Clouds 7 1020 100 4023 1.43 282 10:56 10.12.2019
2685 Clouds 7 1020 87 16093 1.43 282 10:37 10.12.2019
2686 Rain 7 1020 87 16093 1.43 282 10:19 10.12.2019
2687 Rain 7 1019 93 16093 1.43 282 09:55 10.12.2019
2688 Rain 7 1020 87 16093 1.43 282 09:37 10.12.2019
2689 Clouds 7 1020 87 16093 1.43 282 09:18 10.12.2019
2690 Clouds 7 1020 93 16093 1.5 160 08:42 10.12.2019
2691 Clouds 8 1019 93 14484 1.5 240 08:23 10.12.2019
2692 Clouds 8 1019 93 16093 1.92 302 07:58 10.12.2019
2693 Clouds 8 1019 93 16093 2.6 240 07:40 10.12.2019
2694 Clouds 8 1019 93 16093 2.1 240 07:22 10.12.2019
2695 Rain 8 1018 87 16093 3.1 230 06:46 10.12.2019
2696 Rain 9 1018 93 16093 1.5 260 06:19 10.12.2019
2697 Clear 9 1018 93 11265 2.1 330 05:53 10.12.2019
2698 Clouds 10 1017 87 16093 2.65 297 04:52 10.12.2019
2699 Clouds 10 1016 93 16093 1.5 240 03:37 10.12.2019
2700 Clouds 10 1016 87 16093 2.1 300 02:45 10.12.2019
2701 Clear 11 1015 81 16093 7.24 305 01:44 10.12.2019
2702 Clouds 11 1014 81 16093 1.5 190 01:20 10.12.2019
2703 Clear 13 1014 67 16093 2.84 343 00:41 10.12.2019
2704 Clouds 13 1014 76 16093 2.84 343 00:21 10.12.2019
2705 Clouds 14 1014 71 16093 2.84 343 23:41 09.12.2019
2706 -273 0 0 0 0 0 23:23 09.12.2019
2707 Rain 13 1013 71 16093 2.6 150 22:58 09.12.2019
2708 Rain 12 1013 71 16093 2.6 150 22:40 09.12.2019
2709 Rain 12 1013 81 16093 1.5 110 22:19 09.12.2019
2710 Rain 12 1014 81 16093 1.5 100 21:57 09.12.2019
2711 Rain 11 1013 76 16093 2.6 90 21:38 09.12.2019
2712 Rain 11 1015 87 11265 2.1 10 21:19 09.12.2019
2713 Rain 11 1014 81 11265 2.6 170 20:56 09.12.2019
2714 Rain 11 1014 81 11265 2.6 170 20:38 09.12.2019
2715 Rain 11 1014 87 4828 5.7 330 20:20 09.12.2019
2716 Rain 11 1014 82 9656 5.7 330 19:55 09.12.2019
2717 Rain 12 1014 82 9656 5.7 330 19:37 09.12.2019
2718 Rain 12 1014 82 16093 3.1 320 19:19 09.12.2019
2719 Rain 13 1014 87 16093 5.7 320 18:56 09.12.2019
2720 Rain 13 1014 87 16093 5.7 320 18:56 09.12.2019
2721 Clouds 13 1014 76 16093 1.5 110 18:37 09.12.2019
2722 Clouds 13 1014 76 16093 1.5 110 18:19 09.12.2019
2723 Clouds 13 1013 82 16093 2.6 110 17:57 09.12.2019
2724 Clouds 12 1013 82 16093 2.6 110 17:38 09.12.2019
2725 Clouds 12 1014 81 16093 2.6 160 17:20 09.12.2019
2726 Clouds 12 1014 81 16093 2.6 160 17:20 09.12.2019
2727 Rain 12 1013 93 16093 1.5 60 16:56 09.12.2019
2728 Rain 11 1014 87 16093 2.6 60 16:37 09.12.2019
2729 Rain 11 1014 87 16093 2.6 60 16:18 09.12.2019
2730 Rain 11 1014 93 16093 3.1 90 15:55 09.12.2019
2731 Drizzle 11 1014 93 16093 4.1 100 15:37 09.12.2019
2732 Drizzle 11 1014 93 16093 4.1 100 15:18 09.12.2019
2733 Thunderstorm 11 1014 93 16093 2.1 130 14:42 09.12.2019
2734 Thunderstorm 11 1014 81 11265 3.1 260 14:19 09.12.2019
2735 Rain 11 1013 93 2414 3.1 100 13:58 09.12.2019
2736 Rain 11 1013 93 2414 3.1 100 13:38 09.12.2019
2737 Clear 11 1013 93 16093 5.7 90 13:19 09.12.2019
2738 Rain 11 1013 100 16093 3.6 90 12:57 09.12.2019
2739 Rain 11 1013 100 16093 3.6 90 12:38 09.12.2019
2740 Rain 11 1014 87 16093 3.6 30 12:19 09.12.2019
2741 Rain 11 1014 93 16093 4.1 320 11:57 09.12.2019
2742 Rain 11 1015 81 16093 2.6 160 11:37 09.12.2019
2743 Thunderstorm 11 1016 81 8047 2.6 200 11:18 09.12.2019
2744 Thunderstorm 11 1016 87 16093 3.6 320 10:41 09.12.2019
2745 Rain 12 1015 87 12874 3.1 30 10:20 09.12.2019
2746 Rain 12 1015 87 12874 3.1 30 10:20 09.12.2019
2747 Thunderstorm 12 1015 87 11265 9.3 320 09:59 09.12.2019
2748 Thunderstorm 12 1015 87 11265 9.3 320 09:41 09.12.2019
2749 Thunderstorm 12 1015 87 11265 9.3 320 09:41 09.12.2019
2750 Thunderstorm 13 1014 76 16093 2.1 150 09:21 09.12.2019
2751 Rain 13 1015 87 16093 1.5 360 08:44 09.12.2019
2752 Rain 14 1015 77 16093 8.91 223 08:26 09.12.2019
2753 Clouds 14 1015 93 16093 2.1 350 07:59 09.12.2019
2754 Clouds 14 1015 93 16093 2.1 350 07:41 09.12.2019
2755 Rain 14 1015 82 16093 0.18 48 07:23 09.12.2019
2756 Clouds 14 1015 87 11265 0.18 48 06:47 09.12.2019
2757 Clouds 14 1016 77 16093 1.5 150 06:24 09.12.2019
2758 Clouds 14 1016 77 16093 0.18 48 05:27 09.12.2019
2759 Drizzle 14 1016 77 16093 2.24 246 04:46 09.12.2019
2760 Clouds 15 1016 72 16093 2.24 246 03:20 09.12.2019
2761 Clouds 15 1016 72 16093 1.5 50 02:24 09.12.2019
2762 Clear 16 1015 67 16093 2.1 330 01:42 09.12.2019
2763 Clear 16 1015 67 16093 2.1 330 01:42 09.12.2019
2764 Clear 17 1015 48 16093 2.1 330 00:46 09.12.2019
2765 Clear 18 1016 63 16093 1.5 330 00:26 09.12.2019
2766 Clouds 18 1015 39 16093 3.61 241 23:41 08.12.2019
2767 Clear 18 1016 63 16093 1.5 160 23:23 08.12.2019
2768 Clouds 18 1015 37 16093 3.1 210 22:57 08.12.2019
2769 Clouds 18 1015 37 16093 3.1 210 22:57 08.12.2019
2770 Clouds 18 1015 37 16093 3.1 210 22:38 08.12.2019
2771 Clouds 18 1016 59 16093 3.6 140 22:19 08.12.2019
2772 Clouds 18 1016 42 16093 3.15 229 21:58 08.12.2019
2773 Clouds 18 1016 42 16093 3.15 229 21:40 08.12.2019
2774 Clouds 18 1017 52 16093 2.6 100 21:19 08.12.2019
2775 Clouds 18 1017 52 16093 3.15 229 20:57 08.12.2019
2776 Clouds 18 1018 59 16093 1.5 130 20:38 08.12.2019
2777 Clouds 18 1017 52 16093 3.15 229 20:38 08.12.2019
2778 Clouds 18 1018 59 16093 1.5 130 20:20 08.12.2019
2779 Clouds 17 1018 63 16093 2.1 140 19:57 08.12.2019
2780 Clouds 17 1018 63 16093 2.1 140 19:39 08.12.2019
2781 Clouds 16 1019 77 16093 2.49 234 19:21 08.12.2019
2782 Clear 16 1019 77 16093 2.49 234 18:55 08.12.2019
2783 Clouds 15 1019 72 16093 2.49 234 18:37 08.12.2019
2784 Clouds 15 1019 72 16093 2.49 234 18:18 08.12.2019
2785 Clouds 15 1019 82 8047 2.49 234 17:56 08.12.2019
2786 Clouds 14 1019 76 16093 2.49 234 17:37 08.12.2019
2787 Clouds 14 1019 76 16093 1.62 229 17:19 08.12.2019
2788 Clouds 14 1019 100 4828 1.62 229 16:55 08.12.2019
2789 Clouds 13 1019 100 4828 1.62 229 16:55 08.12.2019
2790 Clouds 13 1019 71 16093 1.62 229 16:37 08.12.2019
2791 Clouds 13 1019 71 16093 1.62 229 16:19 08.12.2019
2792 Clouds 13 1018 93 4828 1.62 229 15:38 08.12.2019
2793 Clouds 13 1018 82 16093 1.62 229 15:19 08.12.2019
2794 Clouds 13 1018 93 8047 1.5 110 14:59 08.12.2019
2795 Clouds 13 1018 93 8047 1.5 110 14:39 08.12.2019
2796 Clouds 13 1018 82 16093 1.5 100 14:21 08.12.2019
2797 Clouds 13 1018 93 6437 1.5 350 13:57 08.12.2019
2798 Clouds 13 1018 93 6437 1.5 350 13:57 08.12.2019
2799 Clouds 13 1018 93 6437 1.5 350 13:38 08.12.2019
2800 Clouds 13 1018 82 16093 1.5 110 13:19 08.12.2019
2801 Clouds 13 1018 93 8047 1.07 226 12:54 08.12.2019
2802 Clouds 13 1018 93 8047 1.07 226 12:54 08.12.2019
2803 Clouds 13 1018 82 16093 2.1 120 12:36 08.12.2019
2804 Clouds 13 1018 82 16093 2.1 120 12:18 08.12.2019
2805 Clouds 13 1018 82 16093 2.1 120 12:18 08.12.2019
2806 Clouds 13 1018 87 8047 1.07 226 11:38 08.12.2019
2807 Clouds 13 1019 82 16093 1.5 120 11:38 08.12.2019
2808 Clouds 13 1019 82 16093 1.5 120 11:20 08.12.2019
2809 Clouds 13 1019 87 11265 0.49 335 10:58 08.12.2019
2810 Clouds 13 1019 87 11265 0.49 335 10:38 08.12.2019
2811 Clouds 13 1020 87 16093 2.1 110 10:20 08.12.2019
2812 Clouds 13 1019 87 11265 1.5 240 09:56 08.12.2019
2813 Clouds 13 1019 87 11265 1.5 240 09:37 08.12.2019
2814 Clouds 14 1020 76 16093 2.1 180 09:19 08.12.2019
2815 Clouds 14 1019 87 11265 1.5 170 08:57 08.12.2019
2816 Clouds 14 1020 76 16093 2.1 230 08:37 08.12.2019
2817 Clouds 14 1020 76 16093 2.1 230 08:37 08.12.2019
2818 Clouds 14 1020 76 16093 2.1 230 08:37 08.12.2019
2819 Clouds 14 1020 76 16093 2.1 230 08:18 08.12.2019
2820 Clouds 14 1020 87 11265 2.1 280 07:42 08.12.2019
2821 Clouds 14 1021 72 16093 1.5 325 07:19 08.12.2019
2822 Clouds 14 1021 82 16093 2.6 310 06:50 08.12.2019
2823 Clouds 14 1021 72 16093 3.1 260 06:22 08.12.2019
2824 Clouds 15 1020 77 16093 3.1 290 05:43 08.12.2019
2825 Clouds 15 1019 72 16093 2.1 300 04:59 08.12.2019
2826 Clear 16 1020 72 16093 2.6 310 03:49 08.12.2019
2827 Clear 16 1020 59 16093 3.1 260 03:21 08.12.2019
2828 Clouds 17 1019 55 16093 2.6 300 02:34 08.12.2019
2829 Clear 18 1019 59 16093 0.91 330 01:48 08.12.2019
2830 Clear 19 1019 55 16093 2.1 310 00:59 08.12.2019
2831 Clear 20 1019 55 16093 2.1 310 00:39 08.12.2019
2832 Clear 20 1019 55 16093 2.1 310 00:39 08.12.2019
2833 Clear 21 1019 30 16093 3.1 320 00:19 08.12.2019
2834 Clear 21 1019 30 16093 3.1 320 00:19 08.12.2019
2835 Clear 21 1019 42 16093 2.6 330 23:40 07.12.2019
2836 Clouds 22 1019 33 16093 2.1 320 23:20 07.12.2019
2837 Clear 22 1019 37 16093 3.1 290 22:56 07.12.2019
2838 Clouds 22 1020 37 16093 2.05 307 22:38 07.12.2019
2839 Clouds 22 1020 37 16093 2.05 307 22:20 07.12.2019
2840 Clear 22 1019 37 16093 2.05 307 21:56 07.12.2019
2841 Clear 22 1019 37 16093 2.05 307 21:38 07.12.2019
2842 Clear 22 1019 37 16093 2.05 307 21:38 07.12.2019
2843 Clear 22 1020 43 16093 2.05 307 21:19 07.12.2019
2844 Clear 22 1022 45 16093 2.05 307 20:56 07.12.2019
2845 Clear 21 1022 45 16093 2.05 307 20:36 07.12.2019
2846 Clear 21 1022 45 16093 0.69 103 20:18 07.12.2019
2847 Clouds 20 1021 52 0 0.45 87 19:56 07.12.2019
2848 Clear 19 1023 55 16093 0.69 103 19:37 07.12.2019
2849 Clear 19 1023 55 16093 0.69 103 19:19 07.12.2019
2850 Clear 18 1023 45 16093 3.1 140 18:44 07.12.2019
2851 Clouds 16 1023 59 16093 2.1 180 18:19 07.12.2019
2852 Clear 15 1022 66 16093 3.6 100 17:58 07.12.2019
2853 Clear 14 1022 66 16093 3.6 100 17:39 07.12.2019
2854 Clear 13 1023 66 16093 3.1 110 17:21 07.12.2019
2855 Clear 12 1022 81 16093 1.14 122 16:56 07.12.2019
2856 Clear 10 1022 81 16093 2.1 110 16:38 07.12.2019
2857 Clear 10 1022 81 16093 2.1 110 16:19 07.12.2019
2858 Clear 9 1022 81 16093 2.6 110 15:42 07.12.2019
2859 Clear 9 1022 76 16093 3.1 90 15:23 07.12.2019
2860 Clear 9 1022 87 16093 1.14 122 14:58 07.12.2019
2861 Clear 9 1022 87 16093 1.14 122 14:40 07.12.2019
2862 Mist 9 1022 87 6437 1.5 70 14:18 07.12.2019
2863 Clear 9 1021 93 16093 2.1 140 13:41 07.12.2019
2864 Clear 9 1021 93 16093 2.1 140 13:41 07.12.2019
2865 Clear 9 1022 93 16093 0.7 292 13:21 07.12.2019
2866 Clear 9 1021 93 16093 0.19 235 12:59 07.12.2019
2867 Clear 9 1021 93 16093 0.19 235 12:40 07.12.2019
2868 Clear 9 1021 87 16093 3.1 110 12:22 07.12.2019
2869 Clear 10 1021 81 16093 0.19 235 11:57 07.12.2019
2870 Clear 10 1021 81 16093 0.19 235 11:39 07.12.2019
2871 Clouds 10 1022 87 16093 2.6 120 11:20 07.12.2019
2872 Clear 10 1022 81 16093 2.1 100 10:38 07.12.2019
2873 Clear 11 1022 81 16093 3.1 120 10:19 07.12.2019
2874 Clear 11 1022 87 16093 0.3 146 09:42 07.12.2019
2875 Clouds 11 1023 87 16093 2.1 140 09:22 07.12.2019
2876 Clear 11 1022 87 16093 0.3 146 08:59 07.12.2019
2877 Clear 11 1022 87 16093 0.3 146 08:39 07.12.2019
2878 Haze 11 1023 81 8047 1.5 160 08:21 07.12.2019
2879 Clear 11 1023 81 16093 2.1 150 07:45 07.12.2019
2880 Haze 11 1023 81 4426 0.57 2 07:25 07.12.2019
2881 Clear 12 1022 81 16093 0.57 2 06:48 07.12.2019
2882 Clear 12 1023 76 16093 1.5 190 06:25 07.12.2019
2883 Clear 13 1022 71 16093 2.1 260 05:30 07.12.2019
2884 Clear 14 1021 71 16093 1.84 95 03:56 07.12.2019
2885 Clear 15 1022 63 16093 2.1 310 03:18 07.12.2019
2886 Clear 17 1021 39 16093 3.1 300 02:21 07.12.2019
2887 Clear 18 1021 45 16093 1.51 68 01:34 07.12.2019
2888 Clear 20 1020 42 16093 2.6 320 00:52 07.12.2019
2889 Clear 22 1021 30 16093 1.51 68 00:19 07.12.2019
2890 Clear 22 1020 35 16093 2.1 340 23:55 06.12.2019
2891 Clouds 22 1021 33 16093 1.51 68 23:36 06.12.2019
2892 Clouds 22 1021 33 16093 1.8 104 23:18 06.12.2019
2893 Clouds 22 1021 37 16093 1.8 104 22:37 06.12.2019
2894 Clouds 21 1021 37 16093 1.8 104 22:19 06.12.2019
2895 Clear 21 1022 33 16093 1.8 104 21:57 06.12.2019
2896 Clear 21 1022 33 16093 1.8 104 21:38 06.12.2019
2897 Clear 21 1022 33 16093 1.8 104 21:19 06.12.2019
2898 Clear 21 1022 37 16093 2.1 60 20:42 06.12.2019
2899 Clear 21 1022 37 16093 2.1 60 20:42 06.12.2019
2900 Clear 20 1023 37 16093 3.1 160 20:23 06.12.2019
2901 Clear 19 1023 39 16093 2.6 130 19:59 06.12.2019
2902 Clear 19 1023 39 16093 2.6 130 19:40 06.12.2019
2903 Clear 18 1023 48 16093 1.55 125 19:21 06.12.2019
2904 Clear 18 1023 48 16093 1.55 125 19:21 06.12.2019
2905 Clear 17 1023 51 16093 3.6 90 18:55 06.12.2019
2906 Clear 16 1023 58 16093 2.6 140 18:37 06.12.2019
2907 Clear 15 1023 58 16093 2.6 140 18:19 06.12.2019
2908 Clear 14 1023 62 16093 3.6 120 17:55 06.12.2019
2909 Clear 14 1023 62 16093 3.6 120 17:55 06.12.2019
2910 Clear 13 1023 71 16093 2.1 90 17:37 06.12.2019
2911 Clear 12 1023 71 16093 2.1 90 17:19 06.12.2019
2912 Clear 10 1023 76 16093 3.6 110 16:42 06.12.2019
2913 Clear 9 1023 81 16093 3.1 130 16:24 06.12.2019
2914 Clear 9 1022 76 16093 0.87 109 15:57 06.12.2019
2915 Clear 9 1022 71 16093 5.1 130 15:39 06.12.2019
2916 Clear 8 1022 71 16093 5.1 130 15:18 06.12.2019
2917 Clear 8 1021 76 16093 1.5 150 14:55 06.12.2019
2918 Clear 9 1021 81 16093 3.1 120 14:37 06.12.2019
2919 Clear 8 1021 81 16093 3.1 120 14:18 06.12.2019
2920 Clear 8 1021 81 16093 4.6 110 13:42 06.12.2019
2921 Clear 8 1022 87 16093 3.6 110 13:23 06.12.2019
2922 Clear 8 1021 81 16093 4.1 110 12:42 06.12.2019
2923 Clear 8 1022 81 16093 2.1 80 12:22 06.12.2019
2924 Clear 8 1021 87 16093 1.5 130 11:56 06.12.2019
2925 Clear 8 1022 81 16093 2.6 130 11:37 06.12.2019
2926 Clear 8 1022 81 16093 2.6 130 11:19 06.12.2019
2927 Clear 8 1021 87 16093 0.66 69 10:42 06.12.2019
2928 Clear 8 1021 76 16093 2.1 120 10:21 06.12.2019
2929 Clear 9 1021 87 16093 2.6 110 09:57 06.12.2019
2930 Clear 9 1021 81 16093 0.66 69 09:37 06.12.2019
2931 Clear 9 1021 87 16093 2.6 110 09:37 06.12.2019
2932 Clear 9 1021 87 16093 2.6 110 09:19 06.12.2019
2933 Clear 9 1021 81 16093 1.5 170 08:45 06.12.2019
2934 Clear 9 1021 87 16093 3.6 120 08:26 06.12.2019
2935 Clear 10 1021 87 16093 0.13 163 07:44 06.12.2019
2936 Clear 10 1022 87 16093 3.1 120 07:23 06.12.2019
2937 Clear 10 1021 87 16093 0.13 163 06:58 06.12.2019
2938 Clear 10 1022 81 16093 4.1 120 06:26 06.12.2019
2939 Clear 10 1021 87 16093 0.13 163 05:52 06.12.2019
2940 Clear 11 1021 81 16093 2.1 310 04:52 06.12.2019
2941 Clear 16 1019 59 16093 1.5 320 01:49 06.12.2019
2942 Clear 17 1020 48 16093 3.6 340 01:22 06.12.2019
2943 Clear 17 1019 48 16093 2.6 340 00:39 06.12.2019
2944 Clear 17 1020 40 16093 3.1 340 00:20 06.12.2019
2945 Clear 17 1019 40 14484 2.1 340 23:38 05.12.2019
2946 Clear 19 1019 40 14484 2.1 340 23:18 05.12.2019
2947 Clear 20 1019 45 16093 3.1 350 22:55 05.12.2019
2948 Clear 20 1019 40 16093 2.6 300 22:37 05.12.2019
2949 Clear 20 1019 40 16093 2.6 300 22:18 05.12.2019
2950 Clear 20 1019 45 16093 2.6 290 21:42 05.12.2019
2951 Clear 20 1020 42 16093 3.1 250 21:24 05.12.2019
2952 Clear 19 1020 45 16093 1.5 280 20:59 05.12.2019
2953 Clear 18 1020 48 16093 1.5 260 20:40 05.12.2019
2954 Clear 19 1020 48 16093 3.6 270 20:20 05.12.2019
2955 Clear 18 1020 45 16093 3.36 253 19:55 05.12.2019
2956 Clear 18 1021 48 16093 3.36 253 19:36 05.12.2019
2957 Clear 18 1021 48 16093 3.36 253 19:36 05.12.2019
2958 Clear 18 1021 48 16093 3.36 253 19:18 05.12.2019
2959 Clear 17 1021 59 16093 3.36 253 18:39 05.12.2019
2960 Clear 17 1021 59 16093 3.36 253 18:39 05.12.2019
2961 Clear 17 1021 59 16093 3.36 253 18:21 05.12.2019
2962 Clear 17 1021 59 16093 3.36 253 18:21 05.12.2019
2963 Clear 17 1021 51 16093 3.36 253 18:21 05.12.2019
2964 Clear 17 1021 51 16093 3.36 253 17:59 05.12.2019
2965 Clouds 16 1020 58 16093 3.36 253 17:38 05.12.2019
2966 Clouds 13 1020 62 16093 2.6 120 17:19 05.12.2019
2967 Clouds 12 1020 76 16093 2.48 236 16:55 05.12.2019
2968 Clouds 12 1019 82 16093 2.48 236 16:37 05.12.2019
2969 Clouds 12 1020 76 16093 3.1 110 16:18 05.12.2019
2970 Clouds 11 1019 82 16093 2.48 236 15:55 05.12.2019
2971 Clouds 11 1019 82 16093 2.48 236 15:37 05.12.2019
2972 Clouds 11 1019 81 16093 2.6 120 15:18 05.12.2019
2973 Clouds 11 1019 76 16093 2.48 236 14:54 05.12.2019
2974 Clouds 12 1018 71 16093 2.48 236 14:36 05.12.2019
2975 Clouds 12 1019 66 16093 1.5 170 14:18 05.12.2019
2976 Clouds 12 1018 76 16093 3.69 209 13:55 05.12.2019
2977 Clouds 12 1018 76 16093 3.69 209 13:36 05.12.2019
2978 Clouds 12 1018 71 16093 2.1 100 13:18 05.12.2019
2979 Clouds 12 1018 82 16093 3.23 204 12:42 05.12.2019
2980 Clouds 12 1018 82 16093 3.23 204 12:23 05.12.2019
2981 Clouds 14 1018 76 16093 3.23 204 11:56 05.12.2019
2982 Clouds 13 1018 71 16093 3.23 204 11:38 05.12.2019
2983 Clouds 14 1018 62 16093 3.1 120 11:19 05.12.2019
2984 Clouds 14 1018 62 16093 3.34 205 10:55 05.12.2019
2985 Clouds 14 1018 62 16093 3.34 205 10:55 05.12.2019
2986 Clouds 13 1017 62 16093 3.34 205 10:37 05.12.2019
2987 Clouds 13 1018 54 16093 3.1 200 10:18 05.12.2019
2988 Clouds 13 1018 54 16093 3.1 200 10:18 05.12.2019
2989 Clouds 13 1017 58 16093 2.6 360 09:43 05.12.2019
2990 Clouds 13 1017 58 16093 2.6 360 09:21 05.12.2019
2991 Clouds 15 1017 51 11265 1.5 230 08:58 05.12.2019
2992 Clouds 16 1017 51 16093 2.1 230 08:37 05.12.2019
2993 Clouds 15 1017 51 16093 2.1 230 08:19 05.12.2019
2994 Clouds 15 1018 48 16093 3.6 200 08:19 05.12.2019
2995 Clouds 15 1017 45 16093 2.6 190 07:49 05.12.2019
2996 Clouds 15 1017 45 16093 2.6 190 07:49 05.12.2019
2997 Clouds 14 1017 48 16093 3.1 180 07:31 05.12.2019
2998 Clouds 15 1017 45 16093 2.6 170 06:57 05.12.2019
2999 Clouds 15 1017 39 16093 2.1 180 06:38 05.12.2019
3000 Clouds 15 1018 44 16093 3.1 210 06:18 05.12.2019
3001 Clouds 16 1016 36 16093 2.6 190 05:47 05.12.2019
3002 Clouds 16 1016 36 16093 2.6 190 05:21 05.12.2019
3003 Clouds 19 1016 29 16093 3.1 200 03:52 05.12.2019
3004 Clouds 19 1016 29 16093 3.1 200 03:52 05.12.2019
3005 Clouds 20 1015 28 16093 5.7 200 02:43 05.12.2019
3006 Clouds 18 1015 28 16093 5.7 200 02:23 05.12.2019
3007 Clouds 19 1015 30 16093 4.6 220 01:52 05.12.2019
3008 Clouds 20 1014 30 16093 3.1 240 01:24 05.12.2019
3009 Clouds 23 1014 26 16093 3.1 210 00:50 05.12.2019
3010 Clear 23 1014 23 16093 3.1 210 00:24 05.12.2019
3011 Clouds 24 1014 22 16093 4.1 250 23:57 04.12.2019
3012 Clouds 20 1013 23 16093 6.7 190 23:38 04.12.2019
3013 Clear 24 1015 23 16093 5.7 180 23:19 04.12.2019
3014 Clear 22 1013 32 16093 6.2 190 22:39 04.12.2019
3015 Clear 22 1013 32 16093 6.2 190 22:20 04.12.2019
3016 Clear 22 1014 32 16093 3.6 170 21:58 04.12.2019
3017 Clear 24 1015 32 16093 3.6 170 21:39 04.12.2019
3018 Clear 23 1016 27 16093 4.1 140 21:21 04.12.2019
3019 Clear 23 1015 25 16093 4.1 130 20:59 04.12.2019
3020 Clear 22 1016 28 16093 4.6 130 20:40 04.12.2019
3021 Clear 21 1016 28 16093 4.6 130 20:22 04.12.2019
3022 Clear 20 1017 32 16093 4.1 110 19:59 04.12.2019
3023 Clear 20 1017 32 16093 4.1 120 19:38 04.12.2019
3024 Clear 19 1019 42 16093 4.6 130 19:20 04.12.2019
3025 Clouds 21 1018 45 16093 1.5 130 18:57 04.12.2019
3026 Clouds 20 1018 48 16093 1.55 187 18:39 04.12.2019
3027 Clouds 20 1018 48 16093 1.55 187 18:20 04.12.2019
3028 Clouds 17 1018 62 16093 1.55 187 17:40 04.12.2019
3029 Clouds 15 1019 55 16093 5.1 120 17:21 04.12.2019
3030 Clouds 14 1018 71 16093 2.1 60 16:59 04.12.2019
3031 Clouds 14 1017 76 16093 2.6 100 16:39 04.12.2019
3032 Clouds 14 1017 76 16093 2.6 100 16:19 04.12.2019
3033 Clouds 13 1017 76 16093 1.56 156 15:55 04.12.2019
3034 Clouds 13 1017 76 16093 1.56 156 15:37 04.12.2019
3035 Clouds 13 1019 71 16093 2.1 180 15:19 04.12.2019
3036 Clouds 14 1017 71 16093 3.6 80 14:44 04.12.2019
3037 Clouds 13 1017 71 16093 3.6 80 14:23 04.12.2019
3038 Clouds 13 1017 71 16093 0.52 358 13:58 04.12.2019
3039 Clouds 13 1016 71 16093 1.5 300 13:38 04.12.2019
3040 Clouds 13 1016 71 16093 1.5 300 13:38 04.12.2019
3041 Clouds 13 1017 76 16093 5.1 110 13:20 04.12.2019
3042 Drizzle 13 1017 67 16093 4.1 150 12:45 04.12.2019
3043 Clouds 13 1016 62 16093 3.6 150 12:25 04.12.2019
3044 Clouds 13 1016 62 16093 7.2 110 11:56 04.12.2019
3045 Clouds 13 1016 62 16093 7.2 110 11:38 04.12.2019
3046 Clouds 13 1016 62 16093 7.2 110 11:38 04.12.2019
3047 Clouds 13 1016 62 16093 7.2 110 11:20 04.12.2019
3048 Clouds 13 1018 66 16093 3.1 110 10:44 04.12.2019
3049 Clouds 13 1018 66 16093 3.1 110 10:23 04.12.2019
3050 Clear 13 1018 76 16093 3.1 100 09:57 04.12.2019
3051 Clouds 12 1019 76 16093 2.1 130 09:38 04.12.2019
3052 Clouds 12 1020 76 16093 3.6 200 09:19 04.12.2019
3053 Clouds 13 1019 76 16093 2.1 100 08:40 04.12.2019
3054 Clouds 13 1019 76 16093 2.1 100 08:21 04.12.2019
3055 Clear 13 1019 71 16093 1.99 170 07:48 04.12.2019
3056 Clear 13 1019 71 16093 1.99 170 07:30 04.12.2019
3057 Clouds 13 1019 66 16093 1.99 170 06:36 04.12.2019
3058 Clouds 14 1019 67 16093 1.99 170 05:48 04.12.2019
3059 Clouds 14 1019 67 16093 1.99 170 05:29 04.12.2019
3060 Clouds 15 1019 67 16093 2.1 360 04:30 04.12.2019
3061 Clouds 16 1017 67 16093 6.2 240 02:55 04.12.2019
3062 Clear 18 1017 45 16093 3.1 320 00:52 04.12.2019
3063 Clear 19 1017 42 16093 4.1 320 00:28 04.12.2019
3064 Clear 20 1017 39 16093 3.6 290 23:59 03.12.2019
3065 Clear 20 1018 37 16093 3.1 300 23:40 03.12.2019
3066 Clear 20 1018 37 16093 3.1 300 23:19 03.12.2019
3067 Clouds 20 1019 40 16093 1.5 71 22:41 03.12.2019
3068 Clouds 20 1019 40 16093 1.5 71 22:19 03.12.2019
3069 Clouds 20 1019 40 16093 1.5 71 21:59 03.12.2019
3070 Clear 20 1019 39 16093 1.5 71 21:38 03.12.2019
3071 Clouds 20 1019 40 16093 1.5 71 21:19 03.12.2019
3072 Clear 19 1019 45 16093 1.5 71 20:58 03.12.2019
3073 Clear 19 1020 42 16093 1.5 270 20:39 03.12.2019
3074 Clear 18 1021 36 16093 2.1 170 20:18 03.12.2019
3075 Clear 18 1022 41 16093 2.1 190 19:55 03.12.2019
3076 Clear 18 1022 41 16093 2.1 190 19:55 03.12.2019
3077 Clear 17 1022 41 16093 2.1 190 19:37 03.12.2019
3078 Clear 16 1022 41 16093 2.1 190 19:18 03.12.2019
3079 Clear 16 1022 41 16093 2.1 190 19:18 03.12.2019
3080 Clear 16 1021 62 16093 2.6 270 18:56 03.12.2019
3081 Clear 15 1021 54 16093 2.1 210 18:38 03.12.2019
3082 Clear 14 1021 54 16093 2.1 210 18:19 03.12.2019
3083 Clear 12 1020 66 16093 2.6 120 17:55 03.12.2019
3084 Clear 10 1020 66 16093 3.1 110 17:36 03.12.2019
3085 Clear 10 1020 66 16093 3.1 110 17:36 03.12.2019
3086 Clear 10 1022 61 16093 4.6 170 17:18 03.12.2019
3087 Clear 10 1020 70 16093 4.1 160 16:56 03.12.2019
3088 Clear 9 1020 75 16093 4.6 100 16:37 03.12.2019
3089 Clear 9 1020 75 16093 4.6 100 16:19 03.12.2019
3090 Clear 7 1020 81 16093 3.6 110 15:41 03.12.2019
3091 Clear 7 1020 81 16093 3.6 110 15:20 03.12.2019
3092 Clear 8 1020 81 16093 3.1 90 14:59 03.12.2019
3093 Clear 7 1020 87 16093 3.6 100 14:41 03.12.2019
3094 Clear 6 1020 87 16093 3.6 100 14:19 03.12.2019
3095 Clear 6 1019 100 16093 1.5 110 13:39 03.12.2019
3096 Clear 6 1019 100 16093 1.5 110 13:21 03.12.2019
3097 Clear 6 1020 93 16093 0.55 185 12:59 03.12.2019
3098 Clear 6 1020 93 16093 0.55 185 12:59 03.12.2019
3099 Clear 7 1019 87 16093 0.55 185 12:38 03.12.2019
3100 Clear 7 1019 81 16093 2.1 160 12:18 03.12.2019
3101 Clear 7 1019 93 16093 2.1 120 11:58 03.12.2019
3102 Clear 7 1019 93 16093 2.1 80 11:38 03.12.2019
3103 Clear 7 1019 93 16093 2.1 80 11:20 03.12.2019
3104 Clear 7 1020 81 16093 2.6 170 11:20 03.12.2019
3105 Clear 7 1020 87 16093 0.6 117 10:56 03.12.2019
3106 Clear 7 1020 87 16093 0.6 117 10:38 03.12.2019
3107 Clear 7 1020 81 16093 3.6 150 10:19 03.12.2019
3108 Clear 7 1020 93 16093 0.6 117 09:45 03.12.2019
3109 Clear 7 1020 93 16093 0.6 117 09:25 03.12.2019
3110 Clear 7 1020 87 16093 0.6 117 08:58 03.12.2019
3111 Clear 7 1020 87 16093 0.6 117 08:39 03.12.2019
3112 Clear 8 1021 81 16093 2.6 150 08:21 03.12.2019
3113 Clear 8 1020 87 16093 2.1 70 07:51 03.12.2019
3114 Clear 8 1020 87 16093 3.1 110 07:28 03.12.2019
3115 Clear 8 1021 87 16093 2.6 60 06:45 03.12.2019
3116 Clear 8 1021 87 16093 2.6 60 06:45 03.12.2019
3117 Clear 9 1021 81 16093 1.5 120 06:20 03.12.2019
3118 Clear 9 1021 87 16093 0.74 64 05:53 03.12.2019
3119 Clear 11 1020 76 16093 0.96 45 03:44 03.12.2019
3120 Clear 12 1020 76 16093 0.96 45 03:22 03.12.2019
3121 Clear 13 1020 71 16093 2.1 300 02:53 03.12.2019
3122 Clear 13 1020 71 16093 2.1 300 02:53 03.12.2019
3123 Clear 13 1019 66 16093 3.1 290 02:32 03.12.2019
3124 Clear 14 1018 62 16093 3.6 300 01:59 03.12.2019
3125 Clear 15 1018 58 16093 3.1 300 01:39 03.12.2019
3126 Clear 17 1018 58 16093 3.1 300 01:19 03.12.2019
3127 Clear 19 1018 45 16093 3.6 320 00:41 03.12.2019
3128 Clear 19 1018 45 16093 3.6 320 00:41 03.12.2019
3129 Clear 19 1018 45 16093 3.6 320 00:23 03.12.2019
3130 Clear 20 1018 42 16093 2.6 300 23:44 02.12.2019
3131 Haze 20 1018 24 16093 2.6 310 23:22 02.12.2019
3132 Clear 21 1018 34 16093 3.6 330 22:56 02.12.2019
3133 Haze 21 1018 26 16093 1.89 81 22:37 02.12.2019
3134 Haze 21 1018 26 16093 1.89 81 22:19 02.12.2019
3135 Clear 21 1019 29 16093 1.89 81 21:39 02.12.2019
3136 Clear 21 1019 29 16093 1.89 81 21:20 02.12.2019
3137 Clear 21 1019 29 16093 1.89 81 21:20 02.12.2019
3138 Clear 21 1019 34 16093 1.89 81 20:57 02.12.2019
3139 Clear 20 1020 34 16093 1.51 66 20:39 02.12.2019
3140 Clear 19 1020 34 16093 2.54 106 20:20 02.12.2019
3141 Clear 19 1020 38 16093 2.6 130 19:56 02.12.2019
3142 Clear 18 1020 38 16093 3.1 110 19:38 02.12.2019
3143 Clear 17 1021 34 16093 3.1 100 19:20 02.12.2019
3144 Clear 14 1021 44 16093 4.6 100 18:48 02.12.2019
3145 Clear 14 1021 44 16093 4.6 100 18:48 02.12.2019
3146 Clear 13 1021 44 16093 4.6 100 18:24 02.12.2019
3147 Clear 12 1021 54 16093 3.6 90 17:59 02.12.2019
3148 Clear 10 1021 61 16093 3.6 90 17:41 02.12.2019
3149 Clear 11 1021 50 16093 6.2 120 17:20 02.12.2019
3150 Clear 10 1021 57 16093 7.2 110 16:57 02.12.2019
3151 Clear 9 1021 75 16093 1.5 230 16:39 02.12.2019
3152 Clear 8 1021 57 16093 7.2 110 16:18 02.12.2019
3153 Clear 7 1020 70 16093 3.6 190 15:56 02.12.2019
3154 Clear 6 1020 70 16093 4.1 110 15:38 02.12.2019
3155 Clear 6 1020 70 16093 4.1 110 15:19 02.12.2019
3156 Clear 6 1020 75 16093 4.1 100 14:41 02.12.2019
3157 Clear 7 1020 75 16093 4.1 100 14:20 02.12.2019
3158 Clear 6 1020 75 16093 2.6 110 13:59 02.12.2019
3159 Clear 6 1020 75 16093 2.6 140 13:41 02.12.2019
3160 Clear 6 1020 75 16093 2.6 140 13:41 02.12.2019
3161 Clear 7 1020 75 16093 2.6 140 13:20 02.12.2019
3162 Clear 7 1020 75 16093 2.06 112 12:59 02.12.2019
3163 Clear 6 1020 81 16093 4.6 90 12:40 02.12.2019
3164 Clear 7 1020 81 16093 4.6 90 12:20 02.12.2019
3165 Clear 7 1020 75 16093 3.1 100 11:56 02.12.2019
3166 Clear 7 1020 81 16093 1.5 80 11:37 02.12.2019
3167 Clear 7 1021 75 16093 4.1 120 11:18 02.12.2019
3168 Clear 7 1020 75 16093 1.37 111 10:56 02.12.2019
3169 Clear 7 1020 75 16093 1.37 111 10:37 02.12.2019
3170 Clear 7 1020 75 16093 1.37 111 10:19 02.12.2019
3171 Clear 7 1020 81 16093 2.6 120 09:41 02.12.2019
3172 Clear 7 1020 81 16093 2.6 120 09:19 02.12.2019
3173 Clear 7 1020 75 16093 1.37 111 08:57 02.12.2019
3174 Clear 7 1020 81 16093 1.37 111 08:39 02.12.2019
3175 Clear 7 1020 81 16093 1.4 63 08:21 02.12.2019
3176 Clear 7 1021 87 16093 3.1 110 07:44 02.12.2019
3177 Clear 7 1021 87 16093 3.1 110 07:21 02.12.2019
3178 Clear 7 1021 87 16093 3.1 110 07:21 02.12.2019
3179 Clear 7 1020 87 16093 2.1 100 06:56 02.12.2019
3180 Clear 7 1020 87 16093 2.1 100 06:38 02.12.2019
3181 Clear 8 1020 76 16093 1.63 79 05:34 02.12.2019
3182 Clear 9 1020 71 16093 1.58 47 04:27 02.12.2019
3183 Clear 11 1019 62 16093 1.5 310 02:54 02.12.2019
3184 Clear 12 1019 62 16093 1.5 290 02:31 02.12.2019
3185 Clear 14 1019 54 16093 2.6 310 01:26 02.12.2019
3186 Clear 15 1019 44 16093 2.6 310 00:58 02.12.2019
3187 Clear 17 1019 41 16093 3.6 310 00:25 02.12.2019
3188 Clear 18 1019 44 16093 4.1 310 23:56 01.12.2019
3189 Clear 18 1018 41 16093 3.6 300 23:37 01.12.2019
3190 Clear 18 1018 30 16093 4.1 300 23:19 01.12.2019
3191 Clear 19 1018 41 16093 4.1 320 22:55 01.12.2019
3192 Clear 19 1018 41 16093 4.1 320 22:37 01.12.2019
3193 Clear 19 1018 32 16093 2.5 71 22:18 01.12.2019
3194 Clear 19 1018 32 16093 2.5 71 22:18 01.12.2019
3195 Clear 19 1018 30 16093 3.1 330 21:54 01.12.2019
3196 Clear 19 1018 30 16093 2.5 71 21:36 01.12.2019
3197 Clear 18 1018 36 16093 2.6 60 21:18 01.12.2019
3198 Clear 18 1019 30 16093 1.5 120 20:54 01.12.2019
3199 Clear 17 1019 30 16093 2.6 80 20:36 01.12.2019
3200 Clear 17 1019 30 16093 2.6 80 20:36 01.12.2019
3201 Clear 17 1020 39 16093 2.95 89 20:18 01.12.2019
3202 Clear 16 1020 39 16093 3.6 110 19:54 01.12.2019
3203 Clear 15 1021 39 16093 2.6 90 19:36 01.12.2019
3204 Clear 14 1021 44 16093 2.6 140 19:18 01.12.2019
3205 Clear 14 1021 50 16093 3.6 100 18:54 01.12.2019
3206 Clear 13 1021 50 16093 2.6 100 18:36 01.12.2019
3207 Clear 12 1021 50 16093 7.7 110 18:18 01.12.2019
3208 Clear 10 1021 61 16093 3.6 120 17:41 01.12.2019
3209 Clear 9 1021 61 16093 3.6 120 17:23 01.12.2019
3210 Clear 7 1021 70 16093 3.6 110 16:57 01.12.2019
3211 Clear 6 1021 80 16093 1.53 117 16:39 01.12.2019
3212 Clear 5 1021 80 16093 1.53 117 16:20 01.12.2019
3213 Clear 3 1021 80 16093 1.53 117 15:50 01.12.2019
3214 Clear 2 1021 80 16093 2.1 120 15:31 01.12.2019
3215 Clear 3 1020 80 16093 3.1 80 14:44 01.12.2019
3216 Clear 2 1020 80 16093 3.1 80 14:20 01.12.2019
3217 Clear 2 1020 75 16093 4.6 120 13:59 01.12.2019
3218 Rain 2 1019 80 16093 2.1 120 13:39 01.12.2019
3219 Rain 3 1019 80 16093 2.1 120 13:20 01.12.2019
3220 Clear 3 1019 75 16093 2.6 100 12:44 01.12.2019
3221 Rain 3 1019 75 16093 3.6 120 11:59 01.12.2019
3222 Clear 3 1019 80 16093 2.1 150 11:40 01.12.2019
3223 Clear 3 1019 80 16093 2.1 150 11:21 01.12.2019
3224 Clear 3 1020 80 16093 3.6 120 10:43 01.12.2019
3225 Clear 3 1020 80 16093 3.6 120 10:21 01.12.2019
3226 Clear 3 1020 80 16093 0.48 324 09:57 01.12.2019
3227 Clear 4 1020 80 16093 0.48 324 09:39 01.12.2019
3228 Clear 4 1020 80 16093 0.48 324 09:20 01.12.2019
3229 Clear 4 1020 80 16093 3.1 130 09:20 01.12.2019
3230 Clear 4 1020 80 16093 0.48 324 08:44 01.12.2019
3231 Clear 4 1020 80 16093 0.89 318 08:20 01.12.2019
3232 Clear 4 1020 80 16093 0.89 318 07:51 01.12.2019
3233 Clear 4 1021 80 16093 0.89 318 07:31 01.12.2019
3234 Clear 5 1021 86 16093 0.89 318 06:57 01.12.2019
3235 Clear 5 1021 81 16093 0.89 318 06:34 01.12.2019
3236 Clear 6 1020 75 16093 2.1 350 05:48 01.12.2019
3237 Clear 6 1020 75 16093 1.5 310 04:50 01.12.2019
3238 Clear 8 1020 70 16093 1.5 320 02:54 01.12.2019
3239 Clear 8 1020 66 16093 2.1 320 02:36 01.12.2019
3240 Clear 9 1020 53 16093 4.1 290 02:18 01.12.2019
3241 Clear 10 1020 53 16093 2.1 320 01:50 01.12.2019
3242 Clear 11 1020 50 16093 3.6 280 01:19 01.12.2019
3243 Clear 12 1020 47 16093 2.6 320 00:40 01.12.2019
3244 Clear 13 1020 47 16093 2.6 320 00:22 01.12.2019
3245 Clear 13 1020 37 16093 2.6 290 23:42 30.11.2019
3246 Clear 13 1020 37 16093 2.6 290 23:23 30.11.2019
3247 Clear 13 1020 35 16093 1.75 20 22:50 30.11.2019
3248 Clear 13 1020 37 16093 2.1 320 22:30 30.11.2019
3249 Clear 13 1020 48 16093 1.5 330 21:59 30.11.2019
3250 Clear 13 1021 48 16093 1.5 310 21:41 30.11.2019
3251 Clear 13 1021 48 16093 1.5 310 21:23 30.11.2019
3252 Clear 12 1021 46 16093 1.5 290 20:55 30.11.2019
3253 Clear 12 1021 46 16093 1.75 20 20:37 30.11.2019
3254 Clouds 12 1022 50 16093 1.5 0 20:19 30.11.2019
3255 Clear 11 1022 50 16093 1.79 37 19:55 30.11.2019
3256 Clear 12 1022 50 16093 1.79 37 19:37 30.11.2019
3257 Clear 11 1022 61 16093 1.79 37 19:18 30.11.2019
3258 Clear 11 1022 61 16093 1.79 37 18:55 30.11.2019
3259 Clear 11 1022 61 16093 1.79 37 18:37 30.11.2019
3260 Clear 10 1022 66 16093 1.79 37 18:18 30.11.2019
3261 Clear 10 1022 76 16093 1.79 37 17:56 30.11.2019
3262 Clear 10 1022 76 16093 1.79 37 17:56 30.11.2019
3263 Clear 9 1022 87 16093 1.79 37 17:37 30.11.2019
3264 Clear 8 1022 75 16093 0.64 18 17:19 30.11.2019
3265 Clouds 7 1021 93 16093 0.64 18 16:42 30.11.2019
3266 Clouds 6 1021 93 16093 0.64 18 16:23 30.11.2019
3267 Clouds 5 1021 93 16093 0.64 18 15:58 30.11.2019
3268 Clouds 5 1020 87 16093 0.64 18 15:40 30.11.2019
3269 Rain 5 1021 81 16093 1.5 60 15:19 30.11.2019
3270 Rain 5 1020 81 16093 1.5 30 14:56 30.11.2019
3271 Rain 6 1020 81 16093 1.5 30 14:37 30.11.2019
3272 Rain 5 1020 81 16093 1.5 30 14:37 30.11.2019
3273 Rain 6 1019 86 16093 1.6 247 14:18 30.11.2019
3274 Drizzle 6 1019 86 16093 1.5 270 13:56 30.11.2019
3275 Drizzle 6 1019 86 16093 1.5 270 13:36 30.11.2019
3276 Clouds 6 1019 86 16093 2.1 260 13:18 30.11.2019
3277 Clouds 6 1019 100 16093 1.37 228 12:42 30.11.2019
3278 Clouds 6 1019 100 16093 1.37 228 12:24 30.11.2019
3279 Clouds 6 1018 87 16093 1.37 228 11:43 30.11.2019
3280 Clouds 6 1018 87 16093 3.02 208 11:20 30.11.2019
3281 Rain 6 1018 81 11265 3.02 208 10:56 30.11.2019
3282 Clouds 6 1018 81 16093 2.1 110 10:38 30.11.2019
3283 Clouds 6 1018 81 16093 2.1 110 10:19 30.11.2019
3284 Clear 6 1018 87 16093 1.5 80 09:46 30.11.2019
3285 Clear 6 1018 87 16093 1.5 80 09:27 30.11.2019
3286 Clear 6 1018 81 16093 2.6 190 08:44 30.11.2019
3287 Clear 6 1018 81 16093 2.6 190 08:22 30.11.2019
3288 Clear 7 1018 75 16093 1.5 200 07:58 30.11.2019
3289 Clear 7 1017 75 16093 3.1 200 07:39 30.11.2019
3290 Clear 7 1017 75 16093 3.1 200 07:20 30.11.2019
3291 Clouds 7 1017 81 16093 2.1 200 06:29 30.11.2019
3292 Clouds 8 1017 76 16093 3.18 219 05:53 30.11.2019
3293 Clouds 8 1016 70 16093 2.6 150 03:54 30.11.2019
3294 Rain 8 1015 61 16093 2.6 250 02:53 30.11.2019
3295 Rain 9 1015 61 16093 3.6 250 02:22 30.11.2019
3296 Clouds 9 1015 76 16093 2.1 80 01:38 30.11.2019
3297 Clouds 9 1015 76 16093 2.1 80 01:38 30.11.2019
3298 Clouds 10 1015 76 16093 3.1 100 01:19 30.11.2019
3299 Clear 10 1014 54 16093 4.6 220 00:36 30.11.2019
3300 Clear 10 1014 76 16093 3.6 130 00:18 30.11.2019
3301 Clouds 11 1013 54 16093 4.6 240 23:43 29.11.2019
3302 Clouds 10 1013 54 16093 4.6 240 23:23 29.11.2019
3303 Rain 10 1013 58 16093 5.1 240 22:47 29.11.2019
3304 Rain 10 1013 58 16093 5.1 240 22:26 29.11.2019
3305 Rain 9 1014 81 16093 1.5 250 21:45 29.11.2019
3306 Rain 8 1014 87 16093 9.03 252 21:26 29.11.2019
3307 Rain 7 1014 87 16093 1.5 360 20:59 29.11.2019
3308 Rain 7 1014 87 16093 1.5 360 20:39 29.11.2019
3309 Rain 7 1014 87 4828 2.1 30 20:21 29.11.2019
3310 Rain 6 1015 87 4023 9.9 264 19:58 29.11.2019
3311 Rain 6 1013 87 16093 2.6 20 19:39 29.11.2019
3312 Rain 6 1014 87 12874 4.1 30 19:20 29.11.2019
3313 Rain 6 1013 87 11265 3.6 20 18:58 29.11.2019
3314 Rain 6 1013 87 11265 3.6 20 18:40 29.11.2019
3315 Rain 5 1013 87 16093 9.9 264 18:21 29.11.2019
3316 Rain 6 1012 87 8047 4.1 290 17:44 29.11.2019
3317 Rain 6 1011 93 4023 3.1 270 17:26 29.11.2019
3318 Rain 6 1010 87 16093 5.7 320 16:58 29.11.2019
3319 Rain 6 1010 87 16093 5.7 320 16:58 29.11.2019
3320 Rain 6 1010 87 16093 5.7 320 16:39 29.11.2019
3321 Rain 6 1010 87 16093 5.7 320 16:39 29.11.2019
3322 Rain 7 1009 100 4023 5.1 330 16:19 29.11.2019
3323 Rain 7 1006 81 4828 11.8 290 15:41 29.11.2019
3324 Rain 9 1007 93 4828 2.1 300 15:23 29.11.2019
3325 Rain 9 1007 93 4828 2.1 300 15:23 29.11.2019
3326 Rain 9 1007 93 4828 2.1 300 15:23 29.11.2019
3327 Rain 11 1002 76 11265 10.8 160 14:57 29.11.2019
3328 Rain 11 1002 71 11265 7.2 160 14:38 29.11.2019
3329 Rain 12 1002 71 11265 7.2 160 14:20 29.11.2019
3330 Rain 13 1004 62 16093 6.7 150 13:42 29.11.2019
3331 Clouds 13 1002 54 16093 12.3 160 13:21 29.11.2019
3332 Clouds 14 1004 76 16093 7.2 140 12:58 29.11.2019
3333 Clouds 14 1004 76 16093 7.2 140 12:58 29.11.2019
3334 Clouds 14 1004 76 16093 7.2 140 12:39 29.11.2019
3335 Clouds 14 1003 54 16093 7.2 170 12:21 29.11.2019
3336 Clouds 14 1004 58 16093 7.7 170 11:55 29.11.2019
3337 Clouds 14 1004 58 16093 7.7 170 11:55 29.11.2019
3338 Clouds 15 1005 58 16093 12.3 180 11:36 29.11.2019
3339 Clear 15 1006 55 16093 8.7 180 11:18 29.11.2019
3340 Rain 15 1006 55 16093 7.2 180 10:56 29.11.2019
3341 Rain 15 1006 55 16093 7.2 180 10:37 29.11.2019
3342 Clouds 15 1007 55 16093 10.3 180 10:18 29.11.2019
3343 Clouds 15 1006 51 16093 8.2 200 09:55 29.11.2019
3344 Clouds 15 1006 51 16093 8.2 200 09:55 29.11.2019
3345 Clouds 15 1007 51 16093 10.3 210 09:36 29.11.2019
3346 Clouds 15 1007 51 16093 7.7 160 09:18 29.11.2019
3347 Clear 15 1006 58 16093 8.2 200 08:39 29.11.2019
3348 Clear 15 1006 58 16093 8.2 200 08:21 29.11.2019
3349 Clear 15 1007 58 16093 6.7 210 07:58 29.11.2019
3350 Clear 15 1008 51 16093 9.3 200 07:39 29.11.2019
3351 Clear 15 1008 51 16093 9.3 200 07:21 29.11.2019
3352 Clear 16 1007 51 16093 14.9 180 06:42 29.11.2019
3353 Clouds 16 1008 55 16093 9.8 190 05:48 29.11.2019
3354 Clouds 16 1008 55 16093 9.8 190 05:24 29.11.2019
3355 Clouds 16 1008 55 16093 10.3 200 04:31 29.11.2019
3356 Clear 16 1007 48 16093 10.3 190 03:22 29.11.2019
3357 Clear 16 1007 48 16093 7.2 190 02:30 29.11.2019
3358 Clear 17 1009 45 16093 5.1 150 01:52 29.11.2019
3359 Clear 17 1007 45 16093 8.7 190 01:26 29.11.2019
3360 Clear 18 1007 42 16093 8.7 190 00:43 29.11.2019
3361 Clear 18 1007 42 16093 8.7 190 00:21 29.11.2019
3362 Clouds 18 1007 39 16093 10.8 180 23:56 28.11.2019
3363 Clouds 18 1007 42 16093 8.2 180 23:36 28.11.2019
3364 Clouds 18 1008 52 16093 5.7 200 23:18 28.11.2019
3365 Clear 18 1007 39 16093 8.7 180 22:38 28.11.2019
3366 Clear 18 1007 39 16093 8.7 180 22:20 28.11.2019
3367 Clear 17 1007 42 16093 10.8 180 21:59 28.11.2019
3368 Clear 17 1007 45 16093 10.8 180 21:40 28.11.2019
3369 Clear 17 1007 45 16093 10.8 180 21:20 28.11.2019
3370 Clear 17 1008 45 16093 8.2 170 20:56 28.11.2019
3371 Clear 17 1008 42 16093 8.7 170 20:38 28.11.2019
3372 Clouds 16 1009 67 16093 4.1 110 20:18 28.11.2019
3373 Clouds 16 1009 55 16093 4.6 150 19:55 28.11.2019
3374 Clouds 16 1009 55 16093 5.1 130 19:36 28.11.2019
3375 Clouds 16 1010 63 16093 5.7 100 19:18 28.11.2019
3376 Clear 15 1009 59 16093 4.1 130 18:55 28.11.2019
3377 Clouds 15 1010 71 16093 4.1 120 18:37 28.11.2019
3378 Drizzle 15 1010 82 16093 8.2 120 18:18 28.11.2019
3379 Clouds 14 1008 71 16093 6.2 120 17:41 28.11.2019
3380 -273 0 0 0 0 0 17:23 28.11.2019
3381 Clouds 13 1008 62 16093 8.2 130 16:58 28.11.2019
3382 Clouds 13 1007 62 16093 8.2 130 16:38 28.11.2019
3383 Clouds 12 1008 81 16093 6.7 110 16:19 28.11.2019
3384 Clouds 12 1007 66 16093 4.6 120 15:55 28.11.2019
3385 Clouds 12 1007 66 16093 4.6 120 15:55 28.11.2019
3386 Clouds 12 1007 62 16093 5.1 140 15:36 28.11.2019
3387 Clouds 12 1007 76 16093 8.2 110 15:18 28.11.2019
3388 Clouds 12 1006 66 16093 5.7 120 14:41 28.11.2019
3389 Clouds 12 1006 66 16093 5.7 120 14:22 28.11.2019
3390 Clouds 12 1006 66 16093 5.7 120 13:59 28.11.2019
3391 Clouds 12 1006 66 16093 5.7 120 13:59 28.11.2019
3392 Clear 12 1006 66 16093 5.1 130 13:41 28.11.2019
3393 Clear 12 1006 66 16093 5.1 130 13:22 28.11.2019
3394 Clear 12 1006 66 16093 5.1 130 13:22 28.11.2019
3395 Clear 12 1006 76 16093 2.81 119 12:49 28.11.2019
3396 Clouds 12 1006 76 16093 2.81 119 12:29 28.11.2019
3397 Clear 12 1007 71 16093 2.1 240 11:59 28.11.2019
3398 Clear 12 1007 71 16093 2.1 240 11:59 28.11.2019
3399 Clouds 12 1006 71 16093 2.81 119 11:41 28.11.2019
3400 Clouds 12 1006 71 16093 5.29 120 11:21 28.11.2019
3401 Clouds 12 1006 62 16093 1.5 180 10:59 28.11.2019
3402 Clouds 12 1006 66 16093 2.1 120 10:40 28.11.2019
3403 Clouds 12 1006 66 16093 2.1 120 10:20 28.11.2019
3404 Clear 12 1005 62 16093 4.1 120 09:41 28.11.2019
3405 Clear 12 1005 62 16093 4.1 120 09:23 28.11.2019
3406 Clear 12 1005 62 16093 4.6 110 08:59 28.11.2019
3407 Clouds 12 1006 76 16093 6.7 110 08:39 28.11.2019
3408 Clouds 12 1006 76 16093 6.7 110 08:21 28.11.2019
3409 Clear 12 1006 76 16093 7.7 100 07:42 28.11.2019
3410 Clear 12 1006 76 16093 7.7 100 07:24 28.11.2019
3411 Rain 12 1006 58 16093 9.3 130 06:51 28.11.2019
3412 Rain 12 1006 62 16093 7.2 140 06:31 28.11.2019
3413 Rain 12 1005 54 16093 6.2 130 05:51 28.11.2019
3414 Rain 13 1006 81 16093 7.2 90 05:18 28.11.2019
3415 Clouds 16 1003 63 16093 5.7 120 02:46 28.11.2019
3416 Clouds 16 1003 55 16093 4.1 130 01:50 28.11.2019
3417 Clouds 16 1004 48 16093 4.1 130 00:48 28.11.2019
3418 Clouds 16 1004 48 16093 4.1 130 00:23 28.11.2019
3419 Clouds 17 1004 45 16093 4.1 130 23:55 27.11.2019
3420 Clouds 17 1003 48 16093 4.6 130 23:37 27.11.2019
3421 Clouds 17 1005 59 16093 6.2 100 23:19 27.11.2019
3422 Clouds 18 1004 48 16093 4.11 127 22:39 27.11.2019
3423 Clouds 18 1004 48 16093 4.11 127 22:20 27.11.2019
3424 Clouds 18 1005 45 16093 3.6 120 21:56 27.11.2019
3425 Clouds 18 1006 45 16093 4.1 120 21:38 27.11.2019
3426 Clouds 18 1007 52 16093 5.1 100 21:19 27.11.2019
3427 Clouds 18 1006 45 16093 4.1 120 21:19 27.11.2019
3428 Clear 18 1006 45 16093 4.6 120 20:59 27.11.2019
3429 Clear 18 1007 45 16093 5.1 130 20:39 27.11.2019
3430 Clouds 17 1008 55 16093 4.6 80 20:21 27.11.2019
3431 Clear 17 1008 48 16093 6.2 130 19:57 27.11.2019
3432 -273 0 0 0 0 0 19:39 27.11.2019
3433 Rain 16 1008 48 16093 5.7 140 19:21 27.11.2019
3434 Rain 16 1009 45 16093 6.7 130 18:59 27.11.2019
3435 Clear 16 1009 48 16093 8.2 130 18:37 27.11.2019
3436 Clear 15 1009 48 16093 8.2 130 18:19 27.11.2019
3437 Clear 14 1009 62 16093 2.24 168 17:57 27.11.2019
3438 Clear 14 1009 70 16093 2.24 168 17:38 27.11.2019
3439 Clear 14 1009 70 16093 2.24 168 17:38 27.11.2019
3440 Clear 12 1009 70 16093 2.86 135 17:20 27.11.2019
3441 Clear 12 1010 62 16093 4.1 110 17:20 27.11.2019
3442 Clear 11 1009 70 16093 2.86 135 16:56 27.11.2019
3443 Clear 9 1009 70 16093 2.86 135 16:38 27.11.2019
3444 Clear 9 1009 70 16093 2.86 135 16:19 27.11.2019
3445 Clear 8 1010 75 16093 2.86 135 15:57 27.11.2019
3446 Clear 8 1010 75 16093 2.86 135 15:38 27.11.2019
3447 Clear 8 1010 75 16093 2.86 135 15:38 27.11.2019
3448 Clear 8 1010 75 16093 2.86 135 15:20 27.11.2019
3449 Clear 7 1010 75 16093 2.86 135 14:57 27.11.2019
3450 Clear 7 1010 75 16093 1.5 360 14:38 27.11.2019
3451 Clear 7 1011 75 16093 2.6 140 14:20 27.11.2019
3452 Clear 7 1010 56 16093 2.6 133 13:56 27.11.2019
3453 Clear 7 1010 56 16093 2.6 133 13:38 27.11.2019
3454 Clear 7 1011 75 16093 2.6 180 13:19 27.11.2019
3455 Rain 7 1011 56 16093 4.1 130 12:42 27.11.2019
3456 Rain 7 1012 70 16093 2.9 133 12:22 27.11.2019
3457 Rain 6 1011 56 16093 2.9 133 11:57 27.11.2019
3458 Clouds 7 1012 56 16093 1.5 130 11:37 27.11.2019
3459 Clear 6 1012 56 16093 3.6 70 11:18 27.11.2019
3460 Rain 6 1012 49 16093 2.78 162 10:46 27.11.2019
3461 Rain 6 1012 49 16093 2.78 162 10:24 27.11.2019
3462 Rain 6 1012 49 16093 2.1 110 09:58 27.11.2019
3463 Clouds 7 1012 49 16093 2.1 100 09:40 27.11.2019
3464 Clouds 7 1012 49 16093 2.1 100 09:22 27.11.2019
3465 Clouds 7 1013 69 16093 2.78 162 08:42 27.11.2019
3466 Clouds 7 1013 60 16093 2.01 137 08:23 27.11.2019
3467 Clouds 7 1013 37 16093 0.16 216 07:51 27.11.2019
3468 Clouds 7 1013 37 16093 0.16 216 07:31 27.11.2019
3469 Clouds 6 1013 37 16093 0.16 216 06:58 27.11.2019
3470 Clouds 6 1013 56 16093 0.16 216 06:39 27.11.2019
3471 Clear 6 1013 37 16093 0.16 216 05:55 27.11.2019
3472 Clear 6 1013 39 16093 0.17 338 05:26 27.11.2019
3473 Clear 6 1013 48 16093 0.17 338 04:49 27.11.2019
3474 Clear 7 1013 48 16093 0.17 338 04:31 27.11.2019
3475 Clear 7 1013 34 16093 0.17 338 03:45 27.11.2019
3476 Clear 7 1013 34 16093 2.1 320 03:20 27.11.2019
3477 Clear 8 1013 25 16093 1.5 340 02:34 27.11.2019
3478 Clear 12 1013 18 16093 1.26 337 00:55 27.11.2019
3479 Clear 13 1013 16 16093 1.5 310 00:37 27.11.2019
3480 Clear 14 1013 20 16093 2.1 340 00:19 27.11.2019
3481 Clear 14 1013 17 16093 2.1 300 23:41 26.11.2019
3482 Clear 14 1013 19 16093 2.6 30 23:23 26.11.2019
3483 Clear 14 1013 19 16093 3.1 300 22:40 26.11.2019
3484 Clear 14 1013 19 16093 3.1 300 22:20 26.11.2019
3485 Clear 14 1013 22 16093 4.65 332 21:59 26.11.2019
3486 Clear 13 1014 20 16093 3.1 280 21:39 26.11.2019
3487 Clear 13 1014 20 16093 3.1 280 21:21 26.11.2019
3488 Clear 13 1014 20 16093 3.1 280 21:21 26.11.2019
3489 Clear 13 1014 23 16093 1.5 290 20:57 26.11.2019
3490 Clear 13 1014 22 16093 3.1 290 20:37 26.11.2019
3491 Clear 13 1014 22 16093 3.1 290 20:37 26.11.2019
3492 Clear 13 1014 24 16093 2.1 300 20:19 26.11.2019
3493 Clear 12 1015 23 16093 3.6 320 19:56 26.11.2019
3494 Clear 12 1015 27 16093 4.5 306 19:37 26.11.2019
3495 Clear 12 1015 23 16093 4.1 270 19:19 26.11.2019
3496 Clear 12 1015 27 16093 3.1 300 18:57 26.11.2019
3497 Clear 11 1015 27 16093 2.6 330 18:39 26.11.2019
3498 Clouds 11 1015 27 16093 4.6 310 18:21 26.11.2019
3499 Clear 10 1015 29 16093 3.1 300 17:58 26.11.2019
3500 Clouds 10 1014 29 16093 4.1 300 17:39 26.11.2019
3501 Clouds 10 1014 39 16093 3.6 310 17:21 26.11.2019
3502 Clouds 9 1014 34 16093 3.6 300 16:57 26.11.2019
3503 Clouds 9 1013 42 16093 4.6 330 16:37 26.11.2019
3504 Clouds 9 1012 42 16093 3.6 320 16:18 26.11.2019
3505 Clouds 9 1012 42 16093 3.6 320 16:18 26.11.2019
3506 Clouds 8 1012 52 16093 3.49 270 15:58 26.11.2019
3507 Clouds 8 1012 52 16093 3.49 270 15:58 26.11.2019
3508 Clouds 8 1012 52 16093 3.49 270 15:37 26.11.2019
3509 Clouds 8 1011 42 16093 3.6 320 15:19 26.11.2019
3510 Clouds 8 1011 45 16093 3.49 270 14:47 26.11.2019
3511 Clouds 9 1011 45 16093 3.49 270 14:25 26.11.2019
3512 Rain 9 1010 37 16093 2.1 300 13:56 26.11.2019
3513 Rain 10 1010 37 16093 4.1 300 13:38 26.11.2019
3514 Rain 10 1009 71 16093 6.7 290 13:18 26.11.2019
3515 Rain 11 1009 66 16093 6.2 290 12:38 26.11.2019
3516 Rain 11 1009 66 16093 6.2 290 12:20 26.11.2019
3517 Rain 11 1009 66 16093 3.6 250 11:58 26.11.2019
3518 Rain 11 1009 50 16093 3.6 290 11:38 26.11.2019
3519 Clouds 12 1008 62 16093 2.1 230 11:19 26.11.2019
3520 Clouds 12 1008 62 16093 2.1 230 11:19 26.11.2019
3521 Clouds 12 1008 62 16093 3.6 280 10:57 26.11.2019
3522 Clouds 12 1008 62 16093 3.1 220 10:39 26.11.2019
3523 Clouds 12 1008 62 16093 3.1 220 10:20 26.11.2019
3524 Clouds 12 1008 58 16093 3.1 260 09:55 26.11.2019
3525 Clouds 12 1009 58 16093 3.1 270 09:37 26.11.2019
3526 Clouds 12 1009 58 16093 2.1 200 09:18 26.11.2019
3527 Clouds 11 1008 58 16093 4.1 240 08:42 26.11.2019
3528 Clouds 11 1008 58 16093 4.1 240 08:22 26.11.2019
3529 Clear 11 1008 62 16093 3.6 250 07:44 26.11.2019
3530 Clear 12 1008 62 16093 3.6 250 07:25 26.11.2019
3531 Clear 12 1008 54 16093 3.6 240 06:54 26.11.2019
3532 Clear 12 1008 50 16093 6.2 190 06:22 26.11.2019
3533 Clear 13 1006 47 16093 3.6 200 05:38 26.11.2019
3534 Clear 15 1006 47 16093 4.6 180 03:58 26.11.2019
3535 Clear 16 1004 38 16093 3.6 230 01:55 26.11.2019
3536 Clear 16 1004 36 16093 4.1 210 01:29 26.11.2019
3537 Clear 18 1005 34 16093 5.1 230 00:48 26.11.2019
3538 Clear 19 1005 34 16093 5.1 230 00:23 26.11.2019
3539 Clear 19 1006 37 16093 5.7 240 23:39 25.11.2019
3540 Rain 19 1007 40 16093 1.5 260 23:20 25.11.2019
3541 Rain 19 1007 32 16093 5.7 250 22:58 25.11.2019
3542 Rain 19 1007 39 16093 2.1 260 22:37 25.11.2019
3543 Clear 19 1008 42 16093 7.28 227 22:18 25.11.2019
3544 Clear 19 1007 45 16093 3.1 230 21:56 25.11.2019
3545 Clear 19 1008 51 16093 7.28 227 21:38 25.11.2019
3546 Clear 19 1009 45 16093 2.6 310 21:18 25.11.2019
3547 Clear 18 1010 51 16093 7.28 227 20:54 25.11.2019
3548 Clear 18 1010 51 16093 7.28 227 20:54 25.11.2019
3549 Clouds 18 1011 45 16093 7.75 224 20:36 25.11.2019
3550 Clouds 18 1011 45 16093 4.27 255 20:18 25.11.2019
3551 Clouds 18 1011 45 16093 4.94 240 20:18 25.11.2019
3552 Clouds 18 1011 45 16093 4.27 255 20:18 25.11.2019
3553 Clouds 18 1011 45 16093 4.94 240 20:18 25.11.2019
3554 Clouds 17 1012 51 16093 4.27 255 19:54 25.11.2019
3555 Clouds 17 1012 51 16093 4.27 255 19:36 25.11.2019
3556 Clouds 17 1012 51 16093 4.27 255 19:18 25.11.2019
3557 Clear 16 1012 67 16093 2.1 260 18:54 25.11.2019
3558 Clear 16 1012 58 16093 4.27 255 18:36 25.11.2019
3559 Clear 15 1012 58 16093 2.6 110 18:18 25.11.2019
3560 Clear 14 1012 62 16093 4.27 255 17:55 25.11.2019
3561 Clear 14 1012 62 16093 4.27 255 17:55 25.11.2019
3562 Clear 13 1012 71 16093 4.27 255 17:36 25.11.2019
3563 Clear 13 1012 71 16093 4.27 255 17:36 25.11.2019
3564 Clear 12 1013 71 16093 3.1 130 17:18 25.11.2019
3565 Clear 11 1012 81 16093 5.1 110 16:41 25.11.2019
3566 -273 0 0 0 0 0 16:23 25.11.2019
3567 Clear 9 1013 81 16093 3.6 100 15:57 25.11.2019
3568 Clear 9 1013 81 16093 4.1 100 15:38 25.11.2019
3569 Clear 9 1014 87 16093 3.1 110 15:19 25.11.2019
3570 Clear 9 1013 81 16093 3.1 100 14:56 25.11.2019
3571 Clear 9 1013 81 16093 3.1 100 14:56 25.11.2019
3572 Clear 8 1013 81 16093 3.1 110 14:37 25.11.2019
3573 Clear 8 1014 81 16093 2.1 110 14:19 25.11.2019
3574 Clear 9 1013 81 16093 3.1 110 13:39 25.11.2019
3575 Clear 9 1014 76 16093 2.6 130 13:20 25.11.2019
3576 Clear 9 1013 81 16093 2.6 120 12:59 25.11.2019
3577 Clear 9 1013 81 16093 2.1 120 12:40 25.11.2019
3578 Clear 9 1014 81 16093 2.1 130 12:20 25.11.2019
3579 Clear 9 1013 81 16093 1.45 229 11:55 25.11.2019
3580 Clear 9 1013 81 16093 1.45 229 11:55 25.11.2019
3581 Clear 9 1014 81 16093 1.45 229 11:37 25.11.2019
3582 Clear 9 1014 87 16093 3.1 120 11:18 25.11.2019
3583 Clear 9 1014 81 16093 3.1 110 10:41 25.11.2019
3584 Clear 9 1015 76 16093 3.6 120 10:20 25.11.2019
3585 Clear 9 1015 87 16093 2.1 100 09:45 25.11.2019
3586 Clear 9 1015 87 16093 2.1 100 09:26 25.11.2019
3587 Clear 9 1015 87 16093 1.5 120 08:59 25.11.2019
3588 Clear 9 1016 87 16093 1.5 90 08:39 25.11.2019
3589 Clear 9 1016 87 16093 1.5 90 08:20 25.11.2019
3590 Clear 10 1016 81 16093 0.77 245 07:41 25.11.2019
3591 Clear 10 1016 81 16093 2.6 140 07:20 25.11.2019
3592 Clear 11 1016 76 16093 0.77 245 06:45 25.11.2019
3593 Clear 11 1016 81 16093 2.1 140 06:19 25.11.2019
3594 Clear 11 1016 71 16093 0.77 245 05:38 25.11.2019
3595 Clear 12 1015 71 16093 2.1 280 04:50 25.11.2019
3596 Clear 15 1015 62 16093 2.1 300 02:48 25.11.2019
3597 Clear 16 1016 51 16093 3.6 300 02:18 25.11.2019
3598 Clear 18 1015 48 16093 3.1 300 01:38 25.11.2019
3599 Clear 19 1016 30 16093 2.6 310 01:19 25.11.2019
3600 Clear 22 1016 24 16093 2.1 360 00:21 25.11.2019
3601 Clear 23 1016 32 16093 3.6 340 23:47 24.11.2019
3602 Clear 23 1016 23 16093 2.1 280 23:21 24.11.2019
3603 Clear 23 1016 30 16093 3.1 330 22:59 24.11.2019
3604 Clear 23 1016 30 16093 1.84 290 22:40 24.11.2019
3605 Clear 23 1016 30 16093 1.84 290 22:21 24.11.2019
3606 Clear 22 1017 30 16093 1.84 290 21:59 24.11.2019
3607 Clear 22 1017 34 16093 1.84 290 21:40 24.11.2019
3608 Clear 22 1017 34 16093 1.84 290 21:21 24.11.2019
3609 Clear 22 1018 32 16093 2.6 90 20:58 24.11.2019
3610 Clear 21 1018 37 16093 4.1 70 20:38 24.11.2019
3611 Clouds 20 1019 37 16093 2.6 140 20:19 24.11.2019
3612 Clear 20 1019 39 16093 3.6 110 19:56 24.11.2019
3613 Clear 19 1019 39 16093 3.6 100 19:38 24.11.2019
3614 Clear 18 1020 42 16093 3.1 90 19:20 24.11.2019
3615 Clear 18 1019 42 16093 3.1 90 18:58 24.11.2019
3616 Clear 17 1020 48 16093 4.6 130 18:38 24.11.2019
3617 Clouds 16 1020 48 16093 3.1 130 18:19 24.11.2019
3618 Clear 15 1020 51 16093 4.1 140 17:56 24.11.2019
3619 Clear 15 1020 51 16093 4.1 140 17:56 24.11.2019
3620 Clear 14 1019 50 16093 5.7 100 17:38 24.11.2019
3621 Clouds 13 1020 58 16093 3.1 140 17:19 24.11.2019
3622 Clouds 13 1020 58 16093 3.1 140 17:19 24.11.2019
3623 Clear 12 1020 54 16093 3.6 120 16:57 24.11.2019
3624 Clear 11 1019 66 16093 2.6 80 16:39 24.11.2019
3625 Clear 10 1019 66 16093 2.6 80 16:20 24.11.2019
3626 Clear 9 1019 71 16093 1.46 137 15:44 24.11.2019
3627 Clear 9 1019 71 16093 1.46 137 15:26 24.11.2019
3628 Rain 9 1019 71 16093 1.46 137 14:58 24.11.2019
3629 Rain 8 1019 71 16093 1.5 100 14:38 24.11.2019
3630 Rain 8 1019 76 16093 4.6 110 14:19 24.11.2019
3631 Clear 8 1018 76 16093 1.65 101 13:54 24.11.2019
3632 Clear 8 1018 76 16093 1.65 101 13:54 24.11.2019
3633 Clear 8 1018 81 16093 1.65 101 13:36 24.11.2019
3634 Clear 8 1019 76 16093 3.6 110 13:18 24.11.2019
3635 Clear 8 1019 76 16093 3.1 100 12:42 24.11.2019
3636 Clear 8 1019 81 16093 4.1 100 12:19 24.11.2019
3637 Clear 8 1019 76 16093 2.1 100 11:57 24.11.2019
3638 Clear 8 1019 87 16093 1.66 89 11:37 24.11.2019
3639 Clear 9 1019 71 16093 3.1 130 11:18 24.11.2019
3640 Clear 9 1019 87 16093 1.5 70 10:47 24.11.2019
3641 Clear 9 1019 87 16093 1.5 70 10:29 24.11.2019
3642 Clear 9 1019 87 16093 2.1 70 09:58 24.11.2019
3643 Clear 9 1019 87 16093 1.23 121 09:37 24.11.2019
3644 Clear 10 1019 62 16093 2.6 110 09:19 24.11.2019
3645 Clear 10 1019 81 16093 1.23 121 08:45 24.11.2019
3646 Clear 10 1019 81 16093 1.95 89 08:22 24.11.2019
3647 Clear 10 1019 81 16093 1.95 89 07:58 24.11.2019
3648 Clear 11 1019 81 16093 1.95 89 07:38 24.11.2019
3649 Clear 11 1019 71 16093 1.95 89 07:19 24.11.2019
3650 Clear 11 1019 66 16093 2.6 110 06:20 24.11.2019
3651 Clear 11 1019 66 16093 2.6 110 06:20 24.11.2019
3652 Clear 11 1019 66 16093 2.6 110 06:20 24.11.2019
3653 Clear 11 1019 66 16093 2.6 110 06:20 24.11.2019
3654 Clear 12 1018 66 16093 2.1 200 04:49 24.11.2019
3655 Clouds 13 1019 71 16093 3.1 190 03:38 24.11.2019
3656 Clear 15 1018 71 16093 2.67 101 02:26 24.11.2019
3657 Clear 16 1017 55 16093 3.6 330 01:41 24.11.2019
3658 Clear 17 1017 55 16093 3.6 330 01:22 24.11.2019
3659 Clear 18 1017 42 16093 3.1 320 00:47 24.11.2019
3660 Clear 19 1017 42 16093 3.1 320 00:24 24.11.2019
3661 Clear 20 1017 45 16093 4.6 330 23:46 23.11.2019
3662 Clear 20 1017 45 16093 4.6 330 23:24 23.11.2019
3663 Clear 20 1018 42 16093 5.7 320 22:59 23.11.2019
3664 Clear 20 1018 42 16093 3.6 330 22:40 23.11.2019
3665 Clear 20 1018 42 16093 3.6 330 22:22 23.11.2019
3666 Clear 20 1019 36 16093 2.1 340 21:59 23.11.2019
3667 Clear 19 1019 36 16093 2.1 310 21:41 23.11.2019
3668 Clear 19 1019 36 16093 2.1 310 21:22 23.11.2019
3669 Clear 19 1019 39 16093 2.1 10 20:58 23.11.2019
3670 Clear 19 1020 39 16093 1.5 10 20:37 23.11.2019
3671 Rain 18 1020 37 16093 4.6 110 20:18 23.11.2019
3672 Rain 18 1021 51 16093 2.6 100 19:55 23.11.2019
3673 Rain 17 1021 51 16093 2.6 100 19:36 23.11.2019
3674 Clear 17 1021 42 16093 2.1 30 19:18 23.11.2019
3675 Clear 16 1021 47 16093 2.6 100 18:40 23.11.2019
3676 Clear 16 1021 47 16093 2.6 100 18:40 23.11.2019
3677 Clear 15 1021 47 16093 2.6 100 18:20 23.11.2019
3678 Clear 14 1021 58 16093 4.21 100 17:55 23.11.2019
3679 Clear 12 1021 76 16093 4.21 100 17:37 23.11.2019
3680 Clear 11 1021 62 16093 4.6 110 17:19 23.11.2019
3681 Clear 10 1021 87 16093 1.67 85 16:55 23.11.2019
3682 Clear 9 1021 81 16093 1.67 85 16:36 23.11.2019
3683 Clear 9 1021 81 16093 1.67 85 16:36 23.11.2019
3684 Clear 8 1021 76 16093 3.6 110 16:18 23.11.2019
3685 Rain 7 1021 87 16093 1.5 110 15:56 23.11.2019
3686 Rain 6 1021 87 16093 2.6 110 15:37 23.11.2019
3687 Rain 6 1020 75 16093 2.6 100 15:18 23.11.2019
3688 Clear 6 1020 100 16093 1.67 85 14:42 23.11.2019
3689 Clear 6 1020 100 16093 0.97 39 14:21 23.11.2019
3690 Clear 6 1020 93 16093 0.97 39 13:57 23.11.2019
3691 Clear 6 1020 93 16093 0.97 39 13:39 23.11.2019
3692 Clear 6 1020 81 16093 3.1 90 13:18 23.11.2019
3693 Clear 6 1020 93 16093 1.06 35 12:44 23.11.2019
3694 Clear 6 1020 93 16093 1.06 35 12:24 23.11.2019
3695 Rain 6 1020 87 16093 1.06 35 11:45 23.11.2019
3696 Rain 6 1020 87 16093 1.06 35 11:24 23.11.2019
3697 Clear 6 1020 81 16093 0.8 332 10:57 23.11.2019
3698 Clear 6 1020 87 16093 2.1 120 10:39 23.11.2019
3699 Clear 6 1021 93 16093 2.1 110 10:18 23.11.2019
3700 Clear 7 1021 93 16093 0.8 332 09:41 23.11.2019
3701 Clear 7 1021 87 16093 2.6 110 09:19 23.11.2019
3702 Clear 8 1021 87 16093 2.1 200 08:41 23.11.2019
3703 Clear 8 1021 87 16093 2.1 200 08:41 23.11.2019
3704 Clear 8 1021 87 16093 2.1 200 08:41 23.11.2019
3705 Clear 8 1021 87 16093 2.1 200 08:41 23.11.2019
3706 Clear 8 1021 87 16093 2.1 180 08:19 23.11.2019
3707 Clear 8 1021 81 16093 1.43 312 07:42 23.11.2019
3708 Clear 9 1021 81 16093 1.43 312 07:00 23.11.2019
3709 Rain 9 1021 81 16093 1.43 312 06:41 23.11.2019
3710 Rain 9 1021 76 16093 1.43 312 06:19 23.11.2019
3711 Rain 10 1020 71 16093 1.5 330 05:41 23.11.2019
3712 Clear 10 1020 76 16093 2.97 330 05:22 23.11.2019
3713 Clear 10 1020 71 16093 2.1 360 04:39 23.11.2019
3714 Clear 11 1020 71 16093 2.1 360 04:21 23.11.2019
3715 Clear 12 1019 71 16093 2.1 310 02:39 23.11.2019
3716 Clear 14 1019 58 16093 3.1 310 01:41 23.11.2019
3717 Clear 15 1019 51 16093 4.6 310 00:49 23.11.2019
3718 Clear 16 1019 45 16093 2.1 290 00:23 23.11.2019
3719 Clear 16 1019 45 16093 2.1 290 00:23 23.11.2019
3720 Clear 16 1019 45 16093 2.1 290 00:22 23.11.2019
3721 -273 0 0 0 0 0 00:22 23.11.2019
3722 Clouds 16 1019 51 16093 3.6 310 23:56 22.11.2019
3723 Clouds 17 1019 51 16093 2.1 290 23:37 22.11.2019
3724 Clear 17 1019 44 16093 2.1 351 23:18 22.11.2019
3725 Clouds 17 1019 51 16093 3.1 330 22:56 22.11.2019
3726 Clouds 17 1019 51 16093 2.1 351 22:37 22.11.2019
3727 Clear 17 1019 41 16093 2.6 130 22:18 22.11.2019
3728 Rain 16 1019 48 16093 2.1 300 21:41 22.11.2019
3729 Rain 16 1019 48 16093 2.1 300 21:21 22.11.2019
3730 Clouds 16 1020 48 16093 2.1 300 20:56 22.11.2019
3731 Clear 16 1020 51 16093 2.1 150 20:38 22.11.2019
3732 Clear 15 1020 51 16093 2.1 150 20:20 22.11.2019
3733 Clear 15 1021 58 16093 1.5 340 19:40 22.11.2019
3734 Rain 14 1021 58 16093 1.5 340 19:21 22.11.2019
3735 Rain 14 1021 62 16093 1.59 16 18:59 22.11.2019
3736 Rain 14 1022 66 16093 2.1 80 18:38 22.11.2019
3737 Clear 13 1022 66 16093 2.1 80 18:20 22.11.2019
3738 Clear 12 1022 81 16093 3.6 120 17:42 22.11.2019
3739 Clear 11 1022 81 16093 3.6 120 17:23 22.11.2019
3740 Clear 10 1021 93 16093 0.81 117 16:56 22.11.2019
3741 Clear 9 1021 100 16093 0.81 117 16:37 22.11.2019
3742 Clear 8 1021 87 16093 2.1 110 16:19 22.11.2019
3743 Clear 7 1021 100 16093 0.81 117 15:39 22.11.2019
3744 Clear 6 1020 93 16093 1.5 160 15:20 22.11.2019
3745 Clouds 6 1020 93 16093 1.5 190 14:55 22.11.2019
3746 Clouds 6 1020 93 16093 1.5 190 14:55 22.11.2019
3747 Clouds 7 1020 93 16093 0.81 117 14:37 22.11.2019
3748 Rain 7 1020 100 16093 0.82 235 14:18 22.11.2019
3749 Rain 7 1019 100 16093 0.82 235 13:39 22.11.2019
3750 Rain 7 1019 100 16093 0.67 262 13:20 22.11.2019
3751 Clear 7 1019 100 16093 0.67 262 12:58 22.11.2019
3752 Clear 7 1019 100 16093 2.1 270 12:40 22.11.2019
3753 Clear 7 1019 100 16093 2.1 270 12:20 22.11.2019
3754 Clear 8 1019 100 16093 0.67 262 11:58 22.11.2019
3755 Clouds 8 1019 93 16093 0.67 262 11:37 22.11.2019
3756 Clouds 8 1020 93 16093 2.3 196 11:19 22.11.2019
3757 Clouds 8 1019 93 16093 2.3 196 10:55 22.11.2019
3758 Clouds 9 1020 93 16093 2.3 196 10:37 22.11.2019
3759 Clouds 9 1020 93 16093 2.3 196 10:19 22.11.2019
3760 Clouds 9 1019 87 16093 3.6 120 09:41 22.11.2019
3761 Clouds 9 1019 87 16093 3.6 120 09:41 22.11.2019
3762 Clouds 9 1019 87 16093 3.6 120 09:22 22.11.2019
3763 Rain 9 1019 87 16093 3.1 100 08:59 22.11.2019
3764 Rain 9 1019 81 16093 1.5 90 08:39 22.11.2019
3765 Rain 9 1019 81 16093 1.5 90 08:21 22.11.2019
3766 Rain 10 1019 81 16093 2.1 100 07:43 22.11.2019
3767 Rain 10 1019 81 16093 2.1 100 07:43 22.11.2019
3768 Clouds 10 1019 81 16093 2.1 100 07:21 22.11.2019
3769 Rain 9 1019 81 16093 2.1 80 06:48 22.11.2019
3770 Rain 10 1019 81 16093 2.1 80 06:27 22.11.2019
3771 Rain 10 1018 93 16093 2.1 160 05:37 22.11.2019
3772 Clouds 10 1017 71 16093 2.6 120 03:34 22.11.2019
3773 Clouds 10 1016 71 16093 3.6 120 02:46 22.11.2019
3774 Clouds 10 1016 71 16093 3.6 120 02:26 22.11.2019
3775 Rain 10 1015 71 16093 2.6 100 01:43 22.11.2019
3776 Rain 11 1016 81 16093 5.1 110 01:18 22.11.2019
3777 Clouds 12 1015 81 16093 4.1 150 00:45 22.11.2019
3778 Rain 12 1015 71 16093 5.64 230 00:22 22.11.2019
3779 Drizzle 12 1015 58 16093 5.1 260 23:44 21.11.2019
3780 Rain 12 1014 76 8047 2.6 350 23:25 21.11.2019
3781 Rain 13 1013 66 16093 4.6 190 22:57 21.11.2019
3782 Rain 13 1013 58 16093 5.1 180 22:38 21.11.2019
3783 Clouds 13 1013 58 16093 5.1 180 22:20 21.11.2019
3784 Rain 12 1013 58 16093 5.7 210 21:55 21.11.2019
3785 Rain 12 1013 58 16093 5.1 210 21:36 21.11.2019
3786 Rain 13 1013 51 16093 4.1 230 21:18 21.11.2019
3787 Clouds 14 1013 58 16093 2.6 160 20:57 21.11.2019
3788 Clouds 14 1013 58 16093 2.6 160 20:57 21.11.2019
3789 Rain 14 1013 62 16093 4.1 210 20:37 21.11.2019
3790 Rain 14 1013 51 16093 6.2 180 20:18 21.11.2019
3791 Rain 14 1013 67 16093 2.1 110 19:55 21.11.2019
3792 Rain 14 1013 67 16093 2.1 110 19:55 21.11.2019
3793 Rain 14 1013 71 16093 3.1 130 19:36 21.11.2019
3794 Rain 14 1014 58 16093 5.7 220 19:18 21.11.2019
3795 Rain 13 1014 71 16093 3.1 130 18:41 21.11.2019
3796 Rain 12 1014 71 16093 3.1 130 18:21 21.11.2019
3797 Rain 12 1013 81 16093 3.6 130 17:58 21.11.2019
3798 Rain 11 1013 76 16093 4.6 100 17:39 21.11.2019
3799 Rain 11 1013 76 16093 4.6 100 17:39 21.11.2019
3800 Rain 11 1013 76 16093 4.6 100 17:21 21.11.2019
3801 Rain 10 1013 81 16093 3.1 120 16:57 21.11.2019
3802 Rain 10 1012 81 16093 1.5 120 16:39 21.11.2019
3803 Rain 9 1012 81 16093 1.5 120 16:20 21.11.2019
3804 Rain 9 1012 87 16093 3.6 100 15:44 21.11.2019
3805 Drizzle 9 1012 87 16093 3.1 110 15:21 21.11.2019
3806 Rain 9 1012 81 11265 3.6 200 14:58 21.11.2019
3807 Rain 10 1012 87 16093 4.6 150 14:38 21.11.2019
3808 Rain 10 1011 81 16093 1.5 170 14:20 21.11.2019
3809 Rain 11 1012 81 9656 1.5 220 13:57 21.11.2019
3810 Rain 11 1011 93 16093 2.6 130 13:37 21.11.2019
3811 Rain 11 1010 87 16093 2.6 70 13:19 21.11.2019
3812 Rain 11 1010 87 16093 3.1 50 12:41 21.11.2019
3813 Rain 11 1011 87 16093 3.39 230 12:23 21.11.2019
3814 Rain 11 1010 71 16093 2.1 250 11:56 21.11.2019
3815 Rain 11 1011 87 16093 3.6 240 11:37 21.11.2019
3816 Rain 11 1011 87 16093 3.6 240 11:19 21.11.2019
3817 Rain 11 1011 87 16093 5.55 215 10:42 21.11.2019
3818 Drizzle 12 1011 87 16093 5.55 215 10:24 21.11.2019
3819 Rain 12 1010 87 16093 5.55 215 09:59 21.11.2019
3820 Rain 12 1010 87 16093 5.55 215 09:59 21.11.2019
3821 Rain 12 1010 87 16093 1.5 160 09:40 21.11.2019
3822 Rain 12 1010 87 16093 1.5 160 09:22 21.11.2019
3823 Rain 12 1011 93 11265 2.1 190 08:44 21.11.2019
3824 Rain 12 1011 93 4023 1.5 270 08:24 21.11.2019
3825 Rain 12 1010 93 16093 2.6 150 07:46 21.11.2019
3826 Rain 12 1010 93 16093 2.6 150 07:20 21.11.2019
3827 Rain 12 1010 93 11265 2.6 170 06:58 21.11.2019
3828 Rain 12 1010 93 6437 3.6 150 06:37 21.11.2019
3829 Rain 12 1009 82 16093 6.7 270 06:19 21.11.2019
3830 Rain 16 1007 67 6437 11.3 220 03:42 21.11.2019
3831 Clouds 16 1006 55 16093 9.3 190 02:42 21.11.2019
3832 Clouds 16 1006 55 16093 9.3 190 02:24 21.11.2019
3833 Clear 16 1005 52 16093 10.3 190 01:49 21.11.2019
3834 Clear 16 1005 52 16093 10.3 190 01:49 21.11.2019
3835 Clear 17 1005 52 16093 10.3 190 01:20 21.11.2019
3836 Rain 17 1005 49 16093 8.2 160 00:38 21.11.2019
3837 Rain 17 1007 67 16093 6.2 190 00:20 21.11.2019
3838 Rain 17 1006 63 16093 4.6 130 23:42 20.11.2019
3839 Rain 17 1007 59 16093 6.2 160 23:21 20.11.2019
3840 Rain 17 1005 59 16093 6.7 160 22:58 20.11.2019
3841 Clouds 17 1007 67 16093 6.7 170 22:38 20.11.2019
3842 Rain 17 1008 63 16093 7.2 160 22:19 20.11.2019
3843 Clouds 18 1007 55 16093 8.2 190 21:58 20.11.2019
3844 Rain 18 1007 55 16093 8.2 190 21:39 20.11.2019
3845 Rain 18 1006 52 16093 9.8 190 21:20 20.11.2019
3846 Rain 18 1007 59 16093 11.8 170 20:57 20.11.2019
3847 Clouds 18 1007 59 16093 9.8 180 20:38 20.11.2019
3848 Clouds 17 1007 59 16093 9.8 180 20:20 20.11.2019
3849 Clouds 17 1008 55 16093 7.2 170 20:20 20.11.2019
3850 Rain 17 1009 59 16093 10.3 200 19:56 20.11.2019
3851 Rain 17 1009 59 16093 10.3 200 19:37 20.11.2019
3852 Rain 17 1009 59 16093 10.3 200 19:37 20.11.2019
3853 Rain 16 1008 63 16093 8.2 180 19:18 20.11.2019
3854 Rain 16 1008 63 16093 8.2 180 19:18 20.11.2019
3855 Rain 16 1007 67 16093 10.3 190 18:58 20.11.2019
3856 Rain 15 1007 67 16093 10.3 180 18:38 20.11.2019
3857 Rain 15 1007 67 16093 10.3 180 18:20 20.11.2019
3858 Rain 14 1007 77 16093 5.7 190 17:55 20.11.2019
3859 Rain 14 1007 72 16093 7.2 190 17:37 20.11.2019
3860 Rain 14 1008 72 16093 5.1 160 17:19 20.11.2019
3861 Rain 14 1006 72 16093 9.3 180 16:43 20.11.2019
3862 Rain 14 1006 72 16093 9.3 180 16:21 20.11.2019
3863 Clouds 14 1006 72 16093 8.7 180 15:58 20.11.2019
3864 Rain 14 1006 72 16093 8.7 180 15:40 20.11.2019
3865 Rain 14 1006 72 16093 8.7 180 15:20 20.11.2019
3866 Rain 14 1006 77 16093 7.7 180 14:58 20.11.2019
3867 Clouds 14 1006 82 16093 5.7 170 14:39 20.11.2019
3868 Clouds 14 1006 82 16093 5.7 170 14:39 20.11.2019
3869 Rain 14 1006 82 16093 5.7 170 14:21 20.11.2019
3870 Rain 14 1006 82 16093 5.1 160 13:57 20.11.2019
3871 Rain 14 1006 82 16093 5.1 160 13:38 20.11.2019
3872 Rain 14 1007 100 16093 2.6 80 13:19 20.11.2019
3873 Rain 14 1007 100 16093 1.5 210 12:42 20.11.2019
3874 Rain 14 1007 100 16093 1.5 210 12:24 20.11.2019
3875 Rain 14 1005 72 16093 7.7 170 11:57 20.11.2019
3876 Rain 15 1005 72 16093 3.1 170 11:38 20.11.2019
3877 Rain 15 1006 77 16093 2.1 140 11:18 20.11.2019
3878 Rain 15 1005 82 16093 3.1 160 10:55 20.11.2019
3879 Rain 15 1005 77 16093 3.1 180 10:36 20.11.2019
3880 Clouds 16 1007 72 16093 3.1 205 10:18 20.11.2019
3881 Clouds 16 1007 72 16093 3.1 205 10:18 20.11.2019
3882 Rain 15 1006 77 16093 2.6 180 09:42 20.11.2019
3883 Rain 15 1007 72 16093 1 0 09:21 20.11.2019
3884 Clear 16 1006 82 16093 1.5 150 08:48 20.11.2019
3885 Rain 16 1006 82 16093 1.5 150 08:28 20.11.2019
3886 Rain 15 1006 93 2414 1.5 210 07:59 20.11.2019
3887 Clear 15 1006 82 16093 4.1 170 07:38 20.11.2019
3888 Rain 15 1006 82 16093 4.1 170 07:20 20.11.2019
3889 Rain 16 1006 100 16093 5.7 202 06:45 20.11.2019
3890 Rain 16 1006 100 16093 5.7 202 06:45 20.11.2019
3891 Rain 16 1008 87 16093 2.6 180 06:19 20.11.2019
3892 Rain 16 1008 77 16093 5.7 110 04:50 20.11.2019
3893 Rain 16 1008 100 6437 3.1 210 02:47 20.11.2019
3894 Rain 16 1009 93 8047 1.5 140 01:39 20.11.2019
3895 Rain 17 1009 87 16093 2.6 40 00:59 20.11.2019
3896 Rain 17 1009 88 16093 3.6 80 00:34 20.11.2019
3897 Drizzle 17 1010 88 16093 3.6 80 23:43 19.11.2019
3898 Rain 17 1010 93 3219 5.7 310 23:23 19.11.2019
3899 Rain 17 1011 88 16093 4.6 60 22:56 19.11.2019
3900 Rain 17 1011 88 16093 4.6 60 22:38 19.11.2019
3901 Rain 17 1012 93 12874 3.1 110 22:18 19.11.2019
3902 Thunderstorm 17 1012 88 4828 1.5 0 21:55 19.11.2019
3903 Thunderstorm 17 1012 88 4828 1.5 0 21:55 19.11.2019
3904 Thunderstorm 20 1012 82 4023 6.2 210 21:37 19.11.2019
3905 Thunderstorm 23 1012 72 1207 6.2 210 21:18 19.11.2019
3906 Clouds 24 1009 20 16093 2.29 154 20:55 19.11.2019
3907 Clouds 25 1009 20 16093 3.1 100 20:36 19.11.2019
3908 Clouds 25 1009 20 16093 3.1 100 20:36 19.11.2019
3909 Clear 25 1012 25 16093 2.12 204 20:18 19.11.2019
3910 Clouds 25 1011 16 16093 3.6 120 19:42 19.11.2019
3911 Clouds 25 1013 22 16093 2.12 204 19:20 19.11.2019
3912 Clouds 25 1012 19 16093 3.1 100 18:58 19.11.2019
3913 Clouds 24 1012 20 16093 3.1 110 18:40 19.11.2019
3914 Clear 23 1014 41 16093 2.12 204 18:20 19.11.2019
3915 Clear 22 1013 24 16093 5.1 110 17:58 19.11.2019
3916 Clouds 21 1012 25 16093 5.1 100 17:39 19.11.2019
3917 Clouds 19 1014 47 16093 3.1 110 17:20 19.11.2019
3918 Clouds 18 1013 27 16093 4.1 90 16:59 19.11.2019
3919 Clouds 17 1013 27 16093 4.1 90 16:39 19.11.2019
3920 Clouds 17 1014 47 16093 3.6 120 16:19 19.11.2019
3921 Clouds 16 1013 26 16093 4.1 110 15:47 19.11.2019
3922 Clouds 15 1013 26 16093 4.1 110 15:26 19.11.2019
3923 Clouds 15 1013 26 16093 4.1 110 15:26 19.11.2019
3924 Clouds 15 1012 28 16093 4.1 120 14:58 19.11.2019
3925 Clouds 15 1012 28 16093 2.6 140 14:39 19.11.2019
3926 Clouds 14 1013 33 16093 3.6 130 14:20 19.11.2019
3927 Clouds 14 1012 28 16093 4.1 110 13:42 19.11.2019
3928 Clouds 14 1014 35 16093 3.6 130 13:21 19.11.2019
3929 Clouds 14 1013 28 16093 4.6 100 12:56 19.11.2019
3930 Clouds 13 1013 28 16093 4.1 120 12:38 19.11.2019
3931 Clouds 13 1013 28 16093 4.1 120 12:20 19.11.2019
3932 Clouds 13 1013 30 16093 3.6 110 11:55 19.11.2019
3933 Clear 12 1013 28 16093 3.6 90 11:36 19.11.2019
3934 Clear 13 1014 30 16093 2.6 150 11:18 19.11.2019
3935 Clear 13 1014 24 16093 4.1 100 10:44 19.11.2019
3936 Clear 13 1015 30 16093 3.6 130 10:20 19.11.2019
3937 Clear 13 1014 26 16093 1.5 160 09:43 19.11.2019
3938 Clear 13 1014 26 16093 1.5 160 09:21 19.11.2019
3939 Clear 13 1014 22 16093 2.1 100 08:57 19.11.2019
3940 Clear 14 1014 22 16093 3.1 90 08:39 19.11.2019
3941 Clear 14 1014 22 16093 3.1 90 08:20 19.11.2019
3942 Clear 15 1014 26 16093 1.5 120 07:42 19.11.2019
3943 Clear 15 1014 26 16093 1.5 120 07:24 19.11.2019
3944 Clear 16 1014 23 16093 2.04 224 06:58 19.11.2019
3945 Clear 16 1014 23 16093 2.04 224 06:37 19.11.2019
3946 Clear 16 1014 23 16093 2.1 180 05:52 19.11.2019
3947 Clear 18 1015 22 16093 3.1 170 05:18 19.11.2019
3948 Clear 20 1013 19 16093 2.1 330 03:39 19.11.2019
3949 Clear 21 1014 16 16093 2.1 320 03:19 19.11.2019
3950 Clear 22 1013 15 16093 2.6 310 02:39 19.11.2019
3951 Clear 24 1012 11 16093 2.6 320 01:47 19.11.2019
3952 Clear 27 1012 9 16093 4.1 330 00:41 19.11.2019
3953 Clear 28 1013 11 16093 5.1 290 00:19 19.11.2019
3954 Clear 28 1012 10 16093 3.6 310 23:38 18.11.2019
3955 Clear 29 1013 12 16093 2.6 320 23:19 18.11.2019
3956 Clear 29 1013 10 16093 2.6 340 22:46 18.11.2019
3957 Clear 29 1013 10 16093 2.6 340 22:46 18.11.2019
3958 Clear 29 1013 10 16093 2.6 340 22:24 18.11.2019
3959 Clear 29 1014 10 16093 2.6 270 21:57 18.11.2019
3960 Clear 28 1014 10 16093 2.6 270 21:39 18.11.2019
3961 Clear 28 1015 13 16093 1.5 260 21:20 18.11.2019
3962 Clear 28 1014 13 16093 1.5 100 20:57 18.11.2019
3963 Clear 28 1014 13 16093 1.5 100 20:57 18.11.2019
3964 Clear 28 1015 13 16093 1.5 40 20:39 18.11.2019
3965 Clear 26 1016 15 16093 1.5 130 20:18 18.11.2019
3966 Clear 26 1016 15 16093 1 25 19:56 18.11.2019
3967 Clear 25 1016 15 16093 1.5 210 19:37 18.11.2019
3968 Clear 25 1017 19 16093 1.5 80 19:19 18.11.2019
3969 Clear 25 1017 19 16093 1.5 80 19:19 18.11.2019
3970 Clear 24 1017 17 16093 1.5 180 18:55 18.11.2019
3971 Clear 23 1017 18 16093 3.6 130 18:37 18.11.2019
3972 Clear 22 1018 19 16093 1.5 70 18:19 18.11.2019
3973 Clear 20 1017 25 16093 6.2 100 17:40 18.11.2019
3974 Clear 18 1017 25 16093 6.2 100 17:21 18.11.2019
3975 Clear 17 1018 28 16093 3.6 100 16:58 18.11.2019
3976 Clear 16 1018 28 16093 4.6 90 16:40 18.11.2019
3977 Clear 14 1018 34 16093 2.6 140 16:22 18.11.2019
3978 Clear 13 1017 34 16093 4.1 130 15:56 18.11.2019
3979 Clear 12 1017 37 16093 4.6 100 15:37 18.11.2019
3980 Clear 12 1017 37 16093 4.6 100 15:37 18.11.2019
3981 Clear 11 1018 37 16093 1.58 175 15:19 18.11.2019
3982 Clear 11 1017 45 16093 1.58 175 14:43 18.11.2019
3983 Clear 11 1017 45 16093 1.58 175 14:24 18.11.2019
3984 Clear 11 1016 42 16093 2.6 210 13:56 18.11.2019
3985 Clear 11 1016 39 16093 2.1 200 13:37 18.11.2019
3986 Clear 11 1016 39 16093 2.1 200 13:37 18.11.2019
3987 Clear 11 1017 34 11265 1.5 190 13:19 18.11.2019
3988 Clear 11 1017 34 11265 1.5 190 13:19 18.11.2019
3989 Clear 11 1016 37 16093 0.74 154 12:39 18.11.2019
3990 Clear 11 1017 32 16093 4.6 120 12:19 18.11.2019
3991 Clear 12 1016 32 16093 4.1 100 11:45 18.11.2019
3992 Clear 12 1016 32 16093 4.1 100 11:27 18.11.2019
3993 Clear 12 1016 32 16093 4.1 100 11:27 18.11.2019
3994 Clear 12 1016 30 16093 1.17 197 10:59 18.11.2019
3995 Clear 13 1016 32 16093 2.6 110 10:40 18.11.2019
3996 Clear 13 1016 32 16093 2.6 110 10:22 18.11.2019
3997 Clear 13 1016 32 16093 2.6 110 09:56 18.11.2019
3998 Clear 13 1016 26 16093 2.6 120 09:37 18.11.2019
3999 Clear 13 1017 30 16093 3.1 130 09:18 18.11.2019
4000 Clear 13 1017 30 16093 3.1 130 09:18 18.11.2019
4001 Clear 14 1016 28 16093 1.17 197 08:44 18.11.2019
4002 Clear 14 1016 28 16093 0.09 104 08:21 18.11.2019
4003 Clear 15 1016 28 16093 0.09 104 07:48 18.11.2019
4004 Clear 15 1016 28 16093 0.09 104 07:29 18.11.2019
4005 Clear 15 1016 26 16093 0.09 104 06:56 18.11.2019
4006 Clear 16 1016 28 16093 0.09 104 06:37 18.11.2019
4007 Clear 16 1018 29 16093 3.1 160 06:18 18.11.2019
4008 Clear 18 1016 23 16093 2.1 220 04:58 18.11.2019
4009 Clear 21 1015 14 16093 1.02 350 02:59 18.11.2019
4010 Clear 25 1015 12 16093 3.6 320 01:31 18.11.2019
4011 Clear 28 1015 12 16093 4.1 320 00:35 18.11.2019
4012 Clear 28 1015 12 16093 2.6 320 23:45 17.11.2019
4013 Clear 28 1015 12 16093 2.6 320 23:25 17.11.2019
4014 Clear 28 1015 12 16093 3.23 113 22:59 17.11.2019
4015 Clear 28 1015 12 11265 3.6 320 22:40 17.11.2019
4016 Clear 28 1015 12 11265 3.6 320 22:22 17.11.2019
4017 Clear 28 1016 12 16093 1.5 20 21:59 17.11.2019
4018 Clear 28 1016 14 16093 1.5 320 21:40 17.11.2019
4019 Clear 27 1017 15 16093 3.1 100 21:19 17.11.2019
4020 Clear 27 1016 14 16093 3.23 113 20:57 17.11.2019
4021 Clear 26 1017 15 16093 2.1 70 20:38 17.11.2019
4022 Clear 26 1018 21 16093 2.1 90 20:19 17.11.2019
4023 Clear 25 1018 16 16093 1.5 50 19:56 17.11.2019
4024 Clear 25 1018 16 16093 1.5 50 19:56 17.11.2019
4025 Clear 25 1018 18 16093 3.1 70 19:37 17.11.2019
4026 Clear 24 1019 23 16093 3.1 360 19:19 17.11.2019
4027 Clear 23 1019 24 16093 2.98 77 18:55 17.11.2019
4028 Clear 22 1019 26 16093 2.6 150 18:37 17.11.2019
4029 Clear 21 1019 26 16093 2.6 150 18:18 17.11.2019
4030 Clear 20 1020 33 16093 2.98 77 17:57 17.11.2019
4031 Clear 20 1020 33 16093 2.98 77 17:39 17.11.2019
4032 Clear 18 1019 33 16093 1.5 120 17:20 17.11.2019
4033 Clear 16 1018 40 16093 2.1 240 16:57 17.11.2019
4034 Clear 15 1018 37 16093 2.1 270 16:39 17.11.2019
4035 Clear 14 1018 37 16093 2.1 270 16:21 17.11.2019
4036 Clear 12 1018 40 16093 0.81 111 15:55 17.11.2019
4037 Clear 11 1017 43 16093 0.81 111 15:36 17.11.2019
4038 Clear 11 1018 46 16093 0.81 111 15:18 17.11.2019
4039 Clear 11 1017 37 16093 4.1 130 14:55 17.11.2019
4040 Clear 11 1017 37 16093 2.6 130 14:37 17.11.2019
4041 Clear 11 1018 40 16093 5.1 120 14:18 17.11.2019
4042 Clear 11 1017 35 16093 3.6 130 13:41 17.11.2019
4043 Clear 11 1017 35 16093 3.6 130 13:22 17.11.2019
4044 Clear 11 1017 35 16093 4.1 110 13:00 17.11.2019
4045 Clear 11 1017 40 16093 4.1 110 12:38 17.11.2019
4046 Clear 11 1018 43 16093 4.1 130 12:19 17.11.2019
4047 Clear 12 1017 37 16093 0.8 223 11:56 17.11.2019
4048 Clear 12 1017 39 16093 0.8 223 11:38 17.11.2019
4049 Clear 12 1017 42 16093 1.5 140 11:19 17.11.2019
4050 Clear 12 1017 33 16093 2.6 130 10:41 17.11.2019
4051 Clear 13 1017 33 16093 2.6 130 10:23 17.11.2019
4052 Clear 13 1017 32 16093 1.5 110 09:43 17.11.2019
4053 Clear 13 1017 32 16093 1.5 110 09:43 17.11.2019
4054 Clear 13 1017 32 16093 1.5 110 09:24 17.11.2019
4055 Clear 13 1017 30 16093 2.6 100 08:58 17.11.2019
4056 Clear 14 1017 32 16093 2.6 110 08:37 17.11.2019
4057 Clear 14 1017 38 16093 3.6 130 08:19 17.11.2019
4058 Clear 15 1016 30 16093 2.1 200 07:42 17.11.2019
4059 Clear 15 1016 30 16093 2.1 200 07:22 17.11.2019
4060 Clear 15 1016 30 16093 2.1 190 06:55 17.11.2019
4061 Clear 15 1016 28 16093 1.5 250 06:30 17.11.2019
4062 Clear 16 1016 26 16093 3.1 310 05:39 17.11.2019
4063 Clear 18 1015 25 16093 3.1 300 04:20 17.11.2019
4064 Clear 19 1015 22 16093 3.1 320 03:40 17.11.2019
4065 Clear 20 1015 22 16093 3.1 320 03:22 17.11.2019
4066 Clear 22 1014 19 16093 3.1 310 02:19 17.11.2019
4067 Clear 25 1015 26 16093 4.1 320 01:22 17.11.2019
4068 Clear 26 1014 12 16093 3.1 310 00:41 17.11.2019
4069 Clear 27 1014 12 16093 3.1 310 00:21 17.11.2019
4070 Clear 28 1014 13 16093 5.1 300 23:42 16.11.2019
4071 Clear 28 1014 17 16093 2.6 10 23:19 16.11.2019
4072 Clear 28 1014 13 16093 2.6 330 22:55 16.11.2019
4073 Clear 28 1014 14 16093 3.6 290 22:36 16.11.2019
4074 Clear 28 1015 17 16093 2.03 277 22:18 16.11.2019
4075 Clear 28 1014 14 16093 2.6 280 21:41 16.11.2019
4076 Clear 28 1014 14 16093 2.6 280 21:23 16.11.2019
4077 Clear 28 1015 15 16093 1.5 340 20:58 16.11.2019
4078 Clear 28 1015 15 16093 1.5 340 20:58 16.11.2019
4079 Clear 27 1015 14 16093 2.03 277 20:39 16.11.2019
4080 Clear 26 1015 14 16093 0.51 102 20:19 16.11.2019
4081 Clear 25 1016 17 16093 2.1 100 19:54 16.11.2019
4082 Clear 25 1016 18 16093 2.6 90 19:36 16.11.2019
4083 Clear 24 1017 20 16093 0.51 102 19:18 16.11.2019
4084 Clear 23 1017 22 16093 2.6 100 18:40 16.11.2019
4085 Clear 21 1017 22 16093 2.6 100 18:20 16.11.2019
4086 Clear 21 1017 22 16093 4.1 110 17:55 16.11.2019
4087 Clear 20 1017 22 16093 4.1 110 17:55 16.11.2019
4088 Clear 20 1016 25 16093 3.1 90 17:37 16.11.2019
4089 Clouds 18 1017 25 16093 4.1 140 17:18 16.11.2019
4090 Clear 17 1016 30 16093 1.71 127 16:45 16.11.2019
4091 Clear 16 1016 30 16093 1.71 127 16:26 16.11.2019
4092 Clear 15 1016 25 16093 3.1 120 15:56 16.11.2019
4093 Clear 15 1016 25 16093 3.1 120 15:56 16.11.2019
4094 Clear 14 1016 25 16093 3.1 90 15:37 16.11.2019
4095 Clouds 14 1017 29 16093 4.6 140 15:18 16.11.2019
4096 Clear 14 1015 28 16093 6.2 110 14:40 16.11.2019
4097 Clear 14 1015 28 16093 6.2 110 14:21 16.11.2019
4098 Clear 14 1015 26 16093 3.6 90 13:57 16.11.2019
4099 Clear 15 1016 28 16093 1.55 144 13:38 16.11.2019
4100 Clear 15 1017 27 16093 4.6 130 13:19 16.11.2019
4101 Clear 15 1016 30 16093 1.67 128 12:59 16.11.2019
4102 Clear 15 1016 28 16093 1.67 128 12:40 16.11.2019
4103 Clear 15 1016 28 16093 1.67 128 12:20 16.11.2019
4104 Clear 15 1016 25 16093 3.6 90 11:45 16.11.2019
4105 Clear 15 1016 25 16093 3.6 90 11:26 16.11.2019
4106 Clear 15 1016 23 16093 3.6 100 10:57 16.11.2019
4107 Clear 15 1016 26 16093 4.1 90 10:39 16.11.2019
4108 Clear 15 1017 27 16093 5.7 110 10:21 16.11.2019
4109 Clear 15 1016 25 16093 2.1 210 09:43 16.11.2019
4110 Clear 15 1016 25 16093 2.1 210 09:21 16.11.2019
4111 Clear 15 1016 23 16093 1.4 124 08:58 16.11.2019
4112 Clear 15 1016 21 16093 1.5 200 08:38 16.11.2019
4113 Clear 16 1017 25 16093 4.1 80 08:19 16.11.2019
4114 Clear 16 1016 21 16093 4.1 110 07:43 16.11.2019
4115 Clear 16 1016 21 16093 4.1 110 07:43 16.11.2019
4116 Clear 16 1016 21 16093 4.1 110 07:21 16.11.2019
4117 Clear 16 1016 18 16093 2.1 90 06:52 16.11.2019
4118 Clear 16 1016 18 16093 2.1 90 06:33 16.11.2019
4119 Clear 17 1016 18 16093 3.1 130 05:40 16.11.2019
4120 Clear 19 1015 18 16093 3.52 116 03:49 16.11.2019
4121 Clear 20 1015 18 16093 3.52 116 03:25 16.11.2019
4122 Clear 22 1015 13 16093 2.1 360 01:51 16.11.2019
4123 Clear 24 1015 10 16093 4.47 94 01:20 16.11.2019
4124 Clear 26 1015 9 16093 1.5 90 00:44 16.11.2019
4125 Clear 27 1015 9 16093 1.5 90 00:25 16.11.2019
4126 Clear 28 1016 9 16093 2.1 70 23:40 15.11.2019
4127 Clear 28 1016 9 16093 2.1 70 23:21 15.11.2019
4128 Clear 27 1016 9 16093 2.6 100 22:55 15.11.2019
4129 Clear 27 1016 10 16093 4.6 130 22:37 15.11.2019
4130 Clear 27 1017 12 16093 3.6 110 22:18 15.11.2019
4131 Clear 27 1017 10 16093 5.1 120 21:42 15.11.2019
4132 Clear 27 1019 13 16093 5.1 120 21:21 15.11.2019
4133 Clear 26 1018 10 16093 6.2 120 20:59 15.11.2019
4134 Clear 26 1018 12 16093 5.1 130 20:40 15.11.2019
4135 Clear 26 1018 12 16093 5.1 130 20:22 15.11.2019
4136 Clear 26 1018 12 16093 5.1 130 20:22 15.11.2019
4137 Clear 25 1019 13 16093 5.1 120 19:59 15.11.2019
4138 Clear 25 1019 14 16093 6.2 130 19:40 15.11.2019
4139 Clear 24 1021 17 16093 9.3 110 19:21 15.11.2019
4140 Clear 23 1020 16 16093 7.2 120 18:58 15.11.2019
4141 Clear 23 1020 18 16093 5.1 110 18:40 15.11.2019
4142 Clear 22 1020 18 16093 5.1 110 18:21 15.11.2019
4143 Clear 20 1020 23 16093 3.6 120 17:43 15.11.2019
4144 Clear 19 1020 23 16093 3.6 120 17:25 15.11.2019
4145 Clear 17 1020 26 16093 5.7 110 16:58 15.11.2019
4146 Clear 17 1020 26 16093 5.7 110 16:58 15.11.2019
4147 Clear 16 1020 28 16093 4.6 100 16:39 15.11.2019
4148 Clear 15 1021 29 16093 7.2 110 16:20 15.11.2019
4149 Clear 13 1020 30 16093 2.6 100 15:39 15.11.2019
4150 Clear 13 1020 30 16093 2.6 100 15:39 15.11.2019
4151 Clear 12 1020 30 16093 2.6 100 15:21 15.11.2019
4152 Clear 13 1020 34 16093 4.1 90 14:58 15.11.2019
4153 Clear 12 1020 30 16093 2.6 130 14:40 15.11.2019
4154 Clear 12 1020 30 16093 2.6 130 14:21 15.11.2019
4155 Clear 12 1019 30 16093 3.1 120 13:59 15.11.2019
4156 Clear 12 1019 30 16093 5.1 110 13:40 15.11.2019
4157 Clear 12 1019 30 16093 5.1 110 13:21 15.11.2019
4158 Clear 12 1020 32 16093 3.1 100 12:59 15.11.2019
4159 Clear 12 1020 30 16093 3.1 150 12:41 15.11.2019
4160 Clear 12 1020 30 16093 3.1 150 12:21 15.11.2019
4161 Clear 12 1020 32 16093 2.6 190 11:59 15.11.2019
4162 Clear 12 1020 34 16093 1.5 160 11:39 15.11.2019
4163 Clear 12 1020 34 16093 1.5 160 11:21 15.11.2019
4164 Clear 12 1020 35 16093 2.6 130 10:57 15.11.2019
4165 Clear 12 1020 30 16093 3.1 130 10:39 15.11.2019
4166 Clear 12 1022 34 16093 2.6 200 10:18 15.11.2019
4167 Clear 13 1020 33 16093 4.1 100 09:41 15.11.2019
4168 Clear 12 1020 33 16093 4.1 100 09:20 15.11.2019
4169 Clear 13 1020 30 16093 3.1 110 08:44 15.11.2019
4170 Clear 13 1020 30 16093 3.1 110 08:23 15.11.2019
4171 Clear 14 1020 33 16093 3.1 120 07:49 15.11.2019
4172 -273 0 0 0 0 0 07:28 15.11.2019
4173 Clear 14 1020 35 16093 1.96 103 06:52 15.11.2019
4174 Clear 14 1020 35 16093 1.96 103 06:32 15.11.2019
4175 Clear 15 1019 30 16093 3.6 220 05:49 15.11.2019
4176 Clear 15 1019 30 16093 3.6 220 05:27 15.11.2019
4177 Clear 17 1020 25 16093 2.6 260 03:58 15.11.2019
4178 Clear 19 1019 22 16093 2.1 350 03:25 15.11.2019
4179 Clear 21 1019 20 16093 3.1 320 02:21 15.11.2019
4180 Clear 23 1018 14 16093 2.6 320 01:33 15.11.2019
4181 Clear 23 1018 14 16093 2.6 320 01:33 15.11.2019
4182 Clear 26 1019 15 16093 2.6 310 00:54 15.11.2019
4183 Clear 26 1018 12 16093 1.5 250 00:33 15.11.2019
4184 Clear 27 1017 12 16093 2.1 250 23:57 14.11.2019
4185 Clear 27 1018 12 16093 2.02 354 23:38 14.11.2019
4186 Clear 27 1019 15 16093 1.61 8 23:18 14.11.2019
4187 Clear 27 1018 11 16093 1.61 8 22:40 14.11.2019
4188 Clear 26 1019 16 16093 1.61 8 22:21 14.11.2019
4189 Clear 26 1018 11 16093 1.61 8 22:21 14.11.2019
4190 Clear 27 1018 13 16093 2.1 260 21:56 14.11.2019
4191 Clear 27 1018 13 16093 2.1 260 21:56 14.11.2019
4192 Clear 26 1019 14 16093 1.61 8 21:38 14.11.2019
4193 Clear 26 1020 16 16093 1.61 8 21:19 14.11.2019
4194 Clear 25 1019 17 16093 1.5 210 20:42 14.11.2019
4195 Clear 25 1019 17 16093 1.5 210 20:24 14.11.2019
4196 Clear 24 1020 18 16093 0.28 212 19:59 14.11.2019
4197 Clear 24 1020 18 16093 0.28 212 19:59 14.11.2019
4198 Clear 24 1020 18 16093 2.1 120 19:41 14.11.2019
4199 Clear 23 1021 24 16093 1.5 90 19:18 14.11.2019
4200 Clear 23 1021 24 16093 1.5 90 19:18 14.11.2019
4201 Clear 22 1021 22 16093 4.1 110 18:56 14.11.2019
4202 Clear 21 1021 22 16093 4.1 110 18:38 14.11.2019
4203 Clear 20 1020 25 16093 4.1 110 18:19 14.11.2019
4204 Clear 20 1021 31 16093 4.1 120 17:55 14.11.2019
4205 Clear 19 1021 31 16093 4.1 120 17:37 14.11.2019
4206 Clouds 17 1021 32 16093 3.6 140 17:18 14.11.2019
4207 Clear 16 1020 33 16093 4.6 120 16:55 14.11.2019
4208 Clear 15 1020 39 16093 4.6 130 16:36 14.11.2019
4209 Clouds 13 1019 43 11265 2.6 140 16:18 14.11.2019
4210 Clear 12 1019 43 16093 2.6 110 15:54 14.11.2019
4211 Clear 11 1019 43 16093 3.6 120 15:36 14.11.2019
4212 Clouds 10 1019 39 11265 2.1 130 15:18 14.11.2019
4213 Clear 10 1018 43 16093 4.1 100 14:41 14.11.2019
4214 Clear 9 1018 43 16093 4.1 100 14:22 14.11.2019
4215 Clear 9 1018 43 16093 3.6 110 13:55 14.11.2019
4216 Clear 9 1018 43 16093 3.6 120 13:37 14.11.2019
4217 Clear 10 1019 44 16093 4.1 110 13:18 14.11.2019
4218 Clear 10 1018 44 16093 4.6 110 12:46 14.11.2019
4219 Clear 10 1018 44 16093 4.6 110 12:26 14.11.2019
4220 Clear 10 1018 44 16093 3.1 100 11:58 14.11.2019
4221 Clear 10 1018 44 16093 3.1 100 11:58 14.11.2019
4222 Clear 10 1018 44 16093 1.5 100 11:38 14.11.2019
4223 Clear 11 1018 43 16093 3.6 100 11:19 14.11.2019
4224 Clear 11 1018 43 16093 3.1 110 10:57 14.11.2019
4225 Clear 11 1018 43 16093 1.37 213 10:38 14.11.2019
4226 Clear 11 1018 43 16093 4.1 110 10:19 14.11.2019
4227 Clear 11 1017 43 16093 2.6 100 09:56 14.11.2019
4228 Clear 11 1017 43 16093 2.1 80 09:37 14.11.2019
4229 Clear 12 1017 40 16093 3.6 100 09:18 14.11.2019
4230 Clear 12 1017 40 16093 3.6 100 08:46 14.11.2019
4231 Clear 12 1017 40 16093 3.6 100 08:24 14.11.2019
4232 Clear 13 1017 35 16093 1.24 206 07:43 14.11.2019
4233 Clear 13 1017 35 16093 1.24 206 07:25 14.11.2019
4234 Clear 14 1017 35 16093 2.6 150 06:55 14.11.2019
4235 Clear 14 1017 41 16093 2.1 200 06:36 14.11.2019
4236 Clear 14 1017 41 16093 2.6 120 06:18 14.11.2019
4237 Clear 18 1016 27 16093 1.5 10 04:39 14.11.2019
4238 Clear 20 1016 28 16093 1.5 320 03:50 14.11.2019
4239 Clear 21 1015 25 16093 2.1 360 02:41 14.11.2019
4240 Clear 24 1014 20 16093 3.1 330 01:41 14.11.2019
4241 Clear 25 1014 19 16093 2.6 340 00:58 14.11.2019
4242 Clear 25 1014 17 16093 2.6 360 00:40 14.11.2019
4243 Clear 25 1014 17 16093 2.6 360 00:40 14.11.2019
4244 Clear 25 1014 17 16093 2.6 360 00:20 14.11.2019
4245 Clear 25 1014 19 16093 1.5 260 23:39 13.11.2019
4246 Clear 25 1014 19 16093 1.5 260 23:20 13.11.2019
4247 Clear 24 1014 21 16093 1.5 210 22:55 13.11.2019
4248 Clear 24 1015 21 16093 1.5 290 22:37 13.11.2019
4249 Clear 24 1015 27 16093 2.6 290 22:19 13.11.2019
4250 Clear 24 1015 21 16093 1.5 280 21:55 13.11.2019
4251 Clear 24 1015 21 16093 1.5 200 21:37 13.11.2019
4252 Clear 23 1016 27 16093 3.1 250 21:18 13.11.2019
4253 Clear 23 1016 21 16093 2.84 331 20:55 13.11.2019
4254 Clear 23 1016 21 16093 2.84 331 20:37 13.11.2019
4255 Clear 22 1017 28 16093 1.39 135 20:18 13.11.2019
4256 Clear 21 1017 30 16093 4.1 90 19:43 13.11.2019
4257 Clear 21 1018 32 16093 3.1 100 19:20 13.11.2019
4258 Clear 20 1018 30 16093 5.1 110 18:56 13.11.2019
4259 Clear 19 1018 30 16093 5.7 110 18:38 13.11.2019
4260 Clear 19 1018 30 16093 5.7 110 18:38 13.11.2019
4261 Clear 18 1018 34 16093 6.7 90 18:19 13.11.2019
4262 Clear 17 1018 30 16093 5.7 110 17:57 13.11.2019
4263 Clear 17 1018 30 16093 5.7 110 17:57 13.11.2019
4264 Clear 16 1018 30 16093 5.7 100 17:38 13.11.2019
4265 Clear 15 1018 38 16093 5.7 110 17:20 13.11.2019
4266 Clear 14 1017 37 16093 5.7 110 16:58 13.11.2019
4267 Clear 13 1017 49 16093 6.2 110 16:39 13.11.2019
4268 Clear 13 1017 49 16093 6.2 110 16:39 13.11.2019
4269 Clear 12 1017 47 16093 6.2 110 16:21 13.11.2019
4270 Clear 11 1018 53 16093 4.6 130 15:57 13.11.2019
4271 Clear 10 1018 53 16093 4.6 130 15:38 13.11.2019
4272 Clear 9 1018 49 16093 6.7 110 15:20 13.11.2019
4273 Clear 9 1016 47 16093 4.1 110 14:42 13.11.2019
4274 Clear 9 1017 50 16093 6.7 100 14:21 13.11.2019
4275 Clear 9 1017 55 16093 5.1 110 13:57 13.11.2019
4276 Clear 9 1016 55 16093 4.1 100 13:36 13.11.2019
4277 Clear 10 1017 50 16093 7.2 90 13:18 13.11.2019
4278 Clear 10 1016 55 16093 2.6 120 12:43 13.11.2019
4279 Clear 10 1016 55 16093 2.6 120 12:25 13.11.2019
4280 Clear 10 1016 55 16093 2.6 120 11:59 13.11.2019
4281 Clear 10 1016 55 16093 3.1 110 11:38 13.11.2019
4282 Clear 11 1017 43 16093 7.2 100 11:19 13.11.2019
4283 Clear 11 1017 50 16093 3.1 130 10:57 13.11.2019
4284 Clear 11 1017 50 16093 4.6 120 10:39 13.11.2019
4285 Clear 11 1017 43 16093 7.7 100 10:19 13.11.2019
4286 Clear 11 1017 43 16093 7.7 100 10:19 13.11.2019
4287 Clear 11 1017 43 16093 7.7 100 10:19 13.11.2019
4288 Clear 11 1017 50 16093 3.1 80 09:43 13.11.2019
4289 Clear 12 1018 43 16093 5.1 100 09:21 13.11.2019
4290 Clear 12 1017 50 16093 3.1 80 09:21 13.11.2019
4291 Clear 12 1017 50 16093 3.1 80 09:21 13.11.2019
4292 Clear 12 1017 50 16093 3.1 80 09:21 13.11.2019
4293 Clear 12 1018 50 16093 6.7 120 08:46 13.11.2019
4294 Clear 12 1017 50 16093 4.1 90 08:28 13.11.2019
4295 Clear 13 1017 48 16093 4.1 100 07:59 13.11.2019
4296 Clear 13 1017 48 16093 4.1 100 07:59 13.11.2019
4297 Clear 13 1017 48 16093 4.6 110 07:41 13.11.2019
4298 Clear 13 1018 41 16093 6.7 100 07:20 13.11.2019
4299 Clear 14 1018 48 16093 3.6 100 06:43 13.11.2019
4300 Clear 14 1018 41 16093 6.7 80 06:19 13.11.2019
4301 Clear 14 1018 41 16093 6.7 80 06:19 13.11.2019
4302 Clear 14 1018 41 16093 6.7 80 06:19 13.11.2019
4303 Clear 14 1018 41 16093 6.7 80 06:19 13.11.2019
4304 Clear 14 1018 41 16093 6.7 80 06:19 13.11.2019
4305 Clear 15 1017 48 16093 2.6 100 05:48 13.11.2019
4306 Clear 15 1017 48 16093 2.6 100 05:29 13.11.2019
4307 Clear 16 1019 36 16093 4.1 80 04:19 13.11.2019
4308 Clear 19 1017 34 16093 2.6 100 01:54 13.11.2019
4309 Clear 20 1017 33 16093 2.6 110 01:35 13.11.2019
4310 Clear 21 1017 22 16093 4.1 120 00:43 13.11.2019
4311 Clear 22 1017 22 16093 3.6 120 23:58 12.11.2019
4312 Clear 22 1017 22 16093 4.1 130 23:40 12.11.2019
4313 Clear 23 1017 22 16093 4.1 130 23:40 12.11.2019
4314 Clear 22 1018 27 16093 4.1 80 23:20 12.11.2019
4315 Clear 22 1017 22 16093 5.7 120 22:43 12.11.2019
4316 Clear 22 1017 22 16093 5.7 120 22:20 12.11.2019
4317 Clear 22 1018 23 16093 3.1 120 21:58 12.11.2019
4318 Clear 22 1018 23 16093 4.6 120 21:39 12.11.2019
4319 Clear 22 1018 23 16093 4.6 120 21:21 12.11.2019
4320 Clear 22 1020 28 16093 9.3 90 20:56 12.11.2019
4321 Clear 22 1020 28 16093 9.3 90 20:37 12.11.2019
4322 Clear 21 1020 32 16093 8.2 120 20:18 12.11.2019
4323 Clear 21 1020 32 16093 8.2 120 20:18 12.11.2019
4324 Clear 21 1020 28 16093 5.1 130 19:56 12.11.2019
4325 Clear 21 1020 28 16093 6.2 120 19:38 12.11.2019
4326 Clear 20 1021 34 16093 9.8 110 19:18 12.11.2019
4327 Clear 20 1022 34 16093 11.3 90 18:55 12.11.2019
4328 Clear 20 1022 34 16093 11.3 90 18:37 12.11.2019
4329 Clear 20 1022 34 16093 11.3 90 18:37 12.11.2019
4330 Clear 19 1021 39 16093 9.3 100 18:19 12.11.2019
4331 Clear 19 1021 32 16093 8.7 120 17:55 12.11.2019
4332 Clear 18 1021 34 16093 4.6 110 17:37 12.11.2019
4333 Clear 17 1022 45 16093 8.2 110 17:18 12.11.2019
4334 Clear 17 1022 45 16093 8.2 110 17:18 12.11.2019
4335 Clear 17 1021 42 16093 5.1 110 16:43 12.11.2019
4336 Clear 16 1021 42 16093 5.1 110 16:25 12.11.2019
4337 Clear 15 1020 44 16093 4.1 100 15:57 12.11.2019
4338 Clear 15 1020 44 16093 4.1 100 15:57 12.11.2019
4339 Clear 15 1020 51 16093 4.6 100 15:37 12.11.2019
4340 Clear 14 1021 51 16093 4.6 110 15:18 12.11.2019
4341 Clear 14 1019 47 16093 2.1 360 14:42 12.11.2019
4342 Clear 15 1019 47 16093 2.1 360 14:21 12.11.2019
4343 Clear 15 1019 51 16093 2.6 100 13:59 12.11.2019
4344 Clear 15 1019 54 16093 4.1 100 13:40 12.11.2019
4345 Clear 15 1020 59 16093 3.1 80 13:20 12.11.2019
4346 Clear 15 1019 50 16093 2.1 30 12:59 12.11.2019
4347 Clear 15 1018 47 16093 8.94 100 12:39 12.11.2019
4348 Clear 15 1019 59 16093 2.6 80 12:18 12.11.2019
4349 Clear 16 1018 48 16093 1.5 140 11:43 12.11.2019
4350 Clear 15 1019 67 16093 3.1 80 11:24 12.11.2019
4351 Clear 16 1018 48 16093 3.1 110 10:58 12.11.2019
4352 Clear 16 1018 47 16093 3.1 100 10:40 12.11.2019
4353 Clouds 15 1019 59 16093 1.5 120 10:21 12.11.2019
4354 Clear 15 1018 47 16093 4.01 99 09:59 12.11.2019
4355 Clear 16 1018 41 16093 7.4 102 09:38 12.11.2019
4356 Clouds 16 1019 59 16093 3.1 110 09:18 12.11.2019
4357 Clear 16 1018 41 16093 4.01 99 08:47 12.11.2019
4358 Clear 16 1018 41 16093 7.4 102 08:28 12.11.2019
4359 Clouds 16 1018 39 16093 1.02 306 07:42 12.11.2019
4360 Clouds 17 1018 39 16093 1.02 306 07:24 12.11.2019
4361 Clear 17 1018 38 16093 1.02 306 06:51 12.11.2019
4362 Clear 17 1018 38 16093 1.02 306 06:24 12.11.2019
4363 Clear 18 1017 36 16093 1.02 306 05:52 12.11.2019
4364 Clear 18 1017 36 16093 2.17 326 04:51 12.11.2019
4365 Clear 20 1018 30 16093 2.1 280 03:53 12.11.2019
4366 Clear 20 1018 30 16093 2.1 280 03:53 12.11.2019
4367 Clear 23 1015 25 16093 3.1 310 01:50 12.11.2019
4368 Clear 25 1016 31 16093 2.6 250 01:23 12.11.2019
4369 Clear 26 1015 19 16093 2.6 310 00:52 12.11.2019
4370 Clear 26 1015 19 16093 3.1 320 00:32 12.11.2019
4371 Clouds 27 1015 19 16093 1.5 10 23:48 11.11.2019
4372 Clouds 26 1015 19 16093 1.5 10 23:25 11.11.2019
4373 Clouds 26 1015 19 16093 1.5 10 23:25 11.11.2019
4374 Clouds 27 1015 19 16093 3.6 340 22:58 11.11.2019
4375 Clouds 26 1015 21 16093 3.6 310 22:38 11.11.2019
4376 Clouds 26 1016 31 16093 2.1 270 22:19 11.11.2019
4377 Clouds 26 1015 22 16093 2.6 170 21:57 11.11.2019
4378 Clouds 26 1015 22 16093 2.1 280 21:38 11.11.2019
4379 Clouds 25 1015 22 16093 2.1 280 21:19 11.11.2019
4380 Clear 25 1016 23 16093 1.5 170 20:44 11.11.2019
4381 Clear 25 1016 23 16093 1.5 170 20:21 11.11.2019
4382 Clouds 25 1017 25 16093 2.1 290 19:59 11.11.2019
4383 Clouds 25 1017 27 16093 2.1 240 19:41 11.11.2019
4384 Clear 24 1018 35 16093 0.69 179 19:19 11.11.2019
4385 Clear 24 1017 31 16093 0.69 179 18:56 11.11.2019
4386 Clear 23 1017 31 16093 1.5 190 18:38 11.11.2019
4387 Clear 23 1018 37 16093 0.69 179 18:19 11.11.2019
4388 Clear 22 1017 35 16093 0.69 179 17:42 11.11.2019
4389 Clouds 20 1018 45 16093 3.1 140 17:24 11.11.2019
4390 Clear 18 1017 45 16093 2.27 198 16:44 11.11.2019
4391 Clear 17 1017 45 16093 2.27 198 16:24 11.11.2019
4392 Clouds 16 1017 51 16093 2.1 120 15:59 11.11.2019
4393 Clouds 16 1016 42 16093 2.1 130 15:40 11.11.2019
4394 Clouds 16 1016 42 16093 2.1 130 15:20 11.11.2019
4395 Clouds 16 1016 45 16093 3.6 110 14:45 11.11.2019
4396 -273 0 0 0 0 0 14:25 11.11.2019
4397 Clouds 15 1016 48 16093 3.6 110 13:59 11.11.2019
4398 Clouds 15 1015 51 16093 3.1 110 13:38 11.11.2019
4399 Clouds 15 1015 51 16093 3.1 110 13:20 11.11.2019
4400 Clouds 15 1016 51 16093 0.88 207 12:58 11.11.2019
4401 Clouds 15 1015 48 16093 3.1 130 12:39 11.11.2019
4402 Clouds 15 1015 48 16093 3.1 130 12:21 11.11.2019
4403 Clear 15 1015 48 16093 2.1 90 11:43 11.11.2019
4404 Clear 16 1015 48 16093 2.1 90 11:22 11.11.2019
4405 Clear 16 1016 51 16093 3.1 100 10:59 11.11.2019
4406 Clear 16 1015 45 16093 2.1 100 10:41 11.11.2019
4407 Clear 16 1015 45 16093 2.1 100 10:18 11.11.2019
4408 Clouds 17 1015 42 16093 2.1 150 09:56 11.11.2019
4409 Clear 17 1015 42 16093 2.78 202 09:36 11.11.2019
4410 Clouds 17 1016 51 16093 2.1 110 09:18 11.11.2019
4411 Clear 18 1015 39 16093 1.5 190 08:39 11.11.2019
4412 Clear 18 1015 39 16093 1.5 190 08:20 11.11.2019
4413 Clouds 18 1015 37 16093 3.1 200 07:56 11.11.2019
4414 Clear 18 1015 37 16093 3.1 220 07:36 11.11.2019
4415 Clear 19 1016 42 16093 3.1 150 07:18 11.11.2019
4416 Clouds 19 1015 35 16093 3.1 230 06:41 11.11.2019
4417 Clouds 20 1015 35 16093 3.1 230 06:21 11.11.2019
4418 Clouds 20 1014 32 16093 2.1 230 05:50 11.11.2019
4419 Clear 22 1014 28 16093 2.1 260 04:29 11.11.2019
4420 Clouds 23 1014 27 16093 2.1 270 03:22 11.11.2019
4421 Clouds 24 1013 25 16093 1.5 340 02:20 11.11.2019
4422 Clouds 25 1013 24 16093 2.1 300 01:53 11.11.2019
4423 Clouds 25 1013 24 16093 2.1 320 01:33 11.11.2019
4424 Clear 26 1013 21 16093 3.1 320 00:47 11.11.2019
4425 Clouds 27 1013 21 16093 3.1 310 23:59 10.11.2019
4426 Clouds 28 1013 21 16093 3.6 330 23:39 10.11.2019
4427 Clouds 28 1013 21 16093 3.6 330 23:19 10.11.2019
4428 Clear 28 1013 23 16093 3.33 255 22:57 10.11.2019
4429 Clear 28 1013 23 16093 1.5 340 22:38 10.11.2019
4430 Clear 28 1013 23 16093 1.5 340 22:20 10.11.2019
4431 Clear 28 1014 23 16093 3.33 255 21:57 10.11.2019
4432 Clouds 28 1014 23 16093 3.33 255 21:38 10.11.2019
4433 Clouds 28 1014 23 16093 3.33 255 21:20 10.11.2019
4434 Clear 28 1015 27 16093 3.33 255 20:42 10.11.2019
4435 Clear 27 1015 27 16093 1.04 249 20:22 10.11.2019
4436 Clear 27 1015 27 16093 1.04 249 20:22 10.11.2019
4437 Clear 27 1015 27 16093 0.95 235 20:22 10.11.2019
4438 Clear 26 1016 29 16093 1.04 249 19:56 10.11.2019
4439 Clouds 26 1016 29 16093 1.04 249 19:38 10.11.2019
4440 Clouds 26 1016 29 16093 1.04 249 19:38 10.11.2019
4441 Clouds 26 1016 29 16093 1.04 249 19:38 10.11.2019
4442 Clouds 26 1016 29 16093 1.04 249 19:19 10.11.2019
4443 Clear 25 1018 36 16093 1.5 160 18:58 10.11.2019
4444 Clear 25 1018 36 16093 1.5 160 18:58 10.11.2019
4445 Clouds 25 1017 33 16093 1.04 249 18:58 10.11.2019
4446 Clouds 25 1017 35 16093 2.1 130 18:40 10.11.2019
4447 Clouds 25 1017 35 16093 2.1 130 18:40 10.11.2019
4448 Clouds 24 1017 35 16093 2.1 130 18:19 10.11.2019
4449 Clouds 23 1017 37 16093 3.1 110 17:57 10.11.2019
4450 Clouds 22 1017 42 16093 1.04 249 17:38 10.11.2019
4451 Clear 21 1018 46 16093 3.6 100 17:20 10.11.2019
4452 Clouds 20 1017 48 16093 3.6 120 16:58 10.11.2019
4453 Clouds 18 1017 48 16093 4.6 100 16:39 10.11.2019
4454 Clouds 17 1017 48 16093 4.6 100 16:21 10.11.2019
4455 Clouds 16 1016 55 16093 2.1 90 15:56 10.11.2019
4456 Clouds 16 1016 58 16093 1.25 167 15:36 10.11.2019
4457 Clouds 15 1016 58 16093 1.25 167 15:18 10.11.2019
4458 Clear 16 1016 55 16093 2.1 100 14:55 10.11.2019
4459 Clear 16 1016 55 16093 2.6 130 14:36 10.11.2019
4460 Clear 16 1016 55 16093 2.6 130 14:18 10.11.2019
4461 Clear 16 1017 58 16093 1.5 160 13:41 10.11.2019
4462 Clear 16 1016 51 16093 3.1 180 13:20 10.11.2019
4463 Clear 16 1015 51 16093 4.6 90 12:54 10.11.2019
4464 Clear 16 1016 51 16093 3.6 100 12:36 10.11.2019
4465 Clear 16 1016 51 16093 3.6 100 12:18 10.11.2019
4466 Clear 16 1016 48 16093 3.6 90 11:54 10.11.2019
4467 Clear 16 1016 51 16093 3.1 100 11:36 10.11.2019
4468 Clear 16 1017 59 16093 3.1 110 11:18 10.11.2019
4469 Clear 16 1016 48 16093 2.1 130 10:41 10.11.2019
4470 Clear 16 1016 48 16093 2.1 130 10:20 10.11.2019
4471 Clear 16 1016 45 16093 3.1 90 09:44 10.11.2019
4472 Clear 16 1016 45 16093 3.1 90 09:26 10.11.2019
4473 Clear 17 1017 55 16093 2.6 120 08:59 10.11.2019
4474 Clear 17 1016 48 16093 1.01 158 08:37 10.11.2019
4475 Clear 17 1016 48 16093 0.56 105 08:18 10.11.2019
4476 Clear 18 1016 45 16093 0.56 105 07:42 10.11.2019
4477 Clear 18 1016 45 16093 0.56 105 07:24 10.11.2019
4478 Clear 18 1016 42 16093 2.1 100 06:33 10.11.2019
4479 Clear 19 1016 42 16093 1.5 200 05:41 10.11.2019
4480 Clear 22 1016 35 16093 3.1 300 03:22 10.11.2019
4481 Clear 24 1015 27 16093 1.5 300 01:55 10.11.2019
4482 Clear 26 1016 29 16093 2.6 320 01:19 10.11.2019
4483 Clear 26 1016 29 16093 2.6 320 01:19 10.11.2019
4484 Clear 27 1015 24 16093 2.98 45 00:41 10.11.2019
4485 Clear 27 1015 26 16093 2.98 45 23:58 09.11.2019
4486 Clear 28 1015 24 16093 1.5 220 23:37 09.11.2019
4487 Clear 28 1016 32 16093 1.53 74 23:18 09.11.2019
4488 Clear 27 1015 26 16093 1.53 74 22:41 09.11.2019
4489 Clear 27 1015 26 16093 1.53 74 22:21 09.11.2019
4490 Clear 27 1017 30 16093 1.53 74 21:56 09.11.2019
4491 Clear 27 1017 30 16093 1.53 74 21:56 09.11.2019
4492 Clear 27 1016 26 16093 1.5 80 21:37 09.11.2019
4493 Clear 27 1017 32 16093 1.53 74 21:19 09.11.2019
4494 Clear 27 1016 26 16093 1.5 80 21:19 09.11.2019
4495 Clear 27 1017 26 16093 3.6 140 20:42 09.11.2019
4496 Clear 27 1017 26 16093 3.6 140 20:22 09.11.2019
4497 Clear 26 1018 27 16093 6.2 120 19:58 09.11.2019
4498 Clear 26 1018 31 16093 6.2 140 19:39 09.11.2019
4499 Clear 25 1018 31 16093 6.2 140 19:21 09.11.2019
4500 Clear 24 1018 31 16093 5.7 110 18:55 09.11.2019
4501 Clear 24 1018 31 16093 4.6 120 18:36 09.11.2019
4502 Clear 23 1020 43 16093 8.2 110 18:18 09.11.2019
4503 Clear 22 1019 40 16093 5.1 110 17:41 09.11.2019
4504 Clear 21 1019 40 16093 5.1 110 17:22 09.11.2019
4505 Clear 20 1018 42 16093 4.6 100 16:55 09.11.2019
4506 Clear 19 1018 45 16093 3.6 90 16:36 09.11.2019
4507 Clear 19 1018 45 16093 3.6 90 16:18 09.11.2019
4508 Clear 17 1018 51 16093 3.6 80 15:41 09.11.2019
4509 Clear 17 1018 51 16093 3.6 80 15:23 09.11.2019
4510 Clear 16 1018 48 16093 2.1 80 14:45 09.11.2019
4511 Clear 16 1018 48 16093 2.1 80 14:22 09.11.2019
4512 Clear 16 1019 55 16093 3.6 100 13:58 09.11.2019
4513 Clear 16 1019 55 16093 3.6 100 13:39 09.11.2019
4514 Clear 16 1019 59 16093 6.7 100 13:21 09.11.2019
4515 Clear 16 1018 47 16093 4.28 112 12:56 09.11.2019
4516 Clear 16 1018 47 16093 4.1 90 12:38 09.11.2019
4517 Clear 16 1019 59 16093 3.1 100 12:20 09.11.2019
4518 Clear 16 1018 44 16093 2.1 100 11:48 09.11.2019
4519 Clear 16 1019 51 16093 3.1 90 11:21 09.11.2019
4520 Clear 16 1018 47 16093 3.1 60 10:57 09.11.2019
4521 Clear 16 1018 50 16093 4.34 111 10:38 09.11.2019
4522 Clear 17 1019 48 16093 3.1 90 10:18 09.11.2019
4523 Clear 16 1018 39 16093 3.1 100 09:43 09.11.2019
4524 Clear 17 1020 51 16093 3.6 110 09:21 09.11.2019
4525 Clear 17 1018 44 16093 2.1 120 08:53 09.11.2019
4526 Clear 17 1019 44 16093 3.1 140 08:26 09.11.2019
4527 Clear 18 1019 44 16093 3.74 111 07:57 09.11.2019
4528 Clear 18 1019 44 16093 3.74 111 07:39 09.11.2019
4529 Clear 18 1019 44 16093 3.74 111 07:20 09.11.2019
4530 Clear 18 1019 39 16093 1.5 110 06:46 09.11.2019
4531 Clear 18 1019 39 16093 1.5 110 06:28 09.11.2019
4532 Clear 19 1019 36 16093 1.5 330 05:40 09.11.2019
4533 Clear 20 1018 32 16093 3.1 110 04:30 09.11.2019
4534 Clear 22 1018 28 16093 2.6 90 02:55 09.11.2019
4535 Clear 22 1018 27 16093 1.5 20 02:36 09.11.2019
4536 Clouds 24 1019 29 16093 7.2 40 01:18 09.11.2019
4537 Clear 25 1018 21 16093 3.6 150 00:43 09.11.2019
4538 Clear 25 1018 21 16093 3.6 150 00:25 09.11.2019
4539 Clear 26 1018 19 16093 4.6 140 23:41 08.11.2019
4540 Clear 25 1018 19 16093 4.6 140 23:22 08.11.2019
4541 Clear 26 1018 19 16093 4.1 120 22:59 08.11.2019
4542 Clear 26 1018 19 16093 3.6 150 22:40 08.11.2019
4543 Clear 25 1018 19 16093 3.6 150 22:21 08.11.2019
4544 Clear 25 1019 21 16093 3.6 150 21:42 08.11.2019
4545 Clear 25 1019 21 16093 3.6 150 21:24 08.11.2019
4546 Clear 25 1021 33 16093 7.2 80 20:59 08.11.2019
4547 Clear 25 1021 33 16093 7.2 80 20:40 08.11.2019
4548 Clear 25 1020 24 16093 2.6 190 20:20 08.11.2019
4549 Clear 24 1020 29 16093 1.5 60 19:55 08.11.2019
4550 Clear 24 1021 33 16093 2.1 70 19:37 08.11.2019
4551 Clouds 24 1022 35 16093 4.1 40 19:18 08.11.2019
4552 Clear 23 1021 31 16093 2.1 70 18:54 08.11.2019
4553 Clear 23 1021 31 16093 2.1 160 18:36 08.11.2019
4554 Clouds 22 1022 40 16093 8.06 94 18:18 08.11.2019
4555 Clear 21 1021 37 16093 8.06 94 17:54 08.11.2019
4556 Clear 21 1021 42 16093 1.5 360 17:36 08.11.2019
4557 Clear 20 1022 52 16093 2.1 120 17:18 08.11.2019
4558 Clear 19 1021 48 16093 5.39 97 16:57 08.11.2019
4559 Clear 18 1021 51 16093 5.39 97 16:38 08.11.2019
4560 Clear 18 1022 59 16093 2.6 100 16:18 08.11.2019
4561 Clear 17 1020 54 16093 2.1 160 15:42 08.11.2019
4562 Clear 16 1020 54 16093 2.1 160 15:23 08.11.2019
4563 Clear 16 1020 50 16093 1.5 60 14:58 08.11.2019
4564 Clear 16 1020 50 16093 1.5 60 14:58 08.11.2019
4565 Clear 16 1020 47 16093 1.5 60 14:39 08.11.2019
4566 Clear 16 1020 47 16093 1.5 60 14:39 08.11.2019
4567 Clear 15 1021 58 16093 3.6 120 14:20 08.11.2019
4568 Clear 15 1020 50 16093 4.01 105 13:59 08.11.2019
4569 Clear 15 1020 47 16093 4.01 105 13:41 08.11.2019
4570 Clear 15 1021 55 16093 4.1 110 13:22 08.11.2019
4571 Clear 15 1020 47 16093 2.6 120 12:48 08.11.2019
4572 Clear 15 1020 47 16093 2.6 120 12:29 08.11.2019
4573 Clear 14 1020 44 16093 2.6 100 11:59 08.11.2019
4574 Clear 14 1020 44 16093 2.6 100 11:59 08.11.2019
4575 Clear 15 1020 44 16093 3.6 120 11:41 08.11.2019
4576 Clear 15 1020 44 16093 3.6 120 11:21 08.11.2019
4577 Clear 15 1020 47 16093 4.08 109 10:58 08.11.2019
4578 Clear 15 1020 47 16093 4.08 109 10:40 08.11.2019
4579 Clear 16 1020 47 16093 4.08 109 10:21 08.11.2019
4580 Clear 16 1020 47 16093 4.08 109 10:21 08.11.2019
4581 Clear 15 1020 44 16093 2.6 100 09:58 08.11.2019
4582 Clear 15 1020 44 16093 3.6 110 09:37 08.11.2019
4583 Clear 15 1021 51 16093 2.1 100 09:19 08.11.2019
4584 Clear 16 1020 41 16093 3.1 170 08:45 08.11.2019
4585 Clear 16 1020 41 16093 3.1 170 08:21 08.11.2019
4586 Clear 17 1020 38 16093 1.5 170 07:44 08.11.2019
4587 Clear 17 1020 38 16093 1.5 170 07:23 08.11.2019
4588 Clear 17 1020 41 16093 2.6 160 06:56 08.11.2019
4589 Clear 18 1020 39 16093 2.1 220 06:37 08.11.2019
4590 Clear 18 1021 39 16093 2.6 100 06:19 08.11.2019
4591 Clear 19 1020 32 16093 1.24 89 05:26 08.11.2019
4592 Clear 21 1019 30 16093 1.5 340 04:28 08.11.2019
4593 Clear 22 1021 35 16093 2.6 290 03:42 08.11.2019
4594 Clear 22 1021 35 16093 2.6 290 03:42 08.11.2019
4595 Clear 24 1018 27 16093 3.6 310 02:55 08.11.2019
4596 Clear 26 1018 23 16093 2.6 280 01:53 08.11.2019
4597 Clear 26 1018 22 16093 3.1 280 01:33 08.11.2019
4598 Clear 27 1018 19 16093 2.6 300 00:40 08.11.2019
4599 Clear 27 1018 19 16093 2.6 300 00:20 08.11.2019
4600 Clear 27 1018 19 16093 1.5 330 23:46 07.11.2019
4601 Clear 27 1018 19 16093 1.5 330 23:27 07.11.2019
4602 Clear 27 1018 18 16093 1.5 230 22:57 07.11.2019
4603 Clear 27 1018 19 16093 1.5 300 22:37 07.11.2019
4604 Clear 27 1018 24 16093 1.5 40 22:19 07.11.2019
4605 Clear 27 1018 22 16093 1.5 260 21:39 07.11.2019
4606 Clear 27 1018 22 16093 1.5 260 21:21 07.11.2019
4607 Clear 26 1019 23 16093 1.5 210 20:59 07.11.2019
4608 Clear 26 1019 23 16093 3.49 38 20:40 07.11.2019
4609 Clear 25 1019 23 16093 2.53 74 20:21 07.11.2019
4610 Clear 25 1020 25 16093 1.5 160 19:58 07.11.2019
4611 Clear 24 1020 27 16093 2.53 74 19:39 07.11.2019
4612 Clear 24 1020 27 16093 2.53 74 19:20 07.11.2019
4613 Clear 24 1020 27 16093 2.53 74 19:20 07.11.2019
4614 Clear 23 1020 28 16093 2.53 74 18:57 07.11.2019
4615 Clear 23 1020 30 16093 2.53 74 18:38 07.11.2019
4616 Clear 22 1021 33 16093 2.6 120 18:19 07.11.2019
4617 Clear 21 1020 34 16093 1.5 150 17:55 07.11.2019
4618 Clear 20 1020 39 16093 3.6 130 17:37 07.11.2019
4619 Clear 19 1020 39 16093 3.6 130 17:19 07.11.2019
4620 Clear 18 1020 42 16093 3.6 110 16:54 07.11.2019
4621 Clear 16 1021 54 16093 3.1 160 16:36 07.11.2019
4622 Clear 15 1021 54 16093 3.1 160 16:18 07.11.2019
4623 Clear 13 1020 54 16093 2.6 130 15:40 07.11.2019
4624 Clear 13 1020 54 16093 2.6 130 15:20 07.11.2019
4625 Clear 13 1019 50 16093 2.6 110 14:56 07.11.2019
4626 Clear 13 1019 54 16093 4.6 120 14:37 07.11.2019
4627 Clear 12 1019 54 16093 4.6 120 14:19 07.11.2019
4628 Clear 12 1018 47 16093 3.1 130 13:54 07.11.2019
4629 Clear 13 1018 54 16093 3.6 140 13:36 07.11.2019
4630 Clear 13 1018 54 16093 3.6 140 13:18 07.11.2019
4631 Clear 13 1018 47 16093 3.1 110 12:55 07.11.2019
4632 Clear 13 1018 54 16093 2.6 160 12:36 07.11.2019
4633 Clear 13 1018 54 16093 2.6 160 12:36 07.11.2019
4634 Clear 13 1018 54 16093 2.6 160 12:18 07.11.2019
4635 Clear 13 1018 47 16093 2.1 110 11:41 07.11.2019
4636 Clear 14 1018 50 16093 2.6 160 11:22 07.11.2019
4637 Clear 13 1017 44 16093 1.5 80 10:42 07.11.2019
4638 Clear 14 1018 50 16093 3.1 150 10:19 07.11.2019
4639 Clear 14 1017 47 16093 2.6 90 09:45 07.11.2019
4640 Clear 14 1018 47 16093 4.1 170 09:26 07.11.2019
4641 Clear 14 1018 47 16093 4.1 170 09:24 07.11.2019
4642 Clear 14 1017 38 16093 1.5 90 08:58 07.11.2019
4643 Clear 15 1017 38 16093 1.5 90 08:39 07.11.2019
4644 Clear 16 1017 51 16093 3.6 150 08:21 07.11.2019
4645 Clear 16 1017 51 16093 3.6 150 08:20 07.11.2019
4646 Clear 16 1016 33 16093 1.66 228 07:42 07.11.2019
4647 -273 0 0 0 0 0 07:23 07.11.2019
4648 Clear 16 1017 42 16093 1.5 190 07:22 07.11.2019
4649 Clear 17 1016 33 16093 1.5 160 06:49 07.11.2019
4650 Clouds 17 1017 34 16093 3.1 250 06:29 07.11.2019
4651 Clear 18 1016 34 16093 1.66 228 05:58 07.11.2019
4652 Clouds 18 1016 32 16093 3.6 290 05:39 07.11.2019
4653 Clouds 19 1016 32 16093 3.6 290 05:21 07.11.2019
4654 Clear 20 1015 28 16093 4.32 273 04:42 07.11.2019
4655 Clouds 22 1014 28 16093 3.6 320 02:59 07.11.2019
4656 Clouds 22 1014 28 16093 3.6 320 02:58 07.11.2019
4657 Clouds 26 1013 28 16093 5.7 330 00:57 07.11.2019
4658 Clouds 27 1013 26 16093 4.1 290 00:21 07.11.2019
4659 Clouds 27 1013 26 16093 4.1 290 00:21 07.11.2019
4660 Clouds 27 1013 28 16093 4.1 330 23:48 06.11.2019
4661 Clouds 27 1013 30 16093 2.6 270 23:22 06.11.2019
4662 Clouds 27 1012 17 16093 4.1 310 22:57 06.11.2019
4663 Clear 27 1013 32 16093 3.6 270 22:38 06.11.2019
4664 Clear 28 1013 32 16093 3.6 270 22:19 06.11.2019
4665 Clear 28 1013 21 16093 2.6 250 21:42 06.11.2019
4666 Clear 27 1014 34 16093 1.5 30 21:22 06.11.2019
4667 Clear 27 1014 27 16093 5.18 223 20:59 06.11.2019
4668 Clear 27 1014 27 16093 5.18 223 20:41 06.11.2019
4669 Rain 26 1015 38 16093 2.91 184 20:22 06.11.2019
4670 Clear 25 1015 36 16093 2.76 205 19:59 06.11.2019
4671 Clouds 24 1016 41 16093 1.5 100 19:40 06.11.2019
4672 Clouds 24 1016 41 16093 1.5 100 19:21 06.11.2019
4673 Clouds 23 1015 38 16093 2.6 270 18:58 06.11.2019
4674 Clouds 23 1015 40 16093 2.1 270 18:39 06.11.2019
4675 Clouds 22 1016 53 16093 2.6 90 18:19 06.11.2019
4676 Clouds 21 1016 45 16093 2.1 220 17:57 06.11.2019
4677 Clouds 20 1015 45 16093 2.76 205 17:39 06.11.2019
4678 Clouds 19 1015 45 16093 1.63 124 17:21 06.11.2019
4679 Rain 18 1016 68 16093 4.1 80 16:55 06.11.2019
4680 Rain 17 1016 68 16093 4.1 80 16:37 06.11.2019
4681 Thunderstorm 17 1016 67 16093 4.6 70 16:18 06.11.2019
4682 Thunderstorm 17 1016 77 16093 7.2 60 15:54 06.11.2019
4683 Thunderstorm 17 1016 77 16093 7.2 60 15:36 06.11.2019
4684 Thunderstorm 16 1016 72 16093 1.5 340 15:18 06.11.2019
4685 Thunderstorm 17 1017 63 8047 3.1 260 14:55 06.11.2019
4686 Thunderstorm 18 1016 52 16093 4.6 270 14:37 06.11.2019
4687 Thunderstorm 18 1016 52 16093 4.6 270 14:37 06.11.2019
4688 Rain 18 1014 48 16093 3.6 210 14:19 06.11.2019
4689 Rain 18 1014 42 16093 1.5 20 13:40 06.11.2019
4690 Rain 18 1014 42 16093 1.5 20 13:40 06.11.2019
4691 Clear 18 1014 39 16093 1.6 112 13:22 06.11.2019
4692 Clouds 18 1014 42 16093 2.1 150 12:58 06.11.2019
4693 Clouds 18 1014 42 16093 2.6 110 12:39 06.11.2019
4694 Clouds 18 1014 42 16093 2.6 110 12:39 06.11.2019
4695 Clouds 18 1014 42 16093 2.6 110 12:21 06.11.2019
4696 Clear 18 1014 42 16093 2.1 80 11:58 06.11.2019
4697 Clouds 18 1016 48 16093 4.6 170 11:37 06.11.2019
4698 Clouds 18 1016 48 16093 4.6 170 11:18 06.11.2019
4699 Clouds 18 1016 48 16093 4.6 170 11:18 06.11.2019
4700 Clear 18 1014 39 16093 1.5 160 10:56 06.11.2019
4701 Clear 18 1014 37 16093 2.6 120 10:38 06.11.2019
4702 Clear 18 1014 37 16093 2.6 120 10:19 06.11.2019
4703 Clear 18 1015 34 16093 2.6 110 09:44 06.11.2019
4704 Clear 17 1015 34 16093 2.6 110 09:23 06.11.2019
4705 Clear 17 1015 31 16093 1.5 70 08:59 06.11.2019
4706 Clear 17 1015 31 16093 2.1 120 08:38 06.11.2019
4707 Clear 18 1015 31 16093 2.1 120 08:20 06.11.2019
4708 Clear 18 1015 29 16093 2.1 150 07:57 06.11.2019
4709 Clear 18 1015 32 16093 1.25 262 07:39 06.11.2019
4710 Clear 19 1016 45 16093 3.1 180 07:19 06.11.2019
4711 Clear 19 1015 32 16093 2.1 240 06:44 06.11.2019
4712 Clouds 19 1016 42 16093 3.1 170 06:23 06.11.2019
4713 Clear 21 1016 29 16093 1.5 270 04:18 06.11.2019
4714 Drizzle 25 1015 29 16093 2.1 250 02:20 06.11.2019
4715 Clouds 27 1014 18 16093 4.1 310 01:31 06.11.2019
4716 Clear 29 1014 18 16093 2.6 280 00:35 06.11.2019
4717 Clear 29 1014 18 16093 2.6 280 00:35 06.11.2019
4718 Clear 29 1014 16 16093 2.6 240 23:57 05.11.2019
4719 Clear 29 1014 16 16093 1.5 270 23:38 05.11.2019
4720 Clear 30 1015 23 16093 2.1 20 23:19 05.11.2019
4721 Clear 30 1015 16 16093 2.87 291 22:43 05.11.2019
4722 Clear 30 1015 16 16093 2.87 291 22:19 05.11.2019
4723 Clear 30 1015 16 16093 2.1 270 21:58 05.11.2019
4724 Clear 30 1015 17 16093 1.5 50 21:40 05.11.2019
4725 Clear 30 1015 17 16093 1.5 50 21:20 05.11.2019
4726 Clear 30 1016 17 16093 2.87 291 20:57 05.11.2019
4727 Clear 30 1016 20 16093 2.87 291 20:38 05.11.2019
4728 Clear 29 1016 20 16093 0.42 119 20:20 05.11.2019
4729 Clouds 28 1017 24 16093 1.27 53 19:55 05.11.2019
4730 Clouds 28 1017 25 16093 1.27 53 19:37 05.11.2019
4731 Clear 27 1019 28 16093 1.27 53 19:19 05.11.2019
4732 Clear 27 1019 33 16093 1.27 53 18:56 05.11.2019
4733 Clear 26 1018 28 16093 1.27 53 18:38 05.11.2019
4734 Clear 25 1019 33 16093 1.27 53 18:19 05.11.2019
4735 Clear 25 1019 33 16093 1.27 53 18:19 05.11.2019
4736 Clear 24 1018 30 16093 2.6 130 17:55 05.11.2019
4737 Clouds 23 1018 32 16093 3.6 130 17:37 05.11.2019
4738 Clear 22 1019 37 16093 3.6 130 17:18 05.11.2019
4739 Clouds 19 1018 36 16093 3.6 120 16:41 05.11.2019
4740 Clouds 18 1018 36 16093 3.6 120 16:20 05.11.2019
4741 Clear 15 1018 41 16093 3.1 120 15:55 05.11.2019
4742 Clear 14 1018 38 16093 4.6 110 15:36 05.11.2019
4743 Clouds 14 1019 48 16093 3.6 130 15:18 05.11.2019
4744 Clouds 14 1017 36 16093 5.7 100 14:54 05.11.2019
4745 Clouds 14 1017 38 16093 5.7 100 14:36 05.11.2019
4746 Clear 14 1018 50 16093 4.1 110 14:18 05.11.2019
4747 Clouds 13 1018 47 16093 2.6 120 13:42 05.11.2019
4748 Clouds 14 1017 43 16093 2.1 130 13:24 05.11.2019
4749 Clear 13 1018 44 16093 1.5 120 12:41 05.11.2019
4750 Clear 14 1018 44 16093 1.5 120 12:22 05.11.2019
4751 Clear 13 1017 31 16093 4.1 110 11:58 05.11.2019
4752 Clear 14 1017 31 16093 3.1 90 11:39 05.11.2019
4753 Clear 14 1017 31 16093 3.1 90 11:20 05.11.2019
4754 Clear 14 1017 30 16093 2.1 130 10:55 05.11.2019
4755 Clear 14 1017 30 16093 2.6 120 10:37 05.11.2019
4756 Clouds 15 1018 41 16093 3.1 120 10:18 05.11.2019
4757 Clear 14 1017 33 16093 2.1 120 09:54 05.11.2019
4758 Clear 14 1017 33 16093 1.02 216 09:36 05.11.2019
4759 Clouds 14 1018 41 16093 2.6 130 09:18 05.11.2019
4760 Clear 15 1017 28 16093 3.6 70 08:38 05.11.2019
4761 Clear 15 1018 36 16093 2.1 110 08:19 05.11.2019
4762 Clear 16 1017 26 16093 2.1 120 07:55 05.11.2019
4763 Clear 16 1017 26 16093 2.1 140 07:36 05.11.2019
4764 Clear 16 1018 36 16093 3.6 130 07:18 05.11.2019
4765 Clear 17 1016 26 16093 1.5 80 06:40 05.11.2019
4766 Clear 18 1016 23 16093 2.08 208 05:51 05.11.2019
4767 Clear 19 1017 25 16093 3.1 220 05:21 05.11.2019
4768 Clouds 20 1015 20 16093 2.6 280 04:23 05.11.2019
4769 Clouds 22 1015 19 16093 3.1 310 03:32 05.11.2019
4770 Clouds 23 1014 17 16093 3.1 300 02:43 05.11.2019
4771 Clear 25 1013 13 16093 2.1 310 01:57 05.11.2019
4772 Clear 28 1013 12 16093 3.1 330 00:48 05.11.2019
4773 Clear 28 1013 12 16093 3.1 330 00:27 05.11.2019
4774 Clear 29 1013 12 16093 2.6 290 23:43 04.11.2019
4775 Clear 29 1014 23 16093 1.94 230 23:19 04.11.2019
4776 Clear 29 1013 12 16093 2.1 300 22:58 04.11.2019
4777 Clear 29 1013 12 16093 1.94 230 22:40 04.11.2019
4778 Clear 29 1013 12 16093 1.94 230 22:20 04.11.2019
4779 Clear 29 1014 12 16093 1.5 200 21:55 04.11.2019
4780 Clear 29 1014 12 16093 1.94 230 21:37 04.11.2019
4781 Clear 29 1015 20 16093 1.5 340 21:18 04.11.2019
4782 Clear 29 1015 13 16093 1.5 270 20:56 04.11.2019
4783 Clear 28 1015 13 16093 1.5 310 20:37 04.11.2019
4784 Clear 27 1016 23 16093 0.3 125 20:19 04.11.2019
4785 Clear 27 1016 16 16093 0.3 125 19:56 04.11.2019
4786 Clear 26 1016 17 16093 1.5 290 19:38 04.11.2019
4787 Clear 25 1016 17 16093 1.5 290 19:20 04.11.2019
4788 Clear 24 1017 21 16093 4.1 120 18:42 04.11.2019
4789 Clear 23 1017 23 16093 2.6 110 18:23 04.11.2019
4790 Clear 22 1017 25 16093 2.6 120 17:59 04.11.2019
4791 Clear 21 1017 27 16093 4.6 120 17:37 04.11.2019
4792 Clear 20 1018 24 16093 3.1 100 17:19 04.11.2019
4793 Clear 18 1017 30 16093 5.1 110 16:44 04.11.2019
4794 Clear 16 1017 30 16093 5.1 110 16:25 04.11.2019
4795 Clear 14 1016 37 16093 4.6 100 15:59 04.11.2019
4796 Clear 13 1016 37 16093 2.1 130 15:41 04.11.2019
4797 Clear 12 1016 37 16093 2.1 130 15:21 04.11.2019
4798 Clear 12 1016 37 16093 2.6 120 14:58 04.11.2019
4799 Clear 12 1016 35 16093 3.1 100 14:40 04.11.2019
4800 Clear 11 1016 33 16093 4.6 120 14:20 04.11.2019
4801 Clear 11 1016 35 16093 3.6 100 13:58 04.11.2019
4802 Clear 12 1016 35 16093 2.6 120 13:39 04.11.2019
4803 Clear 12 1016 35 16093 2.6 120 13:21 04.11.2019
4804 Clear 11 1015 32 16093 2.1 130 12:55 04.11.2019
4805 Clear 12 1015 32 16093 1.5 100 12:37 04.11.2019
4806 Clear 12 1016 40 16093 2.6 110 12:18 04.11.2019
4807 Clear 12 1015 30 16093 3.6 100 11:42 04.11.2019
4808 Clear 12 1015 30 16093 3.6 100 11:23 04.11.2019
4809 Clear 12 1015 30 16093 3.6 100 11:23 04.11.2019
4810 Clear 13 1015 28 16093 2.1 90 10:58 04.11.2019
4811 Clear 13 1016 26 16093 0.82 238 10:39 04.11.2019
4812 Clear 13 1016 37 16093 2.1 100 10:20 04.11.2019
4813 Clear 13 1015 28 16093 3.6 120 09:45 04.11.2019
4814 Clear 13 1015 28 16093 3.6 120 09:27 04.11.2019
4815 Clear 14 1015 28 16093 3.6 70 08:56 04.11.2019
4816 Clear 14 1015 28 16093 2.6 70 08:37 04.11.2019
4817 Clear 14 1016 33 16093 4.6 120 08:18 04.11.2019
4818 Clear 15 1015 24 16093 1.5 130 07:42 04.11.2019
4819 Clear 15 1015 24 16093 1.5 130 07:20 04.11.2019
4820 Clear 14 1015 20 16093 2.1 200 06:49 04.11.2019
4821 Clear 15 1015 20 16093 2.1 200 06:49 04.11.2019
4822 Clear 15 1015 20 16093 2.1 200 06:49 04.11.2019
4823 Clear 15 1016 28 16093 3.6 120 06:18 04.11.2019
4824 Clear 16 1015 20 16093 1.84 216 05:38 04.11.2019
4825 Clear 18 1014 20 16093 2.6 200 04:41 04.11.2019
4826 Clear 19 1014 14 16093 2.71 222 03:48 04.11.2019
4827 Clear 24 1013 10 16093 1.5 330 01:45 04.11.2019
4828 Clear 26 1013 10 16093 1.5 330 01:19 04.11.2019
4829 Clear 28 1014 9 16093 2.6 350 00:39 04.11.2019
4830 Clear 28 1015 13 16093 3.6 300 00:19 04.11.2019
4831 Clear 29 1014 10 16093 1.5 270 23:40 03.11.2019
4832 Clear 29 1015 14 16093 1.5 320 23:20 03.11.2019
4833 Clear 29 1014 10 16093 2.1 280 22:57 03.11.2019
4834 Clear 29 1014 10 16093 2.6 300 22:39 03.11.2019
4835 Clear 29 1015 14 16093 2.1 250 22:19 03.11.2019
4836 Clear 28 1016 13 16093 2.6 310 21:43 03.11.2019
4837 Clear 28 1015 10 16093 3.57 241 21:22 03.11.2019
4838 Clear 28 1015 10 16093 3.57 241 21:22 03.11.2019
4839 Clear 28 1016 11 16093 3.57 241 20:59 03.11.2019
4840 Clear 28 1016 11 16093 2.1 230 20:38 03.11.2019
4841 Clear 27 1016 11 16093 2.1 230 20:19 03.11.2019
4842 Clear 26 1017 14 16093 1.48 110 19:57 03.11.2019
4843 Clear 25 1017 13 16093 1.5 140 19:39 03.11.2019
4844 Clear 25 1017 13 16093 1.5 140 19:20 03.11.2019
4845 Clear 24 1017 13 16093 2.6 120 18:58 03.11.2019
4846 Clear 23 1017 15 16093 4.6 110 18:37 03.11.2019
4847 Clear 22 1018 18 16093 4.1 110 18:18 03.11.2019
4848 Clear 21 1017 17 16093 6.7 120 17:43 03.11.2019
4849 Clear 19 1017 17 16093 6.7 120 17:23 03.11.2019
4850 Clear 19 1017 17 16093 6.7 120 17:23 03.11.2019
4851 Clear 18 1017 20 16093 6.2 110 17:00 03.11.2019
4852 Clear 17 1017 19 16093 4.6 110 16:41 03.11.2019
4853 Clear 16 1017 19 16093 4.6 110 16:22 03.11.2019
4854 Clear 14 1017 19 16093 4.1 100 15:58 03.11.2019
4855 Clear 14 1017 21 16093 3.6 110 15:40 03.11.2019
4856 Clear 13 1017 21 16093 3.6 110 15:22 03.11.2019
4857 Clouds 13 1016 21 16093 3.1 120 14:55 03.11.2019
4858 Clouds 13 1016 22 16093 2.6 130 14:37 03.11.2019
4859 Clear 13 1017 24 16093 4.1 140 14:18 03.11.2019
4860 Clear 13 1016 26 16093 2.1 160 13:42 03.11.2019
4861 Clear 13 1017 24 16093 5.1 130 13:19 03.11.2019
4862 Clear 13 1017 24 16093 5.1 130 13:19 03.11.2019
4863 Clear 14 1016 22 16093 1.5 130 12:57 03.11.2019
4864 Clear 13 1016 21 16093 1.5 100 12:36 03.11.2019
4865 Clear 13 1017 23 16093 4.6 120 12:18 03.11.2019
4866 Clear 13 1016 17 16093 4.6 100 11:42 03.11.2019
4867 Clear 14 1016 17 16093 4.6 100 11:22 03.11.2019
4868 Clear 15 1016 18 16093 4.1 100 10:55 03.11.2019
4869 Clear 15 1016 17 16093 2.1 110 10:37 03.11.2019
4870 Clear 15 1018 18 16093 7.2 110 10:19 03.11.2019
4871 Clear 15 1017 16 16093 1.5 130 09:43 03.11.2019
4872 Clear 15 1017 16 16093 1.5 130 09:25 03.11.2019
4873 Clear 16 1017 15 16093 2.6 120 08:56 03.11.2019
4874 Clear 16 1017 15 16093 2.58 124 08:37 03.11.2019
4875 Clouds 16 1018 15 16093 5.7 100 08:19 03.11.2019
4876 Clear 17 1017 15 16093 3.1 110 07:45 03.11.2019
4877 Clear 17 1017 15 16093 3.1 110 07:22 03.11.2019
4878 Clear 17 1017 14 16093 3.1 90 06:39 03.11.2019
4879 Clear 18 1017 14 16093 3.1 110 05:55 03.11.2019
4880 Clear 18 1017 15 16093 2.6 120 05:37 03.11.2019
4881 Clear 20 1016 15 16093 1.5 120 04:55 03.11.2019
4882 Clear 20 1016 14 16093 2.1 150 04:26 03.11.2019
4883 Clear 22 1016 13 16093 1.5 190 03:23 03.11.2019
4884 Clear 24 1016 11 16093 2.6 330 02:23 03.11.2019
4885 Clear 25 1015 10 16093 3.1 310 01:55 03.11.2019
4886 Clear 26 1015 9 16093 3.6 310 01:36 03.11.2019
4887 Clear 27 1017 9 16093 4.6 110 01:18 03.11.2019
4888 Clear 27 1016 7 16093 5.1 320 00:38 03.11.2019
4889 Clear 29 1017 8 16093 3.1 120 00:20 03.11.2019
4890 Clear 29 1016 8 16093 3.6 320 23:55 02.11.2019
4891 Clear 29 1016 7 16093 5.1 300 23:36 02.11.2019
4892 Clear 29 1017 9 16093 2.6 130 23:18 02.11.2019
4893 Clear 29 1016 8 16093 3.6 320 22:54 02.11.2019
4894 Clear 30 1016 8 16093 6.98 89 22:36 02.11.2019
4895 Clear 30 1018 9 16093 2.1 120 22:18 02.11.2019
4896 Clear 30 1017 8 16093 3.1 230 21:55 02.11.2019
4897 Clear 30 1017 8 16093 6.98 89 21:36 02.11.2019
4898 Clear 30 1019 9 16093 4.1 110 21:18 02.11.2019
4899 Clear 30 1019 9 16093 4.1 110 21:18 02.11.2019
4900 Clear 29 1018 8 16093 3.1 100 20:42 02.11.2019
4901 Clear 28 1018 8 16093 3.1 100 20:22 02.11.2019
4902 Clear 28 1019 9 16093 3.6 90 19:59 02.11.2019
4903 Clear 27 1020 10 16093 2.6 100 19:38 02.11.2019
4904 Clouds 27 1021 10 16093 7.7 100 19:19 02.11.2019
4905 Clear 26 1020 11 16093 2.1 100 18:54 02.11.2019
4906 Clear 25 1021 11 16093 3.6 110 18:36 02.11.2019
4907 Clear 24 1021 11 16093 4.6 80 18:18 02.11.2019
4908 Clear 23 1021 14 16093 4.1 120 17:55 02.11.2019
4909 Clear 21 1021 15 16093 5.7 110 17:36 02.11.2019
4910 Clear 18 1022 19 16093 3.1 130 17:18 02.11.2019
4911 Clear 17 1021 17 16093 7.2 90 16:40 02.11.2019
4912 Clear 16 1021 17 16093 7.2 90 16:20 02.11.2019
4913 Clear 14 1020 22 16093 2.6 120 15:44 02.11.2019
4914 Clear 13 1021 21 16093 2.78 113 15:22 02.11.2019
4915 Clear 13 1022 37 16093 2.1 90 14:58 02.11.2019
4916 Clear 13 1022 37 16093 2.1 90 14:40 02.11.2019
4917 Clear 12 1020 24 16093 2.6 100 14:21 02.11.2019
4918 Clear 12 1021 39 16093 2.1 120 13:54 02.11.2019
4919 Clear 12 1020 25 16093 5.1 110 13:36 02.11.2019
4920 Clear 12 1021 26 14484 3.6 110 13:18 02.11.2019
4921 Clear 12 1020 24 16093 3.1 130 12:40 02.11.2019
4922 Clear 12 1020 24 16093 3.1 130 12:21 02.11.2019
4923 Clear 12 1020 23 16093 3.1 130 11:55 02.11.2019
4924 Clear 12 1020 22 16093 2.1 130 11:36 02.11.2019
4925 Clear 11 1021 29 16093 3.1 130 11:18 02.11.2019
4926 Clear 11 1021 25 16093 1.5 160 10:42 02.11.2019
4927 Clear 11 1021 25 16093 1.5 160 10:23 02.11.2019
4928 Clear 12 1021 22 16093 3.6 110 09:43 02.11.2019
4929 Clear 12 1021 22 16093 3.6 110 09:22 02.11.2019
4930 Clear 12 1021 23 16093 3.1 100 08:57 02.11.2019
4931 Clear 12 1021 23 16093 3.1 100 08:57 02.11.2019
4932 Clear 12 1021 20 16093 0.27 133 08:37 02.11.2019
4933 Clear 13 1021 25 16093 3.6 110 08:18 02.11.2019
4934 Clear 13 1021 20 16093 2.6 110 07:44 02.11.2019
4935 Clear 14 1021 20 16093 2.6 110 07:25 02.11.2019
4936 Clear 13 1020 19 16093 2.1 190 06:52 02.11.2019
4937 Clear 14 1020 17 16093 1.5 220 06:24 02.11.2019
4938 Clear 14 1020 16 16093 0.61 351 05:44 02.11.2019
4939 Clear 16 1020 14 16093 3.1 290 04:26 02.11.2019
4940 Clear 17 1019 15 16093 3.1 330 03:52 02.11.2019
4941 Clear 17 1019 14 16093 3.1 320 03:31 02.11.2019
4942 Clear 17 1019 14 16093 3.1 320 03:31 02.11.2019
4943 Clear 20 1019 12 16093 3.1 300 02:31 02.11.2019
4944 Clear 23 1019 9 16093 2.6 310 01:36 02.11.2019
4945 Clear 25 1019 9 16093 4.1 310 01:18 02.11.2019
4946 Clear 26 1018 8 16093 3.6 310 00:42 02.11.2019
4947 Clear 27 1018 8 16093 3.6 310 00:21 02.11.2019
4948 Clear 27 1018 8 16093 3.1 340 23:42 01.11.2019
4949 Clear 27 1018 8 16093 3.1 340 23:42 01.11.2019
4950 Clear 27 1019 9 16093 4.1 250 23:20 01.11.2019
4951 Clear 27 1019 10 16093 3.6 280 22:42 01.11.2019
4952 Clear 27 1018 9 16093 3.6 290 22:21 01.11.2019
4953 Clear 27 1019 9 16093 2.1 360 21:55 01.11.2019
4954 Clear 27 1019 9 16093 2.6 350 21:36 01.11.2019
4955 Clear 27 1019 11 16093 2.1 360 21:18 01.11.2019
4956 Clear 26 1020 8 16093 2.16 21 20:42 01.11.2019
4957 Clear 25 1020 11 16093 2.73 83 20:23 01.11.2019
4958 Clear 24 1020 10 16093 2.1 80 19:59 01.11.2019
4959 Clear 24 1021 9 16093 3.1 50 19:41 01.11.2019
4960 Clear 23 1021 9 16093 3.1 50 19:21 01.11.2019
4961 Clear 21 1021 12 16093 4.6 110 18:41 01.11.2019
4962 Clear 20 1021 12 16093 4.6 110 18:21 01.11.2019
4963 Clear 19 1021 12 16093 4.6 130 17:59 01.11.2019
4964 Clear 18 1021 12 16093 4.6 100 17:41 01.11.2019
4965 Clear 17 1021 12 16093 4.6 100 17:23 01.11.2019
4966 Clear 14 1021 17 16093 4.6 130 16:40 01.11.2019
4967 Clear 13 1021 19 16093 2.09 105 16:20 01.11.2019
4968 Clear 12 1021 18 16093 6.2 120 15:58 01.11.2019
4969 Clear 10 1021 18 16093 6.2 120 15:40 01.11.2019
4970 Clear 9 1020 30 16093 2.09 105 15:22 01.11.2019
4971 Clear 8 1020 30 16093 2.09 105 14:44 01.11.2019
4972 Clear 9 1020 30 16093 2.09 105 14:25 01.11.2019
4973 Clear 10 1020 16 16093 4.6 110 13:59 01.11.2019
4974 Clear 9 1020 24 16093 2.33 105 13:40 01.11.2019
4975 Clear 9 1020 24 16093 2.29 102 13:21 01.11.2019
4976 Clear 9 1020 24 16093 2.29 102 13:21 01.11.2019
4977 Clear 9 1020 24 16093 2.29 102 12:55 01.11.2019
4978 Clear 9 1020 24 16093 2.29 102 12:55 01.11.2019
4979 Clear 9 1019 20 16093 2.29 102 12:37 01.11.2019
4980 Clear 9 1020 15 16093 5.1 100 12:19 01.11.2019
4981 Clear 10 1019 18 16093 3.1 110 11:41 01.11.2019
4982 Clear 10 1019 18 16093 3.1 110 11:23 01.11.2019
4983 Clear 10 1019 16 16093 2.66 102 10:44 01.11.2019
4984 Clear 10 1019 16 16093 2.66 102 10:25 01.11.2019
4985 Clear 10 1020 16 16093 2.6 110 09:59 01.11.2019
4986 Clear 10 1020 16 16093 2.66 102 09:41 01.11.2019
4987 Clear 10 1020 16 16093 2.66 102 09:21 01.11.2019
4988 Clear 11 1020 14 16093 2.6 100 08:46 01.11.2019
4989 Clear 11 1020 14 16093 5.7 90 08:23 01.11.2019
4990 Clear 11 1020 13 16093 2.88 109 07:58 01.11.2019
4991 Clear 11 1019 12 16093 2.6 100 07:40 01.11.2019
4992 Clear 12 1019 12 16093 2.6 100 07:21 01.11.2019
4993 Clear 12 1019 12 16093 2.6 170 06:49 01.11.2019
4994 Clear 12 1019 12 16093 2.6 170 06:22 01.11.2019
4995 Clear 13 1019 11 16093 3.6 170 05:44 01.11.2019
4996 Clear 15 1019 14 16093 2.1 210 04:29 01.11.2019
4997 Clear 16 1019 8 16093 3.66 104 03:26 01.11.2019
4998 Clear 20 1018 6 16093 3.1 320 01:43 01.11.2019
4999 Clear 22 1018 8 16093 2.1 10 00:43 01.11.2019
5000 Clear 23 1018 7 16093 4.6 30 00:19 01.11.2019
5001 Clear 24 1018 8 16093 3.1 140 23:44 31.10.2019
5002 Clear 24 1018 8 16093 3.1 140 23:44 31.10.2019
5003 Clear 24 1019 10 16093 1.5 30 23:23 31.10.2019
5004 Clear 24 1018 7 16093 2.6 100 22:57 31.10.2019
5005 Clear 24 1018 7 16093 2.1 100 22:39 31.10.2019
5006 Clear 23 1018 7 16093 2.1 100 22:21 31.10.2019
5007 Clear 23 1019 5 16093 2.1 60 21:44 31.10.2019
5008 Clear 23 1019 5 16093 2.1 60 21:21 31.10.2019
5009 Clear 23 1020 5 16093 3.1 20 20:57 31.10.2019
5010 Clear 22 1020 5 16093 3.1 20 20:39 31.10.2019
5011 Clear 21 1020 5 16093 3.1 20 20:21 31.10.2019
5012 Clear 20 1022 5 16093 2.6 40 19:42 31.10.2019
5013 Clear 20 1022 5 16093 2.6 40 19:22 31.10.2019
5014 Clear 20 1022 5 16093 2.1 340 18:58 31.10.2019
5015 Clear 19 1022 6 16093 2.1 10 18:39 31.10.2019
5016 Clear 19 1022 6 16093 2.1 10 18:20 31.10.2019
5017 Clear 17 1023 8 16093 2.1 70 17:42 31.10.2019
5018 Clear 15 1023 5 16093 5.1 60 17:22 31.10.2019
5019 Clear 14 1023 6 16093 2.6 120 16:59 31.10.2019
5020 Clear 13 1023 6 16093 2.6 120 16:40 31.10.2019
5021 Clear 11 1023 14 16093 6.44 109 16:20 31.10.2019
5022 Clear 10 1023 9 16093 5.1 90 15:56 31.10.2019
5023 Clear 9 1023 17 16093 6.44 109 15:38 31.10.2019
5024 Clear 8 1023 9 16093 5.1 90 15:19 31.10.2019
5025 Clear 8 1023 9 16093 5.1 90 15:19 31.10.2019
5026 Clear 7 1022 16 16093 4.1 110 14:56 31.10.2019
5027 Clear 7 1022 22 16093 6.44 109 14:37 31.10.2019
5028 Clear 5 1022 9 16093 4.1 110 14:19 31.10.2019
5029 Clear 5 1022 20 16093 5.14 110 13:54 31.10.2019
5030 Clear 5 1022 16 16093 5.12 110 13:36 31.10.2019
5031 Clear 5 1022 9 16093 4.6 120 13:18 31.10.2019
5032 Clear 5 1022 12 16093 5.12 110 12:43 31.10.2019
5033 Clear 5 1022 12 16093 5.12 110 12:23 31.10.2019
5034 Clear 5 1022 16 16093 5.12 110 11:55 31.10.2019
5035 Clear 5 1022 15 16093 5.12 110 11:36 31.10.2019
5036 Clear 5 1022 15 16093 4.83 110 11:18 31.10.2019
5037 Clear 5 1022 21 16093 4.83 110 10:40 31.10.2019
5038 Clear 5 1022 21 16093 4.83 110 10:22 31.10.2019
5039 Clear 5 1022 25 16093 4.83 110 09:59 31.10.2019
5040 Clear 6 1022 23 16093 4.83 110 09:39 31.10.2019
5041 Clear 5 1023 15 16093 4.83 110 09:18 31.10.2019
5042 Clear 5 1023 15 16093 4.83 110 09:18 31.10.2019
5043 Clear 5 1022 21 16093 4.83 110 08:48 31.10.2019
5044 Clear 6 1022 21 16093 4.83 110 08:29 31.10.2019
5045 Clear 6 1022 14 16093 2.18 89 07:54 31.10.2019
5046 Clear 6 1022 12 16093 2.18 89 07:36 31.10.2019
5047 Clear 7 1022 15 16093 2.6 130 07:18 31.10.2019
5048 Clear 7 1022 17 16093 2.18 89 06:38 31.10.2019
5049 Clear 8 1022 14 16093 2.6 120 06:18 31.10.2019
5050 Clear 8 1022 14 16093 2.6 120 06:18 31.10.2019
5051 Clear 11 1021 9 16093 4.1 310 03:30 31.10.2019
5052 Clear 13 1020 7 16093 4.6 300 02:38 31.10.2019
5053 Clear 16 1020 4 16093 5.1 310 01:50 31.10.2019
5054 Clear 19 1019 2 16093 7.2 320 00:36 31.10.2019
5055 Clear 20 1019 2 16093 5.1 310 23:56 30.10.2019
5056 Clear 20 1019 2 16093 4.6 320 23:28 30.10.2019
5057 Clear 20 1019 2 16093 4.1 360 22:43 30.10.2019
5058 Clear 20 1019 2 16093 4.1 360 22:21 30.10.2019
5059 Clear 20 1019 3 16093 2.1 20 21:55 30.10.2019
5060 Clear 19 1019 5 16093 2.1 160 21:37 30.10.2019
5061 Clear 19 1020 11 16093 3.54 31 21:18 30.10.2019
5062 Clear 19 1020 7 16093 1.5 220 20:58 30.10.2019
5063 Clear 19 1020 7 16093 3.54 31 20:40 30.10.2019
5064 Clear 18 1020 7 16093 3.09 58 20:22 30.10.2019
5065 Clear 17 1021 10 16093 1.5 250 19:57 30.10.2019
5066 Clear 17 1021 10 16093 1.5 250 19:57 30.10.2019
5067 Clear 17 1021 12 16093 3.09 58 19:38 30.10.2019
5068 Clear 17 1021 12 16093 3.09 58 19:19 30.10.2019
5069 Clear 15 1021 13 16093 1.5 220 18:39 30.10.2019
5070 Clear 15 1021 13 16093 1.5 220 18:39 30.10.2019
5071 Clear 15 1021 13 16093 1.5 220 18:20 30.10.2019
5072 Clear 14 1021 18 16093 3.09 58 17:59 30.10.2019
5073 Clear 13 1021 20 16093 3.09 58 17:41 30.10.2019
5074 Clear 12 1021 27 16093 1.5 290 17:19 30.10.2019
5075 Clear 12 1021 27 16093 1.5 290 17:19 30.10.2019
5076 Clear 11 1021 21 16093 1.5 240 16:55 30.10.2019
5077 Clear 10 1021 23 16093 2.1 240 16:37 30.10.2019
5078 Clear 10 1020 31 16093 2.07 332 16:19 30.10.2019
5079 Clear 9 1020 30 16093 2.07 332 15:55 30.10.2019
5080 Clear 7 1019 30 16093 1.5 210 15:37 30.10.2019
5081 Clear 6 1019 41 16093 2.1 150 15:19 30.10.2019
5082 Clear 6 1018 35 16093 2.07 332 14:42 30.10.2019
5083 Clear 6 1018 35 16093 1.04 287 14:22 30.10.2019
5084 Clear 7 1017 32 16093 1.04 287 13:58 30.10.2019
5085 Clear 7 1017 33 16093 1.04 287 13:40 30.10.2019
5086 Clear 7 1017 36 16093 3.1 190 13:20 30.10.2019
5087 Clear 7 1017 30 16093 0.86 269 12:56 30.10.2019
5088 Clear 7 1016 30 16093 0.86 269 12:37 30.10.2019
5089 Clear 7 1016 33 16093 3.1 170 12:19 30.10.2019
5090 Clear 8 1016 28 16093 0.86 269 11:41 30.10.2019
5091 Clear 8 1016 28 16093 1.46 256 11:22 30.10.2019
5092 Clear 9 1016 24 16093 1.46 256 10:45 30.10.2019
5093 Clear 9 1016 24 16093 1.46 256 10:45 30.10.2019
5094 Clear 9 1016 24 16093 1.46 256 10:26 30.10.2019
5095 Clear 9 1015 22 16093 1.46 256 09:58 30.10.2019
5096 Clear 9 1015 22 16093 1.46 256 09:58 30.10.2019
5097 Clear 9 1015 22 16093 1.46 256 09:58 30.10.2019
5098 Clear 9 1015 24 16093 1.46 256 09:39 30.10.2019
5099 Clear 10 1015 23 16093 3.1 200 09:19 30.10.2019
5100 Clear 11 1015 23 16093 3.1 230 08:41 30.10.2019
5101 Clear 11 1015 23 16093 3.1 230 08:41 30.10.2019
5102 Clear 11 1016 18 16093 2.6 230 08:22 30.10.2019
5103 Clear 12 1014 23 16093 2.07 300 07:51 30.10.2019
5104 Clear 11 1014 21 16093 2.07 300 07:33 30.10.2019
5105 Clear 12 1014 23 16093 2.07 300 06:43 30.10.2019
5106 Clear 12 1014 23 16093 2.07 300 06:43 30.10.2019
5107 Clear 13 1014 14 16093 3.6 310 06:23 30.10.2019
5108 Clear 14 1014 13 16093 2.07 300 05:50 30.10.2019
5109 Clear 14 1013 15 16093 1.5 310 05:32 30.10.2019
5110 Clear 17 1011 12 16093 3.1 310 03:47 30.10.2019
5111 Clear 18 1011 15 16093 2.1 290 03:18 30.10.2019
5112 Clear 20 1010 11 16093 3.6 270 02:19 30.10.2019
5113 Clear 21 1009 8 16093 5.1 270 01:34 30.10.2019
5114 Clear 24 1010 10 16093 5.1 260 00:31 30.10.2019
5115 Clear 24 1009 7 16093 6.7 230 23:46 29.10.2019
5116 Clear 24 1009 7 16093 6.7 230 23:27 29.10.2019
5117 Clear 24 1009 8 16093 6.2 250 22:55 29.10.2019
5118 Clear 24 1009 8 16093 4.6 250 22:37 29.10.2019
5119 Clear 24 1010 11 16093 4.6 330 22:18 29.10.2019
5120 Clear 24 1010 8 16093 5.1 240 21:54 29.10.2019
5121 Clear 24 1010 8 16093 4.1 240 21:36 29.10.2019
5122 Clear 24 1011 11 16093 3.6 280 21:18 29.10.2019
5123 Clear 23 1012 9 16093 3.1 220 20:41 29.10.2019
5124 Clear 23 1012 15 16093 2.1 250 20:21 29.10.2019
5125 Clear 22 1013 12 16093 5.1 280 19:57 29.10.2019
5126 Clear 22 1012 15 16093 5.9 228 19:38 29.10.2019
5127 Clear 21 1012 15 16093 5.9 228 19:20 29.10.2019
5128 Clear 21 1014 18 16093 2.6 0 18:56 29.10.2019
5129 Clear 20 1013 17 16093 5.9 228 18:37 29.10.2019
5130 Clear 20 1013 22 16093 3.6 200 18:19 29.10.2019
5131 Clear 18 1013 19 16093 2.1 100 17:55 29.10.2019
5132 Clear 17 1013 22 16093 3.1 110 17:36 29.10.2019
5133 Clear 16 1014 25 16093 3.6 180 17:18 29.10.2019
5134 Clear 14 1013 27 16093 4.6 110 16:39 29.10.2019
5135 Clear 12 1013 27 16093 4.6 110 16:21 29.10.2019
5136 Clear 10 1015 34 16093 2.1 160 15:56 29.10.2019
5137 Clear 8 1013 31 16093 4.1 100 15:38 29.10.2019
5138 Clear 7 1013 31 16093 4.1 100 15:20 29.10.2019
5139 Clear 7 1013 33 16093 4.1 100 14:55 29.10.2019
5140 Clear 7 1013 36 16093 4.1 100 14:37 29.10.2019
5141 Clear 6 1013 36 16093 1.88 204 14:18 29.10.2019
5142 Clear 7 1013 35 16093 1.5 210 13:40 29.10.2019
5143 Clear 7 1013 35 16093 1.5 210 13:22 29.10.2019
5144 Clear 7 1013 31 16093 2.1 110 12:45 29.10.2019
5145 Clear 7 1013 31 16093 2.1 110 12:26 29.10.2019
5146 Clear 7 1013 31 16093 2.1 110 12:26 29.10.2019
5147 Clear 7 1013 31 16093 2.6 80 11:59 29.10.2019
5148 Clear 7 1014 31 16093 2.1 70 11:41 29.10.2019
5149 Clear 7 1014 39 16093 3.1 130 11:19 29.10.2019
5150 Clear 7 1014 39 16093 3.1 130 11:19 29.10.2019
5151 Clear 7 1014 29 16093 1.05 183 10:57 29.10.2019
5152 Clear 7 1014 29 16093 2.6 170 10:38 29.10.2019
5153 Clear 8 1015 39 16093 3.6 100 10:20 29.10.2019
5154 Clear 8 1014 26 16093 4.6 110 09:55 29.10.2019
5155 Clear 7 1014 28 16093 3.6 110 09:36 29.10.2019
5156 Clear 7 1015 33 16093 3.6 140 09:18 29.10.2019
5157 Clear 8 1015 26 16093 2.1 120 08:43 29.10.2019
5158 Clear 8 1015 33 16093 2.6 120 08:23 29.10.2019
5159 Clear 9 1015 33 16093 2.6 90 07:54 29.10.2019
5160 Clear 9 1015 26 16093 1.5 80 07:36 29.10.2019
5161 Clear 9 1015 27 16093 2.6 100 07:18 29.10.2019
5162 Clear 10 1015 26 16093 0.76 261 06:41 29.10.2019
5163 Clear 10 1015 25 16093 3.1 110 06:19 29.10.2019
5164 Clear 10 1015 25 16093 2.1 200 05:49 29.10.2019
5165 Clear 11 1015 23 16093 2.51 289 05:18 29.10.2019
5166 Clear 13 1014 19 16093 1.5 330 03:55 29.10.2019
5167 Clear 16 1014 16 16093 2.6 330 02:32 29.10.2019
5168 Clear 18 1014 13 16093 3.6 310 01:43 29.10.2019
5169 Clear 20 1013 12 16093 6.2 320 00:57 29.10.2019
5170 Clear 21 1014 12 16093 4.6 320 00:30 29.10.2019
5171 Clear 22 1014 11 16093 4.1 330 23:42 28.10.2019
5172 Clear 22 1014 13 16093 6.7 360 23:20 28.10.2019
5173 Clear 22 1014 12 16093 5.1 340 22:57 28.10.2019
5174 Clear 22 1014 12 16093 6.2 310 22:37 28.10.2019
5175 Clear 22 1014 14 16093 4.6 340 22:18 28.10.2019
5176 Clear 22 1014 13 16093 4.1 330 21:54 28.10.2019
5177 Clear 22 1014 13 16093 4.1 330 21:54 28.10.2019
5178 Clear 22 1015 13 16093 3.6 320 21:36 28.10.2019
5179 Clear 22 1015 15 16093 3.1 20 21:18 28.10.2019
5180 Clear 22 1015 14 16093 1.5 320 20:41 28.10.2019
5181 Clear 21 1015 14 16093 1.5 320 20:23 28.10.2019
5182 Clear 20 1016 14 16093 3.1 270 19:55 28.10.2019
5183 Clear 20 1016 15 16093 2.1 290 19:37 28.10.2019
5184 Clear 20 1016 17 16093 3.6 340 19:19 28.10.2019
5185 Rain 20 1016 15 16093 2.1 300 18:58 28.10.2019
5186 Rain 20 1016 15 16093 2.1 300 18:58 28.10.2019
5187 Rain 19 1016 15 16093 3.1 320 18:38 28.10.2019
5188 Rain 19 1016 15 16093 3.1 320 18:20 28.10.2019
5189 Clear 18 1017 15 16093 5.1 320 17:56 28.10.2019
5190 Clear 18 1016 16 16093 4.1 330 17:38 28.10.2019
5191 Clear 17 1016 23 16093 2.6 320 17:18 28.10.2019
5192 Clear 17 1016 19 16093 3.76 222 16:55 28.10.2019
5193 Clear 16 1016 22 16093 1.5 50 16:37 28.10.2019
5194 Clear 16 1016 36 16093 4.1 330 16:19 28.10.2019
5195 Clear 15 1015 32 16093 3.76 222 15:56 28.10.2019
5196 Clear 15 1015 30 16093 3.76 222 15:37 28.10.2019
5197 Clear 14 1015 50 16093 3.76 222 15:18 28.10.2019
5198 Clear 15 1014 35 16093 2.1 340 14:55 28.10.2019
5199 Clear 15 1014 52 16093 3.76 222 14:36 28.10.2019
5200 Clear 15 1014 52 16093 3.76 222 14:36 28.10.2019
5201 Clear 15 1014 44 16093 3.1 250 14:18 28.10.2019
5202 Clear 15 1014 44 16093 3.1 250 14:18 28.10.2019
5203 Clouds 15 1015 45 16093 4.1 280 13:41 28.10.2019
5204 Clear 15 1014 41 16093 3.1 240 13:19 28.10.2019
5205 Clouds 16 1013 31 16093 4.1 270 12:59 28.10.2019
5206 Clouds 16 1012 33 16093 3.6 260 12:40 28.10.2019
5207 Clear 16 1013 36 16093 3.81 230 12:19 28.10.2019
5208 Clear 17 1012 34 16093 5.1 230 11:38 28.10.2019
5209 Clear 17 1012 31 16093 2.92 215 11:20 28.10.2019
5210 Clear 17 1011 32 16093 9.8 240 10:43 28.10.2019
5211 Clear 18 1011 32 16093 9.8 240 10:24 28.10.2019
5212 Clear 18 1010 31 16093 3.1 240 09:59 28.10.2019
5213 Clear 18 1009 29 16093 2.6 200 09:41 28.10.2019
5214 Clear 18 1011 47 16093 2.1 210 09:20 28.10.2019
5215 Clear 18 1009 47 16093 3.6 190 08:58 28.10.2019
5216 Clear 18 1009 47 16093 3.6 190 08:58 28.10.2019
5217 Clear 18 1009 47 16093 5.7 190 08:39 28.10.2019
5218 Clear 19 1009 40 16093 5.7 190 08:20 28.10.2019
5219 Clear 19 1008 21 16093 9.3 180 07:59 28.10.2019
5220 Clear 19 1008 19 16093 7.2 180 07:40 28.10.2019
5221 Clear 19 1008 19 16093 7.2 180 07:20 28.10.2019
5222 Clear 19 1008 21 16093 8.2 180 06:40 28.10.2019
5223 Clear 20 1011 28 16093 4.1 150 06:19 28.10.2019
5224 Clear 21 1008 15 16093 4.6 190 04:39 28.10.2019
5225 Clear 23 1008 13 16093 5.7 190 03:43 28.10.2019
5226 Clear 25 1007 11 16093 5.1 220 02:45 28.10.2019
5227 Clear 26 1007 9 16093 8.7 230 01:27 28.10.2019
5228 Clear 28 1007 9 16093 9.3 230 00:46 28.10.2019
5229 Clear 29 1007 9 16093 9.3 230 00:22 28.10.2019
5230 Clear 29 1007 8 16093 7.2 230 23:43 27.10.2019
5231 Clear 29 1007 8 16093 7.2 230 23:21 27.10.2019
5232 Clear 29 1007 7 16093 10.3 240 22:55 27.10.2019
5233 Clear 29 1007 7 16093 10.3 240 22:36 27.10.2019
5234 Clear 29 1007 7 16093 10.3 240 22:36 27.10.2019
5235 Clear 29 1009 12 16093 9.8 180 22:18 27.10.2019
5236 Clear 30 1007 9 16093 7.2 200 21:40 27.10.2019
5237 Clear 30 1007 9 16093 7.2 200 21:21 27.10.2019
5238 Clear 29 1011 11 16093 8.7 200 20:59 27.10.2019
5239 Clear 29 1008 10 16093 12.3 170 20:40 27.10.2019
5240 Clear 28 1011 15 16093 7.2 180 20:22 27.10.2019
5241 Clear 28 1009 10 11265 10.3 180 19:56 27.10.2019
5242 Clear 27 1010 11 16093 5.1 190 19:37 27.10.2019
5243 Clear 27 1012 15 16093 7.2 160 19:19 27.10.2019
5244 Clear 26 1010 12 16093 5.7 120 18:56 27.10.2019
5245 Clear 25 1011 13 16093 6.2 120 18:37 27.10.2019
5246 Clear 25 1013 16 16093 4.1 100 18:19 27.10.2019
5247 Clear 23 1011 15 16093 6.7 110 17:41 27.10.2019
5248 Clear 22 1011 15 16093 6.7 110 17:21 27.10.2019
5249 Clear 22 1011 15 16093 6.7 110 17:21 27.10.2019
5250 Clear 21 1011 18 16093 6.2 110 16:59 27.10.2019
5251 Clear 19 1011 19 16093 6.2 100 16:40 27.10.2019
5252 Clear 18 1013 26 16093 3.1 140 16:22 27.10.2019
5253 Clear 17 1010 20 16093 5.1 100 15:57 27.10.2019
5254 Clear 17 1010 21 16093 5.7 100 15:39 27.10.2019
5255 Clear 17 1010 21 16093 5.7 100 15:39 27.10.2019
5256 Clear 16 1010 21 16093 5.7 100 15:20 27.10.2019
5257 Clear 16 1010 19 16093 5.1 100 14:44 27.10.2019
5258 Clear 14 1010 19 16093 5.1 100 14:24 27.10.2019
5259 Clear 14 1010 19 16093 5.1 100 13:58 27.10.2019
5260 Clear 13 1010 19 16093 5.1 100 13:40 27.10.2019
5261 Clear 13 1010 19 16093 5.1 100 13:21 27.10.2019
5262 Clear 13 1009 18 16093 4.6 110 12:59 27.10.2019
5263 Clear 13 1009 19 16093 5.7 110 12:40 27.10.2019
5264 Clear 13 1009 19 16093 5.7 110 12:40 27.10.2019
5265 Clear 13 1009 19 16093 5.7 110 12:22 27.10.2019
5266 Clear 14 1010 21 16093 4.6 100 11:41 27.10.2019
5267 Clear 13 1010 21 16093 4.6 100 11:23 27.10.2019
5268 Clear 14 1010 20 16093 1.5 120 10:55 27.10.2019
5269 Clear 13 1010 21 16093 3.83 190 10:36 27.10.2019
5270 Clear 14 1012 27 16093 4.6 120 10:18 27.10.2019
5271 Clear 14 1010 19 16093 4.6 110 09:42 27.10.2019
5272 Clear 14 1012 26 16093 6.2 110 09:19 27.10.2019
5273 Clear 14 1010 21 16093 5.7 100 08:56 27.10.2019
5274 Clear 15 1010 18 16093 4.6 100 08:37 27.10.2019
5275 Clear 15 1010 18 16093 4.6 100 08:37 27.10.2019
5276 Clear 14 1012 22 16093 3.13 206 08:18 27.10.2019
5277 Clear 14 1011 19 16093 3.1 110 07:45 27.10.2019
5278 Clear 14 1011 19 16093 3.1 110 07:25 27.10.2019
5279 Clear 15 1011 17 16093 2.1 80 06:52 27.10.2019
5280 Clear 15 1011 17 16093 2.1 80 06:29 27.10.2019
5281 Clear 16 1011 15 16093 2.1 230 05:45 27.10.2019
5282 Clear 16 1011 15 16093 2.1 230 05:45 27.10.2019
5283 Clear 17 1010 15 16093 2.6 130 04:55 27.10.2019
5284 Clear 19 1010 13 16093 1.5 80 03:34 27.10.2019
5285 Clear 23 1011 10 16093 2.1 330 02:21 27.10.2019
5286 Clear 28 1009 6 16093 2.6 320 01:54 27.10.2019
5287 Clear 28 1009 6 16093 1.5 290 01:23 27.10.2019
5288 Clear 29 1009 6 16093 2.1 280 00:51 27.10.2019
5289 Clear 29 1010 6 16093 1.5 270 00:28 27.10.2019
5290 Clear 29 1010 6 16093 2.1 260 23:57 26.10.2019
5291 Clear 29 1010 7 16093 4.14 230 23:38 26.10.2019
5292 Clear 28 1010 7 16093 4.14 230 23:20 26.10.2019
5293 Clear 28 1011 7 16093 1.5 190 22:56 26.10.2019
5294 Clear 28 1011 6 16093 4.14 230 22:37 26.10.2019
5295 Clear 28 1012 8 16093 2.6 230 22:18 26.10.2019
5296 Clear 27 1012 7 16093 1.5 250 21:43 26.10.2019
5297 Clear 26 1012 7 16093 1.5 250 21:21 26.10.2019
5298 Clear 25 1013 9 16093 3.1 70 20:57 26.10.2019
5299 Clear 25 1013 9 16093 3.1 110 20:36 26.10.2019
5300 Clear 25 1013 9 16093 3.1 110 20:36 26.10.2019
5301 Clear 24 1014 11 16093 4.1 130 20:18 26.10.2019
5302 Clear 24 1014 11 16093 4.1 130 20:18 26.10.2019
5303 Clear 23 1014 12 16093 4.1 90 19:42 26.10.2019
5304 Clear 22 1015 13 16093 5.7 110 19:20 26.10.2019
5305 Clear 21 1014 14 16093 4.6 100 18:57 26.10.2019
5306 Clear 19 1014 13 16093 5.7 110 18:38 26.10.2019
5307 Clear 18 1015 16 16093 5.7 100 18:19 26.10.2019
5308 Clear 17 1015 15 16093 6.2 120 17:56 26.10.2019
5309 Clear 16 1015 16 16093 6.2 100 17:37 26.10.2019
5310 Clear 15 1015 19 16093 6.7 110 17:19 26.10.2019
5311 Clear 12 1014 22 16093 3.6 90 16:43 26.10.2019
5312 Clear 11 1014 22 16093 3.6 90 16:24 26.10.2019
5313 Clear 11 1014 20 16093 5.7 100 15:44 26.10.2019
5314 Clear 10 1014 20 16093 5.7 100 15:22 26.10.2019
5315 Clear 11 1014 20 16093 4.1 100 14:59 26.10.2019
5316 Clear 11 1014 19 16093 3.6 110 14:37 26.10.2019
5317 Clear 11 1015 19 16093 5.7 90 14:19 26.10.2019
5318 Clear 10 1014 23 0 2.92 110 13:42 26.10.2019
5319 Clear 11 1014 19 16093 4.1 110 13:23 26.10.2019
5320 Clear 12 1016 22 0 0.89 156 12:50 26.10.2019
5321 Clear 12 1015 17 16093 2.6 80 12:27 26.10.2019
5322 Clear 12 1015 16 16093 4.6 110 11:57 26.10.2019
5323 Clear 12 1015 16 16093 4.6 110 11:38 26.10.2019
5324 Clear 12 1015 16 16093 4.6 110 11:20 26.10.2019
5325 Clear 16 1016 15 16093 4.6 90 10:45 26.10.2019
5326 Clear 16 1016 15 16093 4.6 90 10:24 26.10.2019
5327 Clear 16 1016 15 16093 4.1 80 09:48 26.10.2019
5328 Clear 16 1016 15 16093 4.1 80 09:28 26.10.2019
5329 Clear 16 1016 15 16093 4.6 80 08:44 26.10.2019
5330 Clear 16 1016 15 16093 4.6 80 08:26 26.10.2019
5331 Clear 17 1016 15 16093 3.6 60 07:56 26.10.2019
5332 Clear 17 1016 14 16093 3.6 50 07:33 26.10.2019
5333 Clear 18 1016 13 16093 3.64 118 06:48 26.10.2019
5334 Clear 18 1016 13 16093 3.64 118 06:29 26.10.2019
5335 Clear 18 1016 13 16093 3.64 118 06:29 26.10.2019
5336 Clear 20 1016 11 16093 1.5 100 05:21 26.10.2019
5337 Clear 20 1016 9 16093 2.1 140 04:58 26.10.2019
5338 Clear 21 1015 9 16093 4.64 112 03:24 26.10.2019
5339 Clear 23 1017 9 16093 6.2 40 02:18 26.10.2019
5340 Clear 24 1016 7 16093 6.45 89 01:42 26.10.2019
5341 Clear 25 1016 7 16093 6.45 89 00:31 26.10.2019
5342 Clear 25 1017 7 16093 2.1 230 23:47 25.10.2019
5343 Clear 24 1017 7 16093 2.1 230 23:21 25.10.2019
5344 Clear 24 1018 7 16093 10.07 93 22:43 25.10.2019
5345 Clear 24 1018 7 16093 10.07 93 22:25 25.10.2019
5346 Clear 24 1020 11 16093 6.2 60 21:58 25.10.2019
5347 Clear 23 1020 11 16093 6.2 60 21:40 25.10.2019
5348 Clear 23 1019 8 16093 12.23 98 21:22 25.10.2019
5349 Clear 23 1020 9 16093 3.1 30 20:59 25.10.2019
5350 Clear 23 1020 9 16093 3.1 30 20:59 25.10.2019
5351 Clear 22 1021 12 16093 5.7 70 20:41 25.10.2019
5352 Clear 22 1021 12 16093 6.7 20 20:19 25.10.2019
5353 Clear 22 1021 12 16093 6.7 20 20:19 25.10.2019
5354 Clear 21 1021 12 16093 3.6 330 19:45 25.10.2019
5355 Clear 21 1021 12 16093 3.6 330 19:27 25.10.2019
5356 Clear 19 1022 13 16093 1.5 360 18:47 25.10.2019
5357 Clear 19 1022 13 16093 1.5 360 18:28 25.10.2019
5358 Clear 17 1022 11 16093 11.25 99 17:54 25.10.2019
5359 Clear 17 1022 19 16093 3.1 140 17:36 25.10.2019
5360 Clear 16 1022 19 16093 3.1 140 17:18 25.10.2019
5361 Clear 15 1020 15 16093 11.25 99 16:42 25.10.2019
5362 Clear 13 1021 24 16093 5.1 120 16:21 25.10.2019
5363 Clear 13 1020 19 16093 1.5 90 15:41 25.10.2019
5364 Clear 13 1020 19 16093 1.5 90 15:23 25.10.2019
5365 Clear 13 1020 17 16093 2.1 50 14:59 25.10.2019
5366 Clear 13 1020 18 16093 9.11 104 14:41 25.10.2019
5367 Clear 13 1020 18 16093 9.46 103 14:22 25.10.2019
5368 Clear 13 1019 18 16093 3.1 90 13:44 25.10.2019
5369 Clear 14 1019 18 16093 3.1 90 13:25 25.10.2019
5370 Clear 14 1019 18 16093 3.1 90 13:25 25.10.2019
5371 Clear 14 1019 18 16093 2.1 150 12:58 25.10.2019
5372 Clear 14 1019 18 16093 3.6 170 12:40 25.10.2019
5373 Clear 14 1019 18 16093 3.6 170 12:40 25.10.2019
5374 Clear 14 1019 18 16093 3.6 170 12:20 25.10.2019
5375 Clear 14 1019 13 16093 2.6 200 11:42 25.10.2019
5376 Clear 14 1019 13 16093 5.1 60 11:24 25.10.2019
5377 Clear 15 1019 14 16093 3.6 200 10:59 25.10.2019
5378 Clear 15 1018 14 16093 3.1 200 10:40 25.10.2019
5379 Clear 15 1018 14 16093 3.1 200 10:21 25.10.2019
5380 Clear 15 1018 13 16093 3.1 210 09:57 25.10.2019
5381 Clear 14 1018 12 16093 3.1 200 09:38 25.10.2019
5382 Clear 14 1019 11 16093 1.5 90 09:19 25.10.2019
5383 Clear 14 1019 11 16093 1.5 90 09:19 25.10.2019
5384 Clear 15 1019 11 16093 1.5 200 08:45 25.10.2019
5385 Clear 15 1019 11 16093 1.5 200 08:26 25.10.2019
5386 Clear 15 1018 11 16093 3.1 270 07:53 25.10.2019
5387 Clear 15 1018 6 16093 3.1 280 07:34 25.10.2019
5388 Clear 16 1018 8 16093 3.1 60 06:41 25.10.2019
5389 Clear 18 1018 6 16093 2.6 40 05:51 25.10.2019
5390 Clear 18 1018 6 16093 3.6 70 05:32 25.10.2019
5391 Clear 19 1017 6 16093 3.1 30 04:42 25.10.2019
5392 Clear 21 1016 7 16093 2.6 360 03:29 25.10.2019
5393 Clear 25 1016 6 16093 6.7 330 01:53 25.10.2019
5394 Clear 27 1015 5 16093 4.1 20 00:47 25.10.2019
5395 Clear 27 1015 5 16093 8.2 320 00:18 25.10.2019
5396 Clear 27 1016 5 16093 4.6 330 23:40 24.10.2019
5397 Clear 28 1016 5 16093 7.7 310 23:21 24.10.2019
5398 Clear 28 1016 5 16093 3.6 30 22:54 24.10.2019
5399 Clear 28 1016 5 16093 3.6 30 22:54 24.10.2019
5400 Clear 28 1016 5 16093 3.6 30 22:54 24.10.2019
5401 Clear 28 1016 5 16093 3.6 50 22:36 24.10.2019
5402 Clear 28 1016 5 16093 3.6 50 22:36 24.10.2019
5403 Clear 28 1016 7 16093 6.2 320 22:18 24.10.2019
5404 Clear 28 1016 5 16093 4.1 40 21:54 24.10.2019
5405 Clear 28 1016 5 16093 4.1 40 21:54 24.10.2019
5406 Clear 28 1017 6 16093 3.1 50 21:36 24.10.2019
5407 Clear 28 1017 6 16093 3.1 50 21:36 24.10.2019
5408 Clear 27 1017 8 16093 2.1 350 21:18 24.10.2019
5409 Clear 26 1017 8 16093 1.5 310 20:54 24.10.2019
5410 Clear 26 1017 9 16093 3.33 5 20:36 24.10.2019
5411 Clear 26 1018 15 16093 3.6 290 20:18 24.10.2019
5412 Clear 24 1017 12 16093 2.6 270 19:42 24.10.2019
5413 Clear 23 1017 12 16093 2.6 270 19:23 24.10.2019
5414 Clear 22 1017 20 16093 3.33 5 18:58 24.10.2019
5415 Clear 22 1017 20 16093 3.33 5 18:58 24.10.2019
5416 Clear 21 1017 25 16093 3.33 5 18:39 24.10.2019
5417 Clear 20 1017 25 16093 0.22 282 18:21 24.10.2019
5418 Clear 19 1017 30 16093 0.22 282 17:56 24.10.2019
5419 Clear 18 1017 29 16093 0.22 282 17:37 24.10.2019
5420 Clear 17 1017 29 16093 0.22 282 17:18 24.10.2019
5421 Clear 14 1016 40 16093 0.22 282 16:42 24.10.2019
5422 Clear 13 1016 40 16093 4.1 130 16:23 24.10.2019
5423 Clear 13 1016 40 16093 0.22 282 16:23 24.10.2019
5424 Clear 14 1015 32 16093 0.22 282 15:59 24.10.2019
5425 Clear 14 1015 30 16093 0.22 282 15:40 24.10.2019
5426 Clear 12 1015 30 16093 0.24 234 15:22 24.10.2019
5427 Clear 12 1014 30 16093 3.6 100 14:59 24.10.2019
5428 Clear 12 1014 30 16093 0.37 293 14:40 24.10.2019
5429 Clear 13 1015 37 16093 3.1 120 14:20 24.10.2019
5430 Clear 13 1013 30 16093 4.1 100 13:42 24.10.2019
5431 Clear 13 1013 30 16093 4.1 100 13:20 24.10.2019
5432 Clear 13 1013 28 16093 2.6 110 12:58 24.10.2019
5433 Clear 13 1013 30 16093 1.5 130 12:40 24.10.2019
5434 Clear 13 1014 35 16093 4.6 120 12:20 24.10.2019
5435 Clear 14 1014 33 16093 3.6 120 11:57 24.10.2019
5436 Clear 14 1014 33 16093 3.6 120 11:38 24.10.2019
5437 Clear 14 1013 25 16093 3.6 100 11:20 24.10.2019
5438 Clear 15 1013 28 16093 3.6 100 10:59 24.10.2019
5439 Clear 15 1013 26 16093 2.1 90 10:39 24.10.2019
5440 Clear 15 1013 26 16093 2.1 90 10:20 24.10.2019
5441 Clear 16 1013 28 16093 3.1 90 09:39 24.10.2019
5442 Clear 16 1014 29 16093 2.6 80 09:19 24.10.2019
5443 Clear 16 1013 25 16093 1.74 257 08:55 24.10.2019
5444 Clear 17 1013 23 16093 1.74 257 08:37 24.10.2019
5445 Clear 17 1014 26 16093 3.1 160 08:18 24.10.2019
5446 Clear 17 1013 27 16093 1.74 257 07:45 24.10.2019
5447 Clear 17 1013 27 16093 1.74 257 07:22 24.10.2019
5448 Clear 18 1013 24 16093 1.74 257 06:46 24.10.2019
5449 Clear 19 1013 21 16093 2.6 240 06:23 24.10.2019
5450 Clear 20 1012 18 16093 1.4 311 05:49 24.10.2019
5451 Clear 20 1012 18 16093 1.4 311 05:28 24.10.2019
5452 Clear 25 1011 15 16093 2.6 350 03:38 24.10.2019
5453 Clear 26 1011 12 16093 4.6 320 02:56 24.10.2019
5454 Clear 28 1011 10 16093 3.6 320 02:25 24.10.2019
5455 Clear 29 1011 9 16093 4.6 320 01:51 24.10.2019
5456 Clear 30 1011 9 16093 4.6 340 01:27 24.10.2019
5457 Clear 31 1011 8 16093 4.1 300 00:41 24.10.2019
5458 Clear 31 1011 8 16093 4.1 300 00:23 24.10.2019
5459 Clear 31 1012 9 16093 3.1 260 23:43 23.10.2019
5460 Clear 31 1012 9 16093 3.1 260 23:23 23.10.2019
5461 Clear 31 1012 9 16093 2.6 280 22:57 23.10.2019
5462 Clear 31 1012 9 16093 2.38 335 22:38 23.10.2019
5463 Clear 30 1014 10 16093 1.5 30 22:19 23.10.2019
5464 Clear 30 1013 10 16093 2.1 290 21:57 23.10.2019
5465 Clear 29 1013 11 16093 2.47 340 21:38 23.10.2019
5466 Clear 28 1015 13 16093 1.5 20 21:19 23.10.2019
5467 Clear 28 1014 12 16093 1.5 150 20:56 23.10.2019
5468 Clear 27 1014 13 16093 1.5 210 20:38 23.10.2019
5469 Clear 27 1016 16 16093 0.19 54 20:20 23.10.2019
5470 Clear 26 1015 14 16093 1.5 130 19:55 23.10.2019
5471 Clear 25 1015 15 16093 0.19 54 19:36 23.10.2019
5472 Clear 24 1016 17 16093 0.19 54 19:18 23.10.2019
5473 Clear 23 1015 19 16093 2.6 110 18:54 23.10.2019
5474 Clear 22 1015 20 16093 2.6 110 18:36 23.10.2019
5475 Clear 21 1016 22 16093 2.6 190 18:18 23.10.2019
5476 Clear 18 1017 31 16093 2.6 120 17:41 23.10.2019
5477 Clear 16 1015 25 16093 4.1 120 17:20 23.10.2019
5478 Clear 14 1015 26 16093 3.6 100 16:55 23.10.2019
5479 Clear 14 1015 26 16093 3.6 110 16:36 23.10.2019
5480 Clear 14 1015 26 16093 3.6 110 16:36 23.10.2019
5481 Clear 13 1016 30 16093 4.1 170 16:18 23.10.2019
5482 Clear 12 1015 26 16093 3.6 130 15:41 23.10.2019
5483 Clear 11 1015 26 16093 3.6 130 15:21 23.10.2019
5484 Clear 12 1015 26 16093 3.6 110 14:58 23.10.2019
5485 Clear 12 1015 30 16093 4.1 100 14:38 23.10.2019
5486 Clear 12 1015 32 16093 1.5 140 14:19 23.10.2019
5487 Clear 12 1015 32 16093 1.5 140 14:19 23.10.2019
5488 Clear 12 1015 26 16093 3.6 120 13:57 23.10.2019
5489 Clear 12 1014 26 16093 3.6 110 13:38 23.10.2019
5490 Clear 12 1014 26 16093 3.6 110 13:20 23.10.2019
5491 Clear 13 1015 26 16093 4.1 110 12:41 23.10.2019
5492 Clear 13 1016 30 16093 2.6 160 12:20 23.10.2019
5493 Clear 13 1015 24 16093 3.1 100 11:58 23.10.2019
5494 Clear 13 1015 24 16093 3.1 100 11:58 23.10.2019
5495 Clear 13 1015 24 16093 4.1 110 11:40 23.10.2019
5496 Clear 13 1015 24 16093 4.1 110 11:22 23.10.2019
5497 Clear 14 1016 26 16093 2.6 90 10:59 23.10.2019
5498 Clear 14 1015 24 16093 2.6 80 10:41 23.10.2019
5499 Clear 14 1015 24 16093 2.6 80 10:22 23.10.2019
5500 Clear 15 1017 28 16093 3.1 130 09:41 23.10.2019
5501 Clear 15 1017 28 16093 3.1 130 09:41 23.10.2019
5502 Clear 16 1017 28 16093 3.1 130 09:23 23.10.2019
5503 Clear 16 1016 23 16093 2.6 180 08:57 23.10.2019
5504 Clear 16 1016 23 16093 1.5 180 08:39 23.10.2019
5505 Clear 17 1017 26 16093 2.6 150 08:18 23.10.2019
5506 Clear 17 1016 23 16093 2.1 240 07:45 23.10.2019
5507 Clear 18 1016 23 16093 2.1 240 07:21 23.10.2019
5508 Clear 18 1017 18 16093 2.1 180 06:45 23.10.2019
5509 Clear 20 1017 18 16093 2.1 180 06:20 23.10.2019
5510 Clear 20 1016 13 16093 3.1 320 05:20 23.10.2019
5511 Clear 21 1016 14 16093 2.07 298 04:33 23.10.2019
5512 Clear 27 1015 9 16093 4.1 310 02:44 23.10.2019
5513 Clear 29 1015 7 16093 3.1 310 01:56 23.10.2019
5514 Clear 30 1015 7 16093 3.1 320 01:25 23.10.2019
5515 Clear 30 1016 7 16093 3.1 320 00:35 23.10.2019
5516 Clear 30 1016 7 16093 2.1 340 23:57 22.10.2019
5517 Clear 30 1017 9 16093 1.5 70 23:38 22.10.2019
5518 Clear 30 1017 9 16093 1.5 70 23:18 22.10.2019
5519 Clear 30 1017 9 16093 1.5 70 23:18 22.10.2019
5520 Clear 30 1017 8 16093 1.5 330 22:54 22.10.2019
5521 Clear 30 1017 8 16093 2.6 290 22:36 22.10.2019
5522 Clear 30 1018 9 16093 2.57 55 22:18 22.10.2019
5523 Clear 30 1018 9 16093 1.5 320 21:55 22.10.2019
5524 Clear 29 1019 9 16093 2.94 36 21:36 22.10.2019
5525 Clear 28 1020 11 16093 2.1 10 21:18 22.10.2019
5526 Clear 27 1021 12 16093 1.5 330 20:42 22.10.2019
5527 Clear 26 1021 12 16093 1.5 330 20:23 22.10.2019
5528 Clear 25 1021 15 16093 1.5 20 19:59 22.10.2019
5529 Clear 25 1021 15 16093 1.5 20 19:41 22.10.2019
5530 Clear 24 1021 15 16093 1.5 20 19:23 22.10.2019
5531 Clear 22 1021 19 16093 4.4 91 18:57 22.10.2019
5532 Clear 21 1021 20 16093 4.4 91 18:39 22.10.2019
5533 Clear 20 1021 19 16093 1.53 81 18:20 22.10.2019
5534 Clear 18 1021 26 16093 1.53 81 17:56 22.10.2019
5535 Clear 17 1021 24 16093 3.1 190 17:37 22.10.2019
5536 Clear 16 1021 24 16093 3.1 190 17:18 22.10.2019
5537 Clear 14 1020 29 16093 1.53 81 16:55 22.10.2019
5538 Clear 13 1020 31 16093 1.53 81 16:36 22.10.2019
5539 Clear 12 1020 34 16093 1.53 81 16:18 22.10.2019
5540 Clear 12 1020 34 16093 1.53 81 16:18 22.10.2019
5541 Clear 12 1020 27 16093 1.53 81 15:42 22.10.2019
5542 Clear 11 1020 27 16093 0.71 99 15:20 22.10.2019
5543 Clear 12 1019 26 16093 4.6 110 14:50 22.10.2019
5544 Clear 11 1019 26 16093 3.6 120 14:22 22.10.2019
5545 Clear 11 1019 22 16093 2.1 110 13:59 22.10.2019
5546 Clear 11 1019 24 16093 4.1 130 13:41 22.10.2019
5547 Clear 11 1020 27 16093 2.1 150 13:18 22.10.2019
5548 Clear 12 1019 26 16093 3.1 110 12:55 22.10.2019
5549 Clear 12 1019 25 16093 3.1 100 12:37 22.10.2019
5550 Clear 12 1020 29 16093 3.6 150 12:19 22.10.2019
5551 Clear 12 1019 30 16093 0.2 3 11:40 22.10.2019
5552 Clear 12 1019 30 16093 0.2 3 11:22 22.10.2019
5553 Clear 13 1019 19 16093 2.6 70 10:59 22.10.2019
5554 Clear 13 1019 19 16093 3.1 100 10:38 22.10.2019
5555 Clear 13 1020 27 16093 2.1 160 10:19 22.10.2019
5556 Clear 13 1020 27 16093 2.1 160 10:19 22.10.2019
5557 Clear 13 1019 22 16093 2.1 100 09:57 22.10.2019
5558 Clear 13 1019 22 16093 2.6 90 09:39 22.10.2019
5559 Clear 13 1019 22 16093 2.6 90 09:39 22.10.2019
5560 Clear 14 1019 22 16093 2.6 90 09:21 22.10.2019
5561 Clear 15 1019 19 16093 1.14 256 08:43 22.10.2019
5562 Clear 15 1019 19 16093 1.14 256 08:22 22.10.2019
5563 Clear 15 1020 18 16093 2.6 140 07:57 22.10.2019
5564 Clear 15 1020 18 16093 2.6 140 07:57 22.10.2019
5565 Clear 16 1019 22 16093 1.14 256 07:39 22.10.2019
5566 Clear 16 1019 22 16093 1.14 256 07:20 22.10.2019
5567 Clear 17 1018 17 16093 1.14 256 06:37 22.10.2019
5568 Clear 18 1019 14 16093 2.1 240 06:19 22.10.2019
5569 Clear 19 1018 13 16093 2.89 313 05:27 22.10.2019
5570 Clear 22 1017 12 16093 2.6 330 03:53 22.10.2019
5571 Clear 25 1016 9 16093 3.6 320 02:29 22.10.2019
5572 Clear 27 1016 8 16093 4.6 300 01:36 22.10.2019
5573 Clear 27 1017 8 16093 4.6 260 01:18 22.10.2019
5574 Clear 28 1016 8 16093 2.6 320 00:41 22.10.2019
5575 Clear 28 1016 8 16093 2.6 320 00:22 22.10.2019
5576 Clear 28 1016 8 16093 1.5 310 23:58 21.10.2019
5577 Clear 28 1016 8 16093 2.1 300 23:37 21.10.2019
5578 Clear 28 1017 8 16093 4.1 320 23:19 21.10.2019
5579 Clear 28 1017 8 16093 4.6 360 22:57 21.10.2019
5580 Clear 27 1017 8 16093 5.1 300 22:38 21.10.2019
5581 Clear 27 1017 9 16093 3.1 280 22:19 21.10.2019
5582 Clear 27 1017 9 16093 3.1 300 21:56 21.10.2019
5583 Clear 26 1017 10 16093 1.5 250 21:37 21.10.2019
5584 Clear 26 1018 11 16093 2.1 210 21:19 21.10.2019
5585 Clear 26 1018 12 16093 2.1 230 20:56 21.10.2019
5586 Clear 25 1018 13 16093 0.18 292 20:37 21.10.2019
5587 Clear 25 1018 15 16093 0.18 292 20:19 21.10.2019
5588 Clear 24 1019 16 16093 0.18 292 19:41 21.10.2019
5589 Clear 22 1019 16 16093 0.18 292 19:22 21.10.2019
5590 Clear 21 1018 22 16093 2.1 250 18:57 21.10.2019
5591 Clear 20 1019 22 16093 0.18 292 18:39 21.10.2019
5592 Clear 20 1019 22 16093 0.18 292 18:39 21.10.2019
5593 Clear 19 1019 22 16093 1.06 165 18:19 21.10.2019
5594 Clear 19 1019 22 16093 1.06 165 18:19 21.10.2019
5595 Clear 18 1018 23 16093 3.1 130 17:59 21.10.2019
5596 Clear 17 1018 26 16093 4.1 120 17:38 21.10.2019
5597 Clear 15 1018 28 16093 1.06 165 17:19 21.10.2019
5598 Clear 14 1017 28 16093 3.1 100 16:57 21.10.2019
5599 Clear 12 1017 32 16093 3.6 100 16:39 21.10.2019
5600 Clear 11 1017 32 16093 3.6 100 16:20 21.10.2019
5601 Clear 10 1016 34 16093 2.6 120 15:47 21.10.2019
5602 Clear 9 1016 34 16093 2.6 120 15:27 21.10.2019
5603 Clear 10 1016 32 16093 3.1 100 14:58 21.10.2019
5604 Clear 9 1015 34 16093 1.88 188 14:39 21.10.2019
5605 Clear 10 1015 34 16093 1.6 173 14:21 21.10.2019
5606 Clear 10 1015 28 16093 2.1 120 13:57 21.10.2019
5607 Clear 10 1015 28 16093 3.6 110 13:39 21.10.2019
5608 Clear 10 1015 34 16093 4.6 120 13:19 21.10.2019
5609 Clear 11 1015 30 16093 1.6 173 12:42 21.10.2019
5610 Clear 11 1015 30 16093 1.14 135.888 12:22 21.10.2019
5611 Clear 11 1015 30 16093 1.14 135.888 12:22 21.10.2019
5612 Clear 12 1015 26 16093 2.6 110 11:57 21.10.2019
5613 Clear 12 1015 26 16093 2.1 100 11:39 21.10.2019
5614 Clear 12 1015 26 16093 2.1 100 11:20 21.10.2019
5615 Clear 12 1015 24 16093 3.6 100 10:57 21.10.2019
5616 Clear 12 1015 24 16093 3.6 90 10:38 21.10.2019
5617 Clear 12 1015 32 16093 3.1 120 10:19 21.10.2019
5618 Clear 13 1014 27 16093 1.14 135.888 09:48 21.10.2019
5619 Clear 13 1014 27 16093 1.14 135.888 09:26 21.10.2019
5620 Clear 14 1014 22 16093 2.1 170 08:58 21.10.2019
5621 Clear 15 1014 22 16093 1.13 57.182 08:39 21.10.2019
5622 Clear 14 1014 22 16093 1.13 57.182 08:21 21.10.2019
5623 Clear 15 1014 22 16093 1.13 57.182 07:44 21.10.2019
5624 Clear 15 1015 25 16093 2.6 220 07:21 21.10.2019
5625 Clear 16 1013 16 16093 1.13 57.182 06:57 21.10.2019
5626 Clear 16 1013 15 16093 2.1 30 06:39 21.10.2019
5627 Clear 17 1013 17 16093 1.35 15.783 05:57 21.10.2019
5628 Clear 17 1013 17 16093 1.35 15.783 05:57 21.10.2019
5629 Clear 17 1013 17 16093 1.35 15.783 05:57 21.10.2019
5630 Clear 19 1012 15 16093 2.6 340 04:49 21.10.2019
5631 Clear 22 1012 14 16093 3.1 310 03:38 21.10.2019
5632 Clear 25 1012 10 16093 4.6 310 02:25 21.10.2019
5633 Clear 25 1012 10 16093 4.6 310 02:25 21.10.2019
5634 Clear 26 1012 9 16093 4.6 320 01:59 21.10.2019
5635 Clear 26 1012 9 16093 3.1 300 01:37 21.10.2019
5636 Clear 27 1012 10 16093 5.7 300 00:50 21.10.2019
5637 Clear 27 1012 10 16093 4.6 320 00:27 21.10.2019
5638 Clear 27 1012 10 16093 5.1 300 23:43 20.10.2019
5639 Clear 27 1012 10 16093 5.1 300 23:22 20.10.2019
5640 Clear 27 1012 9 16093 2.6 300 22:57 20.10.2019
5641 Clear 27 1012 9 16093 3.1 290 22:39 20.10.2019
5642 Clear 27 1013 9 16093 4.6 330 22:19 20.10.2019
5643 Clear 27 1013 9 16093 3.6 320 21:59 20.10.2019
5644 Clear 27 1013 9 16093 2.1 250 21:39 20.10.2019
5645 Clear 26 1013 9 16093 2.1 250 21:21 20.10.2019
5646 Clear 25 1013 10 16093 2.11 270.815 20:42 20.10.2019
5647 Clear 25 1013 10 16093 2.11 270.815 20:20 20.10.2019
5648 Clear 24 1014 13 16093 2.11 270.815 19:57 20.10.2019
5649 Clear 24 1014 13 16093 2.11 270.815 19:57 20.10.2019
5650 Clear 24 1014 17 16093 2.11 270.815 19:39 20.10.2019
5651 Clear 23 1014 17 16093 2.11 270.815 19:20 20.10.2019
5652 Clear 22 1014 21 16093 2.11 270.815 18:56 20.10.2019
5653 Clear 22 1014 21 16093 2.11 270.815 18:56 20.10.2019
5654 Clear 21 1013 22 16093 2.1 130 18:38 20.10.2019
5655 Clear 20 1014 25 16093 2.6 160 18:20 20.10.2019
5656 Clear 19 1013 27 16093 2.6 120 17:54 20.10.2019
5657 Clear 17 1013 31 16093 3.6 120 17:36 20.10.2019
5658 Clear 16 1014 41 16093 2.6 170 17:18 20.10.2019
5659 Clear 13 1012 35 16093 4.6 110 16:41 20.10.2019
5660 Clear 12 1012 35 16093 4.6 110 16:23 20.10.2019
5661 Clear 11 1013 43 16093 2.6 140 15:58 20.10.2019
5662 Clear 11 1012 32 16093 2.1 120 15:38 20.10.2019
5663 Clear 11 1012 32 16093 2.1 120 15:20 20.10.2019
5664 Clear 11 1012 32 16093 2.1 120 15:20 20.10.2019
5665 Clear 11 1011 32 16093 2.1 90 14:57 20.10.2019
5666 Clear 11 1011 32 16093 1.5 110 14:37 20.10.2019
5667 Clear 11 1012 37 16093 4.1 110 14:19 20.10.2019
5668 Clear 11 1011 30 16093 2.1 110 13:55 20.10.2019
5669 Clear 11 1011 30 16093 3.6 110 13:36 20.10.2019
5670 Clear 12 1012 40 16093 4.6 110 13:18 20.10.2019
5671 Clear 12 1010 30 16093 4.6 120 12:55 20.10.2019
5672 Clear 12 1011 30 16093 2.6 120 12:37 20.10.2019
5673 Clear 12 1012 37 16093 3.6 120 12:19 20.10.2019
5674 Clear 12 1012 37 16093 3.6 120 12:19 20.10.2019
5675 Clear 13 1011 28 16093 4.1 110 11:42 20.10.2019
5676 Clear 13 1011 28 16093 4.1 110 11:23 20.10.2019
5677 Clear 13 1011 30 16093 2.1 100 10:59 20.10.2019
5678 Clear 13 1011 30 16093 1.27 175.892 10:40 20.10.2019
5679 Clear 13 1011 30 16093 1.27 175.892 10:21 20.10.2019
5680 Clear 13 1011 26 16093 2.6 130 09:57 20.10.2019
5681 Clear 14 1012 26 16093 2.6 110 09:38 20.10.2019
5682 Clear 14 1012 26 16093 2.6 110 09:20 20.10.2019
5683 Clear 14 1012 26 16093 0.62 229.419 08:45 20.10.2019
5684 Clear 15 1012 26 16093 0.62 229.419 08:22 20.10.2019
5685 Clear 15 1012 26 16093 1.5 200 07:50 20.10.2019
5686 Clear 15 1012 26 16093 1.5 200 07:29 20.10.2019
5687 Clear 17 1011 25 16093 0.62 229.419 06:32 20.10.2019
5688 Clear 20 1011 16 16093 2.6 330 04:46 20.10.2019
5689 Clear 21 1011 16 16093 2.6 330 04:25 20.10.2019
5690 Clear 22 1010 14 16093 2.6 340 03:41 20.10.2019
5691 Clear 24 1011 17 16093 2.6 320 03:18 20.10.2019
5692 Clear 26 1010 11 16093 2.6 340 02:33 20.10.2019
5693 Clear 27 1010 12 16093 3.1 320 01:55 20.10.2019
5694 Clear 28 1010 12 16093 2.6 340 01:23 20.10.2019
5695 Clear 28 1011 13 16093 4.6 310 00:53 20.10.2019
5696 Clear 28 1011 12 16093 2.6 320 00:21 20.10.2019
5697 Clear 28 1011 12 16093 2.1 290 23:55 19.10.2019
5698 Clear 28 1011 12 16093 3.47 235.035 23:37 19.10.2019
5699 Clear 28 1012 14 16093 1.5 340 23:19 19.10.2019
5700 Clear 28 1012 12 16093 3.47 235.035 22:55 19.10.2019
5701 Clear 28 1012 13 16093 2.6 270 22:37 19.10.2019
5702 Clear 28 1013 19 16093 1.5 310 22:18 19.10.2019
5703 Clear 27 1013 15 16093 2.1 310 21:43 19.10.2019
5704 Clear 26 1013 15 16093 2.1 310 21:20 19.10.2019
5705 Clear 26 1014 17 16093 2.59 227.801 20:43 19.10.2019
5706 Clear 25 1014 17 16093 2.59 227.801 20:21 19.10.2019
5707 Clear 25 1014 21 16093 1.5 190 19:56 19.10.2019
5708 Clear 24 1014 23 16093 1.5 200 19:37 19.10.2019
5709 Clear 24 1015 26 16093 2.59 227.801 19:19 19.10.2019
5710 Clear 22 1015 28 16093 2.6 140 18:41 19.10.2019
5711 Clear 21 1015 28 16093 2.6 140 18:22 19.10.2019
5712 Clear 19 1014 36 16093 5.1 110 17:42 19.10.2019
5713 Clear 17 1014 36 16093 5.1 110 17:23 19.10.2019
5714 Clear 15 1014 38 16093 4.1 120 16:59 19.10.2019
5715 Clear 14 1014 41 16093 4.6 110 16:38 19.10.2019
5716 Clear 13 1015 50 16093 3.6 130 16:19 19.10.2019
5717 Clear 13 1013 41 16093 4.1 100 15:43 19.10.2019
5718 Clear 12 1013 41 16093 4.1 100 15:25 19.10.2019
5719 Clear 12 1013 43 16093 3.1 110 14:40 19.10.2019
5720 Clear 12 1013 43 16093 3.1 110 14:21 19.10.2019
5721 Clear 12 1013 43 16093 2.1 140 13:59 19.10.2019
5722 Clear 12 1013 43 16093 3.6 110 13:41 19.10.2019
5723 Clear 12 1013 40 16093 3.6 110 13:21 19.10.2019
5724 Clear 12 1013 40 16093 3.1 110 12:58 19.10.2019
5725 Clear 13 1013 40 16093 4.1 100 12:38 19.10.2019
5726 Clear 13 1014 50 16093 3.1 110 12:20 19.10.2019
5727 Clear 14 1013 33 16093 2.6 120 11:41 19.10.2019
5728 Clear 14 1013 33 16093 2.6 120 11:23 19.10.2019
5729 Clear 14 1013 33 16093 2.6 120 11:23 19.10.2019
5730 Clear 14 1014 44 16093 1.5 90 10:58 19.10.2019
5731 Clear 14 1013 40 16093 2.6 110 10:40 19.10.2019
5732 Clear 14 1014 44 16093 3.1 110 10:22 19.10.2019
5733 Clear 14 1014 36 16093 2.6 170 09:55 19.10.2019
5734 Clear 15 1012 33 16093 2.1 80 09:37 19.10.2019
5735 Clear 15 1013 41 16093 2.1 190 09:18 19.10.2019
5736 Clear 15 1013 33 16093 1.5 120 08:40 19.10.2019
5737 Clear 16 1013 41 16093 2.1 150 08:21 19.10.2019
5738 Clear 16 1012 31 16093 1.5 190 07:46 19.10.2019
5739 Clear 16 1013 41 16093 2.6 200 07:25 19.10.2019
5740 Clear 17 1012 25 16093 0.93 78.06 06:48 19.10.2019
5741 Clear 17 1012 25 16093 0.93 78.06 06:48 19.10.2019
5742 Clear 18 1012 41 16093 3.1 320 06:28 19.10.2019
5743 Clear 18 1012 41 16093 3.1 320 06:28 19.10.2019
5744 Clear 18 1012 41 16093 3.1 320 06:28 19.10.2019
5745 Clear 19 1012 34 16093 2.6 320 05:34 19.10.2019
5746 Clear 21 1012 25 16093 2.6 340 04:24 19.10.2019
5747 Clear 24 1010 14 16093 3.1 320 02:49 19.10.2019
5748 Clear 26 1010 16 16093 4.1 330 01:54 19.10.2019
5749 Clear 26 1010 24 16093 4.1 330 01:33 19.10.2019
5750 Clear 26 1010 18 16093 3.6 290 00:49 19.10.2019
5751 Clear 27 1010 18 16093 3.6 290 00:27 19.10.2019
5752 Clear 27 1010 25 16093 3.6 310 23:56 18.10.2019
5753 Clear 27 1010 18 16093 4.1 310 23:36 18.10.2019
5754 Clear 26 1010 24 16093 3.6 290 23:18 18.10.2019
5755 Clear 26 1010 24 16093 3.1 300 22:43 18.10.2019
5756 Clear 26 1010 24 16093 3.1 300 22:20 18.10.2019
5757 Clear 26 1010 24 16093 3.1 300 22:20 18.10.2019
5758 Clear 26 1010 24 16093 3.1 300 22:20 18.10.2019
5759 Clouds 26 1010 26 16093 4.1 250 21:59 18.10.2019
5760 Clear 26 1011 29 16093 6.7 310 21:39 18.10.2019
5761 Clear 26 1011 29 16093 6.7 310 21:20 18.10.2019
5762 Clear 25 1011 31 16093 5.1 270 20:58 18.10.2019
5763 Clear 25 1011 33 16093 4.1 250 20:40 18.10.2019
5764 Clear 25 1011 33 16093 4.1 250 20:21 18.10.2019
5765 Clear 25 1011 33 16093 4.1 250 20:21 18.10.2019
5766 Clouds 24 1011 36 16093 2.6 300 19:57 18.10.2019
5767 Clear 24 1011 36 16093 5.7 270 19:39 18.10.2019
5768 Clear 24 1011 36 16093 5.7 270 19:20 18.10.2019
5769 Clouds 23 1012 38 16093 9.3 250 18:56 18.10.2019
5770 Clouds 23 1011 40 16093 5.7 250 18:38 18.10.2019
5771 Clear 23 1012 49 16093 6.7 170 18:20 18.10.2019
5772 Clouds 21 1010 49 16093 2.24 291.306 17:39 18.10.2019
5773 Clouds 21 1010 49 16093 2.24 291.306 17:20 18.10.2019
5774 Clouds 20 1009 55 16093 2.24 291.306 16:58 18.10.2019
5775 Clouds 20 1009 52 16093 1.5 240 16:37 18.10.2019
5776 Clouds 20 1010 55 16093 1.5 160 16:19 18.10.2019
5777 Clouds 20 1008 52 16093 2.24 291.306 15:41 18.10.2019
5778 Clouds 19 1008 52 16093 2.49 201.9 15:21 18.10.2019
5779 Clouds 19 1008 55 16093 2.49 201.9 14:59 18.10.2019
5780 Clouds 19 1008 52 16093 1.5 290 14:41 18.10.2019
5781 Clouds 19 1008 52 16093 1.5 290 14:22 18.10.2019
5782 Clear 19 1008 48 16093 3.6 180 13:59 18.10.2019
5783 Clear 19 1008 48 16093 3.6 190 13:41 18.10.2019
5784 Clear 19 1008 48 16093 3.6 190 13:23 18.10.2019
5785 Clear 19 1007 45 16093 2.1 140 12:57 18.10.2019
5786 Clear 19 1008 51 16093 3.89 187.407 12:38 18.10.2019
5787 Clear 19 1008 51 16093 5.44 176.481 12:20 18.10.2019
5788 Clear 20 1008 48 16093 5.44 176.481 11:56 18.10.2019
5789 Clear 20 1008 45 16093 5.44 176.481 11:38 18.10.2019
5790 Clear 20 1009 52 16093 5.44 176.481 11:19 18.10.2019
5791 Clear 20 1007 42 16093 2.1 210 10:43 18.10.2019
5792 Clear 20 1007 42 16093 2.1 210 10:23 18.10.2019
5793 Clear 21 1007 42 16093 2.6 170 09:59 18.10.2019
5794 Clear 21 1008 40 16093 1.5 190 09:41 18.10.2019
5795 Clear 21 1008 40 16093 1.5 190 09:21 18.10.2019
5796 Clear 22 1008 35 16093 1.5 180 08:58 18.10.2019
5797 Clear 22 1008 35 16093 1.5 180 08:58 18.10.2019
5798 Clear 22 1008 35 16093 1.5 180 08:58 18.10.2019
5799 Clear 22 1008 35 16093 1.5 180 08:58 18.10.2019
5800 Clear 22 1008 33 16093 3.35 190.683 08:40 18.10.2019
5801 Clear 22 1008 33 16093 3.35 190.683 08:21 18.10.2019
5802 Clear 22 1008 33 16093 3.35 190.683 07:42 18.10.2019
5803 Clear 22 1008 33 16093 3.35 190.683 07:24 18.10.2019
5804 Clear 23 1007 29 16093 3.1 220 06:39 18.10.2019
5805 Clear 24 1007 29 16093 3.1 220 06:21 18.10.2019
5806 Clear 24 1006 27 16093 4.6 220 05:56 18.10.2019
5807 Clear 25 1006 27 16093 5.1 230 05:23 18.10.2019
5808 Clear 27 1006 21 16093 3.1 230 04:25 18.10.2019
5809 Clear 28 1005 17 16093 4.6 240 03:29 18.10.2019
5810 Clear 30 1005 14 16093 6.7 240 02:33 18.10.2019
5811 Clear 31 1005 13 16093 8.2 250 01:44 18.10.2019
5812 Clear 32 1005 13 16093 8.2 250 01:26 18.10.2019
5813 Clear 32 1006 15 16093 7.2 250 00:44 18.10.2019
5814 Clear 32 1006 15 16093 7.2 250 00:21 18.10.2019
5815 Clear 32 1006 15 16093 7.2 250 00:21 18.10.2019
5816 Clear 33 1006 14 16093 8.2 240 23:54 17.10.2019
5817 Clouds 33 1008 24 16093 6.2 240 23:36 17.10.2019
5818 Clouds 33 1008 24 16093 4.6 210 23:18 17.10.2019
5819 Clouds 33 1007 15 16093 4.1 240 22:54 17.10.2019
5820 Clouds 33 1009 21 16093 5.1 190 22:36 17.10.2019
5821 Clouds 33 1009 19 16093 5.7 200 22:18 17.10.2019
5822 Clear 33 1009 24 16093 6.2 190 21:54 17.10.2019
5823 Clear 32 1009 24 16093 6.2 190 21:36 17.10.2019
5824 Clear 32 1009 24 16093 6.2 190 21:36 17.10.2019
5825 Clear 32 1011 23 16093 5.7 170 21:18 17.10.2019
5826 Clear 31 1009 18 16093 2.6 250 20:54 17.10.2019
5827 Clear 31 1009 18 16093 6.21 188.013 20:36 17.10.2019
5828 Clear 31 1011 25 16093 3.1 150 20:18 17.10.2019
5829 Clear 30 1010 21 16093 4.6 130 19:41 17.10.2019
5830 Clear 29 1012 26 16093 3.1 100 19:20 17.10.2019
5831 Clear 29 1012 26 16093 3.1 100 19:20 17.10.2019
5832 Clear 29 1012 26 16093 3.1 100 19:20 17.10.2019
5833 Clear 28 1011 24 16093 5.7 100 18:58 17.10.2019
5834 Clear 27 1011 24 16093 5.1 110 18:38 17.10.2019
5835 Clear 26 1013 31 16093 4.6 100 18:20 17.10.2019
5836 Clear 26 1013 31 16093 4.6 100 18:20 17.10.2019
5837 Clear 25 1011 33 16093 5.1 130 17:43 17.10.2019
5838 Clear 23 1011 33 16093 5.1 130 17:24 17.10.2019
5839 Clear 22 1011 28 16093 5.7 130 16:58 17.10.2019
5840 Clear 21 1010 28 16093 3.1 120 16:39 17.10.2019
5841 Clear 20 1012 42 16093 6.2 110 16:18 17.10.2019
5842 Clear 20 1010 28 16093 4.1 130 15:56 17.10.2019
5843 Clear 19 1010 27 16093 5.1 110 15:38 17.10.2019
5844 Clear 19 1012 37 16093 6.2 100 15:20 17.10.2019
5845 Clear 19 1012 42 16093 2.1 160 14:55 17.10.2019
5846 Clear 19 1012 42 16093 2.1 160 14:37 17.10.2019
5847 Clear 19 1012 37 16093 4.1 90 14:18 17.10.2019
5848 Clear 20 1010 27 16093 2.1 100 13:39 17.10.2019
5849 Clear 20 1012 33 16093 6.7 100 13:19 17.10.2019
5850 Clear 20 1010 27 16093 1.5 30 12:55 17.10.2019
5851 Clear 20 1010 27 16093 1.5 30 12:55 17.10.2019
5852 Clear 20 1010 27 16093 1.5 30 12:55 17.10.2019
5853 Clear 21 1009 28 16093 1.766 139 12:36 17.10.2019
5854 Clear 21 1012 31 16093 6.7 100 12:18 17.10.2019
5855 Clear 21 1012 31 16093 3.1 80 11:41 17.10.2019
5856 Clear 22 1012 31 16093 3.1 80 11:21 17.10.2019
5857 Clear 22 1012 31 16093 4.6 110 10:58 17.10.2019
5858 Clear 22 1012 31 16093 4.6 110 10:39 17.10.2019
5859 Clear 22 1012 31 16093 4.6 110 10:19 17.10.2019
5860 -273 0 0 0 0 0 09:55 17.10.2019
5861 Clear 23 1012 25 16093 3.6 70 09:55 17.10.2019
5862 Clear 23 1012 25 16093 3.6 70 09:55 17.10.2019
5863 Clear 23 1010 18 16093 4.6 140 09:36 17.10.2019
5864 Clear 23 1012 25 16093 3.6 70 09:18 17.10.2019
5865 Clear 23 1012 25 16093 3.6 70 09:18 17.10.2019
5866 Clear 24 1010 38 16093 7.2 130 08:46 17.10.2019
5867 Clear 24 1010 38 16093 7.2 130 08:26 17.10.2019
5868 Clear 25 1010 38 16093 8.7 120 07:56 17.10.2019
5869 Clear 25 1010 38 16093 9.3 120 07:38 17.10.2019
5870 Clear 25 1013 24 16093 4.1 50 07:19 17.10.2019
5871 Clear 26 1010 14 16093 8.2 130 06:40 17.10.2019
5872 Clear 26 1010 14 16093 8.2 130 06:21 17.10.2019
5873 Clear 26 1010 15 16093 5.7 120 05:58 17.10.2019
5874 Clear 27 1010 34 16093 5.7 120 05:34 17.10.2019
5875 Clear 27 1010 34 16093 3.6 110 04:57 17.10.2019
5876 Clear 28 1010 14 16093 2.6 130 03:55 17.10.2019
5877 Clear 30 1010 11 16093 3.1 100 02:53 17.10.2019
5878 Clear 32 1010 11 16093 5.1 100 01:55 17.10.2019
5879 Clear 33 1012 9 16093 5.7 140 00:41 17.10.2019
5880 Clear 33 1013 15 16093 3.6 110 00:20 17.10.2019
5881 Clear 33 1013 15 16093 3.6 110 00:20 17.10.2019
5882 Clear 33 1012 9 16093 4.1 150 23:42 16.10.2019
5883 Clear 33 1012 9 16093 4.1 150 23:21 16.10.2019
5884 Clear 33 1013 9 16093 3.1 130 22:56 16.10.2019
5885 Clear 33 1013 9 16093 4.1 120 22:37 16.10.2019
5886 Clear 32 1015 14 16093 6.2 70 22:19 16.10.2019
5887 Clear 32 1014 8 16093 3.6 100 21:57 16.10.2019
5888 Clear 32 1015 8 16093 4.1 130 21:38 16.10.2019
5889 Clear 32 1016 15 16093 2.6 100 21:19 16.10.2019
5890 Clear 31 1017 17 16093 5.1 40 20:58 16.10.2019
5891 Clear 31 1017 17 16093 5.1 40 20:58 16.10.2019
5892 Clear 31 1017 17 16093 5.1 40 20:39 16.10.2019
5893 Clear 31 1017 17 16093 5.1 40 20:21 16.10.2019
5894 Clear 30 1017 15 16093 8.696 99 19:59 16.10.2019
5895 Clear 29 1017 15 16093 8.696 99 19:38 16.10.2019
5896 Clear 29 1018 24 16093 4.1 110 19:20 16.10.2019
5897 Clear 27 1017 23 16093 4.6 120 18:39 16.10.2019
5898 Clear 26 1018 27 16093 4.6 110 18:20 16.10.2019
5899 Clear 24 1017 28 16093 2.6 130 17:58 16.10.2019
5900 Clear 23 1017 30 16093 2.1 110 17:39 16.10.2019
5901 Clear 22 1017 30 16093 2.1 110 17:21 16.10.2019
5902 Clear 20 1017 41 16093 4.426 114 16:59 16.10.2019
5903 Clear 20 1017 44 16093 4.426 114 16:41 16.10.2019
5904 Clear 19 1017 44 16093 4.426 114 16:21 16.10.2019
5905 Clear 19 1016 39 16093 2.6 100 15:56 16.10.2019
5906 Clear 19 1016 39 16093 2.6 100 15:56 16.10.2019
5907 Clear 19 1016 39 16093 2.6 100 15:56 16.10.2019
5908 Clear 17 1016 39 16093 2.6 100 15:38 16.10.2019
5909 Clear 16 1018 39 16093 1.5 190 15:18 16.10.2019
5910 Clear 16 1016 34 16093 2.1 140 14:56 16.10.2019
5911 Clear 16 1016 34 16093 2.1 140 14:38 16.10.2019
5912 Clear 16 1016 34 16093 2.1 140 14:18 16.10.2019
5913 Clear 16 1016 34 16093 3.1 110 13:56 16.10.2019
5914 Clear 16 1016 34 16093 3.1 110 13:56 16.10.2019
5915 Clear 16 1016 34 16093 3.6 100 13:37 16.10.2019
5916 Clear 16 1016 34 16093 3.6 100 13:18 16.10.2019
5917 Clear 16 1016 36 16093 3.6 100 12:41 16.10.2019
5918 Clear 16 1016 36 16093 3.6 100 12:18 16.10.2019
5919 Clear 16 1016 36 16093 3.6 100 12:18 16.10.2019
5920 Clear 17 1016 36 16093 1.5 100 11:43 16.10.2019
5921 Clear 17 1016 32 16093 2.1 110 11:18 16.10.2019
5922 Clear 18 1016 34 16093 2.6 160 10:39 16.10.2019
5923 Clear 18 1016 34 16093 2.6 160 10:20 16.10.2019
5924 Clear 18 1015 34 16093 3.1 180 09:56 16.10.2019
5925 Clear 18 1015 34 16093 3.1 180 09:56 16.10.2019
5926 Clear 19 1015 34 16093 2.1 200 09:38 16.10.2019
5927 Clear 19 1015 34 16093 2.1 200 09:19 16.10.2019
5928 Clear 19 1015 34 16093 2.1 180 08:43 16.10.2019
5929 Clear 20 1015 34 16093 2.1 250 08:24 16.10.2019
5930 Clear 21 1015 26 16093 1.5 350 07:46 16.10.2019
5931 Clear 21 1015 28 16093 0.712 105 07:25 16.10.2019
5932 Clear 21 1015 22 16093 0.712 105 06:59 16.10.2019
5933 Clear 22 1016 31 16093 0.712 105 06:39 16.10.2019
5934 Clear 24 1015 20 16093 1.5 10 05:48 16.10.2019
5935 Clear 27 1014 21 16093 3.6 310 03:24 16.10.2019
5936 Clear 28 1015 20 16093 4.6 310 02:47 16.10.2019
5937 Clear 31 1013 16 16093 2.6 280 01:19 16.10.2019
5938 Clear 31 1015 14 16093 2.6 80 00:49 16.10.2019
5939 Clear 31 1013 16 16093 2.6 310 00:27 16.10.2019
5940 Clear 31 1014 19 16093 2.324 338 23:41 15.10.2019
5941 Clear 31 1014 19 16093 2.324 338 23:22 15.10.2019
5942 Clear 31 1014 20 16093 1.5 210 22:56 15.10.2019
5943 Clear 30 1015 21 16093 1.5 170 22:38 15.10.2019
5944 Clear 30 1015 21 16093 1.5 170 22:20 15.10.2019
5945 -273 0 0 0 0 0 21:56 15.10.2019
5946 Clear 30 1016 25 16093 2.324 338 21:55 15.10.2019
5947 Clear 30 1016 24 16093 1.5 260 21:36 15.10.2019
5948 Clear 29 1016 24 16093 1.5 260 21:18 15.10.2019
5949 Clear 28 1018 30 16093 3.1 120 20:55 15.10.2019
5950 Clear 28 1018 30 16093 3.1 120 20:55 15.10.2019
5951 Clear 28 1017 28 16093 2.6 280 20:37 15.10.2019
5952 Clear 28 1017 28 16093 2.6 280 20:19 15.10.2019
5953 Clear 27 1018 32 16093 2.183 27 19:55 15.10.2019
5954 Clear 27 1017 29 16093 2.183 27 19:36 15.10.2019
5955 Clear 26 1017 29 16093 2.183 27 19:18 15.10.2019
5956 Clear 25 1019 38 16093 2.183 27 18:43 15.10.2019
5957 Clear 24 1018 35 16093 4.1 120 18:25 15.10.2019
5958 Clear 22 1017 40 16093 3.6 110 17:55 15.10.2019
5959 Clear 21 1017 42 16093 4.1 120 17:37 15.10.2019
5960 Clear 20 1017 42 16093 4.1 120 17:18 15.10.2019
5961 Clear 18 1017 42 16093 4.1 100 16:43 15.10.2019
5962 Clear 17 1016 45 16093 3.6 100 16:22 15.10.2019
5963 -273 0 0 0 0 0 15:57 15.10.2019
5964 Clear 16 1016 48 16093 3.1 100 15:57 15.10.2019
5965 Clear 16 1016 48 16093 4.1 100 15:39 15.10.2019
5966 Clear 16 1016 48 16093 4.1 100 15:39 15.10.2019
5967 Clear 15 1016 48 16093 4.1 100 15:19 15.10.2019
5968 Clear 16 1016 48 16093 2.6 90 14:55 15.10.2019
5969 Clouds 16 1016 48 16093 2.6 100 14:37 15.10.2019
5970 Clouds 16 1016 48 16093 2.6 100 14:37 15.10.2019
5971 Clouds 16 1016 48 16093 2.6 100 14:18 15.10.2019
5972 Clouds 16 1016 45 16093 2.6 120 13:43 15.10.2019
5973 Clouds 16 1015 45 16093 3.6 100 13:20 15.10.2019
5974 Clear 16 1015 42 16093 4.1 110 12:56 15.10.2019
5975 Clear 16 1015 42 16093 4.1 110 12:56 15.10.2019
5976 Clear 17 1015 42 16093 2.1 100 12:38 15.10.2019
5977 Clouds 17 1016 51 16093 3.6 110 12:19 15.10.2019
5978 Clouds 17 1016 51 16093 3.6 110 12:19 15.10.2019
5979 Clouds 18 1015 48 16093 2.1 80 11:42 15.10.2019
5980 Clouds 18 1015 48 16093 2.1 80 11:20 15.10.2019
5981 Clouds 18 1015 45 16093 2.6 200 10:56 15.10.2019
5982 Clouds 18 1015 45 16093 2.6 200 10:37 15.10.2019
5983 Clouds 18 1015 45 16093 2.6 200 10:18 15.10.2019
5984 Clear 18 1014 40 16093 1.15 207.84 09:41 15.10.2019
5985 Clear 19 1014 40 16093 1.35 217.21 09:21 15.10.2019
5986 Clear 19 1014 40 16093 1.35 217.21 09:21 15.10.2019
5987 Clear 19 1014 35 16093 1.5 190 08:58 15.10.2019
5988 Clear 19 1014 35 16093 1.5 190 08:58 15.10.2019
5989 Clear 19 1014 35 16093 2.1 190 08:40 15.10.2019
5990 Clear 20 1015 48 16093 2.6 130 08:20 15.10.2019
5991 Clear 20 1014 35 16093 3.1 210 07:44 15.10.2019
5992 Clear 20 1014 33 16093 3.1 200 07:23 15.10.2019
5993 Clear 20 1013 28 16093 2.6 200 06:58 15.10.2019
5994 Clear 20 1013 28 16093 1.5 210 06:39 15.10.2019
5995 Clouds 22 1013 28 16093 1.3 72.121 05:56 15.10.2019
5996 Clouds 22 1013 28 16093 1.3 72.121 05:37 15.10.2019
5997 Clear 23 1012 23 16093 1.3 72.121 04:49 15.10.2019
5998 Clouds 24 1012 23 16093 1.5 260 04:19 15.10.2019
5999 Clear 26 1011 19 16093 2.1 270 03:35 15.10.2019
6000 Clear 26 1011 19 16093 2.1 270 03:35 15.10.2019
6001 -273 0 0 0 0 0 01:57 15.10.2019
6002 Clouds 30 1011 25 16093 2.6 130 01:39 15.10.2019
6003 Clear 30 1011 15 16093 3.1 220 00:59 15.10.2019
6004 Clear 30 1011 15 16093 2.1 180 00:25 15.10.2019
6005 Clear 30 1011 15 16093 2.6 250 23:58 14.10.2019
6006 Clear 30 1011 16 16093 3.6 260 23:37 14.10.2019
6007 Clear 30 1011 16 16093 3.6 260 23:37 14.10.2019
6008 Clear 29 1011 16 16093 3.6 260 23:18 14.10.2019
6009 Clear 29 1014 28 16093 2.1 0 22:39 14.10.2019
6010 Clear 29 1014 28 16093 2.1 0 22:20 14.10.2019
6011 Clear 29 1014 23 16093 1.5 210 21:57 14.10.2019
6012 Clouds 29 1013 26 16093 3.1 170 21:39 14.10.2019
6013 Clouds 28 1013 26 16093 3.1 170 21:20 14.10.2019
6014 Clear 28 1013 30 16093 2.39 235.053 20:57 14.10.2019
6015 Clear 28 1014 28 16093 2.1 160 20:38 14.10.2019
6016 Clear 27 1014 28 16093 2.1 160 20:19 14.10.2019
6017 Clear 27 1014 29 16093 1.5 150 19:44 14.10.2019
6018 Clear 26 1015 33 16093 1.273 207 19:26 14.10.2019
6019 Clear 25 1015 41 16093 2.39 235.053 18:59 14.10.2019
6020 Clear 24 1017 43 16093 3.1 120 18:40 14.10.2019
6021 Clear 24 1017 43 16093 3.1 120 18:40 14.10.2019
6022 Clear 23 1017 43 16093 3.1 120 18:21 14.10.2019
6023 Clear 22 1016 46 16093 2.1 80 17:59 14.10.2019
6024 Clouds 22 1015 37 16093 0.96 112.588 17:41 14.10.2019
6025 Clouds 21 1015 37 16093 0.96 112.588 17:22 14.10.2019
6026 Clouds 19 1014 42 16093 3.1 120 16:45 14.10.2019
6027 Clouds 18 1014 42 16093 3.1 120 16:22 14.10.2019
6028 Clouds 17 1014 45 16093 0.96 112.588 15:58 14.10.2019
6029 Clear 16 1014 42 16093 1.5 100 15:38 14.10.2019
6030 Clear 15 1014 42 16093 1.5 100 15:20 14.10.2019
6031 Clear 15 1014 36 16093 2.6 180 14:43 14.10.2019
6032 Clear 15 1014 36 16093 2.6 180 14:24 14.10.2019
6033 Clear 15 1013 34 16093 3.6 120 13:57 14.10.2019
6034 Clear 16 1013 34 16093 3.6 110 13:39 14.10.2019
6035 Clear 16 1014 48 16093 3.6 100 13:20 14.10.2019
6036 Clear 16 1013 31 16093 1.5 80 12:41 14.10.2019
6037 Clear 16 1014 44 16093 2.6 80 12:20 14.10.2019
6038 Clear 17 1013 31 16093 3.1 100 11:54 14.10.2019
6039 Clear 17 1013 49 16093 3.6 100 11:36 14.10.2019
6040 Clear 17 1014 42 16093 2.6 30 11:18 14.10.2019
6041 Clear 17 1013 49 16093 2.1 100 10:43 14.10.2019
6042 Clear 17 1013 49 16093 2.1 100 10:21 14.10.2019
6043 Clear 17 1013 49 16093 2.6 70 09:59 14.10.2019
6044 Clear 17 1013 49 16093 2.6 70 09:59 14.10.2019
6045 Clear 17 1013 49 16093 3.1 70 09:38 14.10.2019
6046 Clear 17 1013 49 16093 3.1 70 09:38 14.10.2019
6047 Clear 18 1015 29 16093 4.6 140 09:19 14.10.2019
6048 Clear 18 1013 38 16093 2.1 150 08:47 14.10.2019
6049 Clear 19 1015 26 16093 2.6 140 08:23 14.10.2019
6050 Clear 19 1012 22 16093 1.5 80 07:44 14.10.2019
6051 Clear 20 1012 22 16093 1.5 80 07:21 14.10.2019
6052 Clear 20 1012 38 16093 1.5 110 06:54 14.10.2019
6053 Clear 20 1012 20 16093 2.6 170 06:27 14.10.2019
6054 Clear 22 1012 20 16093 2.1 220 05:51 14.10.2019
6055 Clear 23 1011 16 16093 3.1 200 04:50 14.10.2019
6056 Clear 26 1011 13 16093 2.6 240 03:48 14.10.2019
6057 Clear 27 1012 15 16093 2.6 240 03:21 14.10.2019
6058 Clear 31 1010 9 16093 3.1 230 01:36 14.10.2019
6059 Clear 31 1012 11 16093 4.1 180 01:18 14.10.2019
6060 Clear 31 1012 9 16093 3.92 202.16 00:21 14.10.2019
6061 Clear 31 1011 10 16093 3.6 210 23:46 13.10.2019
6062 Clear 31 1011 10 16093 3.6 210 23:21 13.10.2019
6063 Clear 31 1012 11 16093 5.1 200 22:59 13.10.2019
6064 -273 0 0 0 0 0 22:41 13.10.2019
6065 Clear 31 1014 16 16093 2.1 170 22:21 13.10.2019
6066 Clear 31 1012 12 16093 2.6 220 21:58 13.10.2019
6067 Clear 30 1013 14 16093 3.92 202.16 21:38 13.10.2019
6068 Clear 30 1015 17 16093 3.6 160 21:19 13.10.2019
6069 Clear 29 1013 15 16093 2.1 180 20:58 13.10.2019
6070 Clear 29 1013 15 16093 2.1 180 20:58 13.10.2019
6071 Clear 29 1013 15 16093 2.1 180 20:58 13.10.2019
6072 Clear 29 1014 18 16093 2.1 170 20:39 13.10.2019
6073 Clear 29 1014 18 16093 2.1 170 20:39 13.10.2019
6074 Clear 28 1015 21 16093 1.5 90 20:21 13.10.2019
6075 Clear 28 1015 21 16093 1.5 90 20:21 13.10.2019
6076 -273 0 0 0 0 0 19:59 13.10.2019
6077 Clear 27 1014 18 16093 4.1 110 19:39 13.10.2019
6078 Clear 27 1014 18 16093 4.1 110 19:39 13.10.2019
6079 Clear 26 1014 18 16093 4.1 110 19:21 13.10.2019
6080 -273 0 0 0 0 0 18:58 13.10.2019
6081 Clear 25 1015 23 16093 4.6 100 18:58 13.10.2019
6082 Clear 24 1015 24 16093 4.1 100 18:38 13.10.2019
6083 Clear 24 1015 24 16093 4.1 100 18:38 13.10.2019
6084 Clear 23 1016 30 16093 3.6 110 18:19 13.10.2019
6085 Clear 21 1015 29 16093 4.1 100 17:58 13.10.2019
6086 Clear 20 1015 33 16093 1.5 130 17:39 13.10.2019
6087 Clear 18 1016 39 16093 3.6 130 17:21 13.10.2019
6088 Clear 16 1014 22 16093 5.7 100 16:43 13.10.2019
6089 -273 0 0 0 0 0 16:19 13.10.2019
6090 Clear 13 1014 22 16093 4.1 120 15:57 13.10.2019
6091 Clear 12 1014 22 16093 3.6 130 15:39 13.10.2019
6092 Clear 13 1014 30 16093 3.6 130 15:20 13.10.2019
6093 Clear 13 1014 30 16093 3.6 130 15:20 13.10.2019
6094 Clear 13 1013 30 16093 5.1 120 14:57 13.10.2019
6095 Clear 13 1013 30 16093 2.6 110 14:39 13.10.2019
6096 Clear 13 1013 30 16093 2.6 110 14:20 13.10.2019
6097 Clear 14 1013 30 16093 4.1 110 13:43 13.10.2019
6098 Clear 14 1013 30 16093 4.1 110 13:24 13.10.2019
6099 Clear 14 1013 30 16093 3.6 120 12:59 13.10.2019
6100 Clear 14 1013 30 16093 3.6 120 12:59 13.10.2019
6101 Clear 14 1013 30 16093 4.6 110 12:40 13.10.2019
6102 Clear 14 1014 44 16093 3.6 100 12:21 13.10.2019
6103 Clear 14 1013 29 16093 1.5 150 11:59 13.10.2019
6104 Clear 15 1013 31 16093 2.6 110 11:39 13.10.2019
6105 Clear 15 1013 31 16093 2.6 110 11:21 13.10.2019
6106 Clear 15 1013 33 16093 2.1 100 10:59 13.10.2019
6107 Clear 15 1014 41 16093 3.6 120 10:39 13.10.2019
6108 Clear 15 1014 41 16093 3.6 120 10:39 13.10.2019
6109 Clear 16 1014 41 16093 3.6 120 10:20 13.10.2019
6110 Clear 16 1013 27 16093 1.5 80 09:39 13.10.2019
6111 Clear 17 1015 27 16093 4.1 160 09:21 13.10.2019
6112 Clear 17 1013 24 16093 1.57 192.699 08:51 13.10.2019
6113 Clear 17 1013 24 16093 2.6 200 08:27 13.10.2019
6114 Clear 18 1013 25 16093 1.5 170 07:55 13.10.2019
6115 Clear 18 1013 24 16093 2.1 190 07:35 13.10.2019
6116 Clear 19 1013 22 16093 2.1 210 06:54 13.10.2019
6117 Clear 19 1012 22 16093 2.6 210 06:26 13.10.2019
6118 Clear 21 1012 21 16093 1.5 210 05:27 13.10.2019
6119 Clear 23 1012 17 16093 1.5 280 04:35 13.10.2019
6120 Clear 26 1011 14 16093 2.6 320 03:35 13.10.2019
6121 Clear 29 1011 11 16093 3.1 330 02:32 13.10.2019
6122 Clear 30 1011 10 16093 2.6 340 01:47 13.10.2019
6123 Clear 31 1012 10 16093 3.1 270 01:21 13.10.2019
6124 Clear 31 1011 10 16093 3.1 310 00:42 13.10.2019
6125 Clear 31 1012 22 16093 2.6 300 00:19 13.10.2019
6126 Clear 31 1011 10 16093 2.6 260 23:42 12.10.2019
6127 Clear 31 1011 10 16093 2.6 260 23:23 12.10.2019
6128 Clear 31 1011 10 16093 2.6 260 23:23 12.10.2019
6129 Clear 31 1012 13 16093 4.1 260 22:59 12.10.2019
6130 Clear 31 1012 13 16093 3.6 200 22:40 12.10.2019
6131 Clear 31 1012 13 16093 3.6 200 22:22 12.10.2019
6132 Clear 30 1012 13 16093 4.1 250 21:59 12.10.2019
6133 Clear 30 1012 13 16093 3.6 190 21:41 12.10.2019
6134 Clear 29 1012 13 16093 3.6 190 21:23 12.10.2019
6135 Clear 29 1013 16 16093 4.1 170 20:56 12.10.2019
6136 Clear 29 1013 27 16093 2.1 160 20:37 12.10.2019
6137 Clear 28 1015 24 16093 3.6 120 20:19 12.10.2019
6138 Rain 27 1014 20 16093 2.33 214.571 19:36 12.10.2019
6139 Rain 26 1015 25 16093 3.1 110 19:18 12.10.2019
6140 Clear 25 1014 27 16093 2.1 190 18:44 12.10.2019
6141 Clear 24 1014 27 16093 2.1 190 18:26 12.10.2019
6142 Rain 22 1015 30 16093 5.1 90 17:46 12.10.2019
6143 Rain 20 1015 30 16093 5.1 90 17:25 12.10.2019
6144 Rain 19 1013 36 16093 1.5 280 16:59 12.10.2019
6145 Clear 18 1013 27 16093 2.68 76.935 16:40 12.10.2019
6146 Clear 18 1013 27 16093 2.68 76.935 16:40 12.10.2019
6147 Clear 17 1013 27 16093 2.68 76.935 16:21 12.10.2019
6148 Clear 17 1013 36 16093 2.68 76.935 15:57 12.10.2019
6149 Clear 17 1013 36 16093 2.68 76.935 15:38 12.10.2019
6150 Clear 16 1014 33 16093 6.2 120 15:18 12.10.2019
6151 -273 0 0 0 0 0 14:40 12.10.2019
6152 Clear 16 1013 31 16093 5.1 100 14:20 12.10.2019
6153 Clear 16 1012 33 16093 3.09 76.948 13:51 12.10.2019
6154 Clear 16 1012 33 16093 2.95 74.615 13:32 12.10.2019
6155 Clear 16 1013 30 16093 1.5 300 12:56 12.10.2019
6156 Clear 17 1012 26 16093 2.95 74.615 12:38 12.10.2019
6157 Clear 17 1012 26 16093 2.95 74.615 12:38 12.10.2019
6158 Clear 17 1014 28 16093 7.2 100 12:20 12.10.2019
6159 Clear 17 1014 28 16093 7.2 100 12:20 12.10.2019
6160 Rain 17 1013 23 16093 3.6 90 11:45 12.10.2019
6161 Rain 17 1013 23 16093 3.6 90 11:24 12.10.2019
6162 Rain 17 1013 27 16093 2.1 170 10:58 12.10.2019
6163 Rain 17 1013 25 16093 2.6 100 10:39 12.10.2019
6164 Clear 17 1013 25 16093 2.6 100 10:20 12.10.2019
6165 Clear 17 1013 27 16093 1.5 110 09:57 12.10.2019
6166 Rain 17 1013 23 16093 2.83 76.037 09:38 12.10.2019
6167 Rain 18 1014 29 16093 3.6 120 09:20 12.10.2019
6168 Rain 18 1013 23 16093 2.1 80 08:45 12.10.2019
6169 Clear 18 1013 23 16093 2.1 80 08:25 12.10.2019
6170 Clear 19 1013 20 16093 2.1 120 07:59 12.10.2019
6171 Rain 19 1013 20 16093 1.5 110 07:31 12.10.2019
6172 Clear 21 1013 19 16093 2.1 200 06:37 12.10.2019
6173 Rain 22 1013 19 16093 2.1 260 05:44 12.10.2019
6174 Clear 24 1012 16 16093 2.6 310 04:43 12.10.2019
6175 Clear 25 1012 15 16093 3.1 310 03:56 12.10.2019
6176 Rain 28 1012 12 16093 3.1 310 02:50 12.10.2019
6177 Rain 30 1012 10 0 4.6 320 01:35 12.10.2019
6178 Rain 30 1014 16 16093 2.44 84.13 00:56 12.10.2019
6179 Clear 31 1014 16 16093 2.44 84.13 00:38 12.10.2019
6180 Clear 30 1013 11 16093 3.1 300 23:55 11.10.2019
6181 Clear 31 1013 11 16093 2.6 280 23:37 11.10.2019
6182 Clear 30 1014 17 16093 1.82 208.505 23:18 11.10.2019
6183 Clear 30 1014 10 16093 3.6 330 22:38 11.10.2019
6184 Clear 30 1015 18 16093 2.6 120 22:19 11.10.2019
6185 Clear 29 1016 18 16093 2.6 10 21:44 11.10.2019
6186 Clear 28 1015 11 16093 2.1 350 21:22 11.10.2019
6187 Clear 28 1016 10 16093 1.5 360 20:59 11.10.2019
6188 Clear 27 1017 19 16093 1.97 104.015 20:41 11.10.2019
6189 Clear 26 1016 11 16093 1.5 330 20:23 11.10.2019
6190 Clear 25 1017 11 16093 1.97 104.015 19:55 11.10.2019
6191 Clear 25 1017 11 16093 2.1 100 19:37 11.10.2019
6192 Clear 25 1017 11 16093 2.1 100 19:37 11.10.2019
6193 Rain 24 1018 19 16093 1.97 104.015 19:18 11.10.2019
6194 Rain 24 1018 19 16093 1.97 104.015 19:18 11.10.2019
6195 Rain 24 1018 19 16093 1.97 104.015 19:18 11.10.2019
6196 Clear 23 1017 14 16093 1.5 70 18:56 11.10.2019
6197 Clear 22 1017 15 16093 1.97 104.015 18:37 11.10.2019
6198 Clear 21 1018 22 16093 1.5 70 18:18 11.10.2019
6199 Clear 19 1018 19 16093 4.21 78.134 17:55 11.10.2019
6200 Clear 19 1018 25 16093 3.1 80 17:36 11.10.2019
6201 Clear 17 1018 25 16093 3.1 80 17:18 11.10.2019
6202 Clear 15 1017 35 16093 4.21 78.134 16:40 11.10.2019
6203 Clear 15 1017 34 11265 4.21 78.134 16:20 11.10.2019
6204 Clear 15 1017 34 11265 4.21 78.134 16:20 11.10.2019
6205 Clear 14 1017 27 16093 4.21 78.134 15:58 11.10.2019
6206 Clear 14 1016 29 16093 4.21 78.134 15:38 11.10.2019
6207 Clear 13 1017 21 16093 2.1 90 15:19 11.10.2019
6208 Clear 14 1016 27 16093 3.26 73.56 14:46 11.10.2019
6209 Clear 14 1016 27 16093 3.26 73.56 14:28 11.10.2019
6210 Rain 14 1016 24 16093 3.26 73.56 13:56 11.10.2019
6211 Rain 14 1016 22 16093 2.6 200 13:37 11.10.2019
6212 Rain 14 1016 50 16093 3.6 130 13:18 11.10.2019
6213 Rain 15 1015 24 16093 3.92 72.565 12:42 11.10.2019
6214 Rain 15 1015 24 16093 5.6 66.963 12:22 11.10.2019
6215 Rain 15 1015 19 16093 5.6 66.963 12:00 11.10.2019
6216 Clear 15 1015 18 16093 2.1 230 11:40 11.10.2019
6217 Clear 16 1016 14 16093 3.1 150 11:21 11.10.2019
6218 Clear 15 1015 22 16093 1.5 210 10:56 11.10.2019
6219 Clear 16 1015 22 16093 2.1 170 10:38 11.10.2019
6220 Clear 16 1015 14 16093 3.1 160 10:20 11.10.2019
6221 Clear 16 1015 14 16093 3.1 160 10:20 11.10.2019
6222 Clear 16 1015 22 16093 5.6 66.963 09:54 11.10.2019
6223 Clear 16 1015 22 16093 5.6 66.963 09:54 11.10.2019
6224 Clear 16 1014 22 16093 3.1 260 09:36 11.10.2019
6225 Clear 17 1015 38 16093 2.1 150 09:18 11.10.2019
6226 Clear 17 1014 18 16093 3.1 320 08:39 11.10.2019
6227 Clear 18 1015 31 16093 1.5 200 08:21 11.10.2019
6228 Clear 18 1014 22 16093 3.1 300 07:59 11.10.2019
6229 Clear 18 1014 25 16093 2.6 310 07:40 11.10.2019
6230 Clear 19 1014 28 16093 3.1 220 07:20 11.10.2019
6231 Clear 20 1013 22 16093 6.95 57.409 06:43 11.10.2019
6232 Clear 20 1014 31 16093 2.1 290 06:21 11.10.2019
6233 Clear 21 1013 22 16093 2.35 9.623 05:32 11.10.2019
6234 Clear 22 1012 22 16093 2.1 320 04:59 11.10.2019
6235 Clear 23 1012 22 16093 2.6 330 04:24 11.10.2019
6236 Clear 28 1012 14 16093 4.6 300 01:58 11.10.2019
6237 Clear 29 1010 14 16093 3.1 330 00:42 11.10.2019
6238 Clear 29 1010 14 16093 3.1 330 00:42 11.10.2019
6239 Clear 29 1011 17 16093 4.6 330 00:23 11.10.2019
6240 Clear 29 1011 20 16093 5.1 290 23:42 10.10.2019
6241 Rain 29 1010 14 16093 4.6 330 23:20 10.10.2019
6242 Rain 29 1011 14 16093 4.6 360 22:57 10.10.2019
6243 Rain 29 1012 16 16093 6.7 310 22:38 10.10.2019
6244 Clear 29 1012 16 16093 6.7 310 22:19 10.10.2019
6245 Clear 29 1011 15 16093 3.6 340 21:54 10.10.2019
6246 Clear 29 1012 15 16093 3.6 350 21:36 10.10.2019
6247 Clear 28 1013 18 16093 2.1 320 21:18 10.10.2019
6248 Clear 28 1012 14 16093 5.28 235.05 20:41 10.10.2019
6249 Clear 27 1012 14 16093 5.28 235.05 20:21 10.10.2019
6250 Clear 27 1012 15 16093 2.6 330 19:58 10.10.2019
6251 Clear 27 1012 15 16093 1.5 340 19:39 10.10.2019
6252 Clear 26 1013 25 16093 1.5 30 19:19 10.10.2019
6253 Clear 26 1012 22 16093 1.5 180 18:54 10.10.2019
6254 Clear 25 1012 22 16093 2.1 150 18:36 10.10.2019
6255 Clear 24 1013 28 16093 2.1 110 18:18 10.10.2019
6256 -273 0 0 0 0 0 17:40 10.10.2019
6257 Clear 21 1013 34 16093 5.7 90 17:20 10.10.2019
6258 Clear 19 1011 30 16093 2.81 176.923 16:58 10.10.2019
6259 Clear 18 1011 27 16093 2.81 176.923 16:38 10.10.2019
6260 Clear 17 1012 36 16093 3.1 120 16:20 10.10.2019
6261 Clear 17 1010 30 16093 2.1 150 15:43 10.10.2019
6262 Clear 16 1010 29 16093 2.1 150 15:23 10.10.2019
6263 Clear 16 1009 25 16093 2.1 130 14:59 10.10.2019
6264 Clear 16 1009 25 16093 3.1 130 14:37 10.10.2019
6265 Clear 16 1011 33 16093 3.1 130 14:19 10.10.2019
6266 Clear 16 1009 25 16093 4.1 130 13:58 10.10.2019
6267 Clear 16 1009 25 16093 4.6 100 13:39 10.10.2019
6268 Clear 16 1011 41 16093 5.7 160 13:18 10.10.2019
6269 Clear 17 1009 19 16093 5.1 180 12:42 10.10.2019
6270 Clear 18 1011 36 16093 2.1 80 12:21 10.10.2019
6271 Clear 18 1009 19 16093 4.1 170 11:58 10.10.2019
6272 Clear 19 1009 18 16093 2.6 150 11:40 10.10.2019
6273 Clear 19 1010 34 16093 1.5 120 11:19 10.10.2019
6274 Clear 19 1009 20 16093 3.81 168.681 10:57 10.10.2019
6275 Clear 19 1009 22 16093 2.6 160 10:39 10.10.2019
6276 Clear 19 1010 39 16093 3.6 100 10:20 10.10.2019
6277 Clear 20 1008 25 16093 1.5 130 09:41 10.10.2019
6278 Clear 20 1008 34 16093 1.5 130 09:23 10.10.2019
6279 Clear 20 1009 28 16093 1.5 110 08:59 10.10.2019
6280 Clear 21 1009 24 16093 2.1 150 08:40 10.10.2019
6281 Clear 20 1010 30 16093 4.6 130 08:21 10.10.2019
6282 Clear 20 1008 23 16093 3.1 190 07:48 10.10.2019
6283 Clear 21 1008 23 16093 3.1 190 07:26 10.10.2019
6284 Clear 21 1008 23 16093 3.6 170 06:56 10.10.2019
6285 Clear 22 1008 35 16093 3.6 170 06:38 10.10.2019
6286 Clear 23 1007 27 16093 3.6 190 05:50 10.10.2019
6287 Clear 24 1009 25 16093 2.6 240 05:19 10.10.2019
6288 Clear 26 1007 27 16093 3.6 240 04:35 10.10.2019
6289 Clear 30 1006 11 16093 5.7 220 02:42 10.10.2019
6290 Clear 32 1006 19 16093 6.2 240 01:37 10.10.2019
6291 Clear 32 1008 14 16093 5.1 280 01:18 10.10.2019
6292 Clear 32 1007 11 16093 3.1 190 00:33 10.10.2019
6293 Clear 32 1007 10 16093 4.1 260 23:42 09.10.2019
6294 Clear 32 1007 10 16093 4.1 260 23:24 09.10.2019
6295 Clear 32 1007 10 16093 4.1 260 23:24 09.10.2019
6296 Clear 32 1008 11 16093 4.1 200 22:59 09.10.2019
6297 Clear 31 1008 11 16093 4.1 210 22:41 09.10.2019
6298 Clear 31 1008 11 16093 4.1 210 22:22 09.10.2019
6299 Clear 31 1009 12 16093 5.33 245.555 21:57 09.10.2019
6300 Clear 30 1009 17 16093 3.6 230 21:38 09.10.2019
6301 Clear 30 1011 20 16093 4.82 195.532 21:19 09.10.2019
6302 Clear 29 1011 22 16093 1.5 200 20:55 09.10.2019
6303 Clear 29 1011 22 16093 1.5 200 20:36 09.10.2019
6304 Clear 29 1013 17 16093 4.4 195.031 20:18 09.10.2019
6305 Clear 29 1013 17 16093 4.4 195.031 20:18 09.10.2019
6306 Clear 29 1013 17 16093 4.4 195.031 20:18 09.10.2019
6307 Clear 28 1012 21 16093 3.1 140 19:43 09.10.2019
6308 Clear 27 1012 21 16093 3.1 140 19:23 09.10.2019
6309 Clear 26 1012 25 16093 4.1 110 18:39 09.10.2019
6310 Clear 25 1014 33 16093 2.6 160 18:21 09.10.2019
6311 -273 0 0 0 0 0 17:58 09.10.2019
6312 Clear 24 1012 30 16093 5.1 110 17:40 09.10.2019
6313 Clear 22 1012 30 16093 5.1 110 17:22 09.10.2019
6314 Clear 20 1011 37 16093 4.1 110 16:57 09.10.2019
6315 Clear 19 1011 42 16093 3.6 100 16:39 09.10.2019
6316 Clear 18 1011 42 16093 3.6 100 16:21 09.10.2019
6317 Clear 18 1011 42 16093 3.6 100 16:21 09.10.2019
6318 Clear 16 1011 45 16093 3.6 100 15:57 09.10.2019
6319 Clear 17 1011 42 16093 1.5 90 15:38 09.10.2019
6320 Clear 16 1012 51 16093 6.2 130 15:19 09.10.2019
6321 Clear 16 1011 39 16093 1.6 156.473 14:55 09.10.2019
6322 Clear 16 1010 37 16093 3.1 120 14:36 09.10.2019
6323 Clear 16 1010 37 16093 3.1 120 14:36 09.10.2019
6324 Clear 16 1012 45 16093 4.1 130 14:18 09.10.2019
6325 Clear 17 1010 32 16093 1.6 156.473 13:38 09.10.2019
6326 Clear 17 1011 48 16093 3.6 110 13:19 09.10.2019
6327 Clear 17 1009 30 16093 4.1 100 12:55 09.10.2019
6328 Clear 17 1010 30 16093 4.1 100 12:37 09.10.2019
6329 Clear 18 1012 48 16093 4.1 160 12:18 09.10.2019
6330 Clear 18 1010 28 16093 4.1 110 11:40 09.10.2019
6331 Clear 18 1010 28 16093 4.1 110 11:20 09.10.2019
6332 Clear 18 1011 28 16093 3.6 100 10:59 09.10.2019
6333 Clear 18 1010 29 16093 3.1 110 10:40 09.10.2019
6334 Clear 19 1012 37 16093 2.6 180 10:19 09.10.2019
6335 Clear 19 1012 37 16093 2.6 180 10:19 09.10.2019
6336 Clear 19 1010 35 16093 4.6 190 09:43 09.10.2019
6337 Rain 20 1010 36 16093 4.6 190 09:21 09.10.2019
6338 Rain 20 1010 22 16093 4.1 210 08:58 09.10.2019
6339 Clear 21 1010 21 16093 3.6 200 08:39 09.10.2019
6340 Clear 21 1012 34 16093 3.1 200 08:19 09.10.2019
6341 Clear 21 1012 34 16093 3.1 200 08:19 09.10.2019
6342 Clear 21 1011 24 16093 3.6 200 07:47 09.10.2019
6343 Clear 21 1011 24 16093 3.6 200 07:47 09.10.2019
6344 Clear 21 1011 24 16093 3.6 200 07:25 09.10.2019
6345 Clear 22 1010 31 16093 2.1 200 06:57 09.10.2019
6346 Clear 23 1010 31 16093 0.98 58.856 06:35 09.10.2019
6347 Clear 24 1010 19 16093 2.92 35.085 05:52 09.10.2019
6348 Rain 26 1011 23 16093 3.6 310 04:50 09.10.2019
6349 Rain 28 1011 23 16093 2.6 240 03:47 09.10.2019
6350 Rain 32 1008 10 16093 2.6 330 02:27 09.10.2019
6351 Rain 33 1009 16 16093 5.1 270 01:24 09.10.2019
6352 Rain 34 1008 9 16093 5.1 330 00:59 09.10.2019
6353 Rain 34 1010 18 16093 6.7 290 00:40 09.10.2019
6354 Rain 34 1010 21 16093 2.1 330 00:22 09.10.2019
6355 Clear 34 1009 21 16093 5.7 320 23:58 08.10.2019
6356 Rain 34 1009 12 16093 4.1 340 23:38 08.10.2019
6357 Rain 33 1010 21 16093 3.1 200 23:18 08.10.2019
6358 Rain 33 1010 21 16093 3.1 200 23:18 08.10.2019
6359 Rain 34 1011 17 16093 5.7 270 22:41 08.10.2019
6360 Clear 34 1010 13 16093 1.5 300 22:22 08.10.2019
6361 Rain 33 1011 13 16093 2.1 260 21:58 08.10.2019
6362 Rain 33 1011 15 16093 2.1 250 21:39 08.10.2019
6363 Rain 32 1011 15 16093 2.1 250 21:20 08.10.2019
6364 Rain 32 1012 19 16093 3.26 225.809 20:58 08.10.2019
6365 Rain 32 1012 20 16093 3.55 220.405 20:39 08.10.2019
6366 Rain 31 1013 28 16093 3.55 220.405 20:21 08.10.2019
6367 Rain 30 1012 25 16093 3.55 220.405 19:59 08.10.2019
6368 Clear 30 1012 26 16093 3.55 220.405 19:41 08.10.2019
6369 Clear 29 1012 26 16093 3.55 220.405 19:23 08.10.2019
6370 Rain 28 1012 29 16093 1.5 190 18:57 08.10.2019
6371 Rain 27 1013 31 16093 3.55 220.405 18:39 08.10.2019
6372 Rain 26 1014 34 16093 2.6 140 18:19 08.10.2019
6373 Clear 25 1013 33 16093 1.5 160 17:55 08.10.2019
6374 Clear 25 1013 33 16093 1.5 160 17:55 08.10.2019
6375 Clear 24 1013 35 16093 1.5 200 17:36 08.10.2019
6376 Rain 23 1014 46 16093 3.1 120 17:18 08.10.2019
6377 Rain 23 1014 46 16093 3.1 120 17:18 08.10.2019
6378 Clear 21 1012 43 16093 5.1 110 16:40 08.10.2019
6379 Clear 20 1012 43 16093 5.1 110 16:22 08.10.2019
6380 Clear 18 1012 49 16093 3.1 110 15:41 08.10.2019
6381 Clear 18 1013 60 16093 4.1 110 15:22 08.10.2019
6382 Clear 18 1013 60 16093 4.1 110 15:22 08.10.2019
6383 Clear 18 1012 45 16093 3.6 100 14:59 08.10.2019
6384 Clear 18 1012 45 16093 0.77 207.201 14:41 08.10.2019
6385 Clear 18 1013 55 16093 0.77 207.201 14:21 08.10.2019
6386 Clear 19 1012 48 16093 0.77 207.201 13:57 08.10.2019
6387 Clear 19 1012 45 16093 0.77 207.201 13:39 08.10.2019
6388 Clear 19 1013 56 16093 3.1 150 13:19 08.10.2019
6389 Clouds 19 1012 42 16093 1.01 47.882 12:59 08.10.2019
6390 Clouds 19 1012 42 16093 1.01 47.882 12:38 08.10.2019
6391 Clear 20 1013 60 16093 1.5 80 12:18 08.10.2019
6392 Clear 20 1012 37 16093 1.14 97.931 11:42 08.10.2019
6393 Rain 20 1012 37 16093 1.14 97.931 11:24 08.10.2019
6394 Rain 20 1012 37 16093 1.14 97.931 11:24 08.10.2019
6395 Rain 21 1012 34 16093 1.5 80 10:58 08.10.2019
6396 Rain 21 1012 32 16093 1.5 100 10:38 08.10.2019
6397 Rain 21 1014 46 16093 1.14 97.931 10:20 08.10.2019
6398 Rain 21 1012 28 16093 1.5 180 09:56 08.10.2019
6399 Rain 21 1012 28 16093 1.5 180 09:56 08.10.2019
6400 Clear 22 1012 30 16093 1.5 190 09:37 08.10.2019
6401 Clouds 22 1014 44 16093 2.6 150 09:19 08.10.2019
6402 Clouds 23 1012 33 16093 1.5 120 08:42 08.10.2019
6403 Clear 23 1014 49 16093 2.6 190 08:23 08.10.2019
6404 Clear 23 1014 49 16093 2.6 190 08:23 08.10.2019
6405 Clear 23 1014 49 16093 2.6 190 08:23 08.10.2019
6406 Clear 24 1012 31 16093 2.65 127.532 07:45 08.10.2019
6407 Clear 24 1014 44 16093 3.1 160 07:21 08.10.2019
6408 Clear 25 1012 31 16093 2.6 250 06:53 08.10.2019
6409 Rain 25 1012 29 16093 1.5 230 06:28 08.10.2019
6410 Clouds 27 1012 24 16093 1.16 113.722 05:46 08.10.2019
6411 Clouds 27 1012 24 16093 1.16 113.722 05:26 08.10.2019
6412 Rain 29 1013 23 16093 2.1 310 04:31 08.10.2019
6413 Rain 31 1011 19 16093 2.6 320 03:28 08.10.2019
6414 Rain 33 1011 14 16093 3.1 320 02:37 08.10.2019
6415 Rain 34 1012 13 16093 4.1 270 01:47 08.10.2019
6416 Rain 35 1012 13 16093 4.1 270 01:27 08.10.2019
6417 Clear 35 1012 13 16093 2.6 270 00:46 08.10.2019
6418 Rain 35 1014 19 14484 4.1 130 00:21 08.10.2019
6419 Rain 35 1013 14 16093 2.6 310 23:40 07.10.2019
6420 Rain 35 1014 20 16093 2.1 110 23:20 07.10.2019
6421 Rain 35 1013 14 16093 2.6 320 22:56 07.10.2019
6422 Rain 35 1014 13 16093 3.6 330 22:38 07.10.2019
6423 Rain 35 1015 20 16093 5.1 130 22:20 07.10.2019
6424 Rain 35 1014 14 16093 4.1 300 21:56 07.10.2019
6425 Rain 35 1015 14 16093 1.5 50 21:37 07.10.2019
6426 Rain 33 1017 21 16093 5.7 110 21:19 07.10.2019
6427 Rain 33 1017 21 16093 5.7 110 21:19 07.10.2019
6428 Rain 33 1017 21 16093 5.7 110 21:19 07.10.2019
6429 Rain 33 1015 14 16093 2.1 350 20:57 07.10.2019
6430 Clear 33 1016 24 16093 2.1 10 20:39 07.10.2019
6431 Clear 32 1017 24 16093 7.2 110 20:19 07.10.2019
6432 Clear 31 1016 17 16093 3.6 100 19:56 07.10.2019
6433 Clear 31 1016 20 16093 4.1 90 19:38 07.10.2019
6434 Clear 30 1018 23 16093 1.74 129.919 19:18 07.10.2019
6435 Clear 29 1017 24 16093 4.6 110 18:55 07.10.2019
6436 Rain 28 1017 23 16093 4.6 110 18:37 07.10.2019
6437 Rain 26 1018 24 16093 5.1 120 18:18 07.10.2019
6438 Rain 23 1017 30 16093 4.1 100 17:41 07.10.2019
6439 Clear 22 1018 33 16093 2.1 180 17:19 07.10.2019
6440 Clear 21 1017 39 16093 1.5 190 16:55 07.10.2019
6441 Clear 21 1017 39 16093 1.5 190 16:55 07.10.2019
6442 Clear 20 1016 39 16093 4.1 120 16:37 07.10.2019
6443 Clear 18 1018 45 16093 3.6 160 16:18 07.10.2019
6444 Clear 17 1016 45 16093 3.1 110 15:41 07.10.2019
6445 Clear 17 1016 45 16093 3.1 110 15:41 07.10.2019
6446 Clear 17 1016 45 16093 3.1 110 15:41 07.10.2019
6447 Clear 17 1017 51 16093 3.6 140 15:22 07.10.2019
6448 Clear 17 1016 42 16093 2.1 130 14:42 07.10.2019
6449 Clear 17 1016 42 16093 2.1 130 14:23 07.10.2019
6450 Clear 17 1016 37 16093 4.6 100 13:45 07.10.2019
6451 Clear 17 1016 37 16093 4.6 100 13:21 07.10.2019
6452 Clear 17 1016 37 16093 4.6 100 13:21 07.10.2019
6453 Clear 17 1016 39 16093 2.1 110 12:59 07.10.2019
6454 Clear 17 1016 34 16093 3.1 140 12:41 07.10.2019
6455 Rain 18 1016 34 16093 3.1 140 12:21 07.10.2019
6456 Rain 18 1016 30 16093 1.5 90 11:59 07.10.2019
6457 Rain 18 1016 34 16093 2.1 120 11:41 07.10.2019
6458 Rain 18 1016 34 16093 2.1 120 11:22 07.10.2019
6459 Rain 18 1016 34 16093 1.5 140 10:58 07.10.2019
6460 Rain 18 1016 34 16093 1.5 140 10:58 07.10.2019
6461 Rain 18 1016 34 16093 1.5 140 10:58 07.10.2019
6462 Rain 19 1016 32 16093 1.5 170 10:39 07.10.2019
6463 Rain 19 1018 51 16093 2.6 130 10:20 07.10.2019
6464 Rain 20 1016 34 16093 2.05 77.825 09:40 07.10.2019
6465 Rain 20 1016 34 16093 2.74 51.824 09:22 07.10.2019
6466 Rain 20 1016 26 16093 1.5 240 08:44 07.10.2019
6467 Rain 21 1016 26 16093 1.5 240 08:21 07.10.2019
6468 Rain 21 1018 35 16093 2.1 140 07:59 07.10.2019
6469 Clear 21 1016 24 16093 3.28 54.554 07:40 07.10.2019
6470 Clear 22 1018 35 16093 2.6 180 07:20 07.10.2019
6471 Clear 22 1016 26 16093 1.5 230 06:44 07.10.2019
6472 Clear 23 1016 26 16093 1.5 230 06:22 07.10.2019
6473 Rain 24 1017 27 16093 2.1 270 05:27 07.10.2019
6474 Rain 25 1016 20 16093 2.6 360 04:56 07.10.2019
6475 Rain 26 1017 22 16093 2.6 300 04:19 07.10.2019
6476 Rain 28 1015 29 16093 3.1 310 03:39 07.10.2019
6477 Rain 28 1015 29 16093 3.1 310 03:39 07.10.2019
6478 Rain 29 1016 19 16093 3.6 330 03:18 07.10.2019
6479 Rain 32 1016 18 16093 4.33 318.376 02:20 07.10.2019
6480 Rain 32 1015 22 16093 3.6 310 01:42 07.10.2019
6481 Rain 33 1016 19 16093 3.6 340 01:18 07.10.2019
6482 Rain 33 1016 24 16093 4.1 310 00:38 07.10.2019
6483 Clear 33 1017 19 16093 1.5 290 00:19 07.10.2019
6484 Clear 33 1016 23 16093 3.6 300 23:42 06.10.2019
6485 Clear 33 1016 23 16093 3.6 300 23:21 06.10.2019
6486 Rain 32 1016 13 16093 2.1 290 22:58 06.10.2019
6487 Rain 33 1017 14 16093 3.6 310 22:40 06.10.2019
6488 Rain 32 1018 22 16093 2.6 150 22:21 06.10.2019
6489 Rain 32 1017 15 16093 3.1 320 21:57 06.10.2019
6490 Rain 32 1018 15 16093 3.6 340 21:37 06.10.2019
6491 Rain 32 1018 15 16093 3.6 340 21:37 06.10.2019
6492 Rain 31 1019 23 16093 1.4 306.706 21:19 06.10.2019
6493 Rain 31 1018 17 16093 2.1 360 20:57 06.10.2019
6494 Rain 30 1018 21 16093 1.95 314.084 20:38 06.10.2019
6495 Rain 30 1020 28 16093 1.95 314.084 20:20 06.10.2019
6496 Rain 29 1019 24 16093 1.95 314.084 19:57 06.10.2019
6497 Rain 29 1019 24 16093 1.95 314.084 19:37 06.10.2019
6498 Rain 28 1020 32 16093 1.5 120 19:18 06.10.2019
6499 Rain 27 1019 31 16093 2.1 110 18:56 06.10.2019
6500 Rain 27 1019 31 16093 2.1 110 18:56 06.10.2019
6501 Rain 26 1019 36 16093 2.6 100 18:37 06.10.2019
6502 Rain 25 1020 38 16093 2.1 120 18:18 06.10.2019
6503 Rain 23 1019 46 16093 3.6 100 17:43 06.10.2019
6504 Clear 22 1020 49 16093 2.6 120 17:20 06.10.2019
6505 Clear 20 1018 52 16093 2.6 120 16:56 06.10.2019
6506 Clear 19 1018 52 16093 1.5 130 16:38 06.10.2019
6507 Clear 18 1019 63 16093 3.1 130 16:19 06.10.2019
6508 Clear 17 1017 52 16093 1.5 150 15:44 06.10.2019
6509 Clear 16 1017 52 16093 1.5 150 15:22 06.10.2019
6510 Clear 17 1017 51 16093 1.06 30.499 14:57 06.10.2019
6511 Clear 17 1017 52 16093 1.06 30.499 14:39 06.10.2019
6512 Clear 17 1018 67 16093 2.6 120 14:20 06.10.2019
6513 Clear 17 1016 52 16093 2.6 90 13:54 06.10.2019
6514 -273 0 0 0 0 0 13:54 06.10.2019
6515 -273 0 0 0 0 0 13:54 06.10.2019
6516 Clear 17 1016 48 16093 2.6 120 13:36 06.10.2019
6517 Clear 17 1018 63 16093 3.1 120 13:18 06.10.2019
6518 Clear 17 1016 48 16093 3.1 100 12:54 06.10.2019
6519 Clear 17 1016 48 16093 3.1 100 12:54 06.10.2019
6520 Clear 18 1016 45 16093 2.6 100 12:36 06.10.2019
6521 Clear 18 1018 63 16093 3.1 120 12:18 06.10.2019
6522 Clear 19 1016 37 16093 1.5 90 11:41 06.10.2019
6523 Clear 19 1016 37 16093 1.5 90 11:23 06.10.2019
6524 Rain 19 1016 40 16093 2.1 130 10:56 06.10.2019
6525 Rain 19 1016 40 16093 2.6 180 10:37 06.10.2019
6526 Rain 20 1017 55 16093 2.6 130 10:19 06.10.2019
6527 Rain 20 1017 55 16093 2.6 130 10:19 06.10.2019
6528 Clear 20 1016 40 16093 2.1 220 09:41 06.10.2019
6529 Clear 20 1016 40 16093 2.1 220 09:41 06.10.2019
6530 Rain 20 1017 59 16093 2.6 130 09:19 06.10.2019
6531 Rain 21 1016 35 16093 1.21 68.754 08:48 06.10.2019
6532 Rain 21 1016 35 16093 1.21 68.754 08:48 06.10.2019
6533 Rain 21 1017 56 16093 2.1 160 08:22 06.10.2019
6534 Rain 21 1016 33 16093 1.43 62.844 07:58 06.10.2019
6535 Rain 22 1016 33 16093 1.43 62.844 07:39 06.10.2019
6536 Clear 23 1015 31 16093 1.43 62.844 06:50 06.10.2019
6537 Rain 25 1015 24 16093 2.1 330 05:41 06.10.2019
6538 Rain 26 1015 22 16093 2.1 20 04:35 06.10.2019
6539 Rain 30 1015 14 16093 2.6 320 02:53 06.10.2019
6540 Rain 31 1015 13 16093 3.1 350 02:30 06.10.2019
6541 Clear 32 1015 14 16093 3.1 320 01:48 06.10.2019
6542 Rain 32 1015 14 16093 3.1 320 01:30 06.10.2019
6543 Rain 32 1015 14 16093 4.1 340 00:59 06.10.2019
6544 Rain 33 1015 14 16093 4.1 340 00:59 06.10.2019
6545 Rain 33 1015 15 16093 4.1 40 00:33 06.10.2019
6546 Rain 32 1016 16 16093 4.6 330 23:58 05.10.2019
6547 Clear 32 1016 17 16093 2.1 190 23:40 05.10.2019
6548 Clear 32 1017 25 16093 3.1 290 23:18 05.10.2019
6549 Rain 32 1016 19 16093 3.1 290 22:54 05.10.2019
6550 Rain 32 1016 19 16093 3.1 290 22:54 05.10.2019
6551 Rain 32 1017 19 16093 4.6 300 22:36 05.10.2019
6552 Rain 32 1018 28 16093 4.27 266.602 22:18 05.10.2019
6553 Rain 32 1018 19 16093 2.1 160 21:40 05.10.2019
6554 Rain 31 1019 28 16093 1.5 90 21:21 05.10.2019
6555 Rain 31 1018 22 16093 1.5 100 20:57 05.10.2019
6556 Rain 30 1019 23 16093 2.6 120 20:39 05.10.2019
6557 Rain 30 1020 32 16093 2.1 80 20:19 05.10.2019
6558 Rain 29 1019 26 16093 2.1 120 19:40 05.10.2019
6559 Rain 28 1019 26 16093 2.1 120 19:22 05.10.2019
6560 Rain 27 1019 31 16093 2.1 110 18:57 05.10.2019
6561 Rain 26 1019 36 16093 2.39 242.287 18:39 05.10.2019
6562 Rain 26 1021 41 16093 1.5 150 18:20 05.10.2019
6563 Clear 25 1019 40 16093 2.6 120 17:55 05.10.2019
6564 Clear 25 1019 40 16093 2.6 120 17:55 05.10.2019
6565 Clear 24 1019 43 16093 3.6 110 17:37 05.10.2019
6566 Rain 23 1021 49 16093 4.1 160 17:18 05.10.2019
6567 Clear 20 1019 52 16093 2.1 110 16:42 05.10.2019
6568 Clear 19 1020 63 16093 3.1 120 16:21 05.10.2019
6569 Clear 18 1018 52 16093 3.6 100 15:57 05.10.2019
6570 Clear 18 1018 52 16093 4.1 100 15:39 05.10.2019
6571 Clear 18 1018 52 16093 4.1 100 15:39 05.10.2019
6572 Clear 17 1018 52 16093 4.1 100 15:21 05.10.2019
6573 Clear 17 1018 55 16093 2.6 100 14:56 05.10.2019
6574 Clear 17 1018 59 16093 2.6 110 14:38 05.10.2019
6575 Clear 17 1019 67 16093 3.6 130 14:20 05.10.2019
6576 Clear 17 1017 52 16093 2.1 110 13:41 05.10.2019
6577 Clear 17 1017 52 16093 2.1 110 13:22 05.10.2019
6578 Clear 18 1017 52 16093 2.1 100 12:46 05.10.2019
6579 Clear 18 1017 52 16093 2.1 100 12:21 05.10.2019
6580 Clear 19 1017 43 16093 1.5 110 11:58 05.10.2019
6581 Clear 19 1017 43 16093 1.5 120 11:37 05.10.2019
6582 Clear 19 1018 55 16093 2.6 130 11:18 05.10.2019
6583 Clear 20 1017 43 16093 1.86 343.451 10:44 05.10.2019
6584 Clear 20 1017 43 16093 1.86 343.451 10:25 05.10.2019
6585 Clear 20 1016 37 16093 1.86 343.451 09:57 05.10.2019
6586 Clear 20 1016 35 16093 1.86 343.451 09:38 05.10.2019
6587 Clear 21 1018 49 16093 3.1 160 09:20 05.10.2019
6588 Clear 21 1016 38 16093 3.1 210 08:39 05.10.2019
6589 Clear 21 1016 38 16093 3.1 210 08:39 05.10.2019
6590 Clear 21 1018 56 16093 1.5 120 08:19 05.10.2019
6591 Clear 22 1016 38 16093 1.5 140 07:56 05.10.2019
6592 Clear 22 1016 35 16093 1 203.735 07:33 05.10.2019
6593 Rain 23 1015 31 16093 3.1 280 06:58 05.10.2019
6594 Clear 24 1015 31 16093 3.6 270 06:27 05.10.2019
6595 Clear 25 1015 24 16093 3.1 240 05:40 05.10.2019
6596 Rain 28 1014 21 16093 2.6 280 03:57 05.10.2019
6597 Rain 29 1013 20 16093 2.6 280 03:28 05.10.2019
6598 Rain 32 1013 18 16093 2.6 240 01:41 05.10.2019
6599 Rain 32 1015 27 16093 3.6 10 01:18 05.10.2019
6600 Clear 32 1013 17 16093 3.1 260 00:41 05.10.2019
6601 Clear 32 1015 29 16093 4.64 254.747 00:23 05.10.2019
6602 Clear 32 1014 19 16093 3.1 190 23:44 04.10.2019
6603 Clear 32 1014 19 16093 3.1 190 23:25 04.10.2019
6604 Clear 32 1014 19 16093 3.1 190 23:25 04.10.2019
6605 Clear 32 1014 19 16093 2.6 210 22:59 04.10.2019
6606 Clear 32 1015 20 16093 2.6 310 22:39 04.10.2019
6607 Clear 32 1016 30 16093 1.5 260 22:20 04.10.2019
6608 Clear 32 1016 29 16093 3.1 110 21:56 04.10.2019
6609 Clear 31 1015 22 16093 1.5 170 21:38 04.10.2019
6610 Clear 30 1017 35 16093 1.5 110 21:19 04.10.2019
6611 Rain 30 1016 26 16093 2.18 257.058 20:54 04.10.2019
6612 Rain 30 1016 26 16093 2.18 257.058 20:36 04.10.2019
6613 Rain 29 1018 37 16093 2.18 257.058 20:18 04.10.2019
6614 Clear 29 1017 28 16093 2.18 257.058 19:41 04.10.2019
6615 Rain 28 1017 28 16093 2.18 257.058 19:23 04.10.2019
6616 Rain 27 1017 30 16093 2.18 257.058 18:56 04.10.2019
6617 Rain 27 1017 34 16093 2.1 220 18:37 04.10.2019
6618 Clouds 26 1018 50 16093 0.68 180.589 18:18 04.10.2019
6619 Clouds 25 1016 47 16093 2.1 200 17:41 04.10.2019
6620 Clouds 25 1016 47 16093 2.1 200 17:41 04.10.2019
6621 Clouds 24 1016 47 16093 2.1 200 17:22 04.10.2019
6622 Clouds 23 1016 49 16093 0.68 180.589 16:59 04.10.2019
6623 Clouds 22 1016 53 16093 0.68 180.589 16:41 04.10.2019
6624 Clouds 22 1017 68 16093 0.68 180.589 16:19 04.10.2019
6625 Clouds 22 1017 68 16093 0.68 180.589 16:19 04.10.2019
6626 Clouds 22 1017 68 16093 0.68 180.589 16:19 04.10.2019
6627 Clouds 22 1015 53 16093 0.68 180.589 15:58 04.10.2019
6628 Clouds 22 1015 49 16093 0.68 180.589 15:39 04.10.2019
6629 Clouds 22 1016 68 16093 0.64 183.766 15:20 04.10.2019
6630 Rain 22 1015 49 16093 0.64 183.766 14:57 04.10.2019
6631 Rain 22 1015 46 16093 0.64 183.766 14:39 04.10.2019
6632 Rain 22 1015 46 16093 0.64 183.766 14:21 04.10.2019
6633 Clouds 22 1016 64 16093 2.1 230 13:45 04.10.2019
6634 Rain 22 1015 60 16093 2.6 200 13:22 04.10.2019
6635 Clear 22 1014 49 16093 3.1 190 12:55 04.10.2019
6636 Clouds 22 1014 49 16093 1.5 180 12:37 04.10.2019
6637 Rain 23 1015 60 16093 1.43 233.761 12:18 04.10.2019
6638 Rain 23 1014 47 16093 2.1 180 11:42 04.10.2019
6639 Rain 23 1014 47 16093 2.1 180 11:42 04.10.2019
6640 Rain 23 1014 47 16093 2.1 180 11:42 04.10.2019
6641 Rain 23 1014 47 16093 2.1 180 11:42 04.10.2019
6642 Rain 23 1014 47 16093 2.1 180 11:42 04.10.2019
6643 Rain 23 1014 47 16093 2.1 180 11:21 04.10.2019
6644 Clouds 23 1014 41 16093 1.5 190 10:42 04.10.2019
6645 Clouds 23 1014 41 16093 1.5 190 10:42 04.10.2019
6646 Clouds 23 1015 53 16093 1.5 180 10:21 04.10.2019
6647 Clouds 23 1014 40 16093 1.5 100 09:58 04.10.2019
6648 Clouds 23 1014 40 16093 1.5 100 09:58 04.10.2019
6649 Rain 23 1014 40 16093 1.43 233.761 09:40 04.10.2019
6650 Rain 24 1015 53 16093 1.5 190 09:22 04.10.2019
6651 Clouds 24 1014 36 16093 2.1 170 08:43 04.10.2019
6652 Clouds 24 1014 36 16093 2.1 170 08:43 04.10.2019
6653 Clouds 24 1014 36 16093 2.1 170 08:25 04.10.2019
6654 Clouds 24 1013 31 16093 2.1 240 07:47 04.10.2019
6655 Clouds 24 1013 31 16093 2.1 240 07:24 04.10.2019
6656 Rain 24 1013 33 16093 1.5 190 06:56 04.10.2019
6657 Rain 24 1013 33 16093 1.5 190 06:56 04.10.2019
6658 Clouds 25 1013 31 16093 2.6 120 06:37 04.10.2019
6659 Rain 25 1014 41 16093 2.6 230 06:18 04.10.2019
6660 Rain 25 1014 41 16093 2.6 230 06:18 04.10.2019
6661 Rain 26 1014 34 16093 2.6 320 05:19 04.10.2019
6662 Rain 27 1012 28 16093 2.1 360 04:35 04.10.2019
6663 Rain 30 1012 20 16093 3.6 310 02:56 04.10.2019
6664 Rain 31 1012 18 16093 3.6 310 02:37 04.10.2019
6665 Clear 32 1013 27 16093 4.35 300.989 01:43 04.10.2019
6666 Clear 32 1013 27 16093 3.46 292.542 01:25 04.10.2019
6667 Rain 33 1012 19 16093 2.6 190 00:29 04.10.2019
6668 Clear 33 1012 21 16093 2.6 280 23:38 03.10.2019
6669 Rain 33 1014 27 16093 2.6 230 23:20 03.10.2019
6670 Rain 33 1012 21 16093 2.1 220 22:57 03.10.2019
6671 Rain 33 1013 21 16093 2.1 290 22:39 03.10.2019
6672 Rain 33 1013 21 16093 2.1 290 22:21 03.10.2019
6673 Rain 32 1013 22 16093 1.5 280 21:56 03.10.2019
6674 Rain 32 1014 23 16093 4.04 257.164 21:38 03.10.2019
6675 Rain 31 1015 33 16093 2.1 270 21:19 03.10.2019
6676 Clear 30 1016 30 16093 1.82 277.34 20:57 03.10.2019
6677 Rain 30 1016 30 16093 2.12 264.158 20:37 03.10.2019
6678 Rain 30 1016 35 16093 2.12 264.158 20:19 03.10.2019
6679 Rain 29 1015 32 16093 2.12 264.158 19:55 03.10.2019
6680 Rain 28 1015 34 16093 2.12 264.158 19:36 03.10.2019
6681 Rain 28 1016 41 16093 2.6 100 19:18 03.10.2019
6682 Rain 26